<?xml version="1.0" encoding="UTF-8" standalone="no" ?>
<gpx xmlns="http://www.topografix.com/GPX/1/1" xmlns:xsi="http://www.w3.org/2001/XMLSchema-instance" xsi:schemaLocation="http://www.topografix.com/GPX/1/1 http://www.topografix.com/GPX/1/1/gpx.xsd" version="1.1" creator="VisuGPX - https://www.visugpx.com">
  <metadata>
    <name>Bois de Cessieu avec Clément</name>
  </metadata>
  <trk>
    <name><![CDATA[Bois de Cessieu avec Clément_1]]></name>
    <trkseg>
      <trkpt lat="45.58027" lon="5.28893">
        <ele>355</ele>
        <time>2021-03-07T08:20:32.418Z</time>
      </trkpt>
      <trkpt lat="45.58027" lon="5.28893">
        <ele>355</ele>
        <time>2021-03-07T08:20:33.420Z</time>
      </trkpt>
      <trkpt lat="45.58027" lon="5.28893">
        <ele>355</ele>
        <time>2021-03-07T08:20:34.420Z</time>
      </trkpt>
      <trkpt lat="45.58027" lon="5.28893">
        <ele>355</ele>
        <time>2021-03-07T08:20:35.420Z</time>
      </trkpt>
      <trkpt lat="45.58027" lon="5.28893">
        <ele>355</ele>
        <time>2021-03-07T08:20:36.420Z</time>
      </trkpt>
      <trkpt lat="45.58027" lon="5.28893">
        <ele>355</ele>
        <time>2021-03-07T08:20:37.420Z</time>
      </trkpt>
      <trkpt lat="45.58027" lon="5.28893">
        <ele>355</ele>
        <time>2021-03-07T08:20:38.420Z</time>
      </trkpt>
      <trkpt lat="45.58027" lon="5.28893">
        <ele>355</ele>
        <time>2021-03-07T08:20:39.420Z</time>
      </trkpt>
      <trkpt lat="45.58027" lon="5.28893">
        <ele>355</ele>
        <time>2021-03-07T08:20:40.421Z</time>
      </trkpt>
      <trkpt lat="45.58027" lon="5.28893">
        <ele>355</ele>
        <time>2021-03-07T08:20:41.420Z</time>
      </trkpt>
      <trkpt lat="45.58027" lon="5.28893">
        <ele>355</ele>
        <time>2021-03-07T08:20:42.420Z</time>
      </trkpt>
      <trkpt lat="45.58027" lon="5.28893">
        <ele>355</ele>
        <time>2021-03-07T08:20:43.420Z</time>
      </trkpt>
      <trkpt lat="45.58027" lon="5.28893">
        <ele>355</ele>
        <time>2021-03-07T08:20:44.420Z</time>
      </trkpt>
      <trkpt lat="45.58027" lon="5.28893">
        <ele>355</ele>
        <time>2021-03-07T08:20:45.420Z</time>
      </trkpt>
      <trkpt lat="45.58027" lon="5.28893">
        <ele>355</ele>
        <time>2021-03-07T08:20:46.421Z</time>
      </trkpt>
      <trkpt lat="45.58027" lon="5.28893">
        <ele>355</ele>
        <time>2021-03-07T08:20:47.421Z</time>
      </trkpt>
      <trkpt lat="45.58027" lon="5.28893">
        <ele>355</ele>
        <time>2021-03-07T08:20:48.421Z</time>
      </trkpt>
      <trkpt lat="45.58027" lon="5.28893">
        <ele>355</ele>
        <time>2021-03-07T08:20:49.420Z</time>
      </trkpt>
      <trkpt lat="45.58026" lon="5.28893">
        <ele>355</ele>
        <time>2021-03-07T08:20:50.421Z</time>
      </trkpt>
      <trkpt lat="45.58025" lon="5.28893">
        <ele>355</ele>
        <time>2021-03-07T08:20:51.420Z</time>
      </trkpt>
      <trkpt lat="45.58024" lon="5.28894">
        <ele>354</ele>
        <time>2021-03-07T08:20:52.420Z</time>
      </trkpt>
      <trkpt lat="45.58024" lon="5.28894">
        <ele>354</ele>
        <time>2021-03-07T08:20:53.420Z</time>
      </trkpt>
      <trkpt lat="45.58024" lon="5.28894">
        <ele>354</ele>
        <time>2021-03-07T08:20:54.420Z</time>
      </trkpt>
      <trkpt lat="45.58023" lon="5.28895">
        <ele>354</ele>
        <time>2021-03-07T08:20:55.421Z</time>
      </trkpt>
      <trkpt lat="45.58022" lon="5.28895">
        <ele>353</ele>
        <time>2021-03-07T08:20:56.420Z</time>
      </trkpt>
      <trkpt lat="45.58021" lon="5.28896">
        <ele>353</ele>
        <time>2021-03-07T08:20:57.421Z</time>
      </trkpt>
      <trkpt lat="45.5802" lon="5.28896">
        <ele>352</ele>
        <time>2021-03-07T08:20:58.420Z</time>
      </trkpt>
      <trkpt lat="45.5802" lon="5.28896">
        <ele>351</ele>
        <time>2021-03-07T08:20:59.420Z</time>
      </trkpt>
      <trkpt lat="45.5802" lon="5.28896">
        <ele>350</ele>
        <time>2021-03-07T08:21:00.420Z</time>
      </trkpt>
      <trkpt lat="45.5802" lon="5.28896">
        <ele>349</ele>
        <time>2021-03-07T08:21:01.420Z</time>
      </trkpt>
      <trkpt lat="45.5802" lon="5.28896">
        <ele>349</ele>
        <time>2021-03-07T08:21:02.421Z</time>
      </trkpt>
      <trkpt lat="45.5802" lon="5.28896">
        <ele>348</ele>
        <time>2021-03-07T08:21:03.421Z</time>
      </trkpt>
      <trkpt lat="45.5802" lon="5.28896">
        <ele>348</ele>
        <time>2021-03-07T08:21:04.420Z</time>
      </trkpt>
      <trkpt lat="45.5802" lon="5.28896">
        <ele>347</ele>
        <time>2021-03-07T08:21:05.420Z</time>
      </trkpt>
      <trkpt lat="45.5802" lon="5.28896">
        <ele>347</ele>
        <time>2021-03-07T08:21:06.420Z</time>
      </trkpt>
      <trkpt lat="45.5802" lon="5.28896">
        <ele>346</ele>
        <time>2021-03-07T08:21:07.421Z</time>
      </trkpt>
      <trkpt lat="45.5802" lon="5.28896">
        <ele>346</ele>
        <time>2021-03-07T08:21:08.420Z</time>
      </trkpt>
      <trkpt lat="45.5802" lon="5.28896">
        <ele>345</ele>
        <time>2021-03-07T08:21:09.420Z</time>
      </trkpt>
      <trkpt lat="45.5802" lon="5.28896">
        <ele>345</ele>
        <time>2021-03-07T08:21:10.420Z</time>
      </trkpt>
      <trkpt lat="45.58018" lon="5.28898">
        <ele>345</ele>
        <time>2021-03-07T08:21:11.420Z</time>
      </trkpt>
      <trkpt lat="45.58017" lon="5.28901">
        <ele>345</ele>
        <time>2021-03-07T08:21:12.421Z</time>
      </trkpt>
      <trkpt lat="45.58014" lon="5.28905">
        <ele>344</ele>
        <time>2021-03-07T08:21:13.421Z</time>
      </trkpt>
      <trkpt lat="45.58011" lon="5.28907">
        <ele>344</ele>
        <time>2021-03-07T08:21:14.420Z</time>
      </trkpt>
      <trkpt lat="45.58011" lon="5.28907">
        <ele>344</ele>
        <time>2021-03-07T08:21:15.421Z</time>
      </trkpt>
      <trkpt lat="45.58009" lon="5.28909">
        <ele>343</ele>
        <time>2021-03-07T08:21:16.420Z</time>
      </trkpt>
      <trkpt lat="45.58007" lon="5.28911">
        <ele>343</ele>
        <time>2021-03-07T08:21:17.421Z</time>
      </trkpt>
      <trkpt lat="45.58005" lon="5.28912">
        <ele>343</ele>
        <time>2021-03-07T08:21:18.420Z</time>
      </trkpt>
      <trkpt lat="45.58" lon="5.28916">
        <ele>343</ele>
        <time>2021-03-07T08:21:19.420Z</time>
      </trkpt>
      <trkpt lat="45.58" lon="5.28916">
        <ele>343</ele>
        <time>2021-03-07T08:21:20.420Z</time>
      </trkpt>
      <trkpt lat="45.57997" lon="5.28918">
        <ele>343</ele>
        <time>2021-03-07T08:21:21.420Z</time>
      </trkpt>
      <trkpt lat="45.57995" lon="5.2892">
        <ele>343</ele>
        <time>2021-03-07T08:21:22.420Z</time>
      </trkpt>
      <trkpt lat="45.57991" lon="5.28923">
        <ele>344</ele>
        <time>2021-03-07T08:21:23.420Z</time>
      </trkpt>
      <trkpt lat="45.57991" lon="5.28923">
        <ele>344</ele>
        <time>2021-03-07T08:21:24.420Z</time>
      </trkpt>
      <trkpt lat="45.57988" lon="5.28925">
        <ele>344</ele>
        <time>2021-03-07T08:21:25.420Z</time>
      </trkpt>
      <trkpt lat="45.57986" lon="5.28927">
        <ele>344</ele>
        <time>2021-03-07T08:21:26.421Z</time>
      </trkpt>
      <trkpt lat="45.57983" lon="5.28929">
        <ele>344</ele>
        <time>2021-03-07T08:21:27.420Z</time>
      </trkpt>
      <trkpt lat="45.57978" lon="5.28933">
        <ele>344</ele>
        <time>2021-03-07T08:21:28.420Z</time>
      </trkpt>
      <trkpt lat="45.57975" lon="5.28936">
        <ele>345</ele>
        <time>2021-03-07T08:21:29.420Z</time>
      </trkpt>
      <trkpt lat="45.57975" lon="5.28936">
        <ele>345</ele>
        <time>2021-03-07T08:21:30.420Z</time>
      </trkpt>
      <trkpt lat="45.57973" lon="5.28937">
        <ele>345</ele>
        <time>2021-03-07T08:21:31.420Z</time>
      </trkpt>
      <trkpt lat="45.57971" lon="5.2894">
        <ele>346</ele>
        <time>2021-03-07T08:21:32.421Z</time>
      </trkpt>
      <trkpt lat="45.57967" lon="5.28943">
        <ele>347</ele>
        <time>2021-03-07T08:21:33.420Z</time>
      </trkpt>
      <trkpt lat="45.57963" lon="5.28947">
        <ele>347</ele>
        <time>2021-03-07T08:21:34.420Z</time>
      </trkpt>
      <trkpt lat="45.57959" lon="5.28951">
        <ele>348</ele>
        <time>2021-03-07T08:21:35.420Z</time>
      </trkpt>
      <trkpt lat="45.57956" lon="5.28955">
        <ele>348</ele>
        <time>2021-03-07T08:21:36.420Z</time>
      </trkpt>
      <trkpt lat="45.57953" lon="5.28958">
        <ele>348</ele>
        <time>2021-03-07T08:21:37.420Z</time>
      </trkpt>
      <trkpt lat="45.5795" lon="5.28961">
        <ele>348</ele>
        <time>2021-03-07T08:21:38.421Z</time>
      </trkpt>
      <trkpt lat="45.57947" lon="5.28964">
        <ele>348</ele>
        <time>2021-03-07T08:21:39.420Z</time>
      </trkpt>
      <trkpt lat="45.57944" lon="5.28967">
        <ele>348</ele>
        <time>2021-03-07T08:21:40.420Z</time>
      </trkpt>
      <trkpt lat="45.57941" lon="5.2897">
        <ele>348</ele>
        <time>2021-03-07T08:21:41.421Z</time>
      </trkpt>
      <trkpt lat="45.57939" lon="5.28974">
        <ele>348</ele>
        <time>2021-03-07T08:21:42.420Z</time>
      </trkpt>
      <trkpt lat="45.57936" lon="5.28978">
        <ele>348</ele>
        <time>2021-03-07T08:21:43.420Z</time>
      </trkpt>
      <trkpt lat="45.57933" lon="5.28982">
        <ele>348</ele>
        <time>2021-03-07T08:21:44.420Z</time>
      </trkpt>
      <trkpt lat="45.57929" lon="5.28986">
        <ele>348</ele>
        <time>2021-03-07T08:21:45.421Z</time>
      </trkpt>
      <trkpt lat="45.57926" lon="5.2899">
        <ele>348</ele>
        <time>2021-03-07T08:21:46.421Z</time>
      </trkpt>
      <trkpt lat="45.57923" lon="5.28993">
        <ele>348</ele>
        <time>2021-03-07T08:21:47.420Z</time>
      </trkpt>
      <trkpt lat="45.5792" lon="5.28996">
        <ele>348</ele>
        <time>2021-03-07T08:21:48.420Z</time>
      </trkpt>
      <trkpt lat="45.57917" lon="5.29">
        <ele>349</ele>
        <time>2021-03-07T08:21:49.421Z</time>
      </trkpt>
      <trkpt lat="45.57914" lon="5.29003">
        <ele>349</ele>
        <time>2021-03-07T08:21:50.420Z</time>
      </trkpt>
      <trkpt lat="45.57911" lon="5.29007">
        <ele>349</ele>
        <time>2021-03-07T08:21:51.420Z</time>
      </trkpt>
      <trkpt lat="45.57908" lon="5.29011">
        <ele>350</ele>
        <time>2021-03-07T08:21:52.420Z</time>
      </trkpt>
      <trkpt lat="45.57904" lon="5.29016">
        <ele>349</ele>
        <time>2021-03-07T08:21:53.420Z</time>
      </trkpt>
      <trkpt lat="45.57902" lon="5.29019">
        <ele>349</ele>
        <time>2021-03-07T08:21:54.420Z</time>
      </trkpt>
      <trkpt lat="45.57899" lon="5.29023">
        <ele>349</ele>
        <time>2021-03-07T08:21:55.420Z</time>
      </trkpt>
      <trkpt lat="45.57896" lon="5.29027">
        <ele>349</ele>
        <time>2021-03-07T08:21:56.420Z</time>
      </trkpt>
      <trkpt lat="45.57893" lon="5.29031">
        <ele>349</ele>
        <time>2021-03-07T08:21:57.420Z</time>
      </trkpt>
      <trkpt lat="45.57889" lon="5.29034">
        <ele>349</ele>
        <time>2021-03-07T08:21:58.421Z</time>
      </trkpt>
      <trkpt lat="45.57886" lon="5.29038">
        <ele>349</ele>
        <time>2021-03-07T08:21:59.420Z</time>
      </trkpt>
      <trkpt lat="45.57883" lon="5.29042">
        <ele>349</ele>
        <time>2021-03-07T08:22:00.421Z</time>
      </trkpt>
      <trkpt lat="45.5788" lon="5.29046">
        <ele>349</ele>
        <time>2021-03-07T08:22:01.420Z</time>
      </trkpt>
      <trkpt lat="45.57877" lon="5.2905">
        <ele>349</ele>
        <time>2021-03-07T08:22:02.420Z</time>
      </trkpt>
      <trkpt lat="45.57874" lon="5.29054">
        <ele>349</ele>
        <time>2021-03-07T08:22:03.421Z</time>
      </trkpt>
      <trkpt lat="45.57871" lon="5.29057">
        <ele>349</ele>
        <time>2021-03-07T08:22:04.420Z</time>
      </trkpt>
      <trkpt lat="45.57867" lon="5.29061">
        <ele>349</ele>
        <time>2021-03-07T08:22:05.420Z</time>
      </trkpt>
      <trkpt lat="45.57864" lon="5.29065">
        <ele>349</ele>
        <time>2021-03-07T08:22:06.420Z</time>
      </trkpt>
      <trkpt lat="45.57861" lon="5.29069">
        <ele>349</ele>
        <time>2021-03-07T08:22:07.421Z</time>
      </trkpt>
      <trkpt lat="45.57858" lon="5.29073">
        <ele>349</ele>
        <time>2021-03-07T08:22:08.421Z</time>
      </trkpt>
      <trkpt lat="45.57854" lon="5.29077">
        <ele>349</ele>
        <time>2021-03-07T08:22:09.420Z</time>
      </trkpt>
      <trkpt lat="45.57851" lon="5.29081">
        <ele>349</ele>
        <time>2021-03-07T08:22:10.420Z</time>
      </trkpt>
      <trkpt lat="45.57848" lon="5.29085">
        <ele>349</ele>
        <time>2021-03-07T08:22:11.420Z</time>
      </trkpt>
      <trkpt lat="45.57844" lon="5.29089">
        <ele>349</ele>
        <time>2021-03-07T08:22:12.420Z</time>
      </trkpt>
      <trkpt lat="45.57841" lon="5.29093">
        <ele>349</ele>
        <time>2021-03-07T08:22:13.420Z</time>
      </trkpt>
      <trkpt lat="45.57837" lon="5.29097">
        <ele>349</ele>
        <time>2021-03-07T08:22:14.420Z</time>
      </trkpt>
      <trkpt lat="45.57834" lon="5.29102">
        <ele>349</ele>
        <time>2021-03-07T08:22:15.420Z</time>
      </trkpt>
      <trkpt lat="45.5783" lon="5.29106">
        <ele>349</ele>
        <time>2021-03-07T08:22:16.420Z</time>
      </trkpt>
      <trkpt lat="45.57827" lon="5.29111">
        <ele>349</ele>
        <time>2021-03-07T08:22:17.420Z</time>
      </trkpt>
      <trkpt lat="45.57823" lon="5.29115">
        <ele>349</ele>
        <time>2021-03-07T08:22:18.421Z</time>
      </trkpt>
      <trkpt lat="45.5782" lon="5.29119">
        <ele>349</ele>
        <time>2021-03-07T08:22:19.420Z</time>
      </trkpt>
      <trkpt lat="45.57817" lon="5.29124">
        <ele>349</ele>
        <time>2021-03-07T08:22:20.420Z</time>
      </trkpt>
      <trkpt lat="45.57813" lon="5.29128">
        <ele>349</ele>
        <time>2021-03-07T08:22:21.420Z</time>
      </trkpt>
      <trkpt lat="45.5781" lon="5.29133">
        <ele>349</ele>
        <time>2021-03-07T08:22:22.420Z</time>
      </trkpt>
      <trkpt lat="45.57807" lon="5.29137">
        <ele>348</ele>
        <time>2021-03-07T08:22:23.420Z</time>
      </trkpt>
      <trkpt lat="45.57803" lon="5.29142">
        <ele>348</ele>
        <time>2021-03-07T08:22:24.420Z</time>
      </trkpt>
      <trkpt lat="45.578" lon="5.29147">
        <ele>348</ele>
        <time>2021-03-07T08:22:25.420Z</time>
      </trkpt>
      <trkpt lat="45.57797" lon="5.29152">
        <ele>348</ele>
        <time>2021-03-07T08:22:26.421Z</time>
      </trkpt>
      <trkpt lat="45.57793" lon="5.29157">
        <ele>349</ele>
        <time>2021-03-07T08:22:27.420Z</time>
      </trkpt>
      <trkpt lat="45.5779" lon="5.29162">
        <ele>349</ele>
        <time>2021-03-07T08:22:28.421Z</time>
      </trkpt>
      <trkpt lat="45.57787" lon="5.29168">
        <ele>349</ele>
        <time>2021-03-07T08:22:29.420Z</time>
      </trkpt>
      <trkpt lat="45.57784" lon="5.29174">
        <ele>348</ele>
        <time>2021-03-07T08:22:30.421Z</time>
      </trkpt>
      <trkpt lat="45.57781" lon="5.2918">
        <ele>348</ele>
        <time>2021-03-07T08:22:31.421Z</time>
      </trkpt>
      <trkpt lat="45.57778" lon="5.29186">
        <ele>348</ele>
        <time>2021-03-07T08:22:32.420Z</time>
      </trkpt>
      <trkpt lat="45.57775" lon="5.29192">
        <ele>348</ele>
        <time>2021-03-07T08:22:33.421Z</time>
      </trkpt>
      <trkpt lat="45.57773" lon="5.29198">
        <ele>348</ele>
        <time>2021-03-07T08:22:34.421Z</time>
      </trkpt>
      <trkpt lat="45.5777" lon="5.29205">
        <ele>348</ele>
        <time>2021-03-07T08:22:35.420Z</time>
      </trkpt>
      <trkpt lat="45.57767" lon="5.29211">
        <ele>348</ele>
        <time>2021-03-07T08:22:36.420Z</time>
      </trkpt>
      <trkpt lat="45.57765" lon="5.29217">
        <ele>348</ele>
        <time>2021-03-07T08:22:37.420Z</time>
      </trkpt>
      <trkpt lat="45.57762" lon="5.29223">
        <ele>349</ele>
        <time>2021-03-07T08:22:38.420Z</time>
      </trkpt>
      <trkpt lat="45.5776" lon="5.29229">
        <ele>349</ele>
        <time>2021-03-07T08:22:39.420Z</time>
      </trkpt>
      <trkpt lat="45.57757" lon="5.29236">
        <ele>349</ele>
        <time>2021-03-07T08:22:40.420Z</time>
      </trkpt>
      <trkpt lat="45.57755" lon="5.29242">
        <ele>349</ele>
        <time>2021-03-07T08:22:41.420Z</time>
      </trkpt>
      <trkpt lat="45.57752" lon="5.29248">
        <ele>348</ele>
        <time>2021-03-07T08:22:42.420Z</time>
      </trkpt>
      <trkpt lat="45.5775" lon="5.29255">
        <ele>348</ele>
        <time>2021-03-07T08:22:43.421Z</time>
      </trkpt>
      <trkpt lat="45.57748" lon="5.29262">
        <ele>348</ele>
        <time>2021-03-07T08:22:44.421Z</time>
      </trkpt>
      <trkpt lat="45.57746" lon="5.29268">
        <ele>348</ele>
        <time>2021-03-07T08:22:45.420Z</time>
      </trkpt>
      <trkpt lat="45.57744" lon="5.29275">
        <ele>348</ele>
        <time>2021-03-07T08:22:46.420Z</time>
      </trkpt>
      <trkpt lat="45.57742" lon="5.29282">
        <ele>348</ele>
        <time>2021-03-07T08:22:47.420Z</time>
      </trkpt>
      <trkpt lat="45.57741" lon="5.29289">
        <ele>348</ele>
        <time>2021-03-07T08:22:48.420Z</time>
      </trkpt>
      <trkpt lat="45.5774" lon="5.29296">
        <ele>348</ele>
        <time>2021-03-07T08:22:49.421Z</time>
      </trkpt>
      <trkpt lat="45.57738" lon="5.29303">
        <ele>348</ele>
        <time>2021-03-07T08:22:50.420Z</time>
      </trkpt>
      <trkpt lat="45.57737" lon="5.2931">
        <ele>348</ele>
        <time>2021-03-07T08:22:51.420Z</time>
      </trkpt>
      <trkpt lat="45.57736" lon="5.29317">
        <ele>348</ele>
        <time>2021-03-07T08:22:52.420Z</time>
      </trkpt>
      <trkpt lat="45.57734" lon="5.29325">
        <ele>348</ele>
        <time>2021-03-07T08:22:53.420Z</time>
      </trkpt>
      <trkpt lat="45.57733" lon="5.29332">
        <ele>348</ele>
        <time>2021-03-07T08:22:54.420Z</time>
      </trkpt>
      <trkpt lat="45.57732" lon="5.29339">
        <ele>348</ele>
        <time>2021-03-07T08:22:55.420Z</time>
      </trkpt>
      <trkpt lat="45.57731" lon="5.29346">
        <ele>347</ele>
        <time>2021-03-07T08:22:56.420Z</time>
      </trkpt>
      <trkpt lat="45.57729" lon="5.29354">
        <ele>347</ele>
        <time>2021-03-07T08:22:57.420Z</time>
      </trkpt>
      <trkpt lat="45.57728" lon="5.29361">
        <ele>347</ele>
        <time>2021-03-07T08:22:58.420Z</time>
      </trkpt>
      <trkpt lat="45.57727" lon="5.29368">
        <ele>347</ele>
        <time>2021-03-07T08:22:59.420Z</time>
      </trkpt>
      <trkpt lat="45.57725" lon="5.29375">
        <ele>347</ele>
        <time>2021-03-07T08:23:00.420Z</time>
      </trkpt>
      <trkpt lat="45.57724" lon="5.29382">
        <ele>348</ele>
        <time>2021-03-07T08:23:01.420Z</time>
      </trkpt>
      <trkpt lat="45.57723" lon="5.29388">
        <ele>348</ele>
        <time>2021-03-07T08:23:02.420Z</time>
      </trkpt>
      <trkpt lat="45.57722" lon="5.29392">
        <ele>349</ele>
        <time>2021-03-07T08:23:03.420Z</time>
      </trkpt>
      <trkpt lat="45.5772" lon="5.29396">
        <ele>349</ele>
        <time>2021-03-07T08:23:04.420Z</time>
      </trkpt>
      <trkpt lat="45.57718" lon="5.29397">
        <ele>349</ele>
        <time>2021-03-07T08:23:05.420Z</time>
      </trkpt>
      <trkpt lat="45.57714" lon="5.29398">
        <ele>349</ele>
        <time>2021-03-07T08:23:06.421Z</time>
      </trkpt>
      <trkpt lat="45.57711" lon="5.29397">
        <ele>349</ele>
        <time>2021-03-07T08:23:07.421Z</time>
      </trkpt>
      <trkpt lat="45.57707" lon="5.29395">
        <ele>349</ele>
        <time>2021-03-07T08:23:08.420Z</time>
      </trkpt>
      <trkpt lat="45.57703" lon="5.29393">
        <ele>349</ele>
        <time>2021-03-07T08:23:09.420Z</time>
      </trkpt>
      <trkpt lat="45.577" lon="5.2939">
        <ele>349</ele>
        <time>2021-03-07T08:23:10.420Z</time>
      </trkpt>
      <trkpt lat="45.57696" lon="5.29388">
        <ele>349</ele>
        <time>2021-03-07T08:23:11.420Z</time>
      </trkpt>
      <trkpt lat="45.57692" lon="5.29386">
        <ele>349</ele>
        <time>2021-03-07T08:23:12.420Z</time>
      </trkpt>
      <trkpt lat="45.57688" lon="5.29384">
        <ele>349</ele>
        <time>2021-03-07T08:23:13.420Z</time>
      </trkpt>
      <trkpt lat="45.57685" lon="5.29382">
        <ele>349</ele>
        <time>2021-03-07T08:23:14.420Z</time>
      </trkpt>
      <trkpt lat="45.57681" lon="5.29379">
        <ele>349</ele>
        <time>2021-03-07T08:23:15.420Z</time>
      </trkpt>
      <trkpt lat="45.57678" lon="5.29377">
        <ele>350</ele>
        <time>2021-03-07T08:23:16.420Z</time>
      </trkpt>
      <trkpt lat="45.57674" lon="5.29375">
        <ele>350</ele>
        <time>2021-03-07T08:23:17.420Z</time>
      </trkpt>
      <trkpt lat="45.57671" lon="5.29372">
        <ele>350</ele>
        <time>2021-03-07T08:23:18.421Z</time>
      </trkpt>
      <trkpt lat="45.57668" lon="5.29371">
        <ele>350</ele>
        <time>2021-03-07T08:23:19.420Z</time>
      </trkpt>
      <trkpt lat="45.57664" lon="5.29369">
        <ele>350</ele>
        <time>2021-03-07T08:23:20.420Z</time>
      </trkpt>
      <trkpt lat="45.57661" lon="5.29367">
        <ele>350</ele>
        <time>2021-03-07T08:23:21.420Z</time>
      </trkpt>
      <trkpt lat="45.57657" lon="5.29366">
        <ele>351</ele>
        <time>2021-03-07T08:23:22.420Z</time>
      </trkpt>
      <trkpt lat="45.57654" lon="5.29364">
        <ele>351</ele>
        <time>2021-03-07T08:23:23.421Z</time>
      </trkpt>
      <trkpt lat="45.5765" lon="5.29362">
        <ele>352</ele>
        <time>2021-03-07T08:23:24.420Z</time>
      </trkpt>
      <trkpt lat="45.57646" lon="5.2936">
        <ele>352</ele>
        <time>2021-03-07T08:23:25.420Z</time>
      </trkpt>
      <trkpt lat="45.57643" lon="5.29358">
        <ele>353</ele>
        <time>2021-03-07T08:23:26.420Z</time>
      </trkpt>
      <trkpt lat="45.57639" lon="5.29357">
        <ele>354</ele>
        <time>2021-03-07T08:23:27.421Z</time>
      </trkpt>
      <trkpt lat="45.57636" lon="5.29355">
        <ele>354</ele>
        <time>2021-03-07T08:23:28.420Z</time>
      </trkpt>
      <trkpt lat="45.57632" lon="5.29353">
        <ele>355</ele>
        <time>2021-03-07T08:23:29.421Z</time>
      </trkpt>
      <trkpt lat="45.57629" lon="5.2935">
        <ele>355</ele>
        <time>2021-03-07T08:23:30.421Z</time>
      </trkpt>
      <trkpt lat="45.57626" lon="5.29348">
        <ele>356</ele>
        <time>2021-03-07T08:23:31.421Z</time>
      </trkpt>
      <trkpt lat="45.57623" lon="5.29345">
        <ele>356</ele>
        <time>2021-03-07T08:23:32.420Z</time>
      </trkpt>
      <trkpt lat="45.5762" lon="5.29341">
        <ele>357</ele>
        <time>2021-03-07T08:23:33.421Z</time>
      </trkpt>
      <trkpt lat="45.57618" lon="5.29338">
        <ele>357</ele>
        <time>2021-03-07T08:23:34.420Z</time>
      </trkpt>
      <trkpt lat="45.57615" lon="5.29335">
        <ele>358</ele>
        <time>2021-03-07T08:23:35.420Z</time>
      </trkpt>
      <trkpt lat="45.57612" lon="5.29331">
        <ele>358</ele>
        <time>2021-03-07T08:23:36.420Z</time>
      </trkpt>
      <trkpt lat="45.5761" lon="5.29328">
        <ele>358</ele>
        <time>2021-03-07T08:23:37.420Z</time>
      </trkpt>
      <trkpt lat="45.57607" lon="5.29325">
        <ele>358</ele>
        <time>2021-03-07T08:23:38.420Z</time>
      </trkpt>
      <trkpt lat="45.57605" lon="5.29322">
        <ele>358</ele>
        <time>2021-03-07T08:23:39.420Z</time>
      </trkpt>
      <trkpt lat="45.57603" lon="5.29318">
        <ele>358</ele>
        <time>2021-03-07T08:23:40.420Z</time>
      </trkpt>
      <trkpt lat="45.576" lon="5.29315">
        <ele>359</ele>
        <time>2021-03-07T08:23:41.420Z</time>
      </trkpt>
      <trkpt lat="45.57598" lon="5.29312">
        <ele>359</ele>
        <time>2021-03-07T08:23:42.421Z</time>
      </trkpt>
      <trkpt lat="45.57595" lon="5.2931">
        <ele>359</ele>
        <time>2021-03-07T08:23:43.420Z</time>
      </trkpt>
      <trkpt lat="45.57592" lon="5.29307">
        <ele>360</ele>
        <time>2021-03-07T08:23:44.420Z</time>
      </trkpt>
      <trkpt lat="45.5759" lon="5.29304">
        <ele>360</ele>
        <time>2021-03-07T08:23:45.420Z</time>
      </trkpt>
      <trkpt lat="45.57587" lon="5.293">
        <ele>360</ele>
        <time>2021-03-07T08:23:46.421Z</time>
      </trkpt>
      <trkpt lat="45.57584" lon="5.29297">
        <ele>360</ele>
        <time>2021-03-07T08:23:47.420Z</time>
      </trkpt>
      <trkpt lat="45.57581" lon="5.29294">
        <ele>360</ele>
        <time>2021-03-07T08:23:48.421Z</time>
      </trkpt>
      <trkpt lat="45.57578" lon="5.29291">
        <ele>360</ele>
        <time>2021-03-07T08:23:49.420Z</time>
      </trkpt>
      <trkpt lat="45.57574" lon="5.29287">
        <ele>361</ele>
        <time>2021-03-07T08:23:50.420Z</time>
      </trkpt>
      <trkpt lat="45.57571" lon="5.29283">
        <ele>361</ele>
        <time>2021-03-07T08:23:51.421Z</time>
      </trkpt>
      <trkpt lat="45.57568" lon="5.29278">
        <ele>361</ele>
        <time>2021-03-07T08:23:52.420Z</time>
      </trkpt>
      <trkpt lat="45.57565" lon="5.29275">
        <ele>362</ele>
        <time>2021-03-07T08:23:53.420Z</time>
      </trkpt>
      <trkpt lat="45.57562" lon="5.2927">
        <ele>362</ele>
        <time>2021-03-07T08:23:54.420Z</time>
      </trkpt>
      <trkpt lat="45.5756" lon="5.29265">
        <ele>362</ele>
        <time>2021-03-07T08:23:55.420Z</time>
      </trkpt>
      <trkpt lat="45.57558" lon="5.29261">
        <ele>362</ele>
        <time>2021-03-07T08:23:56.420Z</time>
      </trkpt>
      <trkpt lat="45.57555" lon="5.29256">
        <ele>363</ele>
        <time>2021-03-07T08:23:57.421Z</time>
      </trkpt>
      <trkpt lat="45.57553" lon="5.29251">
        <ele>363</ele>
        <time>2021-03-07T08:23:58.420Z</time>
      </trkpt>
      <trkpt lat="45.5755" lon="5.29247">
        <ele>363</ele>
        <time>2021-03-07T08:23:59.420Z</time>
      </trkpt>
      <trkpt lat="45.57547" lon="5.29244">
        <ele>363</ele>
        <time>2021-03-07T08:24:00.421Z</time>
      </trkpt>
      <trkpt lat="45.57543" lon="5.29241">
        <ele>363</ele>
        <time>2021-03-07T08:24:01.420Z</time>
      </trkpt>
      <trkpt lat="45.5754" lon="5.29239">
        <ele>363</ele>
        <time>2021-03-07T08:24:02.420Z</time>
      </trkpt>
      <trkpt lat="45.57536" lon="5.29236">
        <ele>362</ele>
        <time>2021-03-07T08:24:03.421Z</time>
      </trkpt>
      <trkpt lat="45.57532" lon="5.29235">
        <ele>362</ele>
        <time>2021-03-07T08:24:04.420Z</time>
      </trkpt>
      <trkpt lat="45.57527" lon="5.29234">
        <ele>362</ele>
        <time>2021-03-07T08:24:05.420Z</time>
      </trkpt>
      <trkpt lat="45.57523" lon="5.29234">
        <ele>362</ele>
        <time>2021-03-07T08:24:06.420Z</time>
      </trkpt>
      <trkpt lat="45.57518" lon="5.29235">
        <ele>362</ele>
        <time>2021-03-07T08:24:07.420Z</time>
      </trkpt>
      <trkpt lat="45.57513" lon="5.29236">
        <ele>362</ele>
        <time>2021-03-07T08:24:08.420Z</time>
      </trkpt>
      <trkpt lat="45.57509" lon="5.29237">
        <ele>361</ele>
        <time>2021-03-07T08:24:09.420Z</time>
      </trkpt>
      <trkpt lat="45.57506" lon="5.29239">
        <ele>361</ele>
        <time>2021-03-07T08:24:10.421Z</time>
      </trkpt>
      <trkpt lat="45.57502" lon="5.2924">
        <ele>361</ele>
        <time>2021-03-07T08:24:11.421Z</time>
      </trkpt>
      <trkpt lat="45.57498" lon="5.29242">
        <ele>361</ele>
        <time>2021-03-07T08:24:12.421Z</time>
      </trkpt>
      <trkpt lat="45.57494" lon="5.29244">
        <ele>361</ele>
        <time>2021-03-07T08:24:13.420Z</time>
      </trkpt>
      <trkpt lat="45.5749" lon="5.29246">
        <ele>361</ele>
        <time>2021-03-07T08:24:14.421Z</time>
      </trkpt>
      <trkpt lat="45.57485" lon="5.29248">
        <ele>361</ele>
        <time>2021-03-07T08:24:15.421Z</time>
      </trkpt>
      <trkpt lat="45.57479" lon="5.29251">
        <ele>361</ele>
        <time>2021-03-07T08:24:16.420Z</time>
      </trkpt>
      <trkpt lat="45.57474" lon="5.29253">
        <ele>361</ele>
        <time>2021-03-07T08:24:17.420Z</time>
      </trkpt>
      <trkpt lat="45.57467" lon="5.29254">
        <ele>361</ele>
        <time>2021-03-07T08:24:18.421Z</time>
      </trkpt>
      <trkpt lat="45.57461" lon="5.29256">
        <ele>361</ele>
        <time>2021-03-07T08:24:19.420Z</time>
      </trkpt>
      <trkpt lat="45.57454" lon="5.29258">
        <ele>361</ele>
        <time>2021-03-07T08:24:20.420Z</time>
      </trkpt>
      <trkpt lat="45.57448" lon="5.29259">
        <ele>361</ele>
        <time>2021-03-07T08:24:21.421Z</time>
      </trkpt>
      <trkpt lat="45.57441" lon="5.29262">
        <ele>361</ele>
        <time>2021-03-07T08:24:22.421Z</time>
      </trkpt>
      <trkpt lat="45.57434" lon="5.29265">
        <ele>360</ele>
        <time>2021-03-07T08:24:23.420Z</time>
      </trkpt>
      <trkpt lat="45.57428" lon="5.29268">
        <ele>360</ele>
        <time>2021-03-07T08:24:24.421Z</time>
      </trkpt>
      <trkpt lat="45.57422" lon="5.29271">
        <ele>359</ele>
        <time>2021-03-07T08:24:25.420Z</time>
      </trkpt>
      <trkpt lat="45.57416" lon="5.29275">
        <ele>359</ele>
        <time>2021-03-07T08:24:26.420Z</time>
      </trkpt>
      <trkpt lat="45.5741" lon="5.29278">
        <ele>358</ele>
        <time>2021-03-07T08:24:27.421Z</time>
      </trkpt>
      <trkpt lat="45.57403" lon="5.29282">
        <ele>358</ele>
        <time>2021-03-07T08:24:28.420Z</time>
      </trkpt>
      <trkpt lat="45.57397" lon="5.29286">
        <ele>358</ele>
        <time>2021-03-07T08:24:29.420Z</time>
      </trkpt>
      <trkpt lat="45.5739" lon="5.29289">
        <ele>357</ele>
        <time>2021-03-07T08:24:30.420Z</time>
      </trkpt>
      <trkpt lat="45.57383" lon="5.29292">
        <ele>357</ele>
        <time>2021-03-07T08:24:31.420Z</time>
      </trkpt>
      <trkpt lat="45.57375" lon="5.29295">
        <ele>356</ele>
        <time>2021-03-07T08:24:32.420Z</time>
      </trkpt>
      <trkpt lat="45.57368" lon="5.29298">
        <ele>356</ele>
        <time>2021-03-07T08:24:33.421Z</time>
      </trkpt>
      <trkpt lat="45.5736" lon="5.293">
        <ele>355</ele>
        <time>2021-03-07T08:24:34.421Z</time>
      </trkpt>
      <trkpt lat="45.57352" lon="5.29303">
        <ele>355</ele>
        <time>2021-03-07T08:24:35.420Z</time>
      </trkpt>
      <trkpt lat="45.57344" lon="5.29304">
        <ele>355</ele>
        <time>2021-03-07T08:24:36.420Z</time>
      </trkpt>
      <trkpt lat="45.57336" lon="5.29305">
        <ele>354</ele>
        <time>2021-03-07T08:24:37.421Z</time>
      </trkpt>
      <trkpt lat="45.57328" lon="5.29305">
        <ele>354</ele>
        <time>2021-03-07T08:24:38.420Z</time>
      </trkpt>
      <trkpt lat="45.5732" lon="5.29306">
        <ele>353</ele>
        <time>2021-03-07T08:24:39.420Z</time>
      </trkpt>
      <trkpt lat="45.57312" lon="5.29305">
        <ele>352</ele>
        <time>2021-03-07T08:24:40.420Z</time>
      </trkpt>
      <trkpt lat="45.57305" lon="5.29305">
        <ele>352</ele>
        <time>2021-03-07T08:24:41.420Z</time>
      </trkpt>
      <trkpt lat="45.57297" lon="5.29305">
        <ele>352</ele>
        <time>2021-03-07T08:24:42.421Z</time>
      </trkpt>
      <trkpt lat="45.5729" lon="5.29305">
        <ele>351</ele>
        <time>2021-03-07T08:24:43.420Z</time>
      </trkpt>
      <trkpt lat="45.57282" lon="5.29306">
        <ele>351</ele>
        <time>2021-03-07T08:24:44.420Z</time>
      </trkpt>
      <trkpt lat="45.57274" lon="5.29306">
        <ele>351</ele>
        <time>2021-03-07T08:24:45.420Z</time>
      </trkpt>
      <trkpt lat="45.57267" lon="5.29307">
        <ele>350</ele>
        <time>2021-03-07T08:24:46.421Z</time>
      </trkpt>
      <trkpt lat="45.57259" lon="5.29307">
        <ele>350</ele>
        <time>2021-03-07T08:24:47.420Z</time>
      </trkpt>
      <trkpt lat="45.57251" lon="5.29307">
        <ele>350</ele>
        <time>2021-03-07T08:24:48.421Z</time>
      </trkpt>
      <trkpt lat="45.57243" lon="5.29306">
        <ele>349</ele>
        <time>2021-03-07T08:24:49.420Z</time>
      </trkpt>
      <trkpt lat="45.57236" lon="5.29306">
        <ele>349</ele>
        <time>2021-03-07T08:24:50.420Z</time>
      </trkpt>
      <trkpt lat="45.57228" lon="5.29306">
        <ele>348</ele>
        <time>2021-03-07T08:24:51.421Z</time>
      </trkpt>
      <trkpt lat="45.5722" lon="5.29307">
        <ele>347</ele>
        <time>2021-03-07T08:24:52.420Z</time>
      </trkpt>
      <trkpt lat="45.57211" lon="5.29307">
        <ele>346</ele>
        <time>2021-03-07T08:24:53.420Z</time>
      </trkpt>
      <trkpt lat="45.57204" lon="5.29308">
        <ele>345</ele>
        <time>2021-03-07T08:24:54.420Z</time>
      </trkpt>
      <trkpt lat="45.57196" lon="5.29308">
        <ele>344</ele>
        <time>2021-03-07T08:24:55.420Z</time>
      </trkpt>
      <trkpt lat="45.57189" lon="5.29309">
        <ele>344</ele>
        <time>2021-03-07T08:24:56.420Z</time>
      </trkpt>
      <trkpt lat="45.57182" lon="5.29309">
        <ele>343</ele>
        <time>2021-03-07T08:24:57.420Z</time>
      </trkpt>
      <trkpt lat="45.57175" lon="5.29309">
        <ele>342</ele>
        <time>2021-03-07T08:24:58.420Z</time>
      </trkpt>
      <trkpt lat="45.57168" lon="5.29309">
        <ele>342</ele>
        <time>2021-03-07T08:24:59.420Z</time>
      </trkpt>
      <trkpt lat="45.57162" lon="5.29308">
        <ele>341</ele>
        <time>2021-03-07T08:25:00.421Z</time>
      </trkpt>
      <trkpt lat="45.57157" lon="5.29308">
        <ele>340</ele>
        <time>2021-03-07T08:25:01.421Z</time>
      </trkpt>
      <trkpt lat="45.57151" lon="5.29308">
        <ele>340</ele>
        <time>2021-03-07T08:25:02.421Z</time>
      </trkpt>
      <trkpt lat="45.57145" lon="5.29309">
        <ele>340</ele>
        <time>2021-03-07T08:25:03.420Z</time>
      </trkpt>
      <trkpt lat="45.57139" lon="5.29311">
        <ele>339</ele>
        <time>2021-03-07T08:25:04.421Z</time>
      </trkpt>
      <trkpt lat="45.57134" lon="5.29314">
        <ele>339</ele>
        <time>2021-03-07T08:25:05.421Z</time>
      </trkpt>
      <trkpt lat="45.57128" lon="5.29318">
        <ele>339</ele>
        <time>2021-03-07T08:25:06.420Z</time>
      </trkpt>
      <trkpt lat="45.57122" lon="5.29322">
        <ele>339</ele>
        <time>2021-03-07T08:25:07.420Z</time>
      </trkpt>
      <trkpt lat="45.57117" lon="5.29326">
        <ele>338</ele>
        <time>2021-03-07T08:25:08.420Z</time>
      </trkpt>
      <trkpt lat="45.57112" lon="5.2933">
        <ele>338</ele>
        <time>2021-03-07T08:25:09.421Z</time>
      </trkpt>
      <trkpt lat="45.57107" lon="5.29334">
        <ele>338</ele>
        <time>2021-03-07T08:25:10.420Z</time>
      </trkpt>
      <trkpt lat="45.57102" lon="5.29339">
        <ele>337</ele>
        <time>2021-03-07T08:25:11.420Z</time>
      </trkpt>
      <trkpt lat="45.57096" lon="5.29344">
        <ele>337</ele>
        <time>2021-03-07T08:25:12.420Z</time>
      </trkpt>
      <trkpt lat="45.57092" lon="5.29348">
        <ele>337</ele>
        <time>2021-03-07T08:25:13.420Z</time>
      </trkpt>
      <trkpt lat="45.57088" lon="5.29352">
        <ele>337</ele>
        <time>2021-03-07T08:25:14.421Z</time>
      </trkpt>
      <trkpt lat="45.57084" lon="5.29357">
        <ele>336</ele>
        <time>2021-03-07T08:25:15.420Z</time>
      </trkpt>
      <trkpt lat="45.57079" lon="5.29362">
        <ele>336</ele>
        <time>2021-03-07T08:25:16.420Z</time>
      </trkpt>
      <trkpt lat="45.57074" lon="5.29368">
        <ele>336</ele>
        <time>2021-03-07T08:25:17.420Z</time>
      </trkpt>
      <trkpt lat="45.5707" lon="5.29375">
        <ele>336</ele>
        <time>2021-03-07T08:25:18.420Z</time>
      </trkpt>
      <trkpt lat="45.57065" lon="5.29382">
        <ele>336</ele>
        <time>2021-03-07T08:25:19.420Z</time>
      </trkpt>
      <trkpt lat="45.57062" lon="5.29389">
        <ele>336</ele>
        <time>2021-03-07T08:25:20.420Z</time>
      </trkpt>
      <trkpt lat="45.57059" lon="5.29396">
        <ele>335</ele>
        <time>2021-03-07T08:25:21.420Z</time>
      </trkpt>
      <trkpt lat="45.57056" lon="5.29403">
        <ele>335</ele>
        <time>2021-03-07T08:25:22.420Z</time>
      </trkpt>
      <trkpt lat="45.57053" lon="5.29409">
        <ele>335</ele>
        <time>2021-03-07T08:25:23.421Z</time>
      </trkpt>
      <trkpt lat="45.5705" lon="5.29416">
        <ele>335</ele>
        <time>2021-03-07T08:25:24.420Z</time>
      </trkpt>
      <trkpt lat="45.57047" lon="5.29424">
        <ele>334</ele>
        <time>2021-03-07T08:25:25.421Z</time>
      </trkpt>
      <trkpt lat="45.57044" lon="5.29431">
        <ele>334</ele>
        <time>2021-03-07T08:25:26.421Z</time>
      </trkpt>
      <trkpt lat="45.57041" lon="5.29439">
        <ele>333</ele>
        <time>2021-03-07T08:25:27.421Z</time>
      </trkpt>
      <trkpt lat="45.57038" lon="5.29448">
        <ele>333</ele>
        <time>2021-03-07T08:25:28.420Z</time>
      </trkpt>
      <trkpt lat="45.57035" lon="5.29458">
        <ele>333</ele>
        <time>2021-03-07T08:25:29.421Z</time>
      </trkpt>
      <trkpt lat="45.57032" lon="5.29467">
        <ele>332</ele>
        <time>2021-03-07T08:25:30.420Z</time>
      </trkpt>
      <trkpt lat="45.57029" lon="5.29477">
        <ele>332</ele>
        <time>2021-03-07T08:25:31.421Z</time>
      </trkpt>
      <trkpt lat="45.57025" lon="5.29487">
        <ele>332</ele>
        <time>2021-03-07T08:25:32.421Z</time>
      </trkpt>
      <trkpt lat="45.57023" lon="5.29497">
        <ele>331</ele>
        <time>2021-03-07T08:25:33.420Z</time>
      </trkpt>
      <trkpt lat="45.57019" lon="5.29508">
        <ele>331</ele>
        <time>2021-03-07T08:25:34.421Z</time>
      </trkpt>
      <trkpt lat="45.57016" lon="5.29518">
        <ele>330</ele>
        <time>2021-03-07T08:25:35.420Z</time>
      </trkpt>
      <trkpt lat="45.57012" lon="5.29527">
        <ele>330</ele>
        <time>2021-03-07T08:25:36.420Z</time>
      </trkpt>
      <trkpt lat="45.57009" lon="5.29537">
        <ele>330</ele>
        <time>2021-03-07T08:25:37.421Z</time>
      </trkpt>
      <trkpt lat="45.57004" lon="5.29546">
        <ele>329</ele>
        <time>2021-03-07T08:25:38.420Z</time>
      </trkpt>
      <trkpt lat="45.57" lon="5.29555">
        <ele>329</ele>
        <time>2021-03-07T08:25:39.420Z</time>
      </trkpt>
      <trkpt lat="45.56996" lon="5.29564">
        <ele>328</ele>
        <time>2021-03-07T08:25:40.420Z</time>
      </trkpt>
      <trkpt lat="45.56993" lon="5.29571">
        <ele>327</ele>
        <time>2021-03-07T08:25:41.420Z</time>
      </trkpt>
      <trkpt lat="45.56988" lon="5.29579">
        <ele>325</ele>
        <time>2021-03-07T08:25:42.420Z</time>
      </trkpt>
      <trkpt lat="45.56983" lon="5.29587">
        <ele>324</ele>
        <time>2021-03-07T08:25:43.421Z</time>
      </trkpt>
      <trkpt lat="45.56977" lon="5.29594">
        <ele>323</ele>
        <time>2021-03-07T08:25:44.420Z</time>
      </trkpt>
      <trkpt lat="45.56971" lon="5.29601">
        <ele>322</ele>
        <time>2021-03-07T08:25:45.421Z</time>
      </trkpt>
      <trkpt lat="45.56965" lon="5.29607">
        <ele>321</ele>
        <time>2021-03-07T08:25:46.420Z</time>
      </trkpt>
      <trkpt lat="45.56958" lon="5.29613">
        <ele>320</ele>
        <time>2021-03-07T08:25:47.420Z</time>
      </trkpt>
      <trkpt lat="45.56952" lon="5.29619">
        <ele>319</ele>
        <time>2021-03-07T08:25:48.420Z</time>
      </trkpt>
      <trkpt lat="45.56946" lon="5.29625">
        <ele>318</ele>
        <time>2021-03-07T08:25:49.420Z</time>
      </trkpt>
      <trkpt lat="45.56939" lon="5.2963">
        <ele>318</ele>
        <time>2021-03-07T08:25:50.420Z</time>
      </trkpt>
      <trkpt lat="45.56934" lon="5.29635">
        <ele>317</ele>
        <time>2021-03-07T08:25:51.420Z</time>
      </trkpt>
      <trkpt lat="45.56928" lon="5.2964">
        <ele>316</ele>
        <time>2021-03-07T08:25:52.421Z</time>
      </trkpt>
      <trkpt lat="45.56923" lon="5.29645">
        <ele>316</ele>
        <time>2021-03-07T08:25:53.420Z</time>
      </trkpt>
      <trkpt lat="45.56918" lon="5.29649">
        <ele>316</ele>
        <time>2021-03-07T08:25:54.420Z</time>
      </trkpt>
      <trkpt lat="45.56913" lon="5.29654">
        <ele>316</ele>
        <time>2021-03-07T08:25:55.420Z</time>
      </trkpt>
      <trkpt lat="45.56909" lon="5.29659">
        <ele>315</ele>
        <time>2021-03-07T08:25:56.420Z</time>
      </trkpt>
      <trkpt lat="45.56904" lon="5.29664">
        <ele>315</ele>
        <time>2021-03-07T08:25:57.421Z</time>
      </trkpt>
      <trkpt lat="45.569" lon="5.29668">
        <ele>315</ele>
        <time>2021-03-07T08:25:58.420Z</time>
      </trkpt>
      <trkpt lat="45.56896" lon="5.29673">
        <ele>314</ele>
        <time>2021-03-07T08:25:59.420Z</time>
      </trkpt>
      <trkpt lat="45.56892" lon="5.29677">
        <ele>313</ele>
        <time>2021-03-07T08:26:00.420Z</time>
      </trkpt>
      <trkpt lat="45.56887" lon="5.29682">
        <ele>313</ele>
        <time>2021-03-07T08:26:01.420Z</time>
      </trkpt>
      <trkpt lat="45.56883" lon="5.29687">
        <ele>313</ele>
        <time>2021-03-07T08:26:02.420Z</time>
      </trkpt>
      <trkpt lat="45.56881" lon="5.2969">
        <ele>312</ele>
        <time>2021-03-07T08:26:03.420Z</time>
      </trkpt>
      <trkpt lat="45.56877" lon="5.29694">
        <ele>312</ele>
        <time>2021-03-07T08:26:04.420Z</time>
      </trkpt>
      <trkpt lat="45.56875" lon="5.29697">
        <ele>312</ele>
        <time>2021-03-07T08:26:05.421Z</time>
      </trkpt>
      <trkpt lat="45.56871" lon="5.297">
        <ele>311</ele>
        <time>2021-03-07T08:26:06.420Z</time>
      </trkpt>
      <trkpt lat="45.56868" lon="5.29705">
        <ele>311</ele>
        <time>2021-03-07T08:26:07.420Z</time>
      </trkpt>
      <trkpt lat="45.56864" lon="5.29709">
        <ele>311</ele>
        <time>2021-03-07T08:26:08.420Z</time>
      </trkpt>
      <trkpt lat="45.56861" lon="5.29713">
        <ele>311</ele>
        <time>2021-03-07T08:26:09.421Z</time>
      </trkpt>
      <trkpt lat="45.56859" lon="5.29715">
        <ele>311</ele>
        <time>2021-03-07T08:26:10.420Z</time>
      </trkpt>
      <trkpt lat="45.56856" lon="5.29718">
        <ele>311</ele>
        <time>2021-03-07T08:26:11.420Z</time>
      </trkpt>
      <trkpt lat="45.56853" lon="5.29722">
        <ele>311</ele>
        <time>2021-03-07T08:26:12.420Z</time>
      </trkpt>
      <trkpt lat="45.56851" lon="5.29725">
        <ele>311</ele>
        <time>2021-03-07T08:26:13.421Z</time>
      </trkpt>
      <trkpt lat="45.56848" lon="5.29728">
        <ele>311</ele>
        <time>2021-03-07T08:26:14.420Z</time>
      </trkpt>
      <trkpt lat="45.56846" lon="5.2973">
        <ele>311</ele>
        <time>2021-03-07T08:26:15.421Z</time>
      </trkpt>
      <trkpt lat="45.56843" lon="5.29733">
        <ele>311</ele>
        <time>2021-03-07T08:26:16.421Z</time>
      </trkpt>
      <trkpt lat="45.5684" lon="5.29736">
        <ele>311</ele>
        <time>2021-03-07T08:26:17.421Z</time>
      </trkpt>
      <trkpt lat="45.56838" lon="5.29739">
        <ele>311</ele>
        <time>2021-03-07T08:26:18.420Z</time>
      </trkpt>
      <trkpt lat="45.56836" lon="5.29742">
        <ele>311</ele>
        <time>2021-03-07T08:26:19.421Z</time>
      </trkpt>
      <trkpt lat="45.56834" lon="5.29746">
        <ele>311</ele>
        <time>2021-03-07T08:26:20.421Z</time>
      </trkpt>
      <trkpt lat="45.56832" lon="5.29749">
        <ele>311</ele>
        <time>2021-03-07T08:26:21.420Z</time>
      </trkpt>
      <trkpt lat="45.56831" lon="5.29751">
        <ele>311</ele>
        <time>2021-03-07T08:26:22.421Z</time>
      </trkpt>
      <trkpt lat="45.56829" lon="5.29754">
        <ele>312</ele>
        <time>2021-03-07T08:26:23.420Z</time>
      </trkpt>
      <trkpt lat="45.56827" lon="5.29757">
        <ele>312</ele>
        <time>2021-03-07T08:26:24.420Z</time>
      </trkpt>
      <trkpt lat="45.56826" lon="5.29759">
        <ele>313</ele>
        <time>2021-03-07T08:26:25.420Z</time>
      </trkpt>
      <trkpt lat="45.56823" lon="5.29761">
        <ele>313</ele>
        <time>2021-03-07T08:26:26.420Z</time>
      </trkpt>
      <trkpt lat="45.56822" lon="5.29764">
        <ele>313</ele>
        <time>2021-03-07T08:26:27.420Z</time>
      </trkpt>
      <trkpt lat="45.56822" lon="5.29766">
        <ele>314</ele>
        <time>2021-03-07T08:26:28.420Z</time>
      </trkpt>
      <trkpt lat="45.56821" lon="5.29769">
        <ele>315</ele>
        <time>2021-03-07T08:26:29.420Z</time>
      </trkpt>
      <trkpt lat="45.5682" lon="5.29772">
        <ele>315</ele>
        <time>2021-03-07T08:26:30.421Z</time>
      </trkpt>
      <trkpt lat="45.56819" lon="5.29775">
        <ele>316</ele>
        <time>2021-03-07T08:26:31.420Z</time>
      </trkpt>
      <trkpt lat="45.56817" lon="5.29778">
        <ele>316</ele>
        <time>2021-03-07T08:26:32.421Z</time>
      </trkpt>
      <trkpt lat="45.56813" lon="5.29782">
        <ele>317</ele>
        <time>2021-03-07T08:26:33.421Z</time>
      </trkpt>
      <trkpt lat="45.56811" lon="5.29784">
        <ele>317</ele>
        <time>2021-03-07T08:26:34.420Z</time>
      </trkpt>
      <trkpt lat="45.56809" lon="5.29787">
        <ele>317</ele>
        <time>2021-03-07T08:26:35.420Z</time>
      </trkpt>
      <trkpt lat="45.56806" lon="5.2979">
        <ele>317</ele>
        <time>2021-03-07T08:26:36.420Z</time>
      </trkpt>
      <trkpt lat="45.56804" lon="5.29793">
        <ele>317</ele>
        <time>2021-03-07T08:26:37.420Z</time>
      </trkpt>
      <trkpt lat="45.56802" lon="5.29796">
        <ele>317</ele>
        <time>2021-03-07T08:26:38.420Z</time>
      </trkpt>
      <trkpt lat="45.56799" lon="5.29799">
        <ele>318</ele>
        <time>2021-03-07T08:26:39.420Z</time>
      </trkpt>
      <trkpt lat="45.56797" lon="5.29802">
        <ele>318</ele>
        <time>2021-03-07T08:26:40.420Z</time>
      </trkpt>
      <trkpt lat="45.56794" lon="5.29805">
        <ele>318</ele>
        <time>2021-03-07T08:26:41.420Z</time>
      </trkpt>
      <trkpt lat="45.56792" lon="5.29807">
        <ele>318</ele>
        <time>2021-03-07T08:26:42.420Z</time>
      </trkpt>
      <trkpt lat="45.5679" lon="5.29809">
        <ele>318</ele>
        <time>2021-03-07T08:26:43.420Z</time>
      </trkpt>
      <trkpt lat="45.56788" lon="5.29812">
        <ele>318</ele>
        <time>2021-03-07T08:26:44.420Z</time>
      </trkpt>
      <trkpt lat="45.56786" lon="5.29814">
        <ele>318</ele>
        <time>2021-03-07T08:26:45.421Z</time>
      </trkpt>
      <trkpt lat="45.56785" lon="5.29816">
        <ele>318</ele>
        <time>2021-03-07T08:26:46.421Z</time>
      </trkpt>
      <trkpt lat="45.56782" lon="5.29819">
        <ele>318</ele>
        <time>2021-03-07T08:26:47.420Z</time>
      </trkpt>
      <trkpt lat="45.56779" lon="5.29822">
        <ele>319</ele>
        <time>2021-03-07T08:26:48.420Z</time>
      </trkpt>
      <trkpt lat="45.56777" lon="5.29824">
        <ele>319</ele>
        <time>2021-03-07T08:26:49.420Z</time>
      </trkpt>
      <trkpt lat="45.56775" lon="5.29825">
        <ele>319</ele>
        <time>2021-03-07T08:26:50.420Z</time>
      </trkpt>
      <trkpt lat="45.56772" lon="5.29828">
        <ele>319</ele>
        <time>2021-03-07T08:26:51.420Z</time>
      </trkpt>
      <trkpt lat="45.56769" lon="5.29829">
        <ele>319</ele>
        <time>2021-03-07T08:26:52.420Z</time>
      </trkpt>
      <trkpt lat="45.56766" lon="5.29832">
        <ele>320</ele>
        <time>2021-03-07T08:26:53.420Z</time>
      </trkpt>
      <trkpt lat="45.56763" lon="5.29833">
        <ele>320</ele>
        <time>2021-03-07T08:26:54.420Z</time>
      </trkpt>
      <trkpt lat="45.5676" lon="5.29835">
        <ele>320</ele>
        <time>2021-03-07T08:26:55.421Z</time>
      </trkpt>
      <trkpt lat="45.56756" lon="5.29837">
        <ele>320</ele>
        <time>2021-03-07T08:26:56.421Z</time>
      </trkpt>
      <trkpt lat="45.56753" lon="5.29838">
        <ele>321</ele>
        <time>2021-03-07T08:26:57.420Z</time>
      </trkpt>
      <trkpt lat="45.56749" lon="5.29839">
        <ele>321</ele>
        <time>2021-03-07T08:26:58.420Z</time>
      </trkpt>
      <trkpt lat="45.56745" lon="5.2984">
        <ele>321</ele>
        <time>2021-03-07T08:26:59.420Z</time>
      </trkpt>
      <trkpt lat="45.56742" lon="5.29841">
        <ele>322</ele>
        <time>2021-03-07T08:27:00.421Z</time>
      </trkpt>
      <trkpt lat="45.56738" lon="5.29841">
        <ele>322</ele>
        <time>2021-03-07T08:27:01.421Z</time>
      </trkpt>
      <trkpt lat="45.56735" lon="5.29841">
        <ele>322</ele>
        <time>2021-03-07T08:27:02.421Z</time>
      </trkpt>
      <trkpt lat="45.56731" lon="5.29842">
        <ele>323</ele>
        <time>2021-03-07T08:27:03.421Z</time>
      </trkpt>
      <trkpt lat="45.56726" lon="5.29842">
        <ele>323</ele>
        <time>2021-03-07T08:27:04.420Z</time>
      </trkpt>
      <trkpt lat="45.56721" lon="5.29842">
        <ele>324</ele>
        <time>2021-03-07T08:27:05.420Z</time>
      </trkpt>
      <trkpt lat="45.56718" lon="5.29841">
        <ele>324</ele>
        <time>2021-03-07T08:27:06.421Z</time>
      </trkpt>
      <trkpt lat="45.56713" lon="5.29841">
        <ele>324</ele>
        <time>2021-03-07T08:27:07.421Z</time>
      </trkpt>
      <trkpt lat="45.56709" lon="5.2984">
        <ele>325</ele>
        <time>2021-03-07T08:27:08.421Z</time>
      </trkpt>
      <trkpt lat="45.56705" lon="5.29839">
        <ele>325</ele>
        <time>2021-03-07T08:27:09.420Z</time>
      </trkpt>
      <trkpt lat="45.56701" lon="5.29838">
        <ele>326</ele>
        <time>2021-03-07T08:27:10.420Z</time>
      </trkpt>
      <trkpt lat="45.56696" lon="5.29837">
        <ele>327</ele>
        <time>2021-03-07T08:27:11.420Z</time>
      </trkpt>
      <trkpt lat="45.56693" lon="5.29836">
        <ele>327</ele>
        <time>2021-03-07T08:27:12.420Z</time>
      </trkpt>
      <trkpt lat="45.56688" lon="5.29834">
        <ele>328</ele>
        <time>2021-03-07T08:27:13.421Z</time>
      </trkpt>
      <trkpt lat="45.56684" lon="5.29833">
        <ele>328</ele>
        <time>2021-03-07T08:27:14.420Z</time>
      </trkpt>
      <trkpt lat="45.5668" lon="5.29831">
        <ele>328</ele>
        <time>2021-03-07T08:27:15.421Z</time>
      </trkpt>
      <trkpt lat="45.56676" lon="5.2983">
        <ele>328</ele>
        <time>2021-03-07T08:27:16.421Z</time>
      </trkpt>
      <trkpt lat="45.56673" lon="5.29828">
        <ele>329</ele>
        <time>2021-03-07T08:27:17.420Z</time>
      </trkpt>
      <trkpt lat="45.56669" lon="5.29826">
        <ele>329</ele>
        <time>2021-03-07T08:27:18.420Z</time>
      </trkpt>
      <trkpt lat="45.56666" lon="5.29825">
        <ele>329</ele>
        <time>2021-03-07T08:27:19.420Z</time>
      </trkpt>
      <trkpt lat="45.56662" lon="5.29824">
        <ele>329</ele>
        <time>2021-03-07T08:27:20.420Z</time>
      </trkpt>
      <trkpt lat="45.56658" lon="5.29823">
        <ele>330</ele>
        <time>2021-03-07T08:27:21.421Z</time>
      </trkpt>
      <trkpt lat="45.56654" lon="5.29822">
        <ele>330</ele>
        <time>2021-03-07T08:27:22.420Z</time>
      </trkpt>
      <trkpt lat="45.5665" lon="5.29821">
        <ele>330</ele>
        <time>2021-03-07T08:27:23.421Z</time>
      </trkpt>
      <trkpt lat="45.56646" lon="5.2982">
        <ele>330</ele>
        <time>2021-03-07T08:27:24.420Z</time>
      </trkpt>
      <trkpt lat="45.56642" lon="5.2982">
        <ele>330</ele>
        <time>2021-03-07T08:27:25.421Z</time>
      </trkpt>
      <trkpt lat="45.56639" lon="5.2982">
        <ele>330</ele>
        <time>2021-03-07T08:27:26.420Z</time>
      </trkpt>
      <trkpt lat="45.56636" lon="5.29821">
        <ele>330</ele>
        <time>2021-03-07T08:27:27.421Z</time>
      </trkpt>
      <trkpt lat="45.56633" lon="5.29821">
        <ele>330</ele>
        <time>2021-03-07T08:27:28.421Z</time>
      </trkpt>
      <trkpt lat="45.5663" lon="5.29822">
        <ele>330</ele>
        <time>2021-03-07T08:27:29.420Z</time>
      </trkpt>
      <trkpt lat="45.56626" lon="5.29823">
        <ele>330</ele>
        <time>2021-03-07T08:27:30.420Z</time>
      </trkpt>
      <trkpt lat="45.56623" lon="5.29824">
        <ele>330</ele>
        <time>2021-03-07T08:27:31.420Z</time>
      </trkpt>
      <trkpt lat="45.5662" lon="5.29825">
        <ele>330</ele>
        <time>2021-03-07T08:27:32.421Z</time>
      </trkpt>
      <trkpt lat="45.56618" lon="5.29825">
        <ele>331</ele>
        <time>2021-03-07T08:27:33.420Z</time>
      </trkpt>
      <trkpt lat="45.56615" lon="5.29826">
        <ele>331</ele>
        <time>2021-03-07T08:27:34.421Z</time>
      </trkpt>
      <trkpt lat="45.56612" lon="5.29826">
        <ele>331</ele>
        <time>2021-03-07T08:27:35.420Z</time>
      </trkpt>
      <trkpt lat="45.5661" lon="5.29826">
        <ele>331</ele>
        <time>2021-03-07T08:27:36.421Z</time>
      </trkpt>
      <trkpt lat="45.56607" lon="5.29827">
        <ele>332</ele>
        <time>2021-03-07T08:27:37.420Z</time>
      </trkpt>
      <trkpt lat="45.56604" lon="5.29828">
        <ele>332</ele>
        <time>2021-03-07T08:27:38.420Z</time>
      </trkpt>
      <trkpt lat="45.56601" lon="5.29828">
        <ele>332</ele>
        <time>2021-03-07T08:27:39.421Z</time>
      </trkpt>
      <trkpt lat="45.56599" lon="5.29829">
        <ele>332</ele>
        <time>2021-03-07T08:27:40.420Z</time>
      </trkpt>
      <trkpt lat="45.56596" lon="5.2983">
        <ele>332</ele>
        <time>2021-03-07T08:27:41.421Z</time>
      </trkpt>
      <trkpt lat="45.56593" lon="5.29831">
        <ele>333</ele>
        <time>2021-03-07T08:27:42.421Z</time>
      </trkpt>
      <trkpt lat="45.56591" lon="5.29832">
        <ele>333</ele>
        <time>2021-03-07T08:27:43.420Z</time>
      </trkpt>
      <trkpt lat="45.56588" lon="5.29833">
        <ele>334</ele>
        <time>2021-03-07T08:27:44.421Z</time>
      </trkpt>
      <trkpt lat="45.56585" lon="5.29834">
        <ele>335</ele>
        <time>2021-03-07T08:27:45.420Z</time>
      </trkpt>
      <trkpt lat="45.56582" lon="5.29835">
        <ele>335</ele>
        <time>2021-03-07T08:27:46.420Z</time>
      </trkpt>
      <trkpt lat="45.56578" lon="5.29836">
        <ele>335</ele>
        <time>2021-03-07T08:27:47.420Z</time>
      </trkpt>
      <trkpt lat="45.56575" lon="5.29836">
        <ele>336</ele>
        <time>2021-03-07T08:27:48.420Z</time>
      </trkpt>
      <trkpt lat="45.56573" lon="5.29837">
        <ele>336</ele>
        <time>2021-03-07T08:27:49.420Z</time>
      </trkpt>
      <trkpt lat="45.5657" lon="5.29838">
        <ele>336</ele>
        <time>2021-03-07T08:27:50.420Z</time>
      </trkpt>
      <trkpt lat="45.56567" lon="5.29838">
        <ele>337</ele>
        <time>2021-03-07T08:27:51.420Z</time>
      </trkpt>
      <trkpt lat="45.56564" lon="5.29839">
        <ele>337</ele>
        <time>2021-03-07T08:27:52.421Z</time>
      </trkpt>
      <trkpt lat="45.56561" lon="5.29839">
        <ele>337</ele>
        <time>2021-03-07T08:27:53.420Z</time>
      </trkpt>
      <trkpt lat="45.56557" lon="5.29839">
        <ele>337</ele>
        <time>2021-03-07T08:27:54.420Z</time>
      </trkpt>
      <trkpt lat="45.56554" lon="5.29839">
        <ele>338</ele>
        <time>2021-03-07T08:27:55.421Z</time>
      </trkpt>
      <trkpt lat="45.56551" lon="5.29839">
        <ele>338</ele>
        <time>2021-03-07T08:27:56.421Z</time>
      </trkpt>
      <trkpt lat="45.56547" lon="5.29839">
        <ele>338</ele>
        <time>2021-03-07T08:27:57.420Z</time>
      </trkpt>
      <trkpt lat="45.56544" lon="5.29839">
        <ele>339</ele>
        <time>2021-03-07T08:27:58.420Z</time>
      </trkpt>
      <trkpt lat="45.5654" lon="5.29838">
        <ele>340</ele>
        <time>2021-03-07T08:27:59.420Z</time>
      </trkpt>
      <trkpt lat="45.56537" lon="5.29838">
        <ele>341</ele>
        <time>2021-03-07T08:28:00.420Z</time>
      </trkpt>
      <trkpt lat="45.56534" lon="5.29837">
        <ele>342</ele>
        <time>2021-03-07T08:28:01.420Z</time>
      </trkpt>
      <trkpt lat="45.56531" lon="5.29836">
        <ele>343</ele>
        <time>2021-03-07T08:28:02.420Z</time>
      </trkpt>
      <trkpt lat="45.56527" lon="5.29835">
        <ele>343</ele>
        <time>2021-03-07T08:28:03.420Z</time>
      </trkpt>
      <trkpt lat="45.56523" lon="5.29834">
        <ele>343</ele>
        <time>2021-03-07T08:28:04.420Z</time>
      </trkpt>
      <trkpt lat="45.5652" lon="5.29834">
        <ele>344</ele>
        <time>2021-03-07T08:28:05.421Z</time>
      </trkpt>
      <trkpt lat="45.56517" lon="5.29833">
        <ele>344</ele>
        <time>2021-03-07T08:28:06.421Z</time>
      </trkpt>
      <trkpt lat="45.56513" lon="5.29832">
        <ele>344</ele>
        <time>2021-03-07T08:28:07.420Z</time>
      </trkpt>
      <trkpt lat="45.5651" lon="5.29831">
        <ele>345</ele>
        <time>2021-03-07T08:28:08.420Z</time>
      </trkpt>
      <trkpt lat="45.56506" lon="5.2983">
        <ele>345</ele>
        <time>2021-03-07T08:28:09.420Z</time>
      </trkpt>
      <trkpt lat="45.56503" lon="5.29829">
        <ele>346</ele>
        <time>2021-03-07T08:28:10.420Z</time>
      </trkpt>
      <trkpt lat="45.56499" lon="5.29828">
        <ele>347</ele>
        <time>2021-03-07T08:28:11.420Z</time>
      </trkpt>
      <trkpt lat="45.56496" lon="5.29826">
        <ele>348</ele>
        <time>2021-03-07T08:28:12.421Z</time>
      </trkpt>
      <trkpt lat="45.56492" lon="5.29825">
        <ele>348</ele>
        <time>2021-03-07T08:28:13.420Z</time>
      </trkpt>
      <trkpt lat="45.56489" lon="5.29823">
        <ele>349</ele>
        <time>2021-03-07T08:28:14.420Z</time>
      </trkpt>
      <trkpt lat="45.56485" lon="5.29822">
        <ele>349</ele>
        <time>2021-03-07T08:28:15.420Z</time>
      </trkpt>
      <trkpt lat="45.56482" lon="5.2982">
        <ele>349</ele>
        <time>2021-03-07T08:28:16.420Z</time>
      </trkpt>
      <trkpt lat="45.56479" lon="5.29817">
        <ele>349</ele>
        <time>2021-03-07T08:28:17.420Z</time>
      </trkpt>
      <trkpt lat="45.56476" lon="5.29814">
        <ele>350</ele>
        <time>2021-03-07T08:28:18.420Z</time>
      </trkpt>
      <trkpt lat="45.56473" lon="5.29811">
        <ele>350</ele>
        <time>2021-03-07T08:28:19.420Z</time>
      </trkpt>
      <trkpt lat="45.56471" lon="5.29808">
        <ele>350</ele>
        <time>2021-03-07T08:28:20.421Z</time>
      </trkpt>
      <trkpt lat="45.56468" lon="5.29805">
        <ele>350</ele>
        <time>2021-03-07T08:28:21.420Z</time>
      </trkpt>
      <trkpt lat="45.56465" lon="5.29802">
        <ele>351</ele>
        <time>2021-03-07T08:28:22.421Z</time>
      </trkpt>
      <trkpt lat="45.56463" lon="5.29798">
        <ele>351</ele>
        <time>2021-03-07T08:28:23.420Z</time>
      </trkpt>
      <trkpt lat="45.5646" lon="5.29794">
        <ele>351</ele>
        <time>2021-03-07T08:28:24.420Z</time>
      </trkpt>
      <trkpt lat="45.56458" lon="5.2979">
        <ele>351</ele>
        <time>2021-03-07T08:28:25.421Z</time>
      </trkpt>
      <trkpt lat="45.56456" lon="5.29785">
        <ele>351</ele>
        <time>2021-03-07T08:28:26.420Z</time>
      </trkpt>
      <trkpt lat="45.56454" lon="5.29781">
        <ele>352</ele>
        <time>2021-03-07T08:28:27.421Z</time>
      </trkpt>
      <trkpt lat="45.56451" lon="5.29776">
        <ele>352</ele>
        <time>2021-03-07T08:28:28.421Z</time>
      </trkpt>
      <trkpt lat="45.56449" lon="5.29772">
        <ele>353</ele>
        <time>2021-03-07T08:28:29.420Z</time>
      </trkpt>
      <trkpt lat="45.56447" lon="5.29767">
        <ele>353</ele>
        <time>2021-03-07T08:28:30.420Z</time>
      </trkpt>
      <trkpt lat="45.56444" lon="5.29762">
        <ele>353</ele>
        <time>2021-03-07T08:28:31.421Z</time>
      </trkpt>
      <trkpt lat="45.56442" lon="5.29756">
        <ele>354</ele>
        <time>2021-03-07T08:28:32.421Z</time>
      </trkpt>
      <trkpt lat="45.56439" lon="5.2975">
        <ele>354</ele>
        <time>2021-03-07T08:28:33.421Z</time>
      </trkpt>
      <trkpt lat="45.56436" lon="5.29744">
        <ele>354</ele>
        <time>2021-03-07T08:28:34.421Z</time>
      </trkpt>
      <trkpt lat="45.56433" lon="5.29737">
        <ele>353</ele>
        <time>2021-03-07T08:28:35.421Z</time>
      </trkpt>
      <trkpt lat="45.5643" lon="5.29731">
        <ele>353</ele>
        <time>2021-03-07T08:28:36.421Z</time>
      </trkpt>
      <trkpt lat="45.56427" lon="5.29725">
        <ele>353</ele>
        <time>2021-03-07T08:28:37.420Z</time>
      </trkpt>
      <trkpt lat="45.56424" lon="5.29718">
        <ele>353</ele>
        <time>2021-03-07T08:28:38.421Z</time>
      </trkpt>
      <trkpt lat="45.5642" lon="5.29711">
        <ele>352</ele>
        <time>2021-03-07T08:28:39.421Z</time>
      </trkpt>
      <trkpt lat="45.56417" lon="5.29704">
        <ele>352</ele>
        <time>2021-03-07T08:28:40.421Z</time>
      </trkpt>
      <trkpt lat="45.56413" lon="5.29698">
        <ele>352</ele>
        <time>2021-03-07T08:28:41.421Z</time>
      </trkpt>
      <trkpt lat="45.56409" lon="5.29691">
        <ele>352</ele>
        <time>2021-03-07T08:28:42.421Z</time>
      </trkpt>
      <trkpt lat="45.56405" lon="5.29685">
        <ele>352</ele>
        <time>2021-03-07T08:28:43.421Z</time>
      </trkpt>
      <trkpt lat="45.56401" lon="5.29679">
        <ele>351</ele>
        <time>2021-03-07T08:28:44.421Z</time>
      </trkpt>
      <trkpt lat="45.56397" lon="5.29673">
        <ele>351</ele>
        <time>2021-03-07T08:28:45.421Z</time>
      </trkpt>
      <trkpt lat="45.56393" lon="5.29667">
        <ele>351</ele>
        <time>2021-03-07T08:28:46.421Z</time>
      </trkpt>
      <trkpt lat="45.56389" lon="5.29661">
        <ele>351</ele>
        <time>2021-03-07T08:28:47.421Z</time>
      </trkpt>
      <trkpt lat="45.56385" lon="5.29655">
        <ele>351</ele>
        <time>2021-03-07T08:28:48.420Z</time>
      </trkpt>
      <trkpt lat="45.56379" lon="5.29648">
        <ele>351</ele>
        <time>2021-03-07T08:28:49.420Z</time>
      </trkpt>
      <trkpt lat="45.56375" lon="5.29643">
        <ele>351</ele>
        <time>2021-03-07T08:28:50.421Z</time>
      </trkpt>
      <trkpt lat="45.5637" lon="5.29638">
        <ele>351</ele>
        <time>2021-03-07T08:28:51.420Z</time>
      </trkpt>
      <trkpt lat="45.56365" lon="5.29632">
        <ele>351</ele>
        <time>2021-03-07T08:28:52.420Z</time>
      </trkpt>
      <trkpt lat="45.56361" lon="5.29627">
        <ele>351</ele>
        <time>2021-03-07T08:28:53.420Z</time>
      </trkpt>
      <trkpt lat="45.56356" lon="5.29622">
        <ele>351</ele>
        <time>2021-03-07T08:28:54.420Z</time>
      </trkpt>
      <trkpt lat="45.5635" lon="5.29617">
        <ele>351</ele>
        <time>2021-03-07T08:28:55.421Z</time>
      </trkpt>
      <trkpt lat="45.56345" lon="5.29613">
        <ele>351</ele>
        <time>2021-03-07T08:28:56.420Z</time>
      </trkpt>
      <trkpt lat="45.5634" lon="5.29608">
        <ele>352</ele>
        <time>2021-03-07T08:28:57.420Z</time>
      </trkpt>
      <trkpt lat="45.56335" lon="5.29604">
        <ele>352</ele>
        <time>2021-03-07T08:28:58.420Z</time>
      </trkpt>
      <trkpt lat="45.5633" lon="5.29599">
        <ele>352</ele>
        <time>2021-03-07T08:28:59.421Z</time>
      </trkpt>
      <trkpt lat="45.56324" lon="5.29594">
        <ele>352</ele>
        <time>2021-03-07T08:29:00.421Z</time>
      </trkpt>
      <trkpt lat="45.5632" lon="5.2959">
        <ele>353</ele>
        <time>2021-03-07T08:29:01.420Z</time>
      </trkpt>
      <trkpt lat="45.56314" lon="5.29585">
        <ele>353</ele>
        <time>2021-03-07T08:29:02.420Z</time>
      </trkpt>
      <trkpt lat="45.56308" lon="5.2958">
        <ele>352</ele>
        <time>2021-03-07T08:29:03.420Z</time>
      </trkpt>
      <trkpt lat="45.56303" lon="5.29576">
        <ele>352</ele>
        <time>2021-03-07T08:29:04.420Z</time>
      </trkpt>
      <trkpt lat="45.56299" lon="5.29572">
        <ele>351</ele>
        <time>2021-03-07T08:29:05.420Z</time>
      </trkpt>
      <trkpt lat="45.56294" lon="5.29568">
        <ele>351</ele>
        <time>2021-03-07T08:29:06.421Z</time>
      </trkpt>
      <trkpt lat="45.56289" lon="5.29563">
        <ele>351</ele>
        <time>2021-03-07T08:29:07.420Z</time>
      </trkpt>
      <trkpt lat="45.56284" lon="5.29558">
        <ele>351</ele>
        <time>2021-03-07T08:29:08.421Z</time>
      </trkpt>
      <trkpt lat="45.56279" lon="5.29553">
        <ele>351</ele>
        <time>2021-03-07T08:29:09.420Z</time>
      </trkpt>
      <trkpt lat="45.56273" lon="5.29549">
        <ele>351</ele>
        <time>2021-03-07T08:29:10.420Z</time>
      </trkpt>
      <trkpt lat="45.56268" lon="5.29544">
        <ele>351</ele>
        <time>2021-03-07T08:29:11.421Z</time>
      </trkpt>
      <trkpt lat="45.56263" lon="5.2954">
        <ele>351</ele>
        <time>2021-03-07T08:29:12.421Z</time>
      </trkpt>
      <trkpt lat="45.56258" lon="5.29535">
        <ele>351</ele>
        <time>2021-03-07T08:29:13.420Z</time>
      </trkpt>
      <trkpt lat="45.56253" lon="5.2953">
        <ele>351</ele>
        <time>2021-03-07T08:29:14.420Z</time>
      </trkpt>
      <trkpt lat="45.56248" lon="5.29525">
        <ele>351</ele>
        <time>2021-03-07T08:29:15.420Z</time>
      </trkpt>
      <trkpt lat="45.56242" lon="5.29521">
        <ele>351</ele>
        <time>2021-03-07T08:29:16.421Z</time>
      </trkpt>
      <trkpt lat="45.56237" lon="5.29516">
        <ele>351</ele>
        <time>2021-03-07T08:29:17.420Z</time>
      </trkpt>
      <trkpt lat="45.56232" lon="5.29511">
        <ele>352</ele>
        <time>2021-03-07T08:29:18.420Z</time>
      </trkpt>
      <trkpt lat="45.56226" lon="5.29506">
        <ele>352</ele>
        <time>2021-03-07T08:29:19.420Z</time>
      </trkpt>
      <trkpt lat="45.5622" lon="5.29502">
        <ele>352</ele>
        <time>2021-03-07T08:29:20.421Z</time>
      </trkpt>
      <trkpt lat="45.56215" lon="5.29497">
        <ele>352</ele>
        <time>2021-03-07T08:29:21.420Z</time>
      </trkpt>
      <trkpt lat="45.56209" lon="5.29492">
        <ele>351</ele>
        <time>2021-03-07T08:29:22.421Z</time>
      </trkpt>
      <trkpt lat="45.56203" lon="5.29488">
        <ele>351</ele>
        <time>2021-03-07T08:29:23.421Z</time>
      </trkpt>
      <trkpt lat="45.56197" lon="5.29483">
        <ele>350</ele>
        <time>2021-03-07T08:29:24.420Z</time>
      </trkpt>
      <trkpt lat="45.56191" lon="5.29478">
        <ele>350</ele>
        <time>2021-03-07T08:29:25.420Z</time>
      </trkpt>
      <trkpt lat="45.56185" lon="5.29474">
        <ele>350</ele>
        <time>2021-03-07T08:29:26.420Z</time>
      </trkpt>
      <trkpt lat="45.5618" lon="5.2947">
        <ele>350</ele>
        <time>2021-03-07T08:29:27.420Z</time>
      </trkpt>
      <trkpt lat="45.56174" lon="5.29466">
        <ele>349</ele>
        <time>2021-03-07T08:29:28.420Z</time>
      </trkpt>
      <trkpt lat="45.56168" lon="5.29462">
        <ele>349</ele>
        <time>2021-03-07T08:29:29.421Z</time>
      </trkpt>
      <trkpt lat="45.56162" lon="5.29458">
        <ele>349</ele>
        <time>2021-03-07T08:29:30.421Z</time>
      </trkpt>
      <trkpt lat="45.56156" lon="5.29454">
        <ele>349</ele>
        <time>2021-03-07T08:29:31.420Z</time>
      </trkpt>
      <trkpt lat="45.5615" lon="5.2945">
        <ele>349</ele>
        <time>2021-03-07T08:29:32.421Z</time>
      </trkpt>
      <trkpt lat="45.56145" lon="5.29445">
        <ele>349</ele>
        <time>2021-03-07T08:29:33.420Z</time>
      </trkpt>
      <trkpt lat="45.56139" lon="5.29441">
        <ele>349</ele>
        <time>2021-03-07T08:29:34.421Z</time>
      </trkpt>
      <trkpt lat="45.56134" lon="5.29436">
        <ele>349</ele>
        <time>2021-03-07T08:29:35.420Z</time>
      </trkpt>
      <trkpt lat="45.56128" lon="5.29432">
        <ele>349</ele>
        <time>2021-03-07T08:29:36.421Z</time>
      </trkpt>
      <trkpt lat="45.56122" lon="5.29428">
        <ele>348</ele>
        <time>2021-03-07T08:29:37.420Z</time>
      </trkpt>
      <trkpt lat="45.56117" lon="5.29425">
        <ele>348</ele>
        <time>2021-03-07T08:29:38.420Z</time>
      </trkpt>
      <trkpt lat="45.56111" lon="5.29421">
        <ele>348</ele>
        <time>2021-03-07T08:29:39.420Z</time>
      </trkpt>
      <trkpt lat="45.56106" lon="5.29417">
        <ele>348</ele>
        <time>2021-03-07T08:29:40.420Z</time>
      </trkpt>
      <trkpt lat="45.561" lon="5.29414">
        <ele>348</ele>
        <time>2021-03-07T08:29:41.421Z</time>
      </trkpt>
      <trkpt lat="45.56095" lon="5.29411">
        <ele>347</ele>
        <time>2021-03-07T08:29:42.420Z</time>
      </trkpt>
      <trkpt lat="45.56089" lon="5.29408">
        <ele>347</ele>
        <time>2021-03-07T08:29:43.420Z</time>
      </trkpt>
      <trkpt lat="45.56083" lon="5.29406">
        <ele>347</ele>
        <time>2021-03-07T08:29:44.420Z</time>
      </trkpt>
      <trkpt lat="45.56078" lon="5.29404">
        <ele>347</ele>
        <time>2021-03-07T08:29:45.421Z</time>
      </trkpt>
      <trkpt lat="45.56072" lon="5.29402">
        <ele>347</ele>
        <time>2021-03-07T08:29:46.421Z</time>
      </trkpt>
      <trkpt lat="45.56066" lon="5.29401">
        <ele>346</ele>
        <time>2021-03-07T08:29:47.420Z</time>
      </trkpt>
      <trkpt lat="45.5606" lon="5.29399">
        <ele>347</ele>
        <time>2021-03-07T08:29:48.420Z</time>
      </trkpt>
      <trkpt lat="45.56054" lon="5.29398">
        <ele>347</ele>
        <time>2021-03-07T08:29:49.420Z</time>
      </trkpt>
      <trkpt lat="45.56049" lon="5.29396">
        <ele>347</ele>
        <time>2021-03-07T08:29:50.421Z</time>
      </trkpt>
      <trkpt lat="45.56043" lon="5.29395">
        <ele>347</ele>
        <time>2021-03-07T08:29:51.420Z</time>
      </trkpt>
      <trkpt lat="45.56037" lon="5.29394">
        <ele>347</ele>
        <time>2021-03-07T08:29:52.421Z</time>
      </trkpt>
      <trkpt lat="45.56031" lon="5.29393">
        <ele>346</ele>
        <time>2021-03-07T08:29:53.421Z</time>
      </trkpt>
      <trkpt lat="45.56026" lon="5.29392">
        <ele>346</ele>
        <time>2021-03-07T08:29:54.420Z</time>
      </trkpt>
      <trkpt lat="45.5602" lon="5.2939">
        <ele>346</ele>
        <time>2021-03-07T08:29:55.421Z</time>
      </trkpt>
      <trkpt lat="45.56014" lon="5.29389">
        <ele>346</ele>
        <time>2021-03-07T08:29:56.421Z</time>
      </trkpt>
      <trkpt lat="45.56008" lon="5.29387">
        <ele>346</ele>
        <time>2021-03-07T08:29:57.421Z</time>
      </trkpt>
      <trkpt lat="45.56002" lon="5.29385">
        <ele>346</ele>
        <time>2021-03-07T08:29:58.420Z</time>
      </trkpt>
      <trkpt lat="45.55997" lon="5.29384">
        <ele>346</ele>
        <time>2021-03-07T08:29:59.421Z</time>
      </trkpt>
      <trkpt lat="45.55991" lon="5.29382">
        <ele>346</ele>
        <time>2021-03-07T08:30:00.420Z</time>
      </trkpt>
      <trkpt lat="45.55985" lon="5.2938">
        <ele>346</ele>
        <time>2021-03-07T08:30:01.420Z</time>
      </trkpt>
      <trkpt lat="45.5598" lon="5.29379">
        <ele>346</ele>
        <time>2021-03-07T08:30:02.421Z</time>
      </trkpt>
      <trkpt lat="45.55974" lon="5.29377">
        <ele>346</ele>
        <time>2021-03-07T08:30:03.420Z</time>
      </trkpt>
      <trkpt lat="45.55969" lon="5.29375">
        <ele>346</ele>
        <time>2021-03-07T08:30:04.420Z</time>
      </trkpt>
      <trkpt lat="45.55963" lon="5.29373">
        <ele>346</ele>
        <time>2021-03-07T08:30:05.420Z</time>
      </trkpt>
      <trkpt lat="45.55958" lon="5.2937">
        <ele>347</ele>
        <time>2021-03-07T08:30:06.421Z</time>
      </trkpt>
      <trkpt lat="45.55954" lon="5.29367">
        <ele>347</ele>
        <time>2021-03-07T08:30:07.420Z</time>
      </trkpt>
      <trkpt lat="45.5595" lon="5.29364">
        <ele>347</ele>
        <time>2021-03-07T08:30:08.420Z</time>
      </trkpt>
      <trkpt lat="45.55946" lon="5.29362">
        <ele>347</ele>
        <time>2021-03-07T08:30:09.420Z</time>
      </trkpt>
      <trkpt lat="45.55943" lon="5.29362">
        <ele>347</ele>
        <time>2021-03-07T08:30:10.420Z</time>
      </trkpt>
      <trkpt lat="45.5594" lon="5.29365">
        <ele>347</ele>
        <time>2021-03-07T08:30:11.420Z</time>
      </trkpt>
      <trkpt lat="45.55939" lon="5.29371">
        <ele>346</ele>
        <time>2021-03-07T08:30:12.420Z</time>
      </trkpt>
      <trkpt lat="45.55939" lon="5.29377">
        <ele>346</ele>
        <time>2021-03-07T08:30:13.420Z</time>
      </trkpt>
      <trkpt lat="45.5594" lon="5.29384">
        <ele>346</ele>
        <time>2021-03-07T08:30:14.420Z</time>
      </trkpt>
      <trkpt lat="45.55942" lon="5.2939">
        <ele>346</ele>
        <time>2021-03-07T08:30:15.420Z</time>
      </trkpt>
      <trkpt lat="45.55944" lon="5.29397">
        <ele>346</ele>
        <time>2021-03-07T08:30:16.421Z</time>
      </trkpt>
      <trkpt lat="45.55946" lon="5.29405">
        <ele>346</ele>
        <time>2021-03-07T08:30:17.420Z</time>
      </trkpt>
      <trkpt lat="45.55947" lon="5.29413">
        <ele>346</ele>
        <time>2021-03-07T08:30:18.420Z</time>
      </trkpt>
      <trkpt lat="45.55947" lon="5.29419">
        <ele>346</ele>
        <time>2021-03-07T08:30:19.421Z</time>
      </trkpt>
      <trkpt lat="45.55948" lon="5.29428">
        <ele>346</ele>
        <time>2021-03-07T08:30:20.421Z</time>
      </trkpt>
      <trkpt lat="45.55949" lon="5.29436">
        <ele>346</ele>
        <time>2021-03-07T08:30:21.420Z</time>
      </trkpt>
      <trkpt lat="45.5595" lon="5.29444">
        <ele>347</ele>
        <time>2021-03-07T08:30:22.421Z</time>
      </trkpt>
      <trkpt lat="45.55951" lon="5.29451">
        <ele>347</ele>
        <time>2021-03-07T08:30:23.421Z</time>
      </trkpt>
      <trkpt lat="45.55953" lon="5.29458">
        <ele>347</ele>
        <time>2021-03-07T08:30:24.420Z</time>
      </trkpt>
      <trkpt lat="45.55955" lon="5.29465">
        <ele>347</ele>
        <time>2021-03-07T08:30:25.420Z</time>
      </trkpt>
      <trkpt lat="45.55956" lon="5.29473">
        <ele>347</ele>
        <time>2021-03-07T08:30:26.420Z</time>
      </trkpt>
      <trkpt lat="45.55956" lon="5.29481">
        <ele>347</ele>
        <time>2021-03-07T08:30:27.421Z</time>
      </trkpt>
      <trkpt lat="45.55957" lon="5.29488">
        <ele>347</ele>
        <time>2021-03-07T08:30:28.421Z</time>
      </trkpt>
      <trkpt lat="45.55958" lon="5.29495">
        <ele>347</ele>
        <time>2021-03-07T08:30:29.420Z</time>
      </trkpt>
      <trkpt lat="45.5596" lon="5.29502">
        <ele>347</ele>
        <time>2021-03-07T08:30:30.421Z</time>
      </trkpt>
      <trkpt lat="45.55961" lon="5.29509">
        <ele>348</ele>
        <time>2021-03-07T08:30:31.420Z</time>
      </trkpt>
      <trkpt lat="45.55963" lon="5.29514">
        <ele>348</ele>
        <time>2021-03-07T08:30:32.420Z</time>
      </trkpt>
      <trkpt lat="45.55964" lon="5.2952">
        <ele>349</ele>
        <time>2021-03-07T08:30:33.420Z</time>
      </trkpt>
      <trkpt lat="45.55967" lon="5.29526">
        <ele>350</ele>
        <time>2021-03-07T08:30:34.420Z</time>
      </trkpt>
      <trkpt lat="45.55969" lon="5.29532">
        <ele>350</ele>
        <time>2021-03-07T08:30:35.421Z</time>
      </trkpt>
      <trkpt lat="45.55971" lon="5.29539">
        <ele>351</ele>
        <time>2021-03-07T08:30:36.420Z</time>
      </trkpt>
      <trkpt lat="45.55973" lon="5.29545">
        <ele>351</ele>
        <time>2021-03-07T08:30:37.420Z</time>
      </trkpt>
      <trkpt lat="45.55974" lon="5.29551">
        <ele>352</ele>
        <time>2021-03-07T08:30:38.420Z</time>
      </trkpt>
      <trkpt lat="45.55976" lon="5.29558">
        <ele>352</ele>
        <time>2021-03-07T08:30:39.421Z</time>
      </trkpt>
      <trkpt lat="45.55976" lon="5.29565">
        <ele>352</ele>
        <time>2021-03-07T08:30:40.421Z</time>
      </trkpt>
      <trkpt lat="45.55977" lon="5.29572">
        <ele>353</ele>
        <time>2021-03-07T08:30:41.421Z</time>
      </trkpt>
      <trkpt lat="45.55977" lon="5.2958">
        <ele>353</ele>
        <time>2021-03-07T08:30:42.420Z</time>
      </trkpt>
      <trkpt lat="45.55977" lon="5.29589">
        <ele>353</ele>
        <time>2021-03-07T08:30:43.420Z</time>
      </trkpt>
      <trkpt lat="45.55976" lon="5.29598">
        <ele>353</ele>
        <time>2021-03-07T08:30:44.420Z</time>
      </trkpt>
      <trkpt lat="45.55976" lon="5.29608">
        <ele>353</ele>
        <time>2021-03-07T08:30:45.421Z</time>
      </trkpt>
      <trkpt lat="45.55975" lon="5.29619">
        <ele>353</ele>
        <time>2021-03-07T08:30:46.421Z</time>
      </trkpt>
      <trkpt lat="45.55975" lon="5.2963">
        <ele>352</ele>
        <time>2021-03-07T08:30:47.420Z</time>
      </trkpt>
      <trkpt lat="45.55975" lon="5.29642">
        <ele>352</ele>
        <time>2021-03-07T08:30:48.420Z</time>
      </trkpt>
      <trkpt lat="45.55975" lon="5.29654">
        <ele>351</ele>
        <time>2021-03-07T08:30:49.420Z</time>
      </trkpt>
      <trkpt lat="45.55974" lon="5.29667">
        <ele>351</ele>
        <time>2021-03-07T08:30:50.421Z</time>
      </trkpt>
      <trkpt lat="45.55974" lon="5.2968">
        <ele>350</ele>
        <time>2021-03-07T08:30:51.420Z</time>
      </trkpt>
      <trkpt lat="45.55973" lon="5.29695">
        <ele>350</ele>
        <time>2021-03-07T08:30:52.420Z</time>
      </trkpt>
      <trkpt lat="45.55972" lon="5.29706">
        <ele>349</ele>
        <time>2021-03-07T08:30:53.420Z</time>
      </trkpt>
      <trkpt lat="45.5597" lon="5.29718">
        <ele>348</ele>
        <time>2021-03-07T08:30:54.420Z</time>
      </trkpt>
      <trkpt lat="45.55968" lon="5.29733">
        <ele>347</ele>
        <time>2021-03-07T08:30:55.420Z</time>
      </trkpt>
      <trkpt lat="45.55966" lon="5.29744">
        <ele>346</ele>
        <time>2021-03-07T08:30:56.420Z</time>
      </trkpt>
      <trkpt lat="45.55965" lon="5.29756">
        <ele>345</ele>
        <time>2021-03-07T08:30:57.420Z</time>
      </trkpt>
      <trkpt lat="45.55965" lon="5.29769">
        <ele>345</ele>
        <time>2021-03-07T08:30:58.420Z</time>
      </trkpt>
      <trkpt lat="45.55965" lon="5.29782">
        <ele>344</ele>
        <time>2021-03-07T08:30:59.420Z</time>
      </trkpt>
      <trkpt lat="45.55965" lon="5.29794">
        <ele>343</ele>
        <time>2021-03-07T08:31:00.420Z</time>
      </trkpt>
      <trkpt lat="45.55965" lon="5.2981">
        <ele>342</ele>
        <time>2021-03-07T08:31:01.420Z</time>
      </trkpt>
      <trkpt lat="45.55963" lon="5.29821">
        <ele>341</ele>
        <time>2021-03-07T08:31:02.421Z</time>
      </trkpt>
      <trkpt lat="45.5596" lon="5.29836">
        <ele>340</ele>
        <time>2021-03-07T08:31:03.420Z</time>
      </trkpt>
      <trkpt lat="45.55957" lon="5.29848">
        <ele>339</ele>
        <time>2021-03-07T08:31:04.420Z</time>
      </trkpt>
      <trkpt lat="45.55954" lon="5.29858">
        <ele>338</ele>
        <time>2021-03-07T08:31:05.421Z</time>
      </trkpt>
      <trkpt lat="45.55951" lon="5.2987">
        <ele>337</ele>
        <time>2021-03-07T08:31:06.420Z</time>
      </trkpt>
      <trkpt lat="45.55947" lon="5.29882">
        <ele>336</ele>
        <time>2021-03-07T08:31:07.421Z</time>
      </trkpt>
      <trkpt lat="45.55945" lon="5.29894">
        <ele>335</ele>
        <time>2021-03-07T08:31:08.421Z</time>
      </trkpt>
      <trkpt lat="45.55944" lon="5.29906">
        <ele>334</ele>
        <time>2021-03-07T08:31:09.420Z</time>
      </trkpt>
      <trkpt lat="45.55943" lon="5.29921">
        <ele>332</ele>
        <time>2021-03-07T08:31:10.420Z</time>
      </trkpt>
      <trkpt lat="45.55944" lon="5.2993">
        <ele>331</ele>
        <time>2021-03-07T08:31:11.420Z</time>
      </trkpt>
      <trkpt lat="45.55945" lon="5.29943">
        <ele>330</ele>
        <time>2021-03-07T08:31:12.421Z</time>
      </trkpt>
      <trkpt lat="45.55948" lon="5.29955">
        <ele>328</ele>
        <time>2021-03-07T08:31:13.420Z</time>
      </trkpt>
      <trkpt lat="45.55952" lon="5.29968">
        <ele>327</ele>
        <time>2021-03-07T08:31:14.420Z</time>
      </trkpt>
      <trkpt lat="45.55957" lon="5.2998">
        <ele>326</ele>
        <time>2021-03-07T08:31:15.421Z</time>
      </trkpt>
      <trkpt lat="45.55962" lon="5.29992">
        <ele>325</ele>
        <time>2021-03-07T08:31:16.420Z</time>
      </trkpt>
      <trkpt lat="45.55968" lon="5.30004">
        <ele>323</ele>
        <time>2021-03-07T08:31:17.421Z</time>
      </trkpt>
      <trkpt lat="45.55973" lon="5.30016">
        <ele>322</ele>
        <time>2021-03-07T08:31:18.421Z</time>
      </trkpt>
      <trkpt lat="45.55978" lon="5.30028">
        <ele>321</ele>
        <time>2021-03-07T08:31:19.420Z</time>
      </trkpt>
      <trkpt lat="45.55982" lon="5.3004">
        <ele>320</ele>
        <time>2021-03-07T08:31:20.420Z</time>
      </trkpt>
      <trkpt lat="45.55985" lon="5.30052">
        <ele>318</ele>
        <time>2021-03-07T08:31:21.421Z</time>
      </trkpt>
      <trkpt lat="45.55987" lon="5.30067">
        <ele>316</ele>
        <time>2021-03-07T08:31:22.421Z</time>
      </trkpt>
      <trkpt lat="45.55988" lon="5.3008">
        <ele>315</ele>
        <time>2021-03-07T08:31:23.421Z</time>
      </trkpt>
      <trkpt lat="45.55987" lon="5.30093">
        <ele>313</ele>
        <time>2021-03-07T08:31:24.420Z</time>
      </trkpt>
      <trkpt lat="45.55986" lon="5.30104">
        <ele>312</ele>
        <time>2021-03-07T08:31:25.420Z</time>
      </trkpt>
      <trkpt lat="45.55982" lon="5.30116">
        <ele>311</ele>
        <time>2021-03-07T08:31:26.420Z</time>
      </trkpt>
      <trkpt lat="45.55978" lon="5.30128">
        <ele>309</ele>
        <time>2021-03-07T08:31:27.420Z</time>
      </trkpt>
      <trkpt lat="45.5597" lon="5.3014">
        <ele>308</ele>
        <time>2021-03-07T08:31:28.420Z</time>
      </trkpt>
      <trkpt lat="45.55965" lon="5.30147">
        <ele>308</ele>
        <time>2021-03-07T08:31:29.421Z</time>
      </trkpt>
      <trkpt lat="45.55959" lon="5.30153">
        <ele>307</ele>
        <time>2021-03-07T08:31:30.420Z</time>
      </trkpt>
      <trkpt lat="45.55955" lon="5.3016">
        <ele>306</ele>
        <time>2021-03-07T08:31:31.420Z</time>
      </trkpt>
      <trkpt lat="45.55952" lon="5.30169">
        <ele>306</ele>
        <time>2021-03-07T08:31:32.420Z</time>
      </trkpt>
      <trkpt lat="45.5595" lon="5.30178">
        <ele>306</ele>
        <time>2021-03-07T08:31:33.420Z</time>
      </trkpt>
      <trkpt lat="45.55949" lon="5.30188">
        <ele>305</ele>
        <time>2021-03-07T08:31:34.420Z</time>
      </trkpt>
      <trkpt lat="45.55947" lon="5.30199">
        <ele>305</ele>
        <time>2021-03-07T08:31:35.420Z</time>
      </trkpt>
      <trkpt lat="45.55946" lon="5.3021">
        <ele>304</ele>
        <time>2021-03-07T08:31:36.420Z</time>
      </trkpt>
      <trkpt lat="45.55943" lon="5.30221">
        <ele>304</ele>
        <time>2021-03-07T08:31:37.420Z</time>
      </trkpt>
      <trkpt lat="45.55941" lon="5.30229">
        <ele>304</ele>
        <time>2021-03-07T08:31:38.420Z</time>
      </trkpt>
      <trkpt lat="45.55936" lon="5.30239">
        <ele>303</ele>
        <time>2021-03-07T08:31:39.420Z</time>
      </trkpt>
      <trkpt lat="45.55931" lon="5.30249">
        <ele>303</ele>
        <time>2021-03-07T08:31:40.420Z</time>
      </trkpt>
      <trkpt lat="45.55925" lon="5.30259">
        <ele>303</ele>
        <time>2021-03-07T08:31:41.421Z</time>
      </trkpt>
      <trkpt lat="45.55919" lon="5.30271">
        <ele>302</ele>
        <time>2021-03-07T08:31:42.421Z</time>
      </trkpt>
      <trkpt lat="45.55914" lon="5.30283">
        <ele>302</ele>
        <time>2021-03-07T08:31:43.421Z</time>
      </trkpt>
      <trkpt lat="45.5591" lon="5.30296">
        <ele>301</ele>
        <time>2021-03-07T08:31:44.421Z</time>
      </trkpt>
      <trkpt lat="45.55906" lon="5.30311">
        <ele>301</ele>
        <time>2021-03-07T08:31:45.420Z</time>
      </trkpt>
      <trkpt lat="45.55905" lon="5.30321">
        <ele>300</ele>
        <time>2021-03-07T08:31:46.420Z</time>
      </trkpt>
      <trkpt lat="45.55903" lon="5.30333">
        <ele>299</ele>
        <time>2021-03-07T08:31:47.421Z</time>
      </trkpt>
      <trkpt lat="45.55903" lon="5.30345">
        <ele>298</ele>
        <time>2021-03-07T08:31:48.420Z</time>
      </trkpt>
      <trkpt lat="45.55903" lon="5.30356">
        <ele>298</ele>
        <time>2021-03-07T08:31:49.420Z</time>
      </trkpt>
      <trkpt lat="45.55905" lon="5.30367">
        <ele>297</ele>
        <time>2021-03-07T08:31:50.421Z</time>
      </trkpt>
      <trkpt lat="45.55906" lon="5.30376">
        <ele>296</ele>
        <time>2021-03-07T08:31:51.420Z</time>
      </trkpt>
      <trkpt lat="45.55908" lon="5.30386">
        <ele>296</ele>
        <time>2021-03-07T08:31:52.420Z</time>
      </trkpt>
      <trkpt lat="45.55909" lon="5.30392">
        <ele>295</ele>
        <time>2021-03-07T08:31:53.420Z</time>
      </trkpt>
      <trkpt lat="45.55911" lon="5.30398">
        <ele>295</ele>
        <time>2021-03-07T08:31:54.420Z</time>
      </trkpt>
      <trkpt lat="45.55912" lon="5.30404">
        <ele>295</ele>
        <time>2021-03-07T08:31:55.420Z</time>
      </trkpt>
      <trkpt lat="45.55913" lon="5.30408">
        <ele>295</ele>
        <time>2021-03-07T08:31:56.420Z</time>
      </trkpt>
      <trkpt lat="45.55914" lon="5.30411">
        <ele>295</ele>
        <time>2021-03-07T08:31:57.420Z</time>
      </trkpt>
      <trkpt lat="45.55915" lon="5.30414">
        <ele>294</ele>
        <time>2021-03-07T08:31:58.420Z</time>
      </trkpt>
      <trkpt lat="45.55915" lon="5.30416">
        <ele>294</ele>
        <time>2021-03-07T08:31:59.421Z</time>
      </trkpt>
      <trkpt lat="45.55915" lon="5.30418">
        <ele>294</ele>
        <time>2021-03-07T08:32:00.420Z</time>
      </trkpt>
      <trkpt lat="45.55916" lon="5.30419">
        <ele>293</ele>
        <time>2021-03-07T08:32:01.421Z</time>
      </trkpt>
      <trkpt lat="45.55916" lon="5.3042">
        <ele>293</ele>
        <time>2021-03-07T08:32:02.420Z</time>
      </trkpt>
      <trkpt lat="45.55916" lon="5.3042">
        <ele>293</ele>
        <time>2021-03-07T08:32:03.420Z</time>
      </trkpt>
      <trkpt lat="45.55916" lon="5.3042">
        <ele>293</ele>
        <time>2021-03-07T08:32:04.421Z</time>
      </trkpt>
      <trkpt lat="45.55917" lon="5.30419">
        <ele>293</ele>
        <time>2021-03-07T08:32:05.420Z</time>
      </trkpt>
      <trkpt lat="45.55918" lon="5.30418">
        <ele>293</ele>
        <time>2021-03-07T08:32:06.420Z</time>
      </trkpt>
      <trkpt lat="45.55921" lon="5.30428">
        <ele>290</ele>
        <time>2021-03-07T08:32:07.420Z</time>
      </trkpt>
      <trkpt lat="45.55923" lon="5.30432">
        <ele>290</ele>
        <time>2021-03-07T08:32:08.420Z</time>
      </trkpt>
      <trkpt lat="45.55924" lon="5.30436">
        <ele>290</ele>
        <time>2021-03-07T08:32:09.420Z</time>
      </trkpt>
      <trkpt lat="45.55924" lon="5.30441">
        <ele>290</ele>
        <time>2021-03-07T08:32:10.421Z</time>
      </trkpt>
      <trkpt lat="45.55925" lon="5.30446">
        <ele>291</ele>
        <time>2021-03-07T08:32:11.421Z</time>
      </trkpt>
      <trkpt lat="45.55926" lon="5.30452">
        <ele>291</ele>
        <time>2021-03-07T08:32:12.421Z</time>
      </trkpt>
      <trkpt lat="45.55926" lon="5.30457">
        <ele>291</ele>
        <time>2021-03-07T08:32:13.421Z</time>
      </trkpt>
      <trkpt lat="45.55925" lon="5.30463">
        <ele>291</ele>
        <time>2021-03-07T08:32:14.420Z</time>
      </trkpt>
      <trkpt lat="45.55925" lon="5.30469">
        <ele>291</ele>
        <time>2021-03-07T08:32:15.420Z</time>
      </trkpt>
      <trkpt lat="45.55923" lon="5.30473">
        <ele>292</ele>
        <time>2021-03-07T08:32:16.421Z</time>
      </trkpt>
      <trkpt lat="45.55922" lon="5.30481">
        <ele>292</ele>
        <time>2021-03-07T08:32:17.420Z</time>
      </trkpt>
      <trkpt lat="45.55921" lon="5.30488">
        <ele>292</ele>
        <time>2021-03-07T08:32:18.421Z</time>
      </trkpt>
      <trkpt lat="45.5592" lon="5.30494">
        <ele>293</ele>
        <time>2021-03-07T08:32:19.421Z</time>
      </trkpt>
      <trkpt lat="45.55919" lon="5.30501">
        <ele>294</ele>
        <time>2021-03-07T08:32:20.421Z</time>
      </trkpt>
      <trkpt lat="45.55919" lon="5.30507">
        <ele>294</ele>
        <time>2021-03-07T08:32:21.420Z</time>
      </trkpt>
      <trkpt lat="45.55919" lon="5.30513">
        <ele>295</ele>
        <time>2021-03-07T08:32:22.421Z</time>
      </trkpt>
      <trkpt lat="45.55918" lon="5.30519">
        <ele>295</ele>
        <time>2021-03-07T08:32:23.420Z</time>
      </trkpt>
      <trkpt lat="45.55918" lon="5.30526">
        <ele>296</ele>
        <time>2021-03-07T08:32:24.421Z</time>
      </trkpt>
      <trkpt lat="45.55916" lon="5.30532">
        <ele>296</ele>
        <time>2021-03-07T08:32:25.420Z</time>
      </trkpt>
      <trkpt lat="45.55916" lon="5.30539">
        <ele>297</ele>
        <time>2021-03-07T08:32:26.421Z</time>
      </trkpt>
      <trkpt lat="45.55915" lon="5.30546">
        <ele>298</ele>
        <time>2021-03-07T08:32:27.420Z</time>
      </trkpt>
      <trkpt lat="45.55914" lon="5.30553">
        <ele>298</ele>
        <time>2021-03-07T08:32:28.420Z</time>
      </trkpt>
      <trkpt lat="45.55912" lon="5.30559">
        <ele>298</ele>
        <time>2021-03-07T08:32:29.421Z</time>
      </trkpt>
      <trkpt lat="45.55911" lon="5.30565">
        <ele>298</ele>
        <time>2021-03-07T08:32:30.421Z</time>
      </trkpt>
      <trkpt lat="45.5591" lon="5.30572">
        <ele>299</ele>
        <time>2021-03-07T08:32:31.420Z</time>
      </trkpt>
      <trkpt lat="45.55909" lon="5.30578">
        <ele>299</ele>
        <time>2021-03-07T08:32:32.420Z</time>
      </trkpt>
      <trkpt lat="45.55909" lon="5.30583">
        <ele>299</ele>
        <time>2021-03-07T08:32:33.420Z</time>
      </trkpt>
      <trkpt lat="45.55908" lon="5.3059">
        <ele>299</ele>
        <time>2021-03-07T08:32:34.420Z</time>
      </trkpt>
      <trkpt lat="45.55907" lon="5.30597">
        <ele>299</ele>
        <time>2021-03-07T08:32:35.421Z</time>
      </trkpt>
      <trkpt lat="45.55906" lon="5.30604">
        <ele>299</ele>
        <time>2021-03-07T08:32:36.421Z</time>
      </trkpt>
      <trkpt lat="45.55905" lon="5.30613">
        <ele>298</ele>
        <time>2021-03-07T08:32:37.421Z</time>
      </trkpt>
      <trkpt lat="45.55905" lon="5.30621">
        <ele>298</ele>
        <time>2021-03-07T08:32:38.420Z</time>
      </trkpt>
      <trkpt lat="45.55905" lon="5.30628">
        <ele>298</ele>
        <time>2021-03-07T08:32:39.421Z</time>
      </trkpt>
      <trkpt lat="45.55905" lon="5.30636">
        <ele>298</ele>
        <time>2021-03-07T08:32:40.421Z</time>
      </trkpt>
      <trkpt lat="45.55905" lon="5.30644">
        <ele>298</ele>
        <time>2021-03-07T08:32:41.420Z</time>
      </trkpt>
      <trkpt lat="45.55904" lon="5.30651">
        <ele>298</ele>
        <time>2021-03-07T08:32:42.421Z</time>
      </trkpt>
      <trkpt lat="45.55904" lon="5.30659">
        <ele>297</ele>
        <time>2021-03-07T08:32:43.420Z</time>
      </trkpt>
      <trkpt lat="45.55904" lon="5.30669">
        <ele>297</ele>
        <time>2021-03-07T08:32:44.421Z</time>
      </trkpt>
      <trkpt lat="45.55904" lon="5.30675">
        <ele>297</ele>
        <time>2021-03-07T08:32:45.421Z</time>
      </trkpt>
      <trkpt lat="45.55904" lon="5.30685">
        <ele>297</ele>
        <time>2021-03-07T08:32:46.421Z</time>
      </trkpt>
      <trkpt lat="45.55904" lon="5.30693">
        <ele>296</ele>
        <time>2021-03-07T08:32:47.420Z</time>
      </trkpt>
      <trkpt lat="45.55904" lon="5.30701">
        <ele>296</ele>
        <time>2021-03-07T08:32:48.420Z</time>
      </trkpt>
      <trkpt lat="45.55903" lon="5.30708">
        <ele>296</ele>
        <time>2021-03-07T08:32:49.420Z</time>
      </trkpt>
      <trkpt lat="45.55903" lon="5.30715">
        <ele>296</ele>
        <time>2021-03-07T08:32:50.421Z</time>
      </trkpt>
      <trkpt lat="45.55902" lon="5.30722">
        <ele>296</ele>
        <time>2021-03-07T08:32:51.421Z</time>
      </trkpt>
      <trkpt lat="45.55902" lon="5.30727">
        <ele>296</ele>
        <time>2021-03-07T08:32:52.420Z</time>
      </trkpt>
      <trkpt lat="45.55902" lon="5.30736">
        <ele>296</ele>
        <time>2021-03-07T08:32:53.421Z</time>
      </trkpt>
      <trkpt lat="45.55901" lon="5.30743">
        <ele>297</ele>
        <time>2021-03-07T08:32:54.420Z</time>
      </trkpt>
      <trkpt lat="45.55901" lon="5.30751">
        <ele>297</ele>
        <time>2021-03-07T08:32:55.420Z</time>
      </trkpt>
      <trkpt lat="45.559" lon="5.30759">
        <ele>297</ele>
        <time>2021-03-07T08:32:56.420Z</time>
      </trkpt>
      <trkpt lat="45.559" lon="5.30768">
        <ele>297</ele>
        <time>2021-03-07T08:32:57.421Z</time>
      </trkpt>
      <trkpt lat="45.55899" lon="5.30776">
        <ele>297</ele>
        <time>2021-03-07T08:32:58.420Z</time>
      </trkpt>
      <trkpt lat="45.55898" lon="5.30785">
        <ele>297</ele>
        <time>2021-03-07T08:32:59.420Z</time>
      </trkpt>
      <trkpt lat="45.55897" lon="5.30793">
        <ele>297</ele>
        <time>2021-03-07T08:33:00.421Z</time>
      </trkpt>
      <trkpt lat="45.55897" lon="5.308">
        <ele>297</ele>
        <time>2021-03-07T08:33:01.420Z</time>
      </trkpt>
      <trkpt lat="45.55896" lon="5.30808">
        <ele>297</ele>
        <time>2021-03-07T08:33:02.421Z</time>
      </trkpt>
      <trkpt lat="45.55895" lon="5.30818">
        <ele>297</ele>
        <time>2021-03-07T08:33:03.421Z</time>
      </trkpt>
      <trkpt lat="45.55894" lon="5.30826">
        <ele>298</ele>
        <time>2021-03-07T08:33:04.421Z</time>
      </trkpt>
      <trkpt lat="45.55894" lon="5.30833">
        <ele>298</ele>
        <time>2021-03-07T08:33:05.420Z</time>
      </trkpt>
      <trkpt lat="45.55894" lon="5.30839">
        <ele>298</ele>
        <time>2021-03-07T08:33:06.421Z</time>
      </trkpt>
      <trkpt lat="45.55894" lon="5.30848">
        <ele>298</ele>
        <time>2021-03-07T08:33:07.420Z</time>
      </trkpt>
      <trkpt lat="45.55893" lon="5.30856">
        <ele>298</ele>
        <time>2021-03-07T08:33:08.421Z</time>
      </trkpt>
      <trkpt lat="45.55893" lon="5.30864">
        <ele>298</ele>
        <time>2021-03-07T08:33:09.421Z</time>
      </trkpt>
      <trkpt lat="45.55892" lon="5.30872">
        <ele>298</ele>
        <time>2021-03-07T08:33:10.420Z</time>
      </trkpt>
      <trkpt lat="45.55892" lon="5.30878">
        <ele>298</ele>
        <time>2021-03-07T08:33:11.421Z</time>
      </trkpt>
      <trkpt lat="45.55891" lon="5.30887">
        <ele>298</ele>
        <time>2021-03-07T08:33:12.421Z</time>
      </trkpt>
      <trkpt lat="45.55891" lon="5.30895">
        <ele>298</ele>
        <time>2021-03-07T08:33:13.420Z</time>
      </trkpt>
      <trkpt lat="45.5589" lon="5.30903">
        <ele>298</ele>
        <time>2021-03-07T08:33:14.420Z</time>
      </trkpt>
      <trkpt lat="45.5589" lon="5.3091">
        <ele>298</ele>
        <time>2021-03-07T08:33:15.421Z</time>
      </trkpt>
      <trkpt lat="45.55889" lon="5.30918">
        <ele>297</ele>
        <time>2021-03-07T08:33:16.420Z</time>
      </trkpt>
      <trkpt lat="45.55889" lon="5.30927">
        <ele>297</ele>
        <time>2021-03-07T08:33:17.421Z</time>
      </trkpt>
      <trkpt lat="45.55889" lon="5.30935">
        <ele>297</ele>
        <time>2021-03-07T08:33:18.421Z</time>
      </trkpt>
      <trkpt lat="45.55889" lon="5.30943">
        <ele>298</ele>
        <time>2021-03-07T08:33:19.420Z</time>
      </trkpt>
      <trkpt lat="45.5589" lon="5.30949">
        <ele>297</ele>
        <time>2021-03-07T08:33:20.421Z</time>
      </trkpt>
      <trkpt lat="45.55889" lon="5.30959">
        <ele>297</ele>
        <time>2021-03-07T08:33:21.420Z</time>
      </trkpt>
      <trkpt lat="45.55889" lon="5.30967">
        <ele>297</ele>
        <time>2021-03-07T08:33:22.421Z</time>
      </trkpt>
      <trkpt lat="45.55889" lon="5.30975">
        <ele>297</ele>
        <time>2021-03-07T08:33:23.421Z</time>
      </trkpt>
      <trkpt lat="45.55889" lon="5.30983">
        <ele>297</ele>
        <time>2021-03-07T08:33:24.420Z</time>
      </trkpt>
      <trkpt lat="45.55889" lon="5.3099">
        <ele>298</ele>
        <time>2021-03-07T08:33:25.421Z</time>
      </trkpt>
      <trkpt lat="45.55889" lon="5.30998">
        <ele>298</ele>
        <time>2021-03-07T08:33:26.421Z</time>
      </trkpt>
      <trkpt lat="45.55888" lon="5.31006">
        <ele>298</ele>
        <time>2021-03-07T08:33:27.421Z</time>
      </trkpt>
      <trkpt lat="45.55888" lon="5.31013">
        <ele>298</ele>
        <time>2021-03-07T08:33:28.420Z</time>
      </trkpt>
      <trkpt lat="45.55888" lon="5.31019">
        <ele>298</ele>
        <time>2021-03-07T08:33:29.421Z</time>
      </trkpt>
      <trkpt lat="45.55887" lon="5.31028">
        <ele>298</ele>
        <time>2021-03-07T08:33:30.421Z</time>
      </trkpt>
      <trkpt lat="45.55886" lon="5.31035">
        <ele>298</ele>
        <time>2021-03-07T08:33:31.421Z</time>
      </trkpt>
      <trkpt lat="45.55884" lon="5.31043">
        <ele>298</ele>
        <time>2021-03-07T08:33:32.421Z</time>
      </trkpt>
      <trkpt lat="45.55883" lon="5.31051">
        <ele>298</ele>
        <time>2021-03-07T08:33:33.421Z</time>
      </trkpt>
      <trkpt lat="45.55883" lon="5.31058">
        <ele>298</ele>
        <time>2021-03-07T08:33:34.420Z</time>
      </trkpt>
      <trkpt lat="45.55882" lon="5.31066">
        <ele>298</ele>
        <time>2021-03-07T08:33:35.421Z</time>
      </trkpt>
      <trkpt lat="45.55881" lon="5.31073">
        <ele>298</ele>
        <time>2021-03-07T08:33:36.421Z</time>
      </trkpt>
      <trkpt lat="45.55881" lon="5.3108">
        <ele>298</ele>
        <time>2021-03-07T08:33:37.421Z</time>
      </trkpt>
      <trkpt lat="45.5588" lon="5.31085">
        <ele>298</ele>
        <time>2021-03-07T08:33:38.421Z</time>
      </trkpt>
      <trkpt lat="45.55879" lon="5.31092">
        <ele>298</ele>
        <time>2021-03-07T08:33:39.421Z</time>
      </trkpt>
      <trkpt lat="45.55878" lon="5.31099">
        <ele>299</ele>
        <time>2021-03-07T08:33:40.421Z</time>
      </trkpt>
      <trkpt lat="45.55877" lon="5.31105">
        <ele>299</ele>
        <time>2021-03-07T08:33:41.420Z</time>
      </trkpt>
      <trkpt lat="45.55877" lon="5.31111">
        <ele>300</ele>
        <time>2021-03-07T08:33:42.421Z</time>
      </trkpt>
      <trkpt lat="45.55877" lon="5.31116">
        <ele>300</ele>
        <time>2021-03-07T08:33:43.420Z</time>
      </trkpt>
      <trkpt lat="45.55876" lon="5.31122">
        <ele>301</ele>
        <time>2021-03-07T08:33:44.421Z</time>
      </trkpt>
      <trkpt lat="45.55875" lon="5.31128">
        <ele>301</ele>
        <time>2021-03-07T08:33:45.421Z</time>
      </trkpt>
      <trkpt lat="45.55875" lon="5.31134">
        <ele>301</ele>
        <time>2021-03-07T08:33:46.421Z</time>
      </trkpt>
      <trkpt lat="45.55874" lon="5.31138">
        <ele>302</ele>
        <time>2021-03-07T08:33:47.421Z</time>
      </trkpt>
      <trkpt lat="45.55874" lon="5.31143">
        <ele>302</ele>
        <time>2021-03-07T08:33:48.420Z</time>
      </trkpt>
      <trkpt lat="45.55874" lon="5.31148">
        <ele>302</ele>
        <time>2021-03-07T08:33:49.421Z</time>
      </trkpt>
      <trkpt lat="45.55874" lon="5.31155">
        <ele>303</ele>
        <time>2021-03-07T08:33:50.421Z</time>
      </trkpt>
      <trkpt lat="45.55873" lon="5.3116">
        <ele>303</ele>
        <time>2021-03-07T08:33:51.420Z</time>
      </trkpt>
      <trkpt lat="45.55873" lon="5.31164">
        <ele>304</ele>
        <time>2021-03-07T08:33:52.421Z</time>
      </trkpt>
      <trkpt lat="45.55873" lon="5.31169">
        <ele>304</ele>
        <time>2021-03-07T08:33:53.420Z</time>
      </trkpt>
      <trkpt lat="45.55873" lon="5.31176">
        <ele>304</ele>
        <time>2021-03-07T08:33:54.421Z</time>
      </trkpt>
      <trkpt lat="45.55873" lon="5.3118">
        <ele>304</ele>
        <time>2021-03-07T08:33:55.421Z</time>
      </trkpt>
      <trkpt lat="45.55874" lon="5.31185">
        <ele>305</ele>
        <time>2021-03-07T08:33:56.421Z</time>
      </trkpt>
      <trkpt lat="45.55874" lon="5.3119">
        <ele>305</ele>
        <time>2021-03-07T08:33:57.421Z</time>
      </trkpt>
      <trkpt lat="45.55875" lon="5.31195">
        <ele>305</ele>
        <time>2021-03-07T08:33:58.421Z</time>
      </trkpt>
      <trkpt lat="45.55876" lon="5.312">
        <ele>305</ele>
        <time>2021-03-07T08:33:59.420Z</time>
      </trkpt>
      <trkpt lat="45.55876" lon="5.31205">
        <ele>305</ele>
        <time>2021-03-07T08:34:00.421Z</time>
      </trkpt>
      <trkpt lat="45.55877" lon="5.31209">
        <ele>305</ele>
        <time>2021-03-07T08:34:01.421Z</time>
      </trkpt>
      <trkpt lat="45.55878" lon="5.31215">
        <ele>305</ele>
        <time>2021-03-07T08:34:02.421Z</time>
      </trkpt>
      <trkpt lat="45.5588" lon="5.31221">
        <ele>306</ele>
        <time>2021-03-07T08:34:03.421Z</time>
      </trkpt>
      <trkpt lat="45.55881" lon="5.31226">
        <ele>306</ele>
        <time>2021-03-07T08:34:04.421Z</time>
      </trkpt>
      <trkpt lat="45.55881" lon="5.31232">
        <ele>306</ele>
        <time>2021-03-07T08:34:05.421Z</time>
      </trkpt>
      <trkpt lat="45.55882" lon="5.31236">
        <ele>307</ele>
        <time>2021-03-07T08:34:06.421Z</time>
      </trkpt>
      <trkpt lat="45.55883" lon="5.31243">
        <ele>308</ele>
        <time>2021-03-07T08:34:07.421Z</time>
      </trkpt>
      <trkpt lat="45.55884" lon="5.31248">
        <ele>309</ele>
        <time>2021-03-07T08:34:08.420Z</time>
      </trkpt>
      <trkpt lat="45.55885" lon="5.31253">
        <ele>309</ele>
        <time>2021-03-07T08:34:09.421Z</time>
      </trkpt>
      <trkpt lat="45.55886" lon="5.31258">
        <ele>310</ele>
        <time>2021-03-07T08:34:10.421Z</time>
      </trkpt>
      <trkpt lat="45.55887" lon="5.31261">
        <ele>310</ele>
        <time>2021-03-07T08:34:11.421Z</time>
      </trkpt>
      <trkpt lat="45.55888" lon="5.31266">
        <ele>310</ele>
        <time>2021-03-07T08:34:12.420Z</time>
      </trkpt>
      <trkpt lat="45.5589" lon="5.31272">
        <ele>311</ele>
        <time>2021-03-07T08:34:13.420Z</time>
      </trkpt>
      <trkpt lat="45.5589" lon="5.31278">
        <ele>311</ele>
        <time>2021-03-07T08:34:14.421Z</time>
      </trkpt>
      <trkpt lat="45.55891" lon="5.31284">
        <ele>311</ele>
        <time>2021-03-07T08:34:15.421Z</time>
      </trkpt>
      <trkpt lat="45.55892" lon="5.3129">
        <ele>312</ele>
        <time>2021-03-07T08:34:16.421Z</time>
      </trkpt>
      <trkpt lat="45.55892" lon="5.31295">
        <ele>312</ele>
        <time>2021-03-07T08:34:17.421Z</time>
      </trkpt>
      <trkpt lat="45.55893" lon="5.31301">
        <ele>313</ele>
        <time>2021-03-07T08:34:18.420Z</time>
      </trkpt>
      <trkpt lat="45.55894" lon="5.31306">
        <ele>313</ele>
        <time>2021-03-07T08:34:19.421Z</time>
      </trkpt>
      <trkpt lat="45.55895" lon="5.31311">
        <ele>314</ele>
        <time>2021-03-07T08:34:20.420Z</time>
      </trkpt>
      <trkpt lat="45.55895" lon="5.31316">
        <ele>314</ele>
        <time>2021-03-07T08:34:21.421Z</time>
      </trkpt>
      <trkpt lat="45.55896" lon="5.31322">
        <ele>314</ele>
        <time>2021-03-07T08:34:22.421Z</time>
      </trkpt>
      <trkpt lat="45.55896" lon="5.31327">
        <ele>314</ele>
        <time>2021-03-07T08:34:23.421Z</time>
      </trkpt>
      <trkpt lat="45.55896" lon="5.31333">
        <ele>314</ele>
        <time>2021-03-07T08:34:24.421Z</time>
      </trkpt>
      <trkpt lat="45.55897" lon="5.31339">
        <ele>315</ele>
        <time>2021-03-07T08:34:25.421Z</time>
      </trkpt>
      <trkpt lat="45.55896" lon="5.31345">
        <ele>315</ele>
        <time>2021-03-07T08:34:26.420Z</time>
      </trkpt>
      <trkpt lat="45.55896" lon="5.31352">
        <ele>315</ele>
        <time>2021-03-07T08:34:27.421Z</time>
      </trkpt>
      <trkpt lat="45.55896" lon="5.31358">
        <ele>316</ele>
        <time>2021-03-07T08:34:28.421Z</time>
      </trkpt>
      <trkpt lat="45.55895" lon="5.31363">
        <ele>316</ele>
        <time>2021-03-07T08:34:29.420Z</time>
      </trkpt>
      <trkpt lat="45.55895" lon="5.3137">
        <ele>316</ele>
        <time>2021-03-07T08:34:30.421Z</time>
      </trkpt>
      <trkpt lat="45.55895" lon="5.31378">
        <ele>316</ele>
        <time>2021-03-07T08:34:31.421Z</time>
      </trkpt>
      <trkpt lat="45.55894" lon="5.31384">
        <ele>316</ele>
        <time>2021-03-07T08:34:32.421Z</time>
      </trkpt>
      <trkpt lat="45.55894" lon="5.31391">
        <ele>316</ele>
        <time>2021-03-07T08:34:33.421Z</time>
      </trkpt>
      <trkpt lat="45.55893" lon="5.31397">
        <ele>316</ele>
        <time>2021-03-07T08:34:34.420Z</time>
      </trkpt>
      <trkpt lat="45.55893" lon="5.31404">
        <ele>316</ele>
        <time>2021-03-07T08:34:35.420Z</time>
      </trkpt>
      <trkpt lat="45.55893" lon="5.31411">
        <ele>316</ele>
        <time>2021-03-07T08:34:36.420Z</time>
      </trkpt>
      <trkpt lat="45.55893" lon="5.31417">
        <ele>316</ele>
        <time>2021-03-07T08:34:37.420Z</time>
      </trkpt>
      <trkpt lat="45.55892" lon="5.31423">
        <ele>316</ele>
        <time>2021-03-07T08:34:38.421Z</time>
      </trkpt>
      <trkpt lat="45.55892" lon="5.3143">
        <ele>316</ele>
        <time>2021-03-07T08:34:39.421Z</time>
      </trkpt>
      <trkpt lat="45.55892" lon="5.31437">
        <ele>316</ele>
        <time>2021-03-07T08:34:40.421Z</time>
      </trkpt>
      <trkpt lat="45.55892" lon="5.31443">
        <ele>316</ele>
        <time>2021-03-07T08:34:41.420Z</time>
      </trkpt>
      <trkpt lat="45.55892" lon="5.3145">
        <ele>316</ele>
        <time>2021-03-07T08:34:42.421Z</time>
      </trkpt>
      <trkpt lat="45.55893" lon="5.31455">
        <ele>316</ele>
        <time>2021-03-07T08:34:43.421Z</time>
      </trkpt>
      <trkpt lat="45.55893" lon="5.31461">
        <ele>316</ele>
        <time>2021-03-07T08:34:44.421Z</time>
      </trkpt>
      <trkpt lat="45.55895" lon="5.31469">
        <ele>316</ele>
        <time>2021-03-07T08:34:45.420Z</time>
      </trkpt>
      <trkpt lat="45.55896" lon="5.31476">
        <ele>316</ele>
        <time>2021-03-07T08:34:46.421Z</time>
      </trkpt>
      <trkpt lat="45.55897" lon="5.31483">
        <ele>316</ele>
        <time>2021-03-07T08:34:47.420Z</time>
      </trkpt>
      <trkpt lat="45.55899" lon="5.31488">
        <ele>316</ele>
        <time>2021-03-07T08:34:48.420Z</time>
      </trkpt>
      <trkpt lat="45.55901" lon="5.31496">
        <ele>316</ele>
        <time>2021-03-07T08:34:49.421Z</time>
      </trkpt>
      <trkpt lat="45.55903" lon="5.31502">
        <ele>316</ele>
        <time>2021-03-07T08:34:50.420Z</time>
      </trkpt>
      <trkpt lat="45.55904" lon="5.31509">
        <ele>316</ele>
        <time>2021-03-07T08:34:51.421Z</time>
      </trkpt>
      <trkpt lat="45.55906" lon="5.31514">
        <ele>316</ele>
        <time>2021-03-07T08:34:52.421Z</time>
      </trkpt>
      <trkpt lat="45.55908" lon="5.3152">
        <ele>316</ele>
        <time>2021-03-07T08:34:53.421Z</time>
      </trkpt>
      <trkpt lat="45.5591" lon="5.31528">
        <ele>317</ele>
        <time>2021-03-07T08:34:54.420Z</time>
      </trkpt>
      <trkpt lat="45.55913" lon="5.31535">
        <ele>317</ele>
        <time>2021-03-07T08:34:55.421Z</time>
      </trkpt>
      <trkpt lat="45.55916" lon="5.31542">
        <ele>317</ele>
        <time>2021-03-07T08:34:56.421Z</time>
      </trkpt>
      <trkpt lat="45.55918" lon="5.31547">
        <ele>317</ele>
        <time>2021-03-07T08:34:57.421Z</time>
      </trkpt>
      <trkpt lat="45.55922" lon="5.31555">
        <ele>318</ele>
        <time>2021-03-07T08:34:58.421Z</time>
      </trkpt>
      <trkpt lat="45.55925" lon="5.31561">
        <ele>318</ele>
        <time>2021-03-07T08:34:59.421Z</time>
      </trkpt>
      <trkpt lat="45.55928" lon="5.31567">
        <ele>319</ele>
        <time>2021-03-07T08:35:00.421Z</time>
      </trkpt>
      <trkpt lat="45.55932" lon="5.31574">
        <ele>319</ele>
        <time>2021-03-07T08:35:01.420Z</time>
      </trkpt>
      <trkpt lat="45.55935" lon="5.31579">
        <ele>319</ele>
        <time>2021-03-07T08:35:02.420Z</time>
      </trkpt>
      <trkpt lat="45.55939" lon="5.31587">
        <ele>319</ele>
        <time>2021-03-07T08:35:03.421Z</time>
      </trkpt>
      <trkpt lat="45.55942" lon="5.31593">
        <ele>319</ele>
        <time>2021-03-07T08:35:04.421Z</time>
      </trkpt>
      <trkpt lat="45.55946" lon="5.31599">
        <ele>319</ele>
        <time>2021-03-07T08:35:05.420Z</time>
      </trkpt>
      <trkpt lat="45.5595" lon="5.31606">
        <ele>319</ele>
        <time>2021-03-07T08:35:06.421Z</time>
      </trkpt>
      <trkpt lat="45.55952" lon="5.31611">
        <ele>318</ele>
        <time>2021-03-07T08:35:07.420Z</time>
      </trkpt>
      <trkpt lat="45.55957" lon="5.31618">
        <ele>318</ele>
        <time>2021-03-07T08:35:08.421Z</time>
      </trkpt>
      <trkpt lat="45.5596" lon="5.31624">
        <ele>318</ele>
        <time>2021-03-07T08:35:09.421Z</time>
      </trkpt>
      <trkpt lat="45.55964" lon="5.3163">
        <ele>318</ele>
        <time>2021-03-07T08:35:10.420Z</time>
      </trkpt>
      <trkpt lat="45.55968" lon="5.31636">
        <ele>318</ele>
        <time>2021-03-07T08:35:11.421Z</time>
      </trkpt>
      <trkpt lat="45.55971" lon="5.31641">
        <ele>318</ele>
        <time>2021-03-07T08:35:12.421Z</time>
      </trkpt>
      <trkpt lat="45.55976" lon="5.31648">
        <ele>319</ele>
        <time>2021-03-07T08:35:13.421Z</time>
      </trkpt>
      <trkpt lat="45.55979" lon="5.31654">
        <ele>319</ele>
        <time>2021-03-07T08:35:14.420Z</time>
      </trkpt>
      <trkpt lat="45.55983" lon="5.3166">
        <ele>319</ele>
        <time>2021-03-07T08:35:15.420Z</time>
      </trkpt>
      <trkpt lat="45.55985" lon="5.31665">
        <ele>319</ele>
        <time>2021-03-07T08:35:16.421Z</time>
      </trkpt>
      <trkpt lat="45.55988" lon="5.31671">
        <ele>320</ele>
        <time>2021-03-07T08:35:17.421Z</time>
      </trkpt>
      <trkpt lat="45.55992" lon="5.31678">
        <ele>320</ele>
        <time>2021-03-07T08:35:18.420Z</time>
      </trkpt>
      <trkpt lat="45.55995" lon="5.31683">
        <ele>320</ele>
        <time>2021-03-07T08:35:19.421Z</time>
      </trkpt>
      <trkpt lat="45.55998" lon="5.3169">
        <ele>320</ele>
        <time>2021-03-07T08:35:20.420Z</time>
      </trkpt>
      <trkpt lat="45.56002" lon="5.31696">
        <ele>321</ele>
        <time>2021-03-07T08:35:21.421Z</time>
      </trkpt>
      <trkpt lat="45.56005" lon="5.31703">
        <ele>321</ele>
        <time>2021-03-07T08:35:22.420Z</time>
      </trkpt>
      <trkpt lat="45.56009" lon="5.31709">
        <ele>321</ele>
        <time>2021-03-07T08:35:23.420Z</time>
      </trkpt>
      <trkpt lat="45.56012" lon="5.31716">
        <ele>321</ele>
        <time>2021-03-07T08:35:24.421Z</time>
      </trkpt>
      <trkpt lat="45.56015" lon="5.31722">
        <ele>321</ele>
        <time>2021-03-07T08:35:25.421Z</time>
      </trkpt>
      <trkpt lat="45.56019" lon="5.3173">
        <ele>322</ele>
        <time>2021-03-07T08:35:26.421Z</time>
      </trkpt>
      <trkpt lat="45.56022" lon="5.31737">
        <ele>322</ele>
        <time>2021-03-07T08:35:27.421Z</time>
      </trkpt>
      <trkpt lat="45.56025" lon="5.31744">
        <ele>321</ele>
        <time>2021-03-07T08:35:28.420Z</time>
      </trkpt>
      <trkpt lat="45.56027" lon="5.31751">
        <ele>321</ele>
        <time>2021-03-07T08:35:29.420Z</time>
      </trkpt>
      <trkpt lat="45.5603" lon="5.31758">
        <ele>321</ele>
        <time>2021-03-07T08:35:30.421Z</time>
      </trkpt>
      <trkpt lat="45.56032" lon="5.31765">
        <ele>321</ele>
        <time>2021-03-07T08:35:31.421Z</time>
      </trkpt>
      <trkpt lat="45.56034" lon="5.31772">
        <ele>320</ele>
        <time>2021-03-07T08:35:32.420Z</time>
      </trkpt>
      <trkpt lat="45.56037" lon="5.31779">
        <ele>320</ele>
        <time>2021-03-07T08:35:33.421Z</time>
      </trkpt>
      <trkpt lat="45.56038" lon="5.31784">
        <ele>320</ele>
        <time>2021-03-07T08:35:34.421Z</time>
      </trkpt>
      <trkpt lat="45.56041" lon="5.31793">
        <ele>320</ele>
        <time>2021-03-07T08:35:35.421Z</time>
      </trkpt>
      <trkpt lat="45.56043" lon="5.318">
        <ele>320</ele>
        <time>2021-03-07T08:35:36.421Z</time>
      </trkpt>
      <trkpt lat="45.56044" lon="5.31808">
        <ele>320</ele>
        <time>2021-03-07T08:35:37.421Z</time>
      </trkpt>
      <trkpt lat="45.56046" lon="5.31815">
        <ele>321</ele>
        <time>2021-03-07T08:35:38.421Z</time>
      </trkpt>
      <trkpt lat="45.56047" lon="5.31821">
        <ele>321</ele>
        <time>2021-03-07T08:35:39.420Z</time>
      </trkpt>
      <trkpt lat="45.56048" lon="5.3183">
        <ele>321</ele>
        <time>2021-03-07T08:35:40.421Z</time>
      </trkpt>
      <trkpt lat="45.56049" lon="5.31836">
        <ele>321</ele>
        <time>2021-03-07T08:35:41.421Z</time>
      </trkpt>
      <trkpt lat="45.5605" lon="5.31845">
        <ele>321</ele>
        <time>2021-03-07T08:35:42.421Z</time>
      </trkpt>
      <trkpt lat="45.56051" lon="5.31851">
        <ele>321</ele>
        <time>2021-03-07T08:35:43.420Z</time>
      </trkpt>
      <trkpt lat="45.56052" lon="5.31859">
        <ele>321</ele>
        <time>2021-03-07T08:35:44.421Z</time>
      </trkpt>
      <trkpt lat="45.56052" lon="5.31867">
        <ele>321</ele>
        <time>2021-03-07T08:35:45.420Z</time>
      </trkpt>
      <trkpt lat="45.56053" lon="5.31876">
        <ele>321</ele>
        <time>2021-03-07T08:35:46.421Z</time>
      </trkpt>
      <trkpt lat="45.56053" lon="5.31882">
        <ele>321</ele>
        <time>2021-03-07T08:35:47.420Z</time>
      </trkpt>
      <trkpt lat="45.56053" lon="5.31892">
        <ele>321</ele>
        <time>2021-03-07T08:35:48.421Z</time>
      </trkpt>
      <trkpt lat="45.56053" lon="5.319">
        <ele>321</ele>
        <time>2021-03-07T08:35:49.421Z</time>
      </trkpt>
      <trkpt lat="45.56052" lon="5.31908">
        <ele>321</ele>
        <time>2021-03-07T08:35:50.421Z</time>
      </trkpt>
      <trkpt lat="45.56051" lon="5.31915">
        <ele>321</ele>
        <time>2021-03-07T08:35:51.421Z</time>
      </trkpt>
      <trkpt lat="45.56051" lon="5.31921">
        <ele>322</ele>
        <time>2021-03-07T08:35:52.421Z</time>
      </trkpt>
      <trkpt lat="45.5605" lon="5.31928">
        <ele>322</ele>
        <time>2021-03-07T08:35:53.421Z</time>
      </trkpt>
      <trkpt lat="45.56048" lon="5.31936">
        <ele>322</ele>
        <time>2021-03-07T08:35:54.420Z</time>
      </trkpt>
      <trkpt lat="45.56047" lon="5.31943">
        <ele>322</ele>
        <time>2021-03-07T08:35:55.420Z</time>
      </trkpt>
      <trkpt lat="45.56045" lon="5.3195">
        <ele>323</ele>
        <time>2021-03-07T08:35:56.421Z</time>
      </trkpt>
      <trkpt lat="45.56044" lon="5.31957">
        <ele>323</ele>
        <time>2021-03-07T08:35:57.421Z</time>
      </trkpt>
      <trkpt lat="45.56042" lon="5.31964">
        <ele>323</ele>
        <time>2021-03-07T08:35:58.421Z</time>
      </trkpt>
      <trkpt lat="45.56041" lon="5.31971">
        <ele>323</ele>
        <time>2021-03-07T08:35:59.420Z</time>
      </trkpt>
      <trkpt lat="45.56039" lon="5.31978">
        <ele>324</ele>
        <time>2021-03-07T08:36:00.421Z</time>
      </trkpt>
      <trkpt lat="45.56037" lon="5.31984">
        <ele>324</ele>
        <time>2021-03-07T08:36:01.421Z</time>
      </trkpt>
      <trkpt lat="45.56035" lon="5.31991">
        <ele>324</ele>
        <time>2021-03-07T08:36:02.421Z</time>
      </trkpt>
      <trkpt lat="45.56034" lon="5.31996">
        <ele>325</ele>
        <time>2021-03-07T08:36:03.421Z</time>
      </trkpt>
      <trkpt lat="45.56031" lon="5.32004">
        <ele>325</ele>
        <time>2021-03-07T08:36:04.421Z</time>
      </trkpt>
      <trkpt lat="45.56029" lon="5.32011">
        <ele>325</ele>
        <time>2021-03-07T08:36:05.421Z</time>
      </trkpt>
      <trkpt lat="45.56027" lon="5.32017">
        <ele>325</ele>
        <time>2021-03-07T08:36:06.420Z</time>
      </trkpt>
      <trkpt lat="45.56025" lon="5.32024">
        <ele>325</ele>
        <time>2021-03-07T08:36:07.421Z</time>
      </trkpt>
      <trkpt lat="45.56023" lon="5.3203">
        <ele>325</ele>
        <time>2021-03-07T08:36:08.421Z</time>
      </trkpt>
      <trkpt lat="45.56021" lon="5.32037">
        <ele>326</ele>
        <time>2021-03-07T08:36:09.421Z</time>
      </trkpt>
      <trkpt lat="45.5602" lon="5.32043">
        <ele>326</ele>
        <time>2021-03-07T08:36:10.420Z</time>
      </trkpt>
      <trkpt lat="45.56018" lon="5.32048">
        <ele>326</ele>
        <time>2021-03-07T08:36:11.421Z</time>
      </trkpt>
      <trkpt lat="45.56016" lon="5.32055">
        <ele>326</ele>
        <time>2021-03-07T08:36:12.421Z</time>
      </trkpt>
      <trkpt lat="45.56014" lon="5.32061">
        <ele>327</ele>
        <time>2021-03-07T08:36:13.421Z</time>
      </trkpt>
      <trkpt lat="45.56012" lon="5.32069">
        <ele>327</ele>
        <time>2021-03-07T08:36:14.421Z</time>
      </trkpt>
      <trkpt lat="45.5601" lon="5.32075">
        <ele>327</ele>
        <time>2021-03-07T08:36:15.421Z</time>
      </trkpt>
      <trkpt lat="45.56008" lon="5.3208">
        <ele>327</ele>
        <time>2021-03-07T08:36:16.421Z</time>
      </trkpt>
      <trkpt lat="45.56006" lon="5.32088">
        <ele>327</ele>
        <time>2021-03-07T08:36:17.420Z</time>
      </trkpt>
      <trkpt lat="45.56004" lon="5.32095">
        <ele>327</ele>
        <time>2021-03-07T08:36:18.421Z</time>
      </trkpt>
      <trkpt lat="45.56002" lon="5.32101">
        <ele>327</ele>
        <time>2021-03-07T08:36:19.420Z</time>
      </trkpt>
      <trkpt lat="45.56" lon="5.32108">
        <ele>327</ele>
        <time>2021-03-07T08:36:20.420Z</time>
      </trkpt>
      <trkpt lat="45.55998" lon="5.32114">
        <ele>328</ele>
        <time>2021-03-07T08:36:21.421Z</time>
      </trkpt>
      <trkpt lat="45.55996" lon="5.3212">
        <ele>328</ele>
        <time>2021-03-07T08:36:22.421Z</time>
      </trkpt>
      <trkpt lat="45.55995" lon="5.32126">
        <ele>328</ele>
        <time>2021-03-07T08:36:23.421Z</time>
      </trkpt>
      <trkpt lat="45.55993" lon="5.32132">
        <ele>329</ele>
        <time>2021-03-07T08:36:24.421Z</time>
      </trkpt>
      <trkpt lat="45.55992" lon="5.32138">
        <ele>329</ele>
        <time>2021-03-07T08:36:25.420Z</time>
      </trkpt>
      <trkpt lat="45.5599" lon="5.32144">
        <ele>329</ele>
        <time>2021-03-07T08:36:26.421Z</time>
      </trkpt>
      <trkpt lat="45.55988" lon="5.3215">
        <ele>329</ele>
        <time>2021-03-07T08:36:27.421Z</time>
      </trkpt>
      <trkpt lat="45.55986" lon="5.32156">
        <ele>329</ele>
        <time>2021-03-07T08:36:28.420Z</time>
      </trkpt>
      <trkpt lat="45.55985" lon="5.32163">
        <ele>329</ele>
        <time>2021-03-07T08:36:29.420Z</time>
      </trkpt>
      <trkpt lat="45.55983" lon="5.32169">
        <ele>330</ele>
        <time>2021-03-07T08:36:30.421Z</time>
      </trkpt>
      <trkpt lat="45.55981" lon="5.32175">
        <ele>330</ele>
        <time>2021-03-07T08:36:31.421Z</time>
      </trkpt>
      <trkpt lat="45.55979" lon="5.32182">
        <ele>330</ele>
        <time>2021-03-07T08:36:32.421Z</time>
      </trkpt>
      <trkpt lat="45.55978" lon="5.32188">
        <ele>330</ele>
        <time>2021-03-07T08:36:33.421Z</time>
      </trkpt>
      <trkpt lat="45.55976" lon="5.32195">
        <ele>330</ele>
        <time>2021-03-07T08:36:34.420Z</time>
      </trkpt>
      <trkpt lat="45.55974" lon="5.32201">
        <ele>330</ele>
        <time>2021-03-07T08:36:35.421Z</time>
      </trkpt>
      <trkpt lat="45.55972" lon="5.32208">
        <ele>331</ele>
        <time>2021-03-07T08:36:36.421Z</time>
      </trkpt>
      <trkpt lat="45.5597" lon="5.32214">
        <ele>331</ele>
        <time>2021-03-07T08:36:37.420Z</time>
      </trkpt>
      <trkpt lat="45.55969" lon="5.32221">
        <ele>331</ele>
        <time>2021-03-07T08:36:38.421Z</time>
      </trkpt>
      <trkpt lat="45.55967" lon="5.32228">
        <ele>331</ele>
        <time>2021-03-07T08:36:39.420Z</time>
      </trkpt>
      <trkpt lat="45.55965" lon="5.32234">
        <ele>331</ele>
        <time>2021-03-07T08:36:40.420Z</time>
      </trkpt>
      <trkpt lat="45.55963" lon="5.32241">
        <ele>331</ele>
        <time>2021-03-07T08:36:41.421Z</time>
      </trkpt>
      <trkpt lat="45.55962" lon="5.32248">
        <ele>331</ele>
        <time>2021-03-07T08:36:42.421Z</time>
      </trkpt>
      <trkpt lat="45.5596" lon="5.32255">
        <ele>332</ele>
        <time>2021-03-07T08:36:43.420Z</time>
      </trkpt>
      <trkpt lat="45.55958" lon="5.32262">
        <ele>332</ele>
        <time>2021-03-07T08:36:44.421Z</time>
      </trkpt>
      <trkpt lat="45.55957" lon="5.32269">
        <ele>332</ele>
        <time>2021-03-07T08:36:45.421Z</time>
      </trkpt>
      <trkpt lat="45.55955" lon="5.32276">
        <ele>332</ele>
        <time>2021-03-07T08:36:46.421Z</time>
      </trkpt>
      <trkpt lat="45.55954" lon="5.32283">
        <ele>332</ele>
        <time>2021-03-07T08:36:47.421Z</time>
      </trkpt>
      <trkpt lat="45.55953" lon="5.3229">
        <ele>332</ele>
        <time>2021-03-07T08:36:48.421Z</time>
      </trkpt>
      <trkpt lat="45.55951" lon="5.32297">
        <ele>332</ele>
        <time>2021-03-07T08:36:49.421Z</time>
      </trkpt>
      <trkpt lat="45.5595" lon="5.32304">
        <ele>332</ele>
        <time>2021-03-07T08:36:50.421Z</time>
      </trkpt>
      <trkpt lat="45.55949" lon="5.32312">
        <ele>332</ele>
        <time>2021-03-07T08:36:51.421Z</time>
      </trkpt>
      <trkpt lat="45.55947" lon="5.32319">
        <ele>333</ele>
        <time>2021-03-07T08:36:52.421Z</time>
      </trkpt>
      <trkpt lat="45.55946" lon="5.32326">
        <ele>333</ele>
        <time>2021-03-07T08:36:53.420Z</time>
      </trkpt>
      <trkpt lat="45.55945" lon="5.32333">
        <ele>333</ele>
        <time>2021-03-07T08:36:54.421Z</time>
      </trkpt>
      <trkpt lat="45.55945" lon="5.3234">
        <ele>333</ele>
        <time>2021-03-07T08:36:55.421Z</time>
      </trkpt>
      <trkpt lat="45.55944" lon="5.32348">
        <ele>333</ele>
        <time>2021-03-07T08:36:56.421Z</time>
      </trkpt>
      <trkpt lat="45.55943" lon="5.32355">
        <ele>333</ele>
        <time>2021-03-07T08:36:57.421Z</time>
      </trkpt>
      <trkpt lat="45.55942" lon="5.32362">
        <ele>332</ele>
        <time>2021-03-07T08:36:58.420Z</time>
      </trkpt>
      <trkpt lat="45.55941" lon="5.32369">
        <ele>332</ele>
        <time>2021-03-07T08:36:59.421Z</time>
      </trkpt>
      <trkpt lat="45.5594" lon="5.32377">
        <ele>332</ele>
        <time>2021-03-07T08:37:00.421Z</time>
      </trkpt>
      <trkpt lat="45.5594" lon="5.32384">
        <ele>333</ele>
        <time>2021-03-07T08:37:01.421Z</time>
      </trkpt>
      <trkpt lat="45.55939" lon="5.32393">
        <ele>333</ele>
        <time>2021-03-07T08:37:02.421Z</time>
      </trkpt>
      <trkpt lat="45.55938" lon="5.32398">
        <ele>333</ele>
        <time>2021-03-07T08:37:03.421Z</time>
      </trkpt>
      <trkpt lat="45.55938" lon="5.32407">
        <ele>333</ele>
        <time>2021-03-07T08:37:04.421Z</time>
      </trkpt>
      <trkpt lat="45.55937" lon="5.32415">
        <ele>333</ele>
        <time>2021-03-07T08:37:05.421Z</time>
      </trkpt>
      <trkpt lat="45.55936" lon="5.32422">
        <ele>333</ele>
        <time>2021-03-07T08:37:06.421Z</time>
      </trkpt>
      <trkpt lat="45.55936" lon="5.3243">
        <ele>333</ele>
        <time>2021-03-07T08:37:07.421Z</time>
      </trkpt>
      <trkpt lat="45.55935" lon="5.32436">
        <ele>333</ele>
        <time>2021-03-07T08:37:08.421Z</time>
      </trkpt>
      <trkpt lat="45.55934" lon="5.32446">
        <ele>333</ele>
        <time>2021-03-07T08:37:09.420Z</time>
      </trkpt>
      <trkpt lat="45.55933" lon="5.32454">
        <ele>333</ele>
        <time>2021-03-07T08:37:10.420Z</time>
      </trkpt>
      <trkpt lat="45.55933" lon="5.32462">
        <ele>333</ele>
        <time>2021-03-07T08:37:11.421Z</time>
      </trkpt>
      <trkpt lat="45.55932" lon="5.32468">
        <ele>333</ele>
        <time>2021-03-07T08:37:12.421Z</time>
      </trkpt>
      <trkpt lat="45.55931" lon="5.32476">
        <ele>333</ele>
        <time>2021-03-07T08:37:13.420Z</time>
      </trkpt>
      <trkpt lat="45.5593" lon="5.32486">
        <ele>333</ele>
        <time>2021-03-07T08:37:14.421Z</time>
      </trkpt>
      <trkpt lat="45.55929" lon="5.32494">
        <ele>333</ele>
        <time>2021-03-07T08:37:15.420Z</time>
      </trkpt>
      <trkpt lat="45.55929" lon="5.325">
        <ele>333</ele>
        <time>2021-03-07T08:37:16.421Z</time>
      </trkpt>
      <trkpt lat="45.55928" lon="5.32508">
        <ele>333</ele>
        <time>2021-03-07T08:37:17.420Z</time>
      </trkpt>
      <trkpt lat="45.55927" lon="5.32516">
        <ele>333</ele>
        <time>2021-03-07T08:37:18.421Z</time>
      </trkpt>
      <trkpt lat="45.55927" lon="5.32523">
        <ele>333</ele>
        <time>2021-03-07T08:37:19.420Z</time>
      </trkpt>
      <trkpt lat="45.55926" lon="5.32531">
        <ele>333</ele>
        <time>2021-03-07T08:37:20.420Z</time>
      </trkpt>
      <trkpt lat="45.55925" lon="5.32539">
        <ele>333</ele>
        <time>2021-03-07T08:37:21.420Z</time>
      </trkpt>
      <trkpt lat="45.55925" lon="5.32547">
        <ele>333</ele>
        <time>2021-03-07T08:37:22.421Z</time>
      </trkpt>
      <trkpt lat="45.55924" lon="5.32556">
        <ele>333</ele>
        <time>2021-03-07T08:37:23.421Z</time>
      </trkpt>
      <trkpt lat="45.55923" lon="5.32562">
        <ele>333</ele>
        <time>2021-03-07T08:37:24.420Z</time>
      </trkpt>
      <trkpt lat="45.55922" lon="5.32571">
        <ele>333</ele>
        <time>2021-03-07T08:37:25.421Z</time>
      </trkpt>
      <trkpt lat="45.55922" lon="5.32577">
        <ele>333</ele>
        <time>2021-03-07T08:37:26.420Z</time>
      </trkpt>
      <trkpt lat="45.55921" lon="5.32585">
        <ele>333</ele>
        <time>2021-03-07T08:37:27.420Z</time>
      </trkpt>
      <trkpt lat="45.55921" lon="5.32594">
        <ele>334</ele>
        <time>2021-03-07T08:37:28.421Z</time>
      </trkpt>
      <trkpt lat="45.5592" lon="5.32602">
        <ele>334</ele>
        <time>2021-03-07T08:37:29.420Z</time>
      </trkpt>
      <trkpt lat="45.55919" lon="5.3261">
        <ele>334</ele>
        <time>2021-03-07T08:37:30.421Z</time>
      </trkpt>
      <trkpt lat="45.55918" lon="5.32617">
        <ele>334</ele>
        <time>2021-03-07T08:37:31.421Z</time>
      </trkpt>
      <trkpt lat="45.55918" lon="5.32625">
        <ele>334</ele>
        <time>2021-03-07T08:37:32.421Z</time>
      </trkpt>
      <trkpt lat="45.55917" lon="5.32632">
        <ele>334</ele>
        <time>2021-03-07T08:37:33.421Z</time>
      </trkpt>
      <trkpt lat="45.55915" lon="5.32639">
        <ele>334</ele>
        <time>2021-03-07T08:37:34.421Z</time>
      </trkpt>
      <trkpt lat="45.55915" lon="5.32645">
        <ele>334</ele>
        <time>2021-03-07T08:37:35.420Z</time>
      </trkpt>
      <trkpt lat="45.55914" lon="5.32653">
        <ele>334</ele>
        <time>2021-03-07T08:37:36.420Z</time>
      </trkpt>
      <trkpt lat="45.55913" lon="5.32662">
        <ele>334</ele>
        <time>2021-03-07T08:37:37.421Z</time>
      </trkpt>
      <trkpt lat="45.55911" lon="5.32669">
        <ele>334</ele>
        <time>2021-03-07T08:37:38.421Z</time>
      </trkpt>
      <trkpt lat="45.5591" lon="5.32677">
        <ele>334</ele>
        <time>2021-03-07T08:37:39.420Z</time>
      </trkpt>
      <trkpt lat="45.55909" lon="5.32685">
        <ele>334</ele>
        <time>2021-03-07T08:37:40.421Z</time>
      </trkpt>
      <trkpt lat="45.55908" lon="5.32691">
        <ele>334</ele>
        <time>2021-03-07T08:37:41.421Z</time>
      </trkpt>
      <trkpt lat="45.55907" lon="5.32699">
        <ele>335</ele>
        <time>2021-03-07T08:37:42.421Z</time>
      </trkpt>
      <trkpt lat="45.55905" lon="5.32708">
        <ele>335</ele>
        <time>2021-03-07T08:37:43.421Z</time>
      </trkpt>
      <trkpt lat="45.55904" lon="5.32716">
        <ele>335</ele>
        <time>2021-03-07T08:37:44.421Z</time>
      </trkpt>
      <trkpt lat="45.55903" lon="5.32722">
        <ele>335</ele>
        <time>2021-03-07T08:37:45.421Z</time>
      </trkpt>
      <trkpt lat="45.55902" lon="5.3273">
        <ele>336</ele>
        <time>2021-03-07T08:37:46.421Z</time>
      </trkpt>
      <trkpt lat="45.55901" lon="5.32738">
        <ele>336</ele>
        <time>2021-03-07T08:37:47.421Z</time>
      </trkpt>
      <trkpt lat="45.559" lon="5.32745">
        <ele>335</ele>
        <time>2021-03-07T08:37:48.421Z</time>
      </trkpt>
      <trkpt lat="45.55898" lon="5.32753">
        <ele>335</ele>
        <time>2021-03-07T08:37:49.421Z</time>
      </trkpt>
      <trkpt lat="45.55897" lon="5.3276">
        <ele>336</ele>
        <time>2021-03-07T08:37:50.421Z</time>
      </trkpt>
      <trkpt lat="45.55896" lon="5.32768">
        <ele>336</ele>
        <time>2021-03-07T08:37:51.420Z</time>
      </trkpt>
      <trkpt lat="45.55895" lon="5.32776">
        <ele>336</ele>
        <time>2021-03-07T08:37:52.421Z</time>
      </trkpt>
      <trkpt lat="45.55894" lon="5.32786">
        <ele>336</ele>
        <time>2021-03-07T08:37:53.421Z</time>
      </trkpt>
      <trkpt lat="45.55893" lon="5.32792">
        <ele>336</ele>
        <time>2021-03-07T08:37:54.421Z</time>
      </trkpt>
      <trkpt lat="45.55892" lon="5.328">
        <ele>336</ele>
        <time>2021-03-07T08:37:55.421Z</time>
      </trkpt>
      <trkpt lat="45.5589" lon="5.32808">
        <ele>336</ele>
        <time>2021-03-07T08:37:56.421Z</time>
      </trkpt>
      <trkpt lat="45.55889" lon="5.32816">
        <ele>336</ele>
        <time>2021-03-07T08:37:57.420Z</time>
      </trkpt>
      <trkpt lat="45.55888" lon="5.32825">
        <ele>336</ele>
        <time>2021-03-07T08:37:58.421Z</time>
      </trkpt>
      <trkpt lat="45.55887" lon="5.32833">
        <ele>336</ele>
        <time>2021-03-07T08:37:59.421Z</time>
      </trkpt>
      <trkpt lat="45.55886" lon="5.32841">
        <ele>336</ele>
        <time>2021-03-07T08:38:00.420Z</time>
      </trkpt>
      <trkpt lat="45.55884" lon="5.32849">
        <ele>337</ele>
        <time>2021-03-07T08:38:01.421Z</time>
      </trkpt>
      <trkpt lat="45.55883" lon="5.32857">
        <ele>337</ele>
        <time>2021-03-07T08:38:02.420Z</time>
      </trkpt>
      <trkpt lat="45.55882" lon="5.32865">
        <ele>337</ele>
        <time>2021-03-07T08:38:03.420Z</time>
      </trkpt>
      <trkpt lat="45.55881" lon="5.32873">
        <ele>337</ele>
        <time>2021-03-07T08:38:04.421Z</time>
      </trkpt>
      <trkpt lat="45.55879" lon="5.32883">
        <ele>337</ele>
        <time>2021-03-07T08:38:05.421Z</time>
      </trkpt>
      <trkpt lat="45.55878" lon="5.32891">
        <ele>337</ele>
        <time>2021-03-07T08:38:06.421Z</time>
      </trkpt>
      <trkpt lat="45.55877" lon="5.32899">
        <ele>337</ele>
        <time>2021-03-07T08:38:07.421Z</time>
      </trkpt>
      <trkpt lat="45.55876" lon="5.32907">
        <ele>337</ele>
        <time>2021-03-07T08:38:08.421Z</time>
      </trkpt>
      <trkpt lat="45.55875" lon="5.32913">
        <ele>337</ele>
        <time>2021-03-07T08:38:09.421Z</time>
      </trkpt>
      <trkpt lat="45.55874" lon="5.32923">
        <ele>337</ele>
        <time>2021-03-07T08:38:10.421Z</time>
      </trkpt>
      <trkpt lat="45.55873" lon="5.32931">
        <ele>337</ele>
        <time>2021-03-07T08:38:11.420Z</time>
      </trkpt>
      <trkpt lat="45.55872" lon="5.32939">
        <ele>337</ele>
        <time>2021-03-07T08:38:12.421Z</time>
      </trkpt>
      <trkpt lat="45.55871" lon="5.32947">
        <ele>337</ele>
        <time>2021-03-07T08:38:13.420Z</time>
      </trkpt>
      <trkpt lat="45.5587" lon="5.32954">
        <ele>337</ele>
        <time>2021-03-07T08:38:14.421Z</time>
      </trkpt>
      <trkpt lat="45.55869" lon="5.32963">
        <ele>337</ele>
        <time>2021-03-07T08:38:15.420Z</time>
      </trkpt>
      <trkpt lat="45.55868" lon="5.32971">
        <ele>337</ele>
        <time>2021-03-07T08:38:16.420Z</time>
      </trkpt>
      <trkpt lat="45.55867" lon="5.3298">
        <ele>337</ele>
        <time>2021-03-07T08:38:17.421Z</time>
      </trkpt>
      <trkpt lat="45.55867" lon="5.32988">
        <ele>337</ele>
        <time>2021-03-07T08:38:18.421Z</time>
      </trkpt>
      <trkpt lat="45.55866" lon="5.32994">
        <ele>337</ele>
        <time>2021-03-07T08:38:19.421Z</time>
      </trkpt>
      <trkpt lat="45.55865" lon="5.33004">
        <ele>337</ele>
        <time>2021-03-07T08:38:20.421Z</time>
      </trkpt>
      <trkpt lat="45.55865" lon="5.33012">
        <ele>338</ele>
        <time>2021-03-07T08:38:21.421Z</time>
      </trkpt>
      <trkpt lat="45.55864" lon="5.3302">
        <ele>337</ele>
        <time>2021-03-07T08:38:22.420Z</time>
      </trkpt>
      <trkpt lat="45.55864" lon="5.33027">
        <ele>337</ele>
        <time>2021-03-07T08:38:23.420Z</time>
      </trkpt>
      <trkpt lat="45.55864" lon="5.33035">
        <ele>337</ele>
        <time>2021-03-07T08:38:24.421Z</time>
      </trkpt>
      <trkpt lat="45.55863" lon="5.33044">
        <ele>337</ele>
        <time>2021-03-07T08:38:25.420Z</time>
      </trkpt>
      <trkpt lat="45.55863" lon="5.33052">
        <ele>337</ele>
        <time>2021-03-07T08:38:26.420Z</time>
      </trkpt>
      <trkpt lat="45.55863" lon="5.33061">
        <ele>337</ele>
        <time>2021-03-07T08:38:27.421Z</time>
      </trkpt>
      <trkpt lat="45.55862" lon="5.33067">
        <ele>337</ele>
        <time>2021-03-07T08:38:28.421Z</time>
      </trkpt>
      <trkpt lat="45.55861" lon="5.33077">
        <ele>337</ele>
        <time>2021-03-07T08:38:29.421Z</time>
      </trkpt>
      <trkpt lat="45.55861" lon="5.33085">
        <ele>337</ele>
        <time>2021-03-07T08:38:30.421Z</time>
      </trkpt>
      <trkpt lat="45.5586" lon="5.33093">
        <ele>336</ele>
        <time>2021-03-07T08:38:31.420Z</time>
      </trkpt>
      <trkpt lat="45.5586" lon="5.331">
        <ele>336</ele>
        <time>2021-03-07T08:38:32.420Z</time>
      </trkpt>
      <trkpt lat="45.55859" lon="5.3311">
        <ele>336</ele>
        <time>2021-03-07T08:38:33.420Z</time>
      </trkpt>
      <trkpt lat="45.55859" lon="5.33118">
        <ele>336</ele>
        <time>2021-03-07T08:38:34.420Z</time>
      </trkpt>
      <trkpt lat="45.55858" lon="5.33126">
        <ele>336</ele>
        <time>2021-03-07T08:38:35.420Z</time>
      </trkpt>
      <trkpt lat="45.55858" lon="5.33135">
        <ele>337</ele>
        <time>2021-03-07T08:38:36.420Z</time>
      </trkpt>
      <trkpt lat="45.55858" lon="5.33142">
        <ele>337</ele>
        <time>2021-03-07T08:38:37.420Z</time>
      </trkpt>
      <trkpt lat="45.55857" lon="5.33152">
        <ele>337</ele>
        <time>2021-03-07T08:38:38.420Z</time>
      </trkpt>
      <trkpt lat="45.55857" lon="5.3316">
        <ele>338</ele>
        <time>2021-03-07T08:38:39.420Z</time>
      </trkpt>
      <trkpt lat="45.55856" lon="5.33168">
        <ele>338</ele>
        <time>2021-03-07T08:38:40.421Z</time>
      </trkpt>
      <trkpt lat="45.55856" lon="5.33176">
        <ele>338</ele>
        <time>2021-03-07T08:38:41.421Z</time>
      </trkpt>
      <trkpt lat="45.55856" lon="5.33184">
        <ele>338</ele>
        <time>2021-03-07T08:38:42.421Z</time>
      </trkpt>
      <trkpt lat="45.55856" lon="5.33193">
        <ele>338</ele>
        <time>2021-03-07T08:38:43.421Z</time>
      </trkpt>
      <trkpt lat="45.55856" lon="5.33199">
        <ele>338</ele>
        <time>2021-03-07T08:38:44.421Z</time>
      </trkpt>
      <trkpt lat="45.55856" lon="5.33208">
        <ele>338</ele>
        <time>2021-03-07T08:38:45.421Z</time>
      </trkpt>
      <trkpt lat="45.55857" lon="5.33216">
        <ele>338</ele>
        <time>2021-03-07T08:38:46.421Z</time>
      </trkpt>
      <trkpt lat="45.55857" lon="5.33225">
        <ele>338</ele>
        <time>2021-03-07T08:38:47.421Z</time>
      </trkpt>
      <trkpt lat="45.55858" lon="5.33235">
        <ele>338</ele>
        <time>2021-03-07T08:38:48.421Z</time>
      </trkpt>
      <trkpt lat="45.55858" lon="5.33244">
        <ele>339</ele>
        <time>2021-03-07T08:38:49.421Z</time>
      </trkpt>
      <trkpt lat="45.55858" lon="5.33252">
        <ele>339</ele>
        <time>2021-03-07T08:38:50.421Z</time>
      </trkpt>
      <trkpt lat="45.55859" lon="5.33259">
        <ele>339</ele>
        <time>2021-03-07T08:38:51.420Z</time>
      </trkpt>
      <trkpt lat="45.5586" lon="5.33268">
        <ele>339</ele>
        <time>2021-03-07T08:38:52.421Z</time>
      </trkpt>
      <trkpt lat="45.5586" lon="5.33277">
        <ele>339</ele>
        <time>2021-03-07T08:38:53.421Z</time>
      </trkpt>
      <trkpt lat="45.55861" lon="5.33288">
        <ele>339</ele>
        <time>2021-03-07T08:38:54.421Z</time>
      </trkpt>
      <trkpt lat="45.55861" lon="5.33297">
        <ele>339</ele>
        <time>2021-03-07T08:38:55.421Z</time>
      </trkpt>
      <trkpt lat="45.55862" lon="5.33304">
        <ele>340</ele>
        <time>2021-03-07T08:38:56.420Z</time>
      </trkpt>
      <trkpt lat="45.55862" lon="5.33315">
        <ele>340</ele>
        <time>2021-03-07T08:38:57.421Z</time>
      </trkpt>
      <trkpt lat="45.55863" lon="5.33322">
        <ele>340</ele>
        <time>2021-03-07T08:38:58.421Z</time>
      </trkpt>
      <trkpt lat="45.55864" lon="5.33333">
        <ele>340</ele>
        <time>2021-03-07T08:38:59.420Z</time>
      </trkpt>
      <trkpt lat="45.55865" lon="5.3334">
        <ele>340</ele>
        <time>2021-03-07T08:39:00.421Z</time>
      </trkpt>
      <trkpt lat="45.55866" lon="5.33349">
        <ele>340</ele>
        <time>2021-03-07T08:39:01.421Z</time>
      </trkpt>
      <trkpt lat="45.55868" lon="5.33358">
        <ele>340</ele>
        <time>2021-03-07T08:39:02.421Z</time>
      </trkpt>
      <trkpt lat="45.55869" lon="5.33367">
        <ele>340</ele>
        <time>2021-03-07T08:39:03.420Z</time>
      </trkpt>
      <trkpt lat="45.55869" lon="5.33376">
        <ele>340</ele>
        <time>2021-03-07T08:39:04.421Z</time>
      </trkpt>
      <trkpt lat="45.55869" lon="5.33385">
        <ele>340</ele>
        <time>2021-03-07T08:39:05.421Z</time>
      </trkpt>
      <trkpt lat="45.55868" lon="5.33394">
        <ele>340</ele>
        <time>2021-03-07T08:39:06.420Z</time>
      </trkpt>
      <trkpt lat="45.55868" lon="5.33403">
        <ele>340</ele>
        <time>2021-03-07T08:39:07.421Z</time>
      </trkpt>
      <trkpt lat="45.55868" lon="5.33413">
        <ele>340</ele>
        <time>2021-03-07T08:39:08.420Z</time>
      </trkpt>
      <trkpt lat="45.55867" lon="5.33424">
        <ele>340</ele>
        <time>2021-03-07T08:39:09.421Z</time>
      </trkpt>
      <trkpt lat="45.55866" lon="5.33432">
        <ele>341</ele>
        <time>2021-03-07T08:39:10.420Z</time>
      </trkpt>
      <trkpt lat="45.55866" lon="5.33443">
        <ele>341</ele>
        <time>2021-03-07T08:39:11.421Z</time>
      </trkpt>
      <trkpt lat="45.55865" lon="5.33454">
        <ele>341</ele>
        <time>2021-03-07T08:39:12.421Z</time>
      </trkpt>
      <trkpt lat="45.55864" lon="5.33466">
        <ele>341</ele>
        <time>2021-03-07T08:39:13.421Z</time>
      </trkpt>
      <trkpt lat="45.55863" lon="5.33477">
        <ele>341</ele>
        <time>2021-03-07T08:39:14.421Z</time>
      </trkpt>
      <trkpt lat="45.55862" lon="5.33489">
        <ele>341</ele>
        <time>2021-03-07T08:39:15.420Z</time>
      </trkpt>
      <trkpt lat="45.55861" lon="5.33501">
        <ele>341</ele>
        <time>2021-03-07T08:39:16.421Z</time>
      </trkpt>
      <trkpt lat="45.5586" lon="5.33512">
        <ele>341</ele>
        <time>2021-03-07T08:39:17.421Z</time>
      </trkpt>
      <trkpt lat="45.55859" lon="5.33524">
        <ele>341</ele>
        <time>2021-03-07T08:39:18.421Z</time>
      </trkpt>
      <trkpt lat="45.55858" lon="5.33536">
        <ele>341</ele>
        <time>2021-03-07T08:39:19.421Z</time>
      </trkpt>
      <trkpt lat="45.55857" lon="5.33548">
        <ele>340</ele>
        <time>2021-03-07T08:39:20.421Z</time>
      </trkpt>
      <trkpt lat="45.55855" lon="5.3356">
        <ele>340</ele>
        <time>2021-03-07T08:39:21.421Z</time>
      </trkpt>
      <trkpt lat="45.55853" lon="5.33571">
        <ele>340</ele>
        <time>2021-03-07T08:39:22.421Z</time>
      </trkpt>
      <trkpt lat="45.5585" lon="5.33582">
        <ele>339</ele>
        <time>2021-03-07T08:39:23.421Z</time>
      </trkpt>
      <trkpt lat="45.55847" lon="5.33593">
        <ele>339</ele>
        <time>2021-03-07T08:39:24.421Z</time>
      </trkpt>
      <trkpt lat="45.55844" lon="5.33604">
        <ele>338</ele>
        <time>2021-03-07T08:39:25.421Z</time>
      </trkpt>
      <trkpt lat="45.5584" lon="5.33616">
        <ele>338</ele>
        <time>2021-03-07T08:39:26.421Z</time>
      </trkpt>
      <trkpt lat="45.55837" lon="5.33627">
        <ele>337</ele>
        <time>2021-03-07T08:39:27.421Z</time>
      </trkpt>
      <trkpt lat="45.55834" lon="5.33638">
        <ele>337</ele>
        <time>2021-03-07T08:39:28.420Z</time>
      </trkpt>
      <trkpt lat="45.5583" lon="5.33649">
        <ele>337</ele>
        <time>2021-03-07T08:39:29.421Z</time>
      </trkpt>
      <trkpt lat="45.55827" lon="5.3366">
        <ele>336</ele>
        <time>2021-03-07T08:39:30.420Z</time>
      </trkpt>
      <trkpt lat="45.55824" lon="5.3367">
        <ele>336</ele>
        <time>2021-03-07T08:39:31.421Z</time>
      </trkpt>
      <trkpt lat="45.55821" lon="5.33681">
        <ele>336</ele>
        <time>2021-03-07T08:39:32.420Z</time>
      </trkpt>
      <trkpt lat="45.55818" lon="5.3369">
        <ele>336</ele>
        <time>2021-03-07T08:39:33.420Z</time>
      </trkpt>
      <trkpt lat="45.55816" lon="5.337">
        <ele>336</ele>
        <time>2021-03-07T08:39:34.420Z</time>
      </trkpt>
      <trkpt lat="45.55813" lon="5.33709">
        <ele>336</ele>
        <time>2021-03-07T08:39:35.421Z</time>
      </trkpt>
      <trkpt lat="45.55811" lon="5.33718">
        <ele>336</ele>
        <time>2021-03-07T08:39:36.421Z</time>
      </trkpt>
      <trkpt lat="45.55808" lon="5.33727">
        <ele>336</ele>
        <time>2021-03-07T08:39:37.420Z</time>
      </trkpt>
      <trkpt lat="45.55806" lon="5.33736">
        <ele>336</ele>
        <time>2021-03-07T08:39:38.420Z</time>
      </trkpt>
      <trkpt lat="45.55804" lon="5.33745">
        <ele>336</ele>
        <time>2021-03-07T08:39:39.420Z</time>
      </trkpt>
      <trkpt lat="45.55801" lon="5.33754">
        <ele>336</ele>
        <time>2021-03-07T08:39:40.421Z</time>
      </trkpt>
      <trkpt lat="45.55799" lon="5.33764">
        <ele>336</ele>
        <time>2021-03-07T08:39:41.421Z</time>
      </trkpt>
      <trkpt lat="45.55797" lon="5.33774">
        <ele>336</ele>
        <time>2021-03-07T08:39:42.420Z</time>
      </trkpt>
      <trkpt lat="45.55795" lon="5.33783">
        <ele>336</ele>
        <time>2021-03-07T08:39:43.421Z</time>
      </trkpt>
      <trkpt lat="45.55793" lon="5.33793">
        <ele>336</ele>
        <time>2021-03-07T08:39:44.421Z</time>
      </trkpt>
      <trkpt lat="45.5579" lon="5.33803">
        <ele>335</ele>
        <time>2021-03-07T08:39:45.420Z</time>
      </trkpt>
      <trkpt lat="45.55788" lon="5.33813">
        <ele>335</ele>
        <time>2021-03-07T08:39:46.421Z</time>
      </trkpt>
      <trkpt lat="45.55785" lon="5.33824">
        <ele>335</ele>
        <time>2021-03-07T08:39:47.421Z</time>
      </trkpt>
      <trkpt lat="45.55783" lon="5.33834">
        <ele>335</ele>
        <time>2021-03-07T08:39:48.421Z</time>
      </trkpt>
      <trkpt lat="45.55781" lon="5.33845">
        <ele>335</ele>
        <time>2021-03-07T08:39:49.421Z</time>
      </trkpt>
      <trkpt lat="45.55778" lon="5.33856">
        <ele>335</ele>
        <time>2021-03-07T08:39:50.421Z</time>
      </trkpt>
      <trkpt lat="45.55776" lon="5.33866">
        <ele>335</ele>
        <time>2021-03-07T08:39:51.421Z</time>
      </trkpt>
      <trkpt lat="45.55773" lon="5.33877">
        <ele>335</ele>
        <time>2021-03-07T08:39:52.420Z</time>
      </trkpt>
      <trkpt lat="45.55771" lon="5.33888">
        <ele>335</ele>
        <time>2021-03-07T08:39:53.421Z</time>
      </trkpt>
      <trkpt lat="45.55769" lon="5.33899">
        <ele>334</ele>
        <time>2021-03-07T08:39:54.420Z</time>
      </trkpt>
      <trkpt lat="45.55767" lon="5.33911">
        <ele>334</ele>
        <time>2021-03-07T08:39:55.421Z</time>
      </trkpt>
      <trkpt lat="45.55766" lon="5.33922">
        <ele>334</ele>
        <time>2021-03-07T08:39:56.420Z</time>
      </trkpt>
      <trkpt lat="45.55765" lon="5.33934">
        <ele>334</ele>
        <time>2021-03-07T08:39:57.421Z</time>
      </trkpt>
      <trkpt lat="45.55764" lon="5.33947">
        <ele>333</ele>
        <time>2021-03-07T08:39:58.420Z</time>
      </trkpt>
      <trkpt lat="45.55763" lon="5.33959">
        <ele>333</ele>
        <time>2021-03-07T08:39:59.421Z</time>
      </trkpt>
      <trkpt lat="45.55762" lon="5.33972">
        <ele>332</ele>
        <time>2021-03-07T08:40:00.420Z</time>
      </trkpt>
      <trkpt lat="45.55762" lon="5.33984">
        <ele>332</ele>
        <time>2021-03-07T08:40:01.420Z</time>
      </trkpt>
      <trkpt lat="45.55761" lon="5.33997">
        <ele>332</ele>
        <time>2021-03-07T08:40:02.421Z</time>
      </trkpt>
      <trkpt lat="45.5576" lon="5.3401">
        <ele>331</ele>
        <time>2021-03-07T08:40:03.421Z</time>
      </trkpt>
      <trkpt lat="45.5576" lon="5.34023">
        <ele>331</ele>
        <time>2021-03-07T08:40:04.421Z</time>
      </trkpt>
      <trkpt lat="45.55759" lon="5.34036">
        <ele>331</ele>
        <time>2021-03-07T08:40:05.421Z</time>
      </trkpt>
      <trkpt lat="45.55758" lon="5.34049">
        <ele>331</ele>
        <time>2021-03-07T08:40:06.420Z</time>
      </trkpt>
      <trkpt lat="45.55758" lon="5.34062">
        <ele>331</ele>
        <time>2021-03-07T08:40:07.421Z</time>
      </trkpt>
      <trkpt lat="45.55757" lon="5.34075">
        <ele>330</ele>
        <time>2021-03-07T08:40:08.420Z</time>
      </trkpt>
      <trkpt lat="45.55756" lon="5.34088">
        <ele>330</ele>
        <time>2021-03-07T08:40:09.421Z</time>
      </trkpt>
      <trkpt lat="45.55755" lon="5.34101">
        <ele>330</ele>
        <time>2021-03-07T08:40:10.421Z</time>
      </trkpt>
      <trkpt lat="45.55755" lon="5.34113">
        <ele>330</ele>
        <time>2021-03-07T08:40:11.421Z</time>
      </trkpt>
      <trkpt lat="45.55755" lon="5.34126">
        <ele>329</ele>
        <time>2021-03-07T08:40:12.420Z</time>
      </trkpt>
      <trkpt lat="45.55755" lon="5.34137">
        <ele>329</ele>
        <time>2021-03-07T08:40:13.421Z</time>
      </trkpt>
      <trkpt lat="45.55757" lon="5.34149">
        <ele>329</ele>
        <time>2021-03-07T08:40:14.421Z</time>
      </trkpt>
      <trkpt lat="45.55758" lon="5.3416">
        <ele>328</ele>
        <time>2021-03-07T08:40:15.421Z</time>
      </trkpt>
      <trkpt lat="45.5576" lon="5.34171">
        <ele>328</ele>
        <time>2021-03-07T08:40:16.421Z</time>
      </trkpt>
      <trkpt lat="45.55762" lon="5.34183">
        <ele>327</ele>
        <time>2021-03-07T08:40:17.420Z</time>
      </trkpt>
      <trkpt lat="45.55764" lon="5.34195">
        <ele>327</ele>
        <time>2021-03-07T08:40:18.420Z</time>
      </trkpt>
      <trkpt lat="45.55767" lon="5.34207">
        <ele>326</ele>
        <time>2021-03-07T08:40:19.420Z</time>
      </trkpt>
      <trkpt lat="45.55769" lon="5.3422">
        <ele>326</ele>
        <time>2021-03-07T08:40:20.421Z</time>
      </trkpt>
      <trkpt lat="45.55771" lon="5.34233">
        <ele>325</ele>
        <time>2021-03-07T08:40:21.421Z</time>
      </trkpt>
      <trkpt lat="45.55772" lon="5.34247">
        <ele>324</ele>
        <time>2021-03-07T08:40:22.421Z</time>
      </trkpt>
      <trkpt lat="45.55772" lon="5.34261">
        <ele>324</ele>
        <time>2021-03-07T08:40:23.421Z</time>
      </trkpt>
      <trkpt lat="45.55772" lon="5.34276">
        <ele>323</ele>
        <time>2021-03-07T08:40:24.421Z</time>
      </trkpt>
      <trkpt lat="45.55771" lon="5.3429">
        <ele>323</ele>
        <time>2021-03-07T08:40:25.421Z</time>
      </trkpt>
      <trkpt lat="45.5577" lon="5.34304">
        <ele>322</ele>
        <time>2021-03-07T08:40:26.420Z</time>
      </trkpt>
      <trkpt lat="45.55769" lon="5.34318">
        <ele>322</ele>
        <time>2021-03-07T08:40:27.420Z</time>
      </trkpt>
      <trkpt lat="45.55769" lon="5.34331">
        <ele>321</ele>
        <time>2021-03-07T08:40:28.420Z</time>
      </trkpt>
      <trkpt lat="45.55768" lon="5.34344">
        <ele>321</ele>
        <time>2021-03-07T08:40:29.421Z</time>
      </trkpt>
      <trkpt lat="45.55768" lon="5.34356">
        <ele>321</ele>
        <time>2021-03-07T08:40:30.421Z</time>
      </trkpt>
      <trkpt lat="45.55769" lon="5.34367">
        <ele>321</ele>
        <time>2021-03-07T08:40:31.421Z</time>
      </trkpt>
      <trkpt lat="45.55769" lon="5.34378">
        <ele>320</ele>
        <time>2021-03-07T08:40:32.420Z</time>
      </trkpt>
      <trkpt lat="45.55769" lon="5.34388">
        <ele>320</ele>
        <time>2021-03-07T08:40:33.421Z</time>
      </trkpt>
      <trkpt lat="45.5577" lon="5.34398">
        <ele>319</ele>
        <time>2021-03-07T08:40:34.421Z</time>
      </trkpt>
      <trkpt lat="45.55772" lon="5.34408">
        <ele>319</ele>
        <time>2021-03-07T08:40:35.421Z</time>
      </trkpt>
      <trkpt lat="45.55772" lon="5.34417">
        <ele>319</ele>
        <time>2021-03-07T08:40:36.421Z</time>
      </trkpt>
      <trkpt lat="45.55773" lon="5.34426">
        <ele>318</ele>
        <time>2021-03-07T08:40:37.421Z</time>
      </trkpt>
      <trkpt lat="45.55773" lon="5.34435">
        <ele>318</ele>
        <time>2021-03-07T08:40:38.420Z</time>
      </trkpt>
      <trkpt lat="45.55773" lon="5.34444">
        <ele>318</ele>
        <time>2021-03-07T08:40:39.421Z</time>
      </trkpt>
      <trkpt lat="45.55772" lon="5.34452">
        <ele>318</ele>
        <time>2021-03-07T08:40:40.421Z</time>
      </trkpt>
      <trkpt lat="45.55771" lon="5.3446">
        <ele>318</ele>
        <time>2021-03-07T08:40:41.421Z</time>
      </trkpt>
      <trkpt lat="45.5577" lon="5.34467">
        <ele>318</ele>
        <time>2021-03-07T08:40:42.420Z</time>
      </trkpt>
      <trkpt lat="45.55767" lon="5.34472">
        <ele>318</ele>
        <time>2021-03-07T08:40:43.420Z</time>
      </trkpt>
      <trkpt lat="45.55764" lon="5.34479">
        <ele>318</ele>
        <time>2021-03-07T08:40:44.420Z</time>
      </trkpt>
      <trkpt lat="45.55762" lon="5.34487">
        <ele>317</ele>
        <time>2021-03-07T08:40:45.421Z</time>
      </trkpt>
      <trkpt lat="45.5576" lon="5.34496">
        <ele>317</ele>
        <time>2021-03-07T08:40:46.420Z</time>
      </trkpt>
      <trkpt lat="45.55757" lon="5.34506">
        <ele>317</ele>
        <time>2021-03-07T08:40:47.421Z</time>
      </trkpt>
      <trkpt lat="45.55754" lon="5.34518">
        <ele>317</ele>
        <time>2021-03-07T08:40:48.421Z</time>
      </trkpt>
      <trkpt lat="45.55751" lon="5.34531">
        <ele>317</ele>
        <time>2021-03-07T08:40:49.421Z</time>
      </trkpt>
      <trkpt lat="45.55747" lon="5.34544">
        <ele>316</ele>
        <time>2021-03-07T08:40:50.420Z</time>
      </trkpt>
      <trkpt lat="45.55744" lon="5.34557">
        <ele>316</ele>
        <time>2021-03-07T08:40:51.421Z</time>
      </trkpt>
      <trkpt lat="45.5574" lon="5.34571">
        <ele>315</ele>
        <time>2021-03-07T08:40:52.421Z</time>
      </trkpt>
      <trkpt lat="45.55735" lon="5.34585">
        <ele>314</ele>
        <time>2021-03-07T08:40:53.420Z</time>
      </trkpt>
      <trkpt lat="45.55729" lon="5.34598">
        <ele>313</ele>
        <time>2021-03-07T08:40:54.421Z</time>
      </trkpt>
      <trkpt lat="45.55724" lon="5.34612">
        <ele>312</ele>
        <time>2021-03-07T08:40:55.420Z</time>
      </trkpt>
      <trkpt lat="45.55718" lon="5.34626">
        <ele>311</ele>
        <time>2021-03-07T08:40:56.421Z</time>
      </trkpt>
      <trkpt lat="45.55712" lon="5.3464">
        <ele>311</ele>
        <time>2021-03-07T08:40:57.421Z</time>
      </trkpt>
      <trkpt lat="45.55706" lon="5.34654">
        <ele>310</ele>
        <time>2021-03-07T08:40:58.420Z</time>
      </trkpt>
      <trkpt lat="45.557" lon="5.34667">
        <ele>309</ele>
        <time>2021-03-07T08:40:59.420Z</time>
      </trkpt>
      <trkpt lat="45.55694" lon="5.3468">
        <ele>308</ele>
        <time>2021-03-07T08:41:00.420Z</time>
      </trkpt>
      <trkpt lat="45.55689" lon="5.34693">
        <ele>307</ele>
        <time>2021-03-07T08:41:01.420Z</time>
      </trkpt>
      <trkpt lat="45.55684" lon="5.34706">
        <ele>307</ele>
        <time>2021-03-07T08:41:02.420Z</time>
      </trkpt>
      <trkpt lat="45.55678" lon="5.34718">
        <ele>306</ele>
        <time>2021-03-07T08:41:03.421Z</time>
      </trkpt>
      <trkpt lat="45.55674" lon="5.34729">
        <ele>305</ele>
        <time>2021-03-07T08:41:04.420Z</time>
      </trkpt>
      <trkpt lat="45.55669" lon="5.3474">
        <ele>304</ele>
        <time>2021-03-07T08:41:05.421Z</time>
      </trkpt>
      <trkpt lat="45.55665" lon="5.34751">
        <ele>304</ele>
        <time>2021-03-07T08:41:06.420Z</time>
      </trkpt>
      <trkpt lat="45.55661" lon="5.34762">
        <ele>303</ele>
        <time>2021-03-07T08:41:07.420Z</time>
      </trkpt>
      <trkpt lat="45.55656" lon="5.34773">
        <ele>302</ele>
        <time>2021-03-07T08:41:08.420Z</time>
      </trkpt>
      <trkpt lat="45.55652" lon="5.34783">
        <ele>302</ele>
        <time>2021-03-07T08:41:09.420Z</time>
      </trkpt>
      <trkpt lat="45.55648" lon="5.34793">
        <ele>301</ele>
        <time>2021-03-07T08:41:10.421Z</time>
      </trkpt>
      <trkpt lat="45.55645" lon="5.34803">
        <ele>301</ele>
        <time>2021-03-07T08:41:11.421Z</time>
      </trkpt>
      <trkpt lat="45.55641" lon="5.34812">
        <ele>301</ele>
        <time>2021-03-07T08:41:12.421Z</time>
      </trkpt>
      <trkpt lat="45.55637" lon="5.34821">
        <ele>301</ele>
        <time>2021-03-07T08:41:13.420Z</time>
      </trkpt>
      <trkpt lat="45.55633" lon="5.3483">
        <ele>301</ele>
        <time>2021-03-07T08:41:14.421Z</time>
      </trkpt>
      <trkpt lat="45.55629" lon="5.34839">
        <ele>301</ele>
        <time>2021-03-07T08:41:15.420Z</time>
      </trkpt>
      <trkpt lat="45.55626" lon="5.34847">
        <ele>300</ele>
        <time>2021-03-07T08:41:16.421Z</time>
      </trkpt>
      <trkpt lat="45.55623" lon="5.34855">
        <ele>300</ele>
        <time>2021-03-07T08:41:17.421Z</time>
      </trkpt>
      <trkpt lat="45.5562" lon="5.34863">
        <ele>300</ele>
        <time>2021-03-07T08:41:18.421Z</time>
      </trkpt>
      <trkpt lat="45.55617" lon="5.3487">
        <ele>300</ele>
        <time>2021-03-07T08:41:19.421Z</time>
      </trkpt>
      <trkpt lat="45.55614" lon="5.34878">
        <ele>300</ele>
        <time>2021-03-07T08:41:20.421Z</time>
      </trkpt>
      <trkpt lat="45.55611" lon="5.34885">
        <ele>300</ele>
        <time>2021-03-07T08:41:21.421Z</time>
      </trkpt>
      <trkpt lat="45.55608" lon="5.34892">
        <ele>300</ele>
        <time>2021-03-07T08:41:22.420Z</time>
      </trkpt>
      <trkpt lat="45.55605" lon="5.34899">
        <ele>300</ele>
        <time>2021-03-07T08:41:23.421Z</time>
      </trkpt>
      <trkpt lat="45.55603" lon="5.34906">
        <ele>300</ele>
        <time>2021-03-07T08:41:24.421Z</time>
      </trkpt>
      <trkpt lat="45.55599" lon="5.34914">
        <ele>300</ele>
        <time>2021-03-07T08:41:25.420Z</time>
      </trkpt>
      <trkpt lat="45.55596" lon="5.34921">
        <ele>300</ele>
        <time>2021-03-07T08:41:26.421Z</time>
      </trkpt>
      <trkpt lat="45.55593" lon="5.34928">
        <ele>300</ele>
        <time>2021-03-07T08:41:27.421Z</time>
      </trkpt>
      <trkpt lat="45.55591" lon="5.34934">
        <ele>300</ele>
        <time>2021-03-07T08:41:28.420Z</time>
      </trkpt>
      <trkpt lat="45.55588" lon="5.34941">
        <ele>301</ele>
        <time>2021-03-07T08:41:29.420Z</time>
      </trkpt>
      <trkpt lat="45.55585" lon="5.34948">
        <ele>301</ele>
        <time>2021-03-07T08:41:30.421Z</time>
      </trkpt>
      <trkpt lat="45.55582" lon="5.34954">
        <ele>301</ele>
        <time>2021-03-07T08:41:31.421Z</time>
      </trkpt>
      <trkpt lat="45.55579" lon="5.34961">
        <ele>301</ele>
        <time>2021-03-07T08:41:32.421Z</time>
      </trkpt>
      <trkpt lat="45.55577" lon="5.34967">
        <ele>302</ele>
        <time>2021-03-07T08:41:33.421Z</time>
      </trkpt>
      <trkpt lat="45.55574" lon="5.34974">
        <ele>302</ele>
        <time>2021-03-07T08:41:34.421Z</time>
      </trkpt>
      <trkpt lat="45.55572" lon="5.34981">
        <ele>302</ele>
        <time>2021-03-07T08:41:35.421Z</time>
      </trkpt>
      <trkpt lat="45.5557" lon="5.34987">
        <ele>302</ele>
        <time>2021-03-07T08:41:36.421Z</time>
      </trkpt>
      <trkpt lat="45.55568" lon="5.34994">
        <ele>302</ele>
        <time>2021-03-07T08:41:37.420Z</time>
      </trkpt>
      <trkpt lat="45.55566" lon="5.35001">
        <ele>303</ele>
        <time>2021-03-07T08:41:38.421Z</time>
      </trkpt>
      <trkpt lat="45.55564" lon="5.35007">
        <ele>303</ele>
        <time>2021-03-07T08:41:39.420Z</time>
      </trkpt>
      <trkpt lat="45.55562" lon="5.35014">
        <ele>303</ele>
        <time>2021-03-07T08:41:40.421Z</time>
      </trkpt>
      <trkpt lat="45.55561" lon="5.35021">
        <ele>303</ele>
        <time>2021-03-07T08:41:41.421Z</time>
      </trkpt>
      <trkpt lat="45.55559" lon="5.35028">
        <ele>304</ele>
        <time>2021-03-07T08:41:42.420Z</time>
      </trkpt>
      <trkpt lat="45.55558" lon="5.35035">
        <ele>304</ele>
        <time>2021-03-07T08:41:43.421Z</time>
      </trkpt>
      <trkpt lat="45.55557" lon="5.35042">
        <ele>304</ele>
        <time>2021-03-07T08:41:44.420Z</time>
      </trkpt>
      <trkpt lat="45.55555" lon="5.35049">
        <ele>304</ele>
        <time>2021-03-07T08:41:45.420Z</time>
      </trkpt>
      <trkpt lat="45.55553" lon="5.35056">
        <ele>304</ele>
        <time>2021-03-07T08:41:46.420Z</time>
      </trkpt>
      <trkpt lat="45.55551" lon="5.35063">
        <ele>304</ele>
        <time>2021-03-07T08:41:47.421Z</time>
      </trkpt>
      <trkpt lat="45.55549" lon="5.3507">
        <ele>305</ele>
        <time>2021-03-07T08:41:48.421Z</time>
      </trkpt>
      <trkpt lat="45.55547" lon="5.35078">
        <ele>305</ele>
        <time>2021-03-07T08:41:49.421Z</time>
      </trkpt>
      <trkpt lat="45.55545" lon="5.35085">
        <ele>305</ele>
        <time>2021-03-07T08:41:50.420Z</time>
      </trkpt>
      <trkpt lat="45.55544" lon="5.35093">
        <ele>305</ele>
        <time>2021-03-07T08:41:51.420Z</time>
      </trkpt>
      <trkpt lat="45.55542" lon="5.35101">
        <ele>305</ele>
        <time>2021-03-07T08:41:52.421Z</time>
      </trkpt>
      <trkpt lat="45.55541" lon="5.35109">
        <ele>305</ele>
        <time>2021-03-07T08:41:53.421Z</time>
      </trkpt>
      <trkpt lat="45.5554" lon="5.35117">
        <ele>305</ele>
        <time>2021-03-07T08:41:54.421Z</time>
      </trkpt>
      <trkpt lat="45.55538" lon="5.35126">
        <ele>306</ele>
        <time>2021-03-07T08:41:55.421Z</time>
      </trkpt>
      <trkpt lat="45.55537" lon="5.35134">
        <ele>306</ele>
        <time>2021-03-07T08:41:56.420Z</time>
      </trkpt>
      <trkpt lat="45.55535" lon="5.35142">
        <ele>306</ele>
        <time>2021-03-07T08:41:57.420Z</time>
      </trkpt>
      <trkpt lat="45.55534" lon="5.35151">
        <ele>306</ele>
        <time>2021-03-07T08:41:58.420Z</time>
      </trkpt>
      <trkpt lat="45.55533" lon="5.35159">
        <ele>306</ele>
        <time>2021-03-07T08:41:59.421Z</time>
      </trkpt>
      <trkpt lat="45.55531" lon="5.35168">
        <ele>306</ele>
        <time>2021-03-07T08:42:00.420Z</time>
      </trkpt>
      <trkpt lat="45.5553" lon="5.35176">
        <ele>305</ele>
        <time>2021-03-07T08:42:01.420Z</time>
      </trkpt>
      <trkpt lat="45.55529" lon="5.35184">
        <ele>305</ele>
        <time>2021-03-07T08:42:02.421Z</time>
      </trkpt>
      <trkpt lat="45.55528" lon="5.35193">
        <ele>305</ele>
        <time>2021-03-07T08:42:03.421Z</time>
      </trkpt>
      <trkpt lat="45.55526" lon="5.35202">
        <ele>305</ele>
        <time>2021-03-07T08:42:04.420Z</time>
      </trkpt>
      <trkpt lat="45.55525" lon="5.35211">
        <ele>305</ele>
        <time>2021-03-07T08:42:05.420Z</time>
      </trkpt>
      <trkpt lat="45.55523" lon="5.35219">
        <ele>305</ele>
        <time>2021-03-07T08:42:06.420Z</time>
      </trkpt>
      <trkpt lat="45.55522" lon="5.35228">
        <ele>305</ele>
        <time>2021-03-07T08:42:07.421Z</time>
      </trkpt>
      <trkpt lat="45.5552" lon="5.35236">
        <ele>305</ele>
        <time>2021-03-07T08:42:08.420Z</time>
      </trkpt>
      <trkpt lat="45.55519" lon="5.35245">
        <ele>305</ele>
        <time>2021-03-07T08:42:09.421Z</time>
      </trkpt>
      <trkpt lat="45.55517" lon="5.35254">
        <ele>304</ele>
        <time>2021-03-07T08:42:10.421Z</time>
      </trkpt>
      <trkpt lat="45.55515" lon="5.35264">
        <ele>304</ele>
        <time>2021-03-07T08:42:11.421Z</time>
      </trkpt>
      <trkpt lat="45.55515" lon="5.35264">
        <ele>304</ele>
        <time>2021-03-07T08:42:12.420Z</time>
      </trkpt>
      <trkpt lat="45.55512" lon="5.35283">
        <ele>304</ele>
        <time>2021-03-07T08:42:13.421Z</time>
      </trkpt>
      <trkpt lat="45.5551" lon="5.35293">
        <ele>304</ele>
        <time>2021-03-07T08:42:14.420Z</time>
      </trkpt>
      <trkpt lat="45.55508" lon="5.35303">
        <ele>303</ele>
        <time>2021-03-07T08:42:15.420Z</time>
      </trkpt>
      <trkpt lat="45.55507" lon="5.35312">
        <ele>303</ele>
        <time>2021-03-07T08:42:16.421Z</time>
      </trkpt>
      <trkpt lat="45.55505" lon="5.35322">
        <ele>303</ele>
        <time>2021-03-07T08:42:17.421Z</time>
      </trkpt>
      <trkpt lat="45.55504" lon="5.35332">
        <ele>303</ele>
        <time>2021-03-07T08:42:18.421Z</time>
      </trkpt>
      <trkpt lat="45.55502" lon="5.35342">
        <ele>303</ele>
        <time>2021-03-07T08:42:19.421Z</time>
      </trkpt>
      <trkpt lat="45.55501" lon="5.35351">
        <ele>302</ele>
        <time>2021-03-07T08:42:20.421Z</time>
      </trkpt>
      <trkpt lat="45.55499" lon="5.35361">
        <ele>302</ele>
        <time>2021-03-07T08:42:21.420Z</time>
      </trkpt>
      <trkpt lat="45.55497" lon="5.35371">
        <ele>302</ele>
        <time>2021-03-07T08:42:22.421Z</time>
      </trkpt>
      <trkpt lat="45.55496" lon="5.35381">
        <ele>302</ele>
        <time>2021-03-07T08:42:23.421Z</time>
      </trkpt>
      <trkpt lat="45.55494" lon="5.35391">
        <ele>302</ele>
        <time>2021-03-07T08:42:24.420Z</time>
      </trkpt>
      <trkpt lat="45.55492" lon="5.35401">
        <ele>302</ele>
        <time>2021-03-07T08:42:25.420Z</time>
      </trkpt>
      <trkpt lat="45.55491" lon="5.35411">
        <ele>302</ele>
        <time>2021-03-07T08:42:26.420Z</time>
      </trkpt>
      <trkpt lat="45.55489" lon="5.3542">
        <ele>302</ele>
        <time>2021-03-07T08:42:27.421Z</time>
      </trkpt>
      <trkpt lat="45.55487" lon="5.3543">
        <ele>303</ele>
        <time>2021-03-07T08:42:28.421Z</time>
      </trkpt>
      <trkpt lat="45.55486" lon="5.3544">
        <ele>303</ele>
        <time>2021-03-07T08:42:29.421Z</time>
      </trkpt>
      <trkpt lat="45.55484" lon="5.35449">
        <ele>303</ele>
        <time>2021-03-07T08:42:30.421Z</time>
      </trkpt>
      <trkpt lat="45.55483" lon="5.35459">
        <ele>303</ele>
        <time>2021-03-07T08:42:31.420Z</time>
      </trkpt>
      <trkpt lat="45.55481" lon="5.35468">
        <ele>303</ele>
        <time>2021-03-07T08:42:32.421Z</time>
      </trkpt>
      <trkpt lat="45.55479" lon="5.35478">
        <ele>303</ele>
        <time>2021-03-07T08:42:33.421Z</time>
      </trkpt>
      <trkpt lat="45.55476" lon="5.35489">
        <ele>303</ele>
        <time>2021-03-07T08:42:34.420Z</time>
      </trkpt>
      <trkpt lat="45.55474" lon="5.35496">
        <ele>303</ele>
        <time>2021-03-07T08:42:35.421Z</time>
      </trkpt>
      <trkpt lat="45.55472" lon="5.35505">
        <ele>303</ele>
        <time>2021-03-07T08:42:36.420Z</time>
      </trkpt>
      <trkpt lat="45.5547" lon="5.35514">
        <ele>303</ele>
        <time>2021-03-07T08:42:37.420Z</time>
      </trkpt>
      <trkpt lat="45.55467" lon="5.35522">
        <ele>303</ele>
        <time>2021-03-07T08:42:38.420Z</time>
      </trkpt>
      <trkpt lat="45.55464" lon="5.35533">
        <ele>303</ele>
        <time>2021-03-07T08:42:39.421Z</time>
      </trkpt>
      <trkpt lat="45.55461" lon="5.35539">
        <ele>304</ele>
        <time>2021-03-07T08:42:40.420Z</time>
      </trkpt>
      <trkpt lat="45.55458" lon="5.35547">
        <ele>304</ele>
        <time>2021-03-07T08:42:41.421Z</time>
      </trkpt>
      <trkpt lat="45.55455" lon="5.35556">
        <ele>304</ele>
        <time>2021-03-07T08:42:42.420Z</time>
      </trkpt>
      <trkpt lat="45.55451" lon="5.35563">
        <ele>304</ele>
        <time>2021-03-07T08:42:43.421Z</time>
      </trkpt>
      <trkpt lat="45.55448" lon="5.35571">
        <ele>304</ele>
        <time>2021-03-07T08:42:44.421Z</time>
      </trkpt>
      <trkpt lat="45.55444" lon="5.35579">
        <ele>304</ele>
        <time>2021-03-07T08:42:45.420Z</time>
      </trkpt>
      <trkpt lat="45.5544" lon="5.35588">
        <ele>304</ele>
        <time>2021-03-07T08:42:46.421Z</time>
      </trkpt>
      <trkpt lat="45.55437" lon="5.35594">
        <ele>304</ele>
        <time>2021-03-07T08:42:47.421Z</time>
      </trkpt>
      <trkpt lat="45.55434" lon="5.35602">
        <ele>304</ele>
        <time>2021-03-07T08:42:48.421Z</time>
      </trkpt>
      <trkpt lat="45.5543" lon="5.3561">
        <ele>304</ele>
        <time>2021-03-07T08:42:49.420Z</time>
      </trkpt>
      <trkpt lat="45.55426" lon="5.35617">
        <ele>304</ele>
        <time>2021-03-07T08:42:50.420Z</time>
      </trkpt>
      <trkpt lat="45.55423" lon="5.35625">
        <ele>304</ele>
        <time>2021-03-07T08:42:51.420Z</time>
      </trkpt>
      <trkpt lat="45.55419" lon="5.35633">
        <ele>304</ele>
        <time>2021-03-07T08:42:52.420Z</time>
      </trkpt>
      <trkpt lat="45.55415" lon="5.35641">
        <ele>304</ele>
        <time>2021-03-07T08:42:53.421Z</time>
      </trkpt>
      <trkpt lat="45.55412" lon="5.35647">
        <ele>304</ele>
        <time>2021-03-07T08:42:54.421Z</time>
      </trkpt>
      <trkpt lat="45.55408" lon="5.35656">
        <ele>304</ele>
        <time>2021-03-07T08:42:55.421Z</time>
      </trkpt>
      <trkpt lat="45.55404" lon="5.35663">
        <ele>304</ele>
        <time>2021-03-07T08:42:56.421Z</time>
      </trkpt>
      <trkpt lat="45.55401" lon="5.3567">
        <ele>304</ele>
        <time>2021-03-07T08:42:57.421Z</time>
      </trkpt>
      <trkpt lat="45.55398" lon="5.35676">
        <ele>304</ele>
        <time>2021-03-07T08:42:58.421Z</time>
      </trkpt>
      <trkpt lat="45.55395" lon="5.35684">
        <ele>304</ele>
        <time>2021-03-07T08:42:59.420Z</time>
      </trkpt>
      <trkpt lat="45.55391" lon="5.35692">
        <ele>304</ele>
        <time>2021-03-07T08:43:00.420Z</time>
      </trkpt>
      <trkpt lat="45.55388" lon="5.357">
        <ele>304</ele>
        <time>2021-03-07T08:43:01.421Z</time>
      </trkpt>
      <trkpt lat="45.55384" lon="5.35707">
        <ele>305</ele>
        <time>2021-03-07T08:43:02.421Z</time>
      </trkpt>
      <trkpt lat="45.55381" lon="5.35713">
        <ele>305</ele>
        <time>2021-03-07T08:43:03.421Z</time>
      </trkpt>
      <trkpt lat="45.55378" lon="5.35721">
        <ele>305</ele>
        <time>2021-03-07T08:43:04.421Z</time>
      </trkpt>
      <trkpt lat="45.55374" lon="5.3573">
        <ele>305</ele>
        <time>2021-03-07T08:43:05.420Z</time>
      </trkpt>
      <trkpt lat="45.55371" lon="5.35737">
        <ele>305</ele>
        <time>2021-03-07T08:43:06.420Z</time>
      </trkpt>
      <trkpt lat="45.55367" lon="5.35744">
        <ele>305</ele>
        <time>2021-03-07T08:43:07.421Z</time>
      </trkpt>
      <trkpt lat="45.55365" lon="5.3575">
        <ele>305</ele>
        <time>2021-03-07T08:43:08.421Z</time>
      </trkpt>
      <trkpt lat="45.55361" lon="5.35759">
        <ele>306</ele>
        <time>2021-03-07T08:43:09.420Z</time>
      </trkpt>
      <trkpt lat="45.55358" lon="5.35766">
        <ele>306</ele>
        <time>2021-03-07T08:43:10.420Z</time>
      </trkpt>
      <trkpt lat="45.55355" lon="5.35773">
        <ele>306</ele>
        <time>2021-03-07T08:43:11.421Z</time>
      </trkpt>
      <trkpt lat="45.55352" lon="5.35779">
        <ele>307</ele>
        <time>2021-03-07T08:43:12.421Z</time>
      </trkpt>
      <trkpt lat="45.55348" lon="5.35788">
        <ele>307</ele>
        <time>2021-03-07T08:43:13.421Z</time>
      </trkpt>
      <trkpt lat="45.55345" lon="5.35795">
        <ele>307</ele>
        <time>2021-03-07T08:43:14.421Z</time>
      </trkpt>
      <trkpt lat="45.55342" lon="5.35802">
        <ele>307</ele>
        <time>2021-03-07T08:43:15.420Z</time>
      </trkpt>
      <trkpt lat="45.55339" lon="5.35809">
        <ele>307</ele>
        <time>2021-03-07T08:43:16.421Z</time>
      </trkpt>
      <trkpt lat="45.55336" lon="5.35814">
        <ele>307</ele>
        <time>2021-03-07T08:43:17.420Z</time>
      </trkpt>
      <trkpt lat="45.55332" lon="5.35823">
        <ele>307</ele>
        <time>2021-03-07T08:43:18.421Z</time>
      </trkpt>
      <trkpt lat="45.55329" lon="5.3583">
        <ele>307</ele>
        <time>2021-03-07T08:43:19.420Z</time>
      </trkpt>
      <trkpt lat="45.55326" lon="5.35837">
        <ele>307</ele>
        <time>2021-03-07T08:43:20.421Z</time>
      </trkpt>
      <trkpt lat="45.55323" lon="5.35843">
        <ele>307</ele>
        <time>2021-03-07T08:43:21.420Z</time>
      </trkpt>
      <trkpt lat="45.55319" lon="5.3585">
        <ele>307</ele>
        <time>2021-03-07T08:43:22.421Z</time>
      </trkpt>
      <trkpt lat="45.55316" lon="5.35858">
        <ele>307</ele>
        <time>2021-03-07T08:43:23.421Z</time>
      </trkpt>
      <trkpt lat="45.55313" lon="5.35864">
        <ele>307</ele>
        <time>2021-03-07T08:43:24.420Z</time>
      </trkpt>
      <trkpt lat="45.5531" lon="5.35871">
        <ele>307</ele>
        <time>2021-03-07T08:43:25.421Z</time>
      </trkpt>
      <trkpt lat="45.55307" lon="5.35878">
        <ele>307</ele>
        <time>2021-03-07T08:43:26.421Z</time>
      </trkpt>
      <trkpt lat="45.55303" lon="5.35885">
        <ele>308</ele>
        <time>2021-03-07T08:43:27.421Z</time>
      </trkpt>
      <trkpt lat="45.553" lon="5.35891">
        <ele>308</ele>
        <time>2021-03-07T08:43:28.420Z</time>
      </trkpt>
      <trkpt lat="45.55297" lon="5.35898">
        <ele>308</ele>
        <time>2021-03-07T08:43:29.421Z</time>
      </trkpt>
      <trkpt lat="45.55294" lon="5.35905">
        <ele>308</ele>
        <time>2021-03-07T08:43:30.421Z</time>
      </trkpt>
      <trkpt lat="45.55291" lon="5.35912">
        <ele>308</ele>
        <time>2021-03-07T08:43:31.421Z</time>
      </trkpt>
      <trkpt lat="45.55288" lon="5.35918">
        <ele>308</ele>
        <time>2021-03-07T08:43:32.421Z</time>
      </trkpt>
      <trkpt lat="45.55285" lon="5.35925">
        <ele>308</ele>
        <time>2021-03-07T08:43:33.421Z</time>
      </trkpt>
      <trkpt lat="45.55283" lon="5.35932">
        <ele>308</ele>
        <time>2021-03-07T08:43:34.420Z</time>
      </trkpt>
      <trkpt lat="45.5528" lon="5.35939">
        <ele>309</ele>
        <time>2021-03-07T08:43:35.421Z</time>
      </trkpt>
      <trkpt lat="45.55277" lon="5.35946">
        <ele>309</ele>
        <time>2021-03-07T08:43:36.421Z</time>
      </trkpt>
      <trkpt lat="45.55274" lon="5.35953">
        <ele>309</ele>
        <time>2021-03-07T08:43:37.421Z</time>
      </trkpt>
      <trkpt lat="45.55271" lon="5.3596">
        <ele>309</ele>
        <time>2021-03-07T08:43:38.421Z</time>
      </trkpt>
      <trkpt lat="45.55269" lon="5.35966">
        <ele>309</ele>
        <time>2021-03-07T08:43:39.421Z</time>
      </trkpt>
      <trkpt lat="45.55266" lon="5.35973">
        <ele>309</ele>
        <time>2021-03-07T08:43:40.420Z</time>
      </trkpt>
      <trkpt lat="45.55263" lon="5.3598">
        <ele>309</ele>
        <time>2021-03-07T08:43:41.421Z</time>
      </trkpt>
      <trkpt lat="45.55261" lon="5.35987">
        <ele>309</ele>
        <time>2021-03-07T08:43:42.421Z</time>
      </trkpt>
      <trkpt lat="45.55258" lon="5.35994">
        <ele>309</ele>
        <time>2021-03-07T08:43:43.421Z</time>
      </trkpt>
      <trkpt lat="45.55255" lon="5.36002">
        <ele>309</ele>
        <time>2021-03-07T08:43:44.420Z</time>
      </trkpt>
      <trkpt lat="45.55253" lon="5.36009">
        <ele>310</ele>
        <time>2021-03-07T08:43:45.420Z</time>
      </trkpt>
      <trkpt lat="45.5525" lon="5.36016">
        <ele>310</ele>
        <time>2021-03-07T08:43:46.421Z</time>
      </trkpt>
      <trkpt lat="45.55247" lon="5.36023">
        <ele>310</ele>
        <time>2021-03-07T08:43:47.420Z</time>
      </trkpt>
      <trkpt lat="45.55245" lon="5.36031">
        <ele>310</ele>
        <time>2021-03-07T08:43:48.421Z</time>
      </trkpt>
      <trkpt lat="45.55242" lon="5.36038">
        <ele>310</ele>
        <time>2021-03-07T08:43:49.420Z</time>
      </trkpt>
      <trkpt lat="45.55239" lon="5.36045">
        <ele>310</ele>
        <time>2021-03-07T08:43:50.420Z</time>
      </trkpt>
      <trkpt lat="45.55237" lon="5.36052">
        <ele>310</ele>
        <time>2021-03-07T08:43:51.421Z</time>
      </trkpt>
      <trkpt lat="45.55234" lon="5.36059">
        <ele>311</ele>
        <time>2021-03-07T08:43:52.421Z</time>
      </trkpt>
      <trkpt lat="45.55231" lon="5.36067">
        <ele>311</ele>
        <time>2021-03-07T08:43:53.421Z</time>
      </trkpt>
      <trkpt lat="45.55229" lon="5.36074">
        <ele>311</ele>
        <time>2021-03-07T08:43:54.421Z</time>
      </trkpt>
      <trkpt lat="45.55226" lon="5.36081">
        <ele>311</ele>
        <time>2021-03-07T08:43:55.421Z</time>
      </trkpt>
      <trkpt lat="45.55223" lon="5.36088">
        <ele>312</ele>
        <time>2021-03-07T08:43:56.421Z</time>
      </trkpt>
      <trkpt lat="45.55221" lon="5.36096">
        <ele>312</ele>
        <time>2021-03-07T08:43:57.421Z</time>
      </trkpt>
      <trkpt lat="45.55218" lon="5.36103">
        <ele>312</ele>
        <time>2021-03-07T08:43:58.420Z</time>
      </trkpt>
      <trkpt lat="45.55216" lon="5.3611">
        <ele>313</ele>
        <time>2021-03-07T08:43:59.421Z</time>
      </trkpt>
      <trkpt lat="45.55213" lon="5.36117">
        <ele>313</ele>
        <time>2021-03-07T08:44:00.420Z</time>
      </trkpt>
      <trkpt lat="45.55211" lon="5.36124">
        <ele>313</ele>
        <time>2021-03-07T08:44:01.421Z</time>
      </trkpt>
      <trkpt lat="45.55208" lon="5.36131">
        <ele>313</ele>
        <time>2021-03-07T08:44:02.420Z</time>
      </trkpt>
      <trkpt lat="45.55205" lon="5.36138">
        <ele>313</ele>
        <time>2021-03-07T08:44:03.420Z</time>
      </trkpt>
      <trkpt lat="45.55203" lon="5.36145">
        <ele>313</ele>
        <time>2021-03-07T08:44:04.421Z</time>
      </trkpt>
      <trkpt lat="45.552" lon="5.36153">
        <ele>314</ele>
        <time>2021-03-07T08:44:05.420Z</time>
      </trkpt>
      <trkpt lat="45.55198" lon="5.3616">
        <ele>314</ele>
        <time>2021-03-07T08:44:06.420Z</time>
      </trkpt>
      <trkpt lat="45.55196" lon="5.36167">
        <ele>314</ele>
        <time>2021-03-07T08:44:07.421Z</time>
      </trkpt>
      <trkpt lat="45.55193" lon="5.36174">
        <ele>314</ele>
        <time>2021-03-07T08:44:08.421Z</time>
      </trkpt>
      <trkpt lat="45.55191" lon="5.36181">
        <ele>314</ele>
        <time>2021-03-07T08:44:09.421Z</time>
      </trkpt>
      <trkpt lat="45.55188" lon="5.36188">
        <ele>314</ele>
        <time>2021-03-07T08:44:10.420Z</time>
      </trkpt>
      <trkpt lat="45.55186" lon="5.36195">
        <ele>314</ele>
        <time>2021-03-07T08:44:11.421Z</time>
      </trkpt>
      <trkpt lat="45.55183" lon="5.36202">
        <ele>314</ele>
        <time>2021-03-07T08:44:12.421Z</time>
      </trkpt>
      <trkpt lat="45.55181" lon="5.36209">
        <ele>314</ele>
        <time>2021-03-07T08:44:13.421Z</time>
      </trkpt>
      <trkpt lat="45.55178" lon="5.36216">
        <ele>314</ele>
        <time>2021-03-07T08:44:14.421Z</time>
      </trkpt>
      <trkpt lat="45.55176" lon="5.36223">
        <ele>315</ele>
        <time>2021-03-07T08:44:15.421Z</time>
      </trkpt>
      <trkpt lat="45.55173" lon="5.3623">
        <ele>315</ele>
        <time>2021-03-07T08:44:16.420Z</time>
      </trkpt>
      <trkpt lat="45.55171" lon="5.36237">
        <ele>315</ele>
        <time>2021-03-07T08:44:17.420Z</time>
      </trkpt>
      <trkpt lat="45.55168" lon="5.36243">
        <ele>315</ele>
        <time>2021-03-07T08:44:18.420Z</time>
      </trkpt>
      <trkpt lat="45.55166" lon="5.3625">
        <ele>315</ele>
        <time>2021-03-07T08:44:19.420Z</time>
      </trkpt>
      <trkpt lat="45.55163" lon="5.36257">
        <ele>315</ele>
        <time>2021-03-07T08:44:20.421Z</time>
      </trkpt>
      <trkpt lat="45.5516" lon="5.36264">
        <ele>315</ele>
        <time>2021-03-07T08:44:21.420Z</time>
      </trkpt>
      <trkpt lat="45.55158" lon="5.36271">
        <ele>315</ele>
        <time>2021-03-07T08:44:22.421Z</time>
      </trkpt>
      <trkpt lat="45.55155" lon="5.36278">
        <ele>316</ele>
        <time>2021-03-07T08:44:23.421Z</time>
      </trkpt>
      <trkpt lat="45.55152" lon="5.36285">
        <ele>315</ele>
        <time>2021-03-07T08:44:24.420Z</time>
      </trkpt>
      <trkpt lat="45.5515" lon="5.36291">
        <ele>315</ele>
        <time>2021-03-07T08:44:25.421Z</time>
      </trkpt>
      <trkpt lat="45.55147" lon="5.36298">
        <ele>315</ele>
        <time>2021-03-07T08:44:26.421Z</time>
      </trkpt>
      <trkpt lat="45.55144" lon="5.36305">
        <ele>316</ele>
        <time>2021-03-07T08:44:27.421Z</time>
      </trkpt>
      <trkpt lat="45.55141" lon="5.36312">
        <ele>316</ele>
        <time>2021-03-07T08:44:28.421Z</time>
      </trkpt>
      <trkpt lat="45.55138" lon="5.36319">
        <ele>316</ele>
        <time>2021-03-07T08:44:29.421Z</time>
      </trkpt>
      <trkpt lat="45.55135" lon="5.36325">
        <ele>316</ele>
        <time>2021-03-07T08:44:30.421Z</time>
      </trkpt>
      <trkpt lat="45.55132" lon="5.36332">
        <ele>316</ele>
        <time>2021-03-07T08:44:31.421Z</time>
      </trkpt>
      <trkpt lat="45.55129" lon="5.36339">
        <ele>316</ele>
        <time>2021-03-07T08:44:32.421Z</time>
      </trkpt>
      <trkpt lat="45.55126" lon="5.36346">
        <ele>317</ele>
        <time>2021-03-07T08:44:33.421Z</time>
      </trkpt>
      <trkpt lat="45.55123" lon="5.36352">
        <ele>317</ele>
        <time>2021-03-07T08:44:34.420Z</time>
      </trkpt>
      <trkpt lat="45.5512" lon="5.36359">
        <ele>317</ele>
        <time>2021-03-07T08:44:35.421Z</time>
      </trkpt>
      <trkpt lat="45.55117" lon="5.36366">
        <ele>317</ele>
        <time>2021-03-07T08:44:36.421Z</time>
      </trkpt>
      <trkpt lat="45.55114" lon="5.36373">
        <ele>318</ele>
        <time>2021-03-07T08:44:37.420Z</time>
      </trkpt>
      <trkpt lat="45.55111" lon="5.36379">
        <ele>318</ele>
        <time>2021-03-07T08:44:38.420Z</time>
      </trkpt>
      <trkpt lat="45.55108" lon="5.36386">
        <ele>318</ele>
        <time>2021-03-07T08:44:39.420Z</time>
      </trkpt>
      <trkpt lat="45.55105" lon="5.36392">
        <ele>319</ele>
        <time>2021-03-07T08:44:40.421Z</time>
      </trkpt>
      <trkpt lat="45.55102" lon="5.36399">
        <ele>319</ele>
        <time>2021-03-07T08:44:41.421Z</time>
      </trkpt>
      <trkpt lat="45.55099" lon="5.36405">
        <ele>319</ele>
        <time>2021-03-07T08:44:42.421Z</time>
      </trkpt>
      <trkpt lat="45.55096" lon="5.36412">
        <ele>319</ele>
        <time>2021-03-07T08:44:43.421Z</time>
      </trkpt>
      <trkpt lat="45.55093" lon="5.36419">
        <ele>319</ele>
        <time>2021-03-07T08:44:44.421Z</time>
      </trkpt>
      <trkpt lat="45.5509" lon="5.36426">
        <ele>319</ele>
        <time>2021-03-07T08:44:45.421Z</time>
      </trkpt>
      <trkpt lat="45.55087" lon="5.36433">
        <ele>319</ele>
        <time>2021-03-07T08:44:46.421Z</time>
      </trkpt>
      <trkpt lat="45.55085" lon="5.36439">
        <ele>320</ele>
        <time>2021-03-07T08:44:47.421Z</time>
      </trkpt>
      <trkpt lat="45.55082" lon="5.36446">
        <ele>320</ele>
        <time>2021-03-07T08:44:48.421Z</time>
      </trkpt>
      <trkpt lat="45.55079" lon="5.36453">
        <ele>320</ele>
        <time>2021-03-07T08:44:49.421Z</time>
      </trkpt>
      <trkpt lat="45.55076" lon="5.36459">
        <ele>320</ele>
        <time>2021-03-07T08:44:50.420Z</time>
      </trkpt>
      <trkpt lat="45.55073" lon="5.36466">
        <ele>320</ele>
        <time>2021-03-07T08:44:51.420Z</time>
      </trkpt>
      <trkpt lat="45.5507" lon="5.36472">
        <ele>320</ele>
        <time>2021-03-07T08:44:52.420Z</time>
      </trkpt>
      <trkpt lat="45.55068" lon="5.36479">
        <ele>320</ele>
        <time>2021-03-07T08:44:53.421Z</time>
      </trkpt>
      <trkpt lat="45.55065" lon="5.36485">
        <ele>320</ele>
        <time>2021-03-07T08:44:54.420Z</time>
      </trkpt>
      <trkpt lat="45.55062" lon="5.36492">
        <ele>321</ele>
        <time>2021-03-07T08:44:55.421Z</time>
      </trkpt>
      <trkpt lat="45.55059" lon="5.36498">
        <ele>321</ele>
        <time>2021-03-07T08:44:56.421Z</time>
      </trkpt>
      <trkpt lat="45.55057" lon="5.36505">
        <ele>321</ele>
        <time>2021-03-07T08:44:57.421Z</time>
      </trkpt>
      <trkpt lat="45.55054" lon="5.36511">
        <ele>321</ele>
        <time>2021-03-07T08:44:58.421Z</time>
      </trkpt>
      <trkpt lat="45.55052" lon="5.36518">
        <ele>321</ele>
        <time>2021-03-07T08:44:59.421Z</time>
      </trkpt>
      <trkpt lat="45.55049" lon="5.36524">
        <ele>321</ele>
        <time>2021-03-07T08:45:00.421Z</time>
      </trkpt>
      <trkpt lat="45.55046" lon="5.3653">
        <ele>321</ele>
        <time>2021-03-07T08:45:01.421Z</time>
      </trkpt>
      <trkpt lat="45.55043" lon="5.36537">
        <ele>321</ele>
        <time>2021-03-07T08:45:02.421Z</time>
      </trkpt>
      <trkpt lat="45.55041" lon="5.36543">
        <ele>322</ele>
        <time>2021-03-07T08:45:03.421Z</time>
      </trkpt>
      <trkpt lat="45.55038" lon="5.36549">
        <ele>322</ele>
        <time>2021-03-07T08:45:04.421Z</time>
      </trkpt>
      <trkpt lat="45.55036" lon="5.36556">
        <ele>322</ele>
        <time>2021-03-07T08:45:05.421Z</time>
      </trkpt>
      <trkpt lat="45.55033" lon="5.36562">
        <ele>322</ele>
        <time>2021-03-07T08:45:06.420Z</time>
      </trkpt>
      <trkpt lat="45.55031" lon="5.36568">
        <ele>322</ele>
        <time>2021-03-07T08:45:07.421Z</time>
      </trkpt>
      <trkpt lat="45.55028" lon="5.36574">
        <ele>322</ele>
        <time>2021-03-07T08:45:08.421Z</time>
      </trkpt>
      <trkpt lat="45.55025" lon="5.3658">
        <ele>322</ele>
        <time>2021-03-07T08:45:09.421Z</time>
      </trkpt>
      <trkpt lat="45.55022" lon="5.36586">
        <ele>322</ele>
        <time>2021-03-07T08:45:10.420Z</time>
      </trkpt>
      <trkpt lat="45.5502" lon="5.36593">
        <ele>323</ele>
        <time>2021-03-07T08:45:11.421Z</time>
      </trkpt>
      <trkpt lat="45.55017" lon="5.36599">
        <ele>323</ele>
        <time>2021-03-07T08:45:12.421Z</time>
      </trkpt>
      <trkpt lat="45.55014" lon="5.36605">
        <ele>322</ele>
        <time>2021-03-07T08:45:13.421Z</time>
      </trkpt>
      <trkpt lat="45.55012" lon="5.36611">
        <ele>322</ele>
        <time>2021-03-07T08:45:14.421Z</time>
      </trkpt>
      <trkpt lat="45.55009" lon="5.36618">
        <ele>322</ele>
        <time>2021-03-07T08:45:15.421Z</time>
      </trkpt>
      <trkpt lat="45.55006" lon="5.36624">
        <ele>323</ele>
        <time>2021-03-07T08:45:16.421Z</time>
      </trkpt>
      <trkpt lat="45.55004" lon="5.36631">
        <ele>323</ele>
        <time>2021-03-07T08:45:17.421Z</time>
      </trkpt>
      <trkpt lat="45.55001" lon="5.36637">
        <ele>323</ele>
        <time>2021-03-07T08:45:18.421Z</time>
      </trkpt>
      <trkpt lat="45.54998" lon="5.36644">
        <ele>323</ele>
        <time>2021-03-07T08:45:19.421Z</time>
      </trkpt>
      <trkpt lat="45.54995" lon="5.3665">
        <ele>323</ele>
        <time>2021-03-07T08:45:20.420Z</time>
      </trkpt>
      <trkpt lat="45.54993" lon="5.36657">
        <ele>323</ele>
        <time>2021-03-07T08:45:21.420Z</time>
      </trkpt>
      <trkpt lat="45.5499" lon="5.36663">
        <ele>323</ele>
        <time>2021-03-07T08:45:22.420Z</time>
      </trkpt>
      <trkpt lat="45.54987" lon="5.3667">
        <ele>323</ele>
        <time>2021-03-07T08:45:23.420Z</time>
      </trkpt>
      <trkpt lat="45.54984" lon="5.36676">
        <ele>323</ele>
        <time>2021-03-07T08:45:24.421Z</time>
      </trkpt>
      <trkpt lat="45.54981" lon="5.36683">
        <ele>324</ele>
        <time>2021-03-07T08:45:25.420Z</time>
      </trkpt>
      <trkpt lat="45.54979" lon="5.36689">
        <ele>324</ele>
        <time>2021-03-07T08:45:26.421Z</time>
      </trkpt>
      <trkpt lat="45.54976" lon="5.36696">
        <ele>324</ele>
        <time>2021-03-07T08:45:27.420Z</time>
      </trkpt>
      <trkpt lat="45.54973" lon="5.36702">
        <ele>324</ele>
        <time>2021-03-07T08:45:28.421Z</time>
      </trkpt>
      <trkpt lat="45.54971" lon="5.36709">
        <ele>324</ele>
        <time>2021-03-07T08:45:29.421Z</time>
      </trkpt>
      <trkpt lat="45.54968" lon="5.36715">
        <ele>325</ele>
        <time>2021-03-07T08:45:30.421Z</time>
      </trkpt>
      <trkpt lat="45.54965" lon="5.36722">
        <ele>325</ele>
        <time>2021-03-07T08:45:31.421Z</time>
      </trkpt>
      <trkpt lat="45.54963" lon="5.36729">
        <ele>325</ele>
        <time>2021-03-07T08:45:32.421Z</time>
      </trkpt>
      <trkpt lat="45.5496" lon="5.36735">
        <ele>325</ele>
        <time>2021-03-07T08:45:33.421Z</time>
      </trkpt>
      <trkpt lat="45.54957" lon="5.36742">
        <ele>325</ele>
        <time>2021-03-07T08:45:34.421Z</time>
      </trkpt>
      <trkpt lat="45.54954" lon="5.36748">
        <ele>325</ele>
        <time>2021-03-07T08:45:35.421Z</time>
      </trkpt>
      <trkpt lat="45.54951" lon="5.36755">
        <ele>325</ele>
        <time>2021-03-07T08:45:36.420Z</time>
      </trkpt>
      <trkpt lat="45.54948" lon="5.36762">
        <ele>325</ele>
        <time>2021-03-07T08:45:37.421Z</time>
      </trkpt>
      <trkpt lat="45.54945" lon="5.36769">
        <ele>326</ele>
        <time>2021-03-07T08:45:38.421Z</time>
      </trkpt>
      <trkpt lat="45.54942" lon="5.36776">
        <ele>326</ele>
        <time>2021-03-07T08:45:39.421Z</time>
      </trkpt>
      <trkpt lat="45.5494" lon="5.36782">
        <ele>326</ele>
        <time>2021-03-07T08:45:40.420Z</time>
      </trkpt>
      <trkpt lat="45.54937" lon="5.36789">
        <ele>326</ele>
        <time>2021-03-07T08:45:41.420Z</time>
      </trkpt>
      <trkpt lat="45.54934" lon="5.36796">
        <ele>327</ele>
        <time>2021-03-07T08:45:42.420Z</time>
      </trkpt>
      <trkpt lat="45.54931" lon="5.36802">
        <ele>327</ele>
        <time>2021-03-07T08:45:43.421Z</time>
      </trkpt>
      <trkpt lat="45.54928" lon="5.36809">
        <ele>327</ele>
        <time>2021-03-07T08:45:44.421Z</time>
      </trkpt>
      <trkpt lat="45.54925" lon="5.36815">
        <ele>327</ele>
        <time>2021-03-07T08:45:45.421Z</time>
      </trkpt>
      <trkpt lat="45.54923" lon="5.36822">
        <ele>328</ele>
        <time>2021-03-07T08:45:46.421Z</time>
      </trkpt>
      <trkpt lat="45.5492" lon="5.36829">
        <ele>328</ele>
        <time>2021-03-07T08:45:47.421Z</time>
      </trkpt>
      <trkpt lat="45.54917" lon="5.36835">
        <ele>328</ele>
        <time>2021-03-07T08:45:48.420Z</time>
      </trkpt>
      <trkpt lat="45.54914" lon="5.36841">
        <ele>328</ele>
        <time>2021-03-07T08:45:49.420Z</time>
      </trkpt>
      <trkpt lat="45.54911" lon="5.36847">
        <ele>327</ele>
        <time>2021-03-07T08:45:50.420Z</time>
      </trkpt>
      <trkpt lat="45.54909" lon="5.36854">
        <ele>327</ele>
        <time>2021-03-07T08:45:51.420Z</time>
      </trkpt>
      <trkpt lat="45.54906" lon="5.3686">
        <ele>328</ele>
        <time>2021-03-07T08:45:52.421Z</time>
      </trkpt>
      <trkpt lat="45.54903" lon="5.36866">
        <ele>328</ele>
        <time>2021-03-07T08:45:53.421Z</time>
      </trkpt>
      <trkpt lat="45.549" lon="5.36873">
        <ele>328</ele>
        <time>2021-03-07T08:45:54.421Z</time>
      </trkpt>
      <trkpt lat="45.54898" lon="5.36879">
        <ele>328</ele>
        <time>2021-03-07T08:45:55.421Z</time>
      </trkpt>
      <trkpt lat="45.54895" lon="5.36886">
        <ele>328</ele>
        <time>2021-03-07T08:45:56.421Z</time>
      </trkpt>
      <trkpt lat="45.54893" lon="5.36892">
        <ele>328</ele>
        <time>2021-03-07T08:45:57.421Z</time>
      </trkpt>
      <trkpt lat="45.54891" lon="5.36898">
        <ele>328</ele>
        <time>2021-03-07T08:45:58.421Z</time>
      </trkpt>
      <trkpt lat="45.54889" lon="5.36905">
        <ele>329</ele>
        <time>2021-03-07T08:45:59.421Z</time>
      </trkpt>
      <trkpt lat="45.54887" lon="5.36911">
        <ele>329</ele>
        <time>2021-03-07T08:46:00.421Z</time>
      </trkpt>
      <trkpt lat="45.54886" lon="5.36918">
        <ele>329</ele>
        <time>2021-03-07T08:46:01.420Z</time>
      </trkpt>
      <trkpt lat="45.54885" lon="5.36924">
        <ele>329</ele>
        <time>2021-03-07T08:46:02.420Z</time>
      </trkpt>
      <trkpt lat="45.54884" lon="5.36931">
        <ele>330</ele>
        <time>2021-03-07T08:46:03.420Z</time>
      </trkpt>
      <trkpt lat="45.54883" lon="5.36938">
        <ele>330</ele>
        <time>2021-03-07T08:46:04.420Z</time>
      </trkpt>
      <trkpt lat="45.54882" lon="5.36945">
        <ele>331</ele>
        <time>2021-03-07T08:46:05.421Z</time>
      </trkpt>
      <trkpt lat="45.54882" lon="5.36951">
        <ele>331</ele>
        <time>2021-03-07T08:46:06.421Z</time>
      </trkpt>
      <trkpt lat="45.54882" lon="5.36958">
        <ele>331</ele>
        <time>2021-03-07T08:46:07.420Z</time>
      </trkpt>
      <trkpt lat="45.54882" lon="5.36964">
        <ele>332</ele>
        <time>2021-03-07T08:46:08.421Z</time>
      </trkpt>
      <trkpt lat="45.54882" lon="5.36971">
        <ele>332</ele>
        <time>2021-03-07T08:46:09.421Z</time>
      </trkpt>
      <trkpt lat="45.54883" lon="5.36978">
        <ele>332</ele>
        <time>2021-03-07T08:46:10.421Z</time>
      </trkpt>
      <trkpt lat="45.54883" lon="5.36984">
        <ele>332</ele>
        <time>2021-03-07T08:46:11.421Z</time>
      </trkpt>
      <trkpt lat="45.54884" lon="5.36991">
        <ele>333</ele>
        <time>2021-03-07T08:46:12.420Z</time>
      </trkpt>
      <trkpt lat="45.54885" lon="5.36998">
        <ele>333</ele>
        <time>2021-03-07T08:46:13.420Z</time>
      </trkpt>
      <trkpt lat="45.54887" lon="5.37005">
        <ele>334</ele>
        <time>2021-03-07T08:46:14.421Z</time>
      </trkpt>
      <trkpt lat="45.54888" lon="5.37011">
        <ele>334</ele>
        <time>2021-03-07T08:46:15.420Z</time>
      </trkpt>
      <trkpt lat="45.5489" lon="5.37017">
        <ele>334</ele>
        <time>2021-03-07T08:46:16.421Z</time>
      </trkpt>
      <trkpt lat="45.54893" lon="5.37024">
        <ele>334</ele>
        <time>2021-03-07T08:46:17.421Z</time>
      </trkpt>
      <trkpt lat="45.54895" lon="5.3703">
        <ele>335</ele>
        <time>2021-03-07T08:46:18.420Z</time>
      </trkpt>
      <trkpt lat="45.54898" lon="5.37036">
        <ele>335</ele>
        <time>2021-03-07T08:46:19.420Z</time>
      </trkpt>
      <trkpt lat="45.54901" lon="5.37041">
        <ele>336</ele>
        <time>2021-03-07T08:46:20.421Z</time>
      </trkpt>
      <trkpt lat="45.54905" lon="5.37047">
        <ele>336</ele>
        <time>2021-03-07T08:46:21.421Z</time>
      </trkpt>
      <trkpt lat="45.54908" lon="5.37053">
        <ele>337</ele>
        <time>2021-03-07T08:46:22.420Z</time>
      </trkpt>
      <trkpt lat="45.54911" lon="5.37058">
        <ele>338</ele>
        <time>2021-03-07T08:46:23.420Z</time>
      </trkpt>
      <trkpt lat="45.54915" lon="5.37064">
        <ele>339</ele>
        <time>2021-03-07T08:46:24.421Z</time>
      </trkpt>
      <trkpt lat="45.54918" lon="5.37069">
        <ele>339</ele>
        <time>2021-03-07T08:46:25.420Z</time>
      </trkpt>
      <trkpt lat="45.54922" lon="5.37074">
        <ele>340</ele>
        <time>2021-03-07T08:46:26.421Z</time>
      </trkpt>
      <trkpt lat="45.54925" lon="5.3708">
        <ele>340</ele>
        <time>2021-03-07T08:46:27.421Z</time>
      </trkpt>
      <trkpt lat="45.54928" lon="5.37084">
        <ele>341</ele>
        <time>2021-03-07T08:46:28.420Z</time>
      </trkpt>
      <trkpt lat="45.54932" lon="5.37091">
        <ele>341</ele>
        <time>2021-03-07T08:46:29.420Z</time>
      </trkpt>
      <trkpt lat="45.54936" lon="5.37097">
        <ele>341</ele>
        <time>2021-03-07T08:46:30.421Z</time>
      </trkpt>
      <trkpt lat="45.54939" lon="5.37103">
        <ele>341</ele>
        <time>2021-03-07T08:46:31.420Z</time>
      </trkpt>
      <trkpt lat="45.54943" lon="5.37109">
        <ele>340</ele>
        <time>2021-03-07T08:46:32.420Z</time>
      </trkpt>
      <trkpt lat="45.54947" lon="5.37115">
        <ele>340</ele>
        <time>2021-03-07T08:46:33.420Z</time>
      </trkpt>
      <trkpt lat="45.54951" lon="5.37122">
        <ele>340</ele>
        <time>2021-03-07T08:46:34.421Z</time>
      </trkpt>
      <trkpt lat="45.54954" lon="5.37128">
        <ele>340</ele>
        <time>2021-03-07T08:46:35.421Z</time>
      </trkpt>
      <trkpt lat="45.54958" lon="5.37135">
        <ele>340</ele>
        <time>2021-03-07T08:46:36.421Z</time>
      </trkpt>
      <trkpt lat="45.54962" lon="5.37141">
        <ele>340</ele>
        <time>2021-03-07T08:46:37.420Z</time>
      </trkpt>
      <trkpt lat="45.54967" lon="5.37148">
        <ele>340</ele>
        <time>2021-03-07T08:46:38.421Z</time>
      </trkpt>
      <trkpt lat="45.54971" lon="5.37155">
        <ele>340</ele>
        <time>2021-03-07T08:46:39.420Z</time>
      </trkpt>
      <trkpt lat="45.54975" lon="5.37162">
        <ele>340</ele>
        <time>2021-03-07T08:46:40.421Z</time>
      </trkpt>
      <trkpt lat="45.54979" lon="5.37168">
        <ele>339</ele>
        <time>2021-03-07T08:46:41.421Z</time>
      </trkpt>
      <trkpt lat="45.54983" lon="5.37175">
        <ele>339</ele>
        <time>2021-03-07T08:46:42.420Z</time>
      </trkpt>
      <trkpt lat="45.54988" lon="5.37182">
        <ele>339</ele>
        <time>2021-03-07T08:46:43.421Z</time>
      </trkpt>
      <trkpt lat="45.54992" lon="5.3719">
        <ele>339</ele>
        <time>2021-03-07T08:46:44.421Z</time>
      </trkpt>
      <trkpt lat="45.54997" lon="5.37197">
        <ele>339</ele>
        <time>2021-03-07T08:46:45.421Z</time>
      </trkpt>
      <trkpt lat="45.55002" lon="5.37206">
        <ele>338</ele>
        <time>2021-03-07T08:46:46.421Z</time>
      </trkpt>
      <trkpt lat="45.55006" lon="5.37214">
        <ele>338</ele>
        <time>2021-03-07T08:46:47.420Z</time>
      </trkpt>
      <trkpt lat="45.55011" lon="5.37223">
        <ele>338</ele>
        <time>2021-03-07T08:46:48.421Z</time>
      </trkpt>
      <trkpt lat="45.55016" lon="5.37232">
        <ele>337</ele>
        <time>2021-03-07T08:46:49.420Z</time>
      </trkpt>
      <trkpt lat="45.5502" lon="5.37241">
        <ele>337</ele>
        <time>2021-03-07T08:46:50.420Z</time>
      </trkpt>
      <trkpt lat="45.55025" lon="5.3725">
        <ele>336</ele>
        <time>2021-03-07T08:46:51.421Z</time>
      </trkpt>
      <trkpt lat="45.55029" lon="5.37261">
        <ele>336</ele>
        <time>2021-03-07T08:46:52.420Z</time>
      </trkpt>
      <trkpt lat="45.55032" lon="5.37271">
        <ele>336</ele>
        <time>2021-03-07T08:46:53.420Z</time>
      </trkpt>
      <trkpt lat="45.55035" lon="5.37282">
        <ele>335</ele>
        <time>2021-03-07T08:46:54.420Z</time>
      </trkpt>
      <trkpt lat="45.55038" lon="5.37293">
        <ele>335</ele>
        <time>2021-03-07T08:46:55.421Z</time>
      </trkpt>
      <trkpt lat="45.5504" lon="5.37305">
        <ele>334</ele>
        <time>2021-03-07T08:46:56.420Z</time>
      </trkpt>
      <trkpt lat="45.55041" lon="5.37317">
        <ele>333</ele>
        <time>2021-03-07T08:46:57.420Z</time>
      </trkpt>
      <trkpt lat="45.55042" lon="5.37329">
        <ele>333</ele>
        <time>2021-03-07T08:46:58.420Z</time>
      </trkpt>
      <trkpt lat="45.55043" lon="5.3734">
        <ele>332</ele>
        <time>2021-03-07T08:46:59.420Z</time>
      </trkpt>
      <trkpt lat="45.55043" lon="5.37351">
        <ele>332</ele>
        <time>2021-03-07T08:47:00.421Z</time>
      </trkpt>
      <trkpt lat="45.55043" lon="5.37362">
        <ele>331</ele>
        <time>2021-03-07T08:47:01.421Z</time>
      </trkpt>
      <trkpt lat="45.55043" lon="5.37372">
        <ele>331</ele>
        <time>2021-03-07T08:47:02.420Z</time>
      </trkpt>
      <trkpt lat="45.55043" lon="5.37382">
        <ele>330</ele>
        <time>2021-03-07T08:47:03.420Z</time>
      </trkpt>
      <trkpt lat="45.55042" lon="5.37391">
        <ele>330</ele>
        <time>2021-03-07T08:47:04.421Z</time>
      </trkpt>
      <trkpt lat="45.55041" lon="5.37399">
        <ele>329</ele>
        <time>2021-03-07T08:47:05.420Z</time>
      </trkpt>
      <trkpt lat="45.5504" lon="5.37407">
        <ele>329</ele>
        <time>2021-03-07T08:47:06.421Z</time>
      </trkpt>
      <trkpt lat="45.5504" lon="5.37415">
        <ele>329</ele>
        <time>2021-03-07T08:47:07.420Z</time>
      </trkpt>
      <trkpt lat="45.55039" lon="5.37423">
        <ele>328</ele>
        <time>2021-03-07T08:47:08.421Z</time>
      </trkpt>
      <trkpt lat="45.55039" lon="5.37431">
        <ele>328</ele>
        <time>2021-03-07T08:47:09.421Z</time>
      </trkpt>
      <trkpt lat="45.55038" lon="5.37439">
        <ele>329</ele>
        <time>2021-03-07T08:47:10.420Z</time>
      </trkpt>
      <trkpt lat="45.55038" lon="5.37447">
        <ele>329</ele>
        <time>2021-03-07T08:47:11.420Z</time>
      </trkpt>
      <trkpt lat="45.55037" lon="5.37455">
        <ele>329</ele>
        <time>2021-03-07T08:47:12.420Z</time>
      </trkpt>
      <trkpt lat="45.55037" lon="5.37463">
        <ele>329</ele>
        <time>2021-03-07T08:47:13.420Z</time>
      </trkpt>
      <trkpt lat="45.55037" lon="5.37472">
        <ele>329</ele>
        <time>2021-03-07T08:47:14.420Z</time>
      </trkpt>
      <trkpt lat="45.55037" lon="5.3748">
        <ele>329</ele>
        <time>2021-03-07T08:47:15.420Z</time>
      </trkpt>
      <trkpt lat="45.55037" lon="5.37488">
        <ele>329</ele>
        <time>2021-03-07T08:47:16.420Z</time>
      </trkpt>
      <trkpt lat="45.55037" lon="5.37496">
        <ele>329</ele>
        <time>2021-03-07T08:47:17.420Z</time>
      </trkpt>
      <trkpt lat="45.55037" lon="5.37504">
        <ele>329</ele>
        <time>2021-03-07T08:47:18.420Z</time>
      </trkpt>
      <trkpt lat="45.55037" lon="5.37512">
        <ele>329</ele>
        <time>2021-03-07T08:47:19.420Z</time>
      </trkpt>
      <trkpt lat="45.55036" lon="5.3752">
        <ele>330</ele>
        <time>2021-03-07T08:47:20.420Z</time>
      </trkpt>
      <trkpt lat="45.55036" lon="5.37527">
        <ele>330</ele>
        <time>2021-03-07T08:47:21.420Z</time>
      </trkpt>
      <trkpt lat="45.55036" lon="5.37534">
        <ele>330</ele>
        <time>2021-03-07T08:47:22.421Z</time>
      </trkpt>
      <trkpt lat="45.55036" lon="5.37542">
        <ele>331</ele>
        <time>2021-03-07T08:47:23.420Z</time>
      </trkpt>
      <trkpt lat="45.55036" lon="5.3755">
        <ele>331</ele>
        <time>2021-03-07T08:47:24.421Z</time>
      </trkpt>
      <trkpt lat="45.55036" lon="5.37557">
        <ele>331</ele>
        <time>2021-03-07T08:47:25.421Z</time>
      </trkpt>
      <trkpt lat="45.55035" lon="5.37565">
        <ele>331</ele>
        <time>2021-03-07T08:47:26.421Z</time>
      </trkpt>
      <trkpt lat="45.55035" lon="5.37572">
        <ele>332</ele>
        <time>2021-03-07T08:47:27.420Z</time>
      </trkpt>
      <trkpt lat="45.55035" lon="5.3758">
        <ele>332</ele>
        <time>2021-03-07T08:47:28.421Z</time>
      </trkpt>
      <trkpt lat="45.55035" lon="5.37587">
        <ele>332</ele>
        <time>2021-03-07T08:47:29.421Z</time>
      </trkpt>
      <trkpt lat="45.55034" lon="5.37595">
        <ele>332</ele>
        <time>2021-03-07T08:47:30.421Z</time>
      </trkpt>
      <trkpt lat="45.55033" lon="5.37602">
        <ele>332</ele>
        <time>2021-03-07T08:47:31.420Z</time>
      </trkpt>
      <trkpt lat="45.55033" lon="5.3761">
        <ele>332</ele>
        <time>2021-03-07T08:47:32.420Z</time>
      </trkpt>
      <trkpt lat="45.55032" lon="5.37617">
        <ele>332</ele>
        <time>2021-03-07T08:47:33.420Z</time>
      </trkpt>
      <trkpt lat="45.55031" lon="5.37625">
        <ele>332</ele>
        <time>2021-03-07T08:47:34.421Z</time>
      </trkpt>
      <trkpt lat="45.5503" lon="5.37632">
        <ele>333</ele>
        <time>2021-03-07T08:47:35.420Z</time>
      </trkpt>
      <trkpt lat="45.55029" lon="5.37639">
        <ele>333</ele>
        <time>2021-03-07T08:47:36.421Z</time>
      </trkpt>
      <trkpt lat="45.55027" lon="5.37647">
        <ele>333</ele>
        <time>2021-03-07T08:47:37.421Z</time>
      </trkpt>
      <trkpt lat="45.55026" lon="5.37654">
        <ele>333</ele>
        <time>2021-03-07T08:47:38.421Z</time>
      </trkpt>
      <trkpt lat="45.55025" lon="5.37661">
        <ele>333</ele>
        <time>2021-03-07T08:47:39.420Z</time>
      </trkpt>
      <trkpt lat="45.55024" lon="5.37668">
        <ele>333</ele>
        <time>2021-03-07T08:47:40.421Z</time>
      </trkpt>
      <trkpt lat="45.55022" lon="5.37675">
        <ele>333</ele>
        <time>2021-03-07T08:47:41.421Z</time>
      </trkpt>
      <trkpt lat="45.55021" lon="5.37682">
        <ele>333</ele>
        <time>2021-03-07T08:47:42.421Z</time>
      </trkpt>
      <trkpt lat="45.55019" lon="5.37689">
        <ele>333</ele>
        <time>2021-03-07T08:47:43.421Z</time>
      </trkpt>
      <trkpt lat="45.55018" lon="5.37696">
        <ele>333</ele>
        <time>2021-03-07T08:47:44.420Z</time>
      </trkpt>
      <trkpt lat="45.55016" lon="5.37703">
        <ele>333</ele>
        <time>2021-03-07T08:47:45.421Z</time>
      </trkpt>
      <trkpt lat="45.55015" lon="5.3771">
        <ele>333</ele>
        <time>2021-03-07T08:47:46.420Z</time>
      </trkpt>
      <trkpt lat="45.55013" lon="5.37717">
        <ele>334</ele>
        <time>2021-03-07T08:47:47.420Z</time>
      </trkpt>
      <trkpt lat="45.55012" lon="5.37724">
        <ele>334</ele>
        <time>2021-03-07T08:47:48.420Z</time>
      </trkpt>
      <trkpt lat="45.5501" lon="5.37731">
        <ele>334</ele>
        <time>2021-03-07T08:47:49.421Z</time>
      </trkpt>
      <trkpt lat="45.55009" lon="5.37738">
        <ele>334</ele>
        <time>2021-03-07T08:47:50.421Z</time>
      </trkpt>
      <trkpt lat="45.55007" lon="5.37745">
        <ele>334</ele>
        <time>2021-03-07T08:47:51.420Z</time>
      </trkpt>
      <trkpt lat="45.55005" lon="5.37752">
        <ele>335</ele>
        <time>2021-03-07T08:47:52.420Z</time>
      </trkpt>
      <trkpt lat="45.55003" lon="5.37759">
        <ele>335</ele>
        <time>2021-03-07T08:47:53.420Z</time>
      </trkpt>
      <trkpt lat="45.55001" lon="5.37766">
        <ele>335</ele>
        <time>2021-03-07T08:47:54.420Z</time>
      </trkpt>
      <trkpt lat="45.54999" lon="5.37773">
        <ele>335</ele>
        <time>2021-03-07T08:47:55.421Z</time>
      </trkpt>
      <trkpt lat="45.54997" lon="5.3778">
        <ele>335</ele>
        <time>2021-03-07T08:47:56.421Z</time>
      </trkpt>
      <trkpt lat="45.54996" lon="5.37787">
        <ele>335</ele>
        <time>2021-03-07T08:47:57.420Z</time>
      </trkpt>
      <trkpt lat="45.54994" lon="5.37794">
        <ele>336</ele>
        <time>2021-03-07T08:47:58.421Z</time>
      </trkpt>
      <trkpt lat="45.54992" lon="5.37801">
        <ele>336</ele>
        <time>2021-03-07T08:47:59.420Z</time>
      </trkpt>
      <trkpt lat="45.5499" lon="5.37808">
        <ele>336</ele>
        <time>2021-03-07T08:48:00.421Z</time>
      </trkpt>
      <trkpt lat="45.54988" lon="5.37815">
        <ele>336</ele>
        <time>2021-03-07T08:48:01.420Z</time>
      </trkpt>
      <trkpt lat="45.54986" lon="5.37822">
        <ele>336</ele>
        <time>2021-03-07T08:48:02.421Z</time>
      </trkpt>
      <trkpt lat="45.54984" lon="5.37829">
        <ele>336</ele>
        <time>2021-03-07T08:48:03.420Z</time>
      </trkpt>
      <trkpt lat="45.54982" lon="5.37836">
        <ele>336</ele>
        <time>2021-03-07T08:48:04.421Z</time>
      </trkpt>
      <trkpt lat="45.5498" lon="5.37843">
        <ele>336</ele>
        <time>2021-03-07T08:48:05.421Z</time>
      </trkpt>
      <trkpt lat="45.54978" lon="5.3785">
        <ele>337</ele>
        <time>2021-03-07T08:48:06.420Z</time>
      </trkpt>
      <trkpt lat="45.54977" lon="5.37857">
        <ele>338</ele>
        <time>2021-03-07T08:48:07.420Z</time>
      </trkpt>
      <trkpt lat="45.54975" lon="5.37864">
        <ele>338</ele>
        <time>2021-03-07T08:48:08.420Z</time>
      </trkpt>
      <trkpt lat="45.54973" lon="5.3787">
        <ele>338</ele>
        <time>2021-03-07T08:48:09.421Z</time>
      </trkpt>
      <trkpt lat="45.54971" lon="5.37877">
        <ele>338</ele>
        <time>2021-03-07T08:48:10.421Z</time>
      </trkpt>
      <trkpt lat="45.54969" lon="5.37884">
        <ele>338</ele>
        <time>2021-03-07T08:48:11.421Z</time>
      </trkpt>
      <trkpt lat="45.54967" lon="5.37892">
        <ele>338</ele>
        <time>2021-03-07T08:48:12.420Z</time>
      </trkpt>
      <trkpt lat="45.54966" lon="5.37899">
        <ele>339</ele>
        <time>2021-03-07T08:48:13.421Z</time>
      </trkpt>
      <trkpt lat="45.54964" lon="5.37906">
        <ele>339</ele>
        <time>2021-03-07T08:48:14.420Z</time>
      </trkpt>
      <trkpt lat="45.54962" lon="5.37913">
        <ele>339</ele>
        <time>2021-03-07T08:48:15.420Z</time>
      </trkpt>
      <trkpt lat="45.5496" lon="5.3792">
        <ele>340</ele>
        <time>2021-03-07T08:48:16.421Z</time>
      </trkpt>
      <trkpt lat="45.54957" lon="5.37928">
        <ele>340</ele>
        <time>2021-03-07T08:48:17.421Z</time>
      </trkpt>
      <trkpt lat="45.54955" lon="5.37936">
        <ele>340</ele>
        <time>2021-03-07T08:48:18.421Z</time>
      </trkpt>
      <trkpt lat="45.54952" lon="5.37943">
        <ele>340</ele>
        <time>2021-03-07T08:48:19.420Z</time>
      </trkpt>
      <trkpt lat="45.54949" lon="5.37951">
        <ele>340</ele>
        <time>2021-03-07T08:48:20.420Z</time>
      </trkpt>
      <trkpt lat="45.54946" lon="5.37958">
        <ele>340</ele>
        <time>2021-03-07T08:48:21.421Z</time>
      </trkpt>
      <trkpt lat="45.54942" lon="5.37965">
        <ele>341</ele>
        <time>2021-03-07T08:48:22.421Z</time>
      </trkpt>
      <trkpt lat="45.54939" lon="5.37972">
        <ele>341</ele>
        <time>2021-03-07T08:48:23.420Z</time>
      </trkpt>
      <trkpt lat="45.54934" lon="5.37978">
        <ele>341</ele>
        <time>2021-03-07T08:48:24.420Z</time>
      </trkpt>
      <trkpt lat="45.5493" lon="5.37984">
        <ele>341</ele>
        <time>2021-03-07T08:48:25.421Z</time>
      </trkpt>
      <trkpt lat="45.54925" lon="5.37989">
        <ele>341</ele>
        <time>2021-03-07T08:48:26.421Z</time>
      </trkpt>
      <trkpt lat="45.5492" lon="5.37995">
        <ele>341</ele>
        <time>2021-03-07T08:48:27.420Z</time>
      </trkpt>
      <trkpt lat="45.54915" lon="5.37999">
        <ele>341</ele>
        <time>2021-03-07T08:48:28.421Z</time>
      </trkpt>
      <trkpt lat="45.54909" lon="5.38003">
        <ele>341</ele>
        <time>2021-03-07T08:48:29.420Z</time>
      </trkpt>
      <trkpt lat="45.54903" lon="5.38006">
        <ele>341</ele>
        <time>2021-03-07T08:48:30.421Z</time>
      </trkpt>
      <trkpt lat="45.54897" lon="5.3801">
        <ele>341</ele>
        <time>2021-03-07T08:48:31.421Z</time>
      </trkpt>
      <trkpt lat="45.54891" lon="5.38012">
        <ele>340</ele>
        <time>2021-03-07T08:48:32.420Z</time>
      </trkpt>
      <trkpt lat="45.54885" lon="5.38015">
        <ele>340</ele>
        <time>2021-03-07T08:48:33.420Z</time>
      </trkpt>
      <trkpt lat="45.5488" lon="5.38018">
        <ele>340</ele>
        <time>2021-03-07T08:48:34.420Z</time>
      </trkpt>
      <trkpt lat="45.54873" lon="5.38021">
        <ele>340</ele>
        <time>2021-03-07T08:48:35.421Z</time>
      </trkpt>
      <trkpt lat="45.54867" lon="5.38024">
        <ele>341</ele>
        <time>2021-03-07T08:48:36.421Z</time>
      </trkpt>
      <trkpt lat="45.54861" lon="5.38027">
        <ele>340</ele>
        <time>2021-03-07T08:48:37.421Z</time>
      </trkpt>
      <trkpt lat="45.54856" lon="5.3803">
        <ele>340</ele>
        <time>2021-03-07T08:48:38.420Z</time>
      </trkpt>
      <trkpt lat="45.5485" lon="5.38034">
        <ele>340</ele>
        <time>2021-03-07T08:48:39.421Z</time>
      </trkpt>
      <trkpt lat="45.54844" lon="5.38038">
        <ele>340</ele>
        <time>2021-03-07T08:48:40.421Z</time>
      </trkpt>
      <trkpt lat="45.54839" lon="5.38042">
        <ele>340</ele>
        <time>2021-03-07T08:48:41.420Z</time>
      </trkpt>
      <trkpt lat="45.54834" lon="5.38047">
        <ele>339</ele>
        <time>2021-03-07T08:48:42.421Z</time>
      </trkpt>
      <trkpt lat="45.5483" lon="5.38053">
        <ele>340</ele>
        <time>2021-03-07T08:48:43.420Z</time>
      </trkpt>
      <trkpt lat="45.54825" lon="5.38058">
        <ele>340</ele>
        <time>2021-03-07T08:48:44.421Z</time>
      </trkpt>
      <trkpt lat="45.54821" lon="5.38065">
        <ele>340</ele>
        <time>2021-03-07T08:48:45.420Z</time>
      </trkpt>
      <trkpt lat="45.54818" lon="5.38072">
        <ele>340</ele>
        <time>2021-03-07T08:48:46.421Z</time>
      </trkpt>
      <trkpt lat="45.54816" lon="5.38079">
        <ele>341</ele>
        <time>2021-03-07T08:48:47.420Z</time>
      </trkpt>
      <trkpt lat="45.54814" lon="5.38087">
        <ele>340</ele>
        <time>2021-03-07T08:48:48.420Z</time>
      </trkpt>
      <trkpt lat="45.54813" lon="5.38095">
        <ele>340</ele>
        <time>2021-03-07T08:48:49.421Z</time>
      </trkpt>
      <trkpt lat="45.54813" lon="5.38103">
        <ele>340</ele>
        <time>2021-03-07T08:48:50.420Z</time>
      </trkpt>
      <trkpt lat="45.54813" lon="5.38112">
        <ele>339</ele>
        <time>2021-03-07T08:48:51.420Z</time>
      </trkpt>
      <trkpt lat="45.54814" lon="5.38121">
        <ele>339</ele>
        <time>2021-03-07T08:48:52.420Z</time>
      </trkpt>
      <trkpt lat="45.54815" lon="5.38129">
        <ele>338</ele>
        <time>2021-03-07T08:48:53.420Z</time>
      </trkpt>
      <trkpt lat="45.54817" lon="5.38138">
        <ele>338</ele>
        <time>2021-03-07T08:48:54.420Z</time>
      </trkpt>
      <trkpt lat="45.54819" lon="5.38147">
        <ele>338</ele>
        <time>2021-03-07T08:48:55.420Z</time>
      </trkpt>
      <trkpt lat="45.5482" lon="5.38156">
        <ele>338</ele>
        <time>2021-03-07T08:48:56.420Z</time>
      </trkpt>
      <trkpt lat="45.54822" lon="5.38165">
        <ele>338</ele>
        <time>2021-03-07T08:48:57.420Z</time>
      </trkpt>
      <trkpt lat="45.54824" lon="5.38174">
        <ele>337</ele>
        <time>2021-03-07T08:48:58.420Z</time>
      </trkpt>
      <trkpt lat="45.54826" lon="5.38183">
        <ele>337</ele>
        <time>2021-03-07T08:48:59.420Z</time>
      </trkpt>
      <trkpt lat="45.54828" lon="5.38192">
        <ele>337</ele>
        <time>2021-03-07T08:49:00.420Z</time>
      </trkpt>
      <trkpt lat="45.54829" lon="5.38201">
        <ele>337</ele>
        <time>2021-03-07T08:49:01.420Z</time>
      </trkpt>
      <trkpt lat="45.54831" lon="5.38209">
        <ele>337</ele>
        <time>2021-03-07T08:49:02.421Z</time>
      </trkpt>
      <trkpt lat="45.54832" lon="5.38218">
        <ele>337</ele>
        <time>2021-03-07T08:49:03.421Z</time>
      </trkpt>
      <trkpt lat="45.54833" lon="5.38228">
        <ele>337</ele>
        <time>2021-03-07T08:49:04.421Z</time>
      </trkpt>
      <trkpt lat="45.54835" lon="5.38237">
        <ele>337</ele>
        <time>2021-03-07T08:49:05.420Z</time>
      </trkpt>
      <trkpt lat="45.54835" lon="5.38246">
        <ele>337</ele>
        <time>2021-03-07T08:49:06.421Z</time>
      </trkpt>
      <trkpt lat="45.54836" lon="5.38253">
        <ele>337</ele>
        <time>2021-03-07T08:49:07.420Z</time>
      </trkpt>
      <trkpt lat="45.54836" lon="5.38264">
        <ele>338</ele>
        <time>2021-03-07T08:49:08.421Z</time>
      </trkpt>
      <trkpt lat="45.54837" lon="5.38273">
        <ele>338</ele>
        <time>2021-03-07T08:49:09.420Z</time>
      </trkpt>
      <trkpt lat="45.54837" lon="5.38282">
        <ele>338</ele>
        <time>2021-03-07T08:49:10.420Z</time>
      </trkpt>
      <trkpt lat="45.54838" lon="5.3829">
        <ele>337</ele>
        <time>2021-03-07T08:49:11.421Z</time>
      </trkpt>
      <trkpt lat="45.54838" lon="5.38299">
        <ele>337</ele>
        <time>2021-03-07T08:49:12.421Z</time>
      </trkpt>
      <trkpt lat="45.54838" lon="5.38308">
        <ele>337</ele>
        <time>2021-03-07T08:49:13.420Z</time>
      </trkpt>
      <trkpt lat="45.54838" lon="5.38316">
        <ele>337</ele>
        <time>2021-03-07T08:49:14.420Z</time>
      </trkpt>
      <trkpt lat="45.54838" lon="5.38324">
        <ele>337</ele>
        <time>2021-03-07T08:49:15.420Z</time>
      </trkpt>
      <trkpt lat="45.54839" lon="5.38333">
        <ele>337</ele>
        <time>2021-03-07T08:49:16.421Z</time>
      </trkpt>
      <trkpt lat="45.54839" lon="5.38341">
        <ele>337</ele>
        <time>2021-03-07T08:49:17.421Z</time>
      </trkpt>
      <trkpt lat="45.5484" lon="5.3835">
        <ele>337</ele>
        <time>2021-03-07T08:49:18.421Z</time>
      </trkpt>
      <trkpt lat="45.54841" lon="5.38358">
        <ele>338</ele>
        <time>2021-03-07T08:49:19.420Z</time>
      </trkpt>
      <trkpt lat="45.54842" lon="5.38367">
        <ele>338</ele>
        <time>2021-03-07T08:49:20.420Z</time>
      </trkpt>
      <trkpt lat="45.54844" lon="5.38375">
        <ele>338</ele>
        <time>2021-03-07T08:49:21.421Z</time>
      </trkpt>
      <trkpt lat="45.54845" lon="5.38384">
        <ele>338</ele>
        <time>2021-03-07T08:49:22.420Z</time>
      </trkpt>
      <trkpt lat="45.54847" lon="5.38392">
        <ele>338</ele>
        <time>2021-03-07T08:49:23.420Z</time>
      </trkpt>
      <trkpt lat="45.54849" lon="5.38401">
        <ele>338</ele>
        <time>2021-03-07T08:49:24.420Z</time>
      </trkpt>
      <trkpt lat="45.54851" lon="5.38409">
        <ele>338</ele>
        <time>2021-03-07T08:49:25.420Z</time>
      </trkpt>
      <trkpt lat="45.54854" lon="5.38417">
        <ele>339</ele>
        <time>2021-03-07T08:49:26.421Z</time>
      </trkpt>
      <trkpt lat="45.54856" lon="5.38426">
        <ele>338</ele>
        <time>2021-03-07T08:49:27.420Z</time>
      </trkpt>
      <trkpt lat="45.54859" lon="5.38434">
        <ele>338</ele>
        <time>2021-03-07T08:49:28.420Z</time>
      </trkpt>
      <trkpt lat="45.54862" lon="5.38442">
        <ele>338</ele>
        <time>2021-03-07T08:49:29.421Z</time>
      </trkpt>
      <trkpt lat="45.54865" lon="5.38451">
        <ele>338</ele>
        <time>2021-03-07T08:49:30.420Z</time>
      </trkpt>
      <trkpt lat="45.54867" lon="5.38459">
        <ele>338</ele>
        <time>2021-03-07T08:49:31.420Z</time>
      </trkpt>
      <trkpt lat="45.5487" lon="5.38467">
        <ele>338</ele>
        <time>2021-03-07T08:49:32.421Z</time>
      </trkpt>
      <trkpt lat="45.54873" lon="5.38475">
        <ele>338</ele>
        <time>2021-03-07T08:49:33.420Z</time>
      </trkpt>
      <trkpt lat="45.54875" lon="5.38483">
        <ele>339</ele>
        <time>2021-03-07T08:49:34.421Z</time>
      </trkpt>
      <trkpt lat="45.54878" lon="5.38491">
        <ele>339</ele>
        <time>2021-03-07T08:49:35.421Z</time>
      </trkpt>
      <trkpt lat="45.5488" lon="5.38497">
        <ele>339</ele>
        <time>2021-03-07T08:49:36.420Z</time>
      </trkpt>
      <trkpt lat="45.54883" lon="5.38506">
        <ele>339</ele>
        <time>2021-03-07T08:49:37.420Z</time>
      </trkpt>
      <trkpt lat="45.54885" lon="5.38514">
        <ele>339</ele>
        <time>2021-03-07T08:49:38.420Z</time>
      </trkpt>
      <trkpt lat="45.54888" lon="5.38522">
        <ele>339</ele>
        <time>2021-03-07T08:49:39.420Z</time>
      </trkpt>
      <trkpt lat="45.5489" lon="5.38529">
        <ele>339</ele>
        <time>2021-03-07T08:49:40.421Z</time>
      </trkpt>
      <trkpt lat="45.54892" lon="5.38537">
        <ele>340</ele>
        <time>2021-03-07T08:49:41.420Z</time>
      </trkpt>
      <trkpt lat="45.54895" lon="5.38544">
        <ele>340</ele>
        <time>2021-03-07T08:49:42.420Z</time>
      </trkpt>
      <trkpt lat="45.54897" lon="5.38552">
        <ele>340</ele>
        <time>2021-03-07T08:49:43.420Z</time>
      </trkpt>
      <trkpt lat="45.54899" lon="5.38559">
        <ele>340</ele>
        <time>2021-03-07T08:49:44.420Z</time>
      </trkpt>
      <trkpt lat="45.54901" lon="5.38566">
        <ele>340</ele>
        <time>2021-03-07T08:49:45.420Z</time>
      </trkpt>
      <trkpt lat="45.54903" lon="5.38573">
        <ele>340</ele>
        <time>2021-03-07T08:49:46.420Z</time>
      </trkpt>
      <trkpt lat="45.54904" lon="5.38579">
        <ele>340</ele>
        <time>2021-03-07T08:49:47.421Z</time>
      </trkpt>
      <trkpt lat="45.54906" lon="5.38584">
        <ele>340</ele>
        <time>2021-03-07T08:49:48.420Z</time>
      </trkpt>
      <trkpt lat="45.54908" lon="5.3859">
        <ele>340</ele>
        <time>2021-03-07T08:49:49.420Z</time>
      </trkpt>
      <trkpt lat="45.5491" lon="5.38595">
        <ele>340</ele>
        <time>2021-03-07T08:49:50.420Z</time>
      </trkpt>
      <trkpt lat="45.54911" lon="5.386">
        <ele>340</ele>
        <time>2021-03-07T08:49:51.421Z</time>
      </trkpt>
      <trkpt lat="45.54912" lon="5.38605">
        <ele>339</ele>
        <time>2021-03-07T08:49:52.420Z</time>
      </trkpt>
      <trkpt lat="45.54912" lon="5.38609">
        <ele>339</ele>
        <time>2021-03-07T08:49:53.420Z</time>
      </trkpt>
      <trkpt lat="45.54913" lon="5.38612">
        <ele>339</ele>
        <time>2021-03-07T08:49:54.420Z</time>
      </trkpt>
      <trkpt lat="45.54913" lon="5.38615">
        <ele>339</ele>
        <time>2021-03-07T08:49:55.420Z</time>
      </trkpt>
      <trkpt lat="45.54913" lon="5.38616">
        <ele>339</ele>
        <time>2021-03-07T08:49:56.421Z</time>
      </trkpt>
      <trkpt lat="45.54912" lon="5.38617">
        <ele>339</ele>
        <time>2021-03-07T08:49:57.421Z</time>
      </trkpt>
      <trkpt lat="45.54912" lon="5.38617">
        <ele>339</ele>
        <time>2021-03-07T08:49:58.421Z</time>
      </trkpt>
      <trkpt lat="45.54912" lon="5.38617">
        <ele>338</ele>
        <time>2021-03-07T08:49:59.421Z</time>
      </trkpt>
      <trkpt lat="45.54912" lon="5.38617">
        <ele>338</ele>
        <time>2021-03-07T08:50:00.423Z</time>
      </trkpt>
      <trkpt lat="45.54913" lon="5.38618">
        <ele>339</ele>
        <time>2021-03-07T08:50:01.423Z</time>
      </trkpt>
      <trkpt lat="45.54915" lon="5.38619">
        <ele>338</ele>
        <time>2021-03-07T08:50:02.422Z</time>
      </trkpt>
      <trkpt lat="45.54917" lon="5.3862">
        <ele>338</ele>
        <time>2021-03-07T08:50:03.422Z</time>
      </trkpt>
      <trkpt lat="45.54919" lon="5.38619">
        <ele>338</ele>
        <time>2021-03-07T08:50:04.423Z</time>
      </trkpt>
      <trkpt lat="45.54922" lon="5.38617">
        <ele>338</ele>
        <time>2021-03-07T08:50:05.423Z</time>
      </trkpt>
      <trkpt lat="45.54926" lon="5.38614">
        <ele>338</ele>
        <time>2021-03-07T08:50:06.423Z</time>
      </trkpt>
      <trkpt lat="45.5493" lon="5.3861">
        <ele>338</ele>
        <time>2021-03-07T08:50:07.423Z</time>
      </trkpt>
      <trkpt lat="45.54934" lon="5.38606">
        <ele>338</ele>
        <time>2021-03-07T08:50:08.423Z</time>
      </trkpt>
      <trkpt lat="45.54938" lon="5.38602">
        <ele>338</ele>
        <time>2021-03-07T08:50:09.422Z</time>
      </trkpt>
      <trkpt lat="45.54943" lon="5.38598">
        <ele>337</ele>
        <time>2021-03-07T08:50:10.422Z</time>
      </trkpt>
      <trkpt lat="45.54948" lon="5.38593">
        <ele>338</ele>
        <time>2021-03-07T08:50:11.423Z</time>
      </trkpt>
      <trkpt lat="45.54952" lon="5.38588">
        <ele>338</ele>
        <time>2021-03-07T08:50:12.423Z</time>
      </trkpt>
      <trkpt lat="45.54957" lon="5.38582">
        <ele>338</ele>
        <time>2021-03-07T08:50:13.423Z</time>
      </trkpt>
      <trkpt lat="45.54962" lon="5.38576">
        <ele>338</ele>
        <time>2021-03-07T08:50:14.423Z</time>
      </trkpt>
      <trkpt lat="45.54967" lon="5.3857">
        <ele>338</ele>
        <time>2021-03-07T08:50:15.423Z</time>
      </trkpt>
      <trkpt lat="45.54971" lon="5.38565">
        <ele>338</ele>
        <time>2021-03-07T08:50:16.422Z</time>
      </trkpt>
      <trkpt lat="45.54976" lon="5.38559">
        <ele>338</ele>
        <time>2021-03-07T08:50:17.423Z</time>
      </trkpt>
      <trkpt lat="45.5498" lon="5.38553">
        <ele>338</ele>
        <time>2021-03-07T08:50:18.423Z</time>
      </trkpt>
      <trkpt lat="45.54985" lon="5.38547">
        <ele>338</ele>
        <time>2021-03-07T08:50:19.423Z</time>
      </trkpt>
      <trkpt lat="45.5499" lon="5.3854">
        <ele>338</ele>
        <time>2021-03-07T08:50:20.423Z</time>
      </trkpt>
      <trkpt lat="45.54995" lon="5.38534">
        <ele>338</ele>
        <time>2021-03-07T08:50:21.422Z</time>
      </trkpt>
      <trkpt lat="45.55" lon="5.38528">
        <ele>338</ele>
        <time>2021-03-07T08:50:22.423Z</time>
      </trkpt>
      <trkpt lat="45.55005" lon="5.38521">
        <ele>338</ele>
        <time>2021-03-07T08:50:23.422Z</time>
      </trkpt>
      <trkpt lat="45.5501" lon="5.38515">
        <ele>339</ele>
        <time>2021-03-07T08:50:24.423Z</time>
      </trkpt>
      <trkpt lat="45.55015" lon="5.38509">
        <ele>339</ele>
        <time>2021-03-07T08:50:25.422Z</time>
      </trkpt>
      <trkpt lat="45.5502" lon="5.38502">
        <ele>339</ele>
        <time>2021-03-07T08:50:26.422Z</time>
      </trkpt>
      <trkpt lat="45.55026" lon="5.38496">
        <ele>339</ele>
        <time>2021-03-07T08:50:27.422Z</time>
      </trkpt>
      <trkpt lat="45.55031" lon="5.38491">
        <ele>339</ele>
        <time>2021-03-07T08:50:28.423Z</time>
      </trkpt>
      <trkpt lat="45.55037" lon="5.38486">
        <ele>339</ele>
        <time>2021-03-07T08:50:29.423Z</time>
      </trkpt>
      <trkpt lat="45.55043" lon="5.38481">
        <ele>339</ele>
        <time>2021-03-07T08:50:30.423Z</time>
      </trkpt>
      <trkpt lat="45.5505" lon="5.38476">
        <ele>339</ele>
        <time>2021-03-07T08:50:31.423Z</time>
      </trkpt>
      <trkpt lat="45.55056" lon="5.38473">
        <ele>339</ele>
        <time>2021-03-07T08:50:32.422Z</time>
      </trkpt>
      <trkpt lat="45.55063" lon="5.38469">
        <ele>339</ele>
        <time>2021-03-07T08:50:33.423Z</time>
      </trkpt>
      <trkpt lat="45.55069" lon="5.38466">
        <ele>339</ele>
        <time>2021-03-07T08:50:34.422Z</time>
      </trkpt>
      <trkpt lat="45.55076" lon="5.38464">
        <ele>339</ele>
        <time>2021-03-07T08:50:35.423Z</time>
      </trkpt>
      <trkpt lat="45.55083" lon="5.38461">
        <ele>339</ele>
        <time>2021-03-07T08:50:36.423Z</time>
      </trkpt>
      <trkpt lat="45.5509" lon="5.38459">
        <ele>339</ele>
        <time>2021-03-07T08:50:37.422Z</time>
      </trkpt>
      <trkpt lat="45.55098" lon="5.38458">
        <ele>340</ele>
        <time>2021-03-07T08:50:38.423Z</time>
      </trkpt>
      <trkpt lat="45.55105" lon="5.38456">
        <ele>340</ele>
        <time>2021-03-07T08:50:39.423Z</time>
      </trkpt>
      <trkpt lat="45.55112" lon="5.38454">
        <ele>340</ele>
        <time>2021-03-07T08:50:40.423Z</time>
      </trkpt>
      <trkpt lat="45.55119" lon="5.38452">
        <ele>340</ele>
        <time>2021-03-07T08:50:41.423Z</time>
      </trkpt>
      <trkpt lat="45.55126" lon="5.38449">
        <ele>340</ele>
        <time>2021-03-07T08:50:42.423Z</time>
      </trkpt>
      <trkpt lat="45.55134" lon="5.38447">
        <ele>340</ele>
        <time>2021-03-07T08:50:43.422Z</time>
      </trkpt>
      <trkpt lat="45.5514" lon="5.38444">
        <ele>340</ele>
        <time>2021-03-07T08:50:44.423Z</time>
      </trkpt>
      <trkpt lat="45.55147" lon="5.38441">
        <ele>340</ele>
        <time>2021-03-07T08:50:45.422Z</time>
      </trkpt>
      <trkpt lat="45.55154" lon="5.38438">
        <ele>339</ele>
        <time>2021-03-07T08:50:46.422Z</time>
      </trkpt>
      <trkpt lat="45.55161" lon="5.38434">
        <ele>339</ele>
        <time>2021-03-07T08:50:47.423Z</time>
      </trkpt>
      <trkpt lat="45.55167" lon="5.3843">
        <ele>339</ele>
        <time>2021-03-07T08:50:48.423Z</time>
      </trkpt>
      <trkpt lat="45.55174" lon="5.38426">
        <ele>339</ele>
        <time>2021-03-07T08:50:49.423Z</time>
      </trkpt>
      <trkpt lat="45.55182" lon="5.38423">
        <ele>339</ele>
        <time>2021-03-07T08:50:50.423Z</time>
      </trkpt>
      <trkpt lat="45.55189" lon="5.38421">
        <ele>339</ele>
        <time>2021-03-07T08:50:51.422Z</time>
      </trkpt>
      <trkpt lat="45.55196" lon="5.38419">
        <ele>339</ele>
        <time>2021-03-07T08:50:52.422Z</time>
      </trkpt>
      <trkpt lat="45.55203" lon="5.38417">
        <ele>339</ele>
        <time>2021-03-07T08:50:53.423Z</time>
      </trkpt>
      <trkpt lat="45.55211" lon="5.38416">
        <ele>339</ele>
        <time>2021-03-07T08:50:54.423Z</time>
      </trkpt>
      <trkpt lat="45.55218" lon="5.38416">
        <ele>339</ele>
        <time>2021-03-07T08:50:55.423Z</time>
      </trkpt>
      <trkpt lat="45.55225" lon="5.38415">
        <ele>338</ele>
        <time>2021-03-07T08:50:56.422Z</time>
      </trkpt>
      <trkpt lat="45.55233" lon="5.38414">
        <ele>338</ele>
        <time>2021-03-07T08:50:57.423Z</time>
      </trkpt>
      <trkpt lat="45.5524" lon="5.38413">
        <ele>338</ele>
        <time>2021-03-07T08:50:58.423Z</time>
      </trkpt>
      <trkpt lat="45.55247" lon="5.38411">
        <ele>337</ele>
        <time>2021-03-07T08:50:59.423Z</time>
      </trkpt>
      <trkpt lat="45.55255" lon="5.38409">
        <ele>337</ele>
        <time>2021-03-07T08:51:00.423Z</time>
      </trkpt>
      <trkpt lat="45.55262" lon="5.38407">
        <ele>337</ele>
        <time>2021-03-07T08:51:01.423Z</time>
      </trkpt>
      <trkpt lat="45.55269" lon="5.38404">
        <ele>337</ele>
        <time>2021-03-07T08:51:02.423Z</time>
      </trkpt>
      <trkpt lat="45.55276" lon="5.38402">
        <ele>337</ele>
        <time>2021-03-07T08:51:03.423Z</time>
      </trkpt>
      <trkpt lat="45.55284" lon="5.384">
        <ele>336</ele>
        <time>2021-03-07T08:51:04.422Z</time>
      </trkpt>
      <trkpt lat="45.55291" lon="5.38398">
        <ele>336</ele>
        <time>2021-03-07T08:51:05.422Z</time>
      </trkpt>
      <trkpt lat="45.55298" lon="5.38396">
        <ele>335</ele>
        <time>2021-03-07T08:51:06.423Z</time>
      </trkpt>
      <trkpt lat="45.55305" lon="5.38393">
        <ele>335</ele>
        <time>2021-03-07T08:51:07.423Z</time>
      </trkpt>
      <trkpt lat="45.55313" lon="5.38391">
        <ele>335</ele>
        <time>2021-03-07T08:51:08.423Z</time>
      </trkpt>
      <trkpt lat="45.5532" lon="5.38389">
        <ele>335</ele>
        <time>2021-03-07T08:51:09.423Z</time>
      </trkpt>
      <trkpt lat="45.55328" lon="5.38387">
        <ele>335</ele>
        <time>2021-03-07T08:51:10.423Z</time>
      </trkpt>
      <trkpt lat="45.55335" lon="5.38385">
        <ele>335</ele>
        <time>2021-03-07T08:51:11.422Z</time>
      </trkpt>
      <trkpt lat="45.55342" lon="5.38384">
        <ele>335</ele>
        <time>2021-03-07T08:51:12.422Z</time>
      </trkpt>
      <trkpt lat="45.5535" lon="5.38383">
        <ele>335</ele>
        <time>2021-03-07T08:51:13.423Z</time>
      </trkpt>
      <trkpt lat="45.55357" lon="5.38381">
        <ele>335</ele>
        <time>2021-03-07T08:51:14.423Z</time>
      </trkpt>
      <trkpt lat="45.55365" lon="5.3838">
        <ele>334</ele>
        <time>2021-03-07T08:51:15.422Z</time>
      </trkpt>
      <trkpt lat="45.55372" lon="5.38379">
        <ele>334</ele>
        <time>2021-03-07T08:51:16.422Z</time>
      </trkpt>
      <trkpt lat="45.55379" lon="5.38378">
        <ele>334</ele>
        <time>2021-03-07T08:51:17.422Z</time>
      </trkpt>
      <trkpt lat="45.55387" lon="5.38377">
        <ele>334</ele>
        <time>2021-03-07T08:51:18.422Z</time>
      </trkpt>
      <trkpt lat="45.55394" lon="5.38376">
        <ele>334</ele>
        <time>2021-03-07T08:51:19.423Z</time>
      </trkpt>
      <trkpt lat="45.55401" lon="5.38376">
        <ele>334</ele>
        <time>2021-03-07T08:51:20.423Z</time>
      </trkpt>
      <trkpt lat="45.55408" lon="5.38375">
        <ele>333</ele>
        <time>2021-03-07T08:51:21.423Z</time>
      </trkpt>
      <trkpt lat="45.55416" lon="5.38374">
        <ele>333</ele>
        <time>2021-03-07T08:51:22.423Z</time>
      </trkpt>
      <trkpt lat="45.55423" lon="5.38373">
        <ele>333</ele>
        <time>2021-03-07T08:51:23.422Z</time>
      </trkpt>
      <trkpt lat="45.55431" lon="5.38373">
        <ele>333</ele>
        <time>2021-03-07T08:51:24.422Z</time>
      </trkpt>
      <trkpt lat="45.55438" lon="5.38372">
        <ele>333</ele>
        <time>2021-03-07T08:51:25.423Z</time>
      </trkpt>
      <trkpt lat="45.55445" lon="5.38371">
        <ele>333</ele>
        <time>2021-03-07T08:51:26.422Z</time>
      </trkpt>
      <trkpt lat="45.55452" lon="5.3837">
        <ele>333</ele>
        <time>2021-03-07T08:51:27.423Z</time>
      </trkpt>
      <trkpt lat="45.5546" lon="5.3837">
        <ele>333</ele>
        <time>2021-03-07T08:51:28.423Z</time>
      </trkpt>
      <trkpt lat="45.55467" lon="5.38369">
        <ele>333</ele>
        <time>2021-03-07T08:51:29.423Z</time>
      </trkpt>
      <trkpt lat="45.55475" lon="5.38368">
        <ele>333</ele>
        <time>2021-03-07T08:51:30.423Z</time>
      </trkpt>
      <trkpt lat="45.55482" lon="5.38367">
        <ele>333</ele>
        <time>2021-03-07T08:51:31.423Z</time>
      </trkpt>
      <trkpt lat="45.55489" lon="5.38367">
        <ele>333</ele>
        <time>2021-03-07T08:51:32.423Z</time>
      </trkpt>
      <trkpt lat="45.55496" lon="5.38366">
        <ele>333</ele>
        <time>2021-03-07T08:51:33.423Z</time>
      </trkpt>
      <trkpt lat="45.55504" lon="5.38365">
        <ele>332</ele>
        <time>2021-03-07T08:51:34.423Z</time>
      </trkpt>
      <trkpt lat="45.55511" lon="5.38364">
        <ele>332</ele>
        <time>2021-03-07T08:51:35.423Z</time>
      </trkpt>
      <trkpt lat="45.55518" lon="5.38364">
        <ele>331</ele>
        <time>2021-03-07T08:51:36.422Z</time>
      </trkpt>
      <trkpt lat="45.55526" lon="5.38363">
        <ele>331</ele>
        <time>2021-03-07T08:51:37.423Z</time>
      </trkpt>
      <trkpt lat="45.55533" lon="5.38362">
        <ele>331</ele>
        <time>2021-03-07T08:51:38.423Z</time>
      </trkpt>
      <trkpt lat="45.5554" lon="5.38362">
        <ele>331</ele>
        <time>2021-03-07T08:51:39.422Z</time>
      </trkpt>
      <trkpt lat="45.55547" lon="5.38361">
        <ele>330</ele>
        <time>2021-03-07T08:51:40.423Z</time>
      </trkpt>
      <trkpt lat="45.55554" lon="5.3836">
        <ele>330</ele>
        <time>2021-03-07T08:51:41.423Z</time>
      </trkpt>
      <trkpt lat="45.55562" lon="5.38359">
        <ele>330</ele>
        <time>2021-03-07T08:51:42.422Z</time>
      </trkpt>
      <trkpt lat="45.55569" lon="5.38358">
        <ele>330</ele>
        <time>2021-03-07T08:51:43.423Z</time>
      </trkpt>
      <trkpt lat="45.55577" lon="5.38357">
        <ele>330</ele>
        <time>2021-03-07T08:51:44.423Z</time>
      </trkpt>
      <trkpt lat="45.55584" lon="5.38356">
        <ele>330</ele>
        <time>2021-03-07T08:51:45.422Z</time>
      </trkpt>
      <trkpt lat="45.55591" lon="5.38356">
        <ele>330</ele>
        <time>2021-03-07T08:51:46.423Z</time>
      </trkpt>
      <trkpt lat="45.55599" lon="5.38355">
        <ele>330</ele>
        <time>2021-03-07T08:51:47.423Z</time>
      </trkpt>
      <trkpt lat="45.55606" lon="5.38354">
        <ele>329</ele>
        <time>2021-03-07T08:51:48.422Z</time>
      </trkpt>
      <trkpt lat="45.55614" lon="5.38353">
        <ele>329</ele>
        <time>2021-03-07T08:51:49.423Z</time>
      </trkpt>
      <trkpt lat="45.55621" lon="5.38351">
        <ele>329</ele>
        <time>2021-03-07T08:51:50.423Z</time>
      </trkpt>
      <trkpt lat="45.55628" lon="5.3835">
        <ele>329</ele>
        <time>2021-03-07T08:51:51.423Z</time>
      </trkpt>
      <trkpt lat="45.55636" lon="5.38348">
        <ele>329</ele>
        <time>2021-03-07T08:51:52.422Z</time>
      </trkpt>
      <trkpt lat="45.55643" lon="5.38346">
        <ele>329</ele>
        <time>2021-03-07T08:51:53.422Z</time>
      </trkpt>
      <trkpt lat="45.5565" lon="5.38345">
        <ele>329</ele>
        <time>2021-03-07T08:51:54.423Z</time>
      </trkpt>
      <trkpt lat="45.55657" lon="5.38343">
        <ele>329</ele>
        <time>2021-03-07T08:51:55.422Z</time>
      </trkpt>
      <trkpt lat="45.55664" lon="5.38341">
        <ele>329</ele>
        <time>2021-03-07T08:51:56.422Z</time>
      </trkpt>
      <trkpt lat="45.55672" lon="5.38339">
        <ele>330</ele>
        <time>2021-03-07T08:51:57.423Z</time>
      </trkpt>
      <trkpt lat="45.55679" lon="5.38336">
        <ele>330</ele>
        <time>2021-03-07T08:51:58.423Z</time>
      </trkpt>
      <trkpt lat="45.55686" lon="5.38334">
        <ele>330</ele>
        <time>2021-03-07T08:51:59.423Z</time>
      </trkpt>
      <trkpt lat="45.55693" lon="5.38331">
        <ele>330</ele>
        <time>2021-03-07T08:52:00.422Z</time>
      </trkpt>
      <trkpt lat="45.557" lon="5.38329">
        <ele>330</ele>
        <time>2021-03-07T08:52:01.423Z</time>
      </trkpt>
      <trkpt lat="45.55707" lon="5.38326">
        <ele>330</ele>
        <time>2021-03-07T08:52:02.423Z</time>
      </trkpt>
      <trkpt lat="45.55715" lon="5.38324">
        <ele>330</ele>
        <time>2021-03-07T08:52:03.423Z</time>
      </trkpt>
      <trkpt lat="45.55722" lon="5.38321">
        <ele>330</ele>
        <time>2021-03-07T08:52:04.422Z</time>
      </trkpt>
      <trkpt lat="45.55729" lon="5.38319">
        <ele>330</ele>
        <time>2021-03-07T08:52:05.423Z</time>
      </trkpt>
      <trkpt lat="45.55737" lon="5.38316">
        <ele>329</ele>
        <time>2021-03-07T08:52:06.423Z</time>
      </trkpt>
      <trkpt lat="45.55744" lon="5.38313">
        <ele>329</ele>
        <time>2021-03-07T08:52:07.423Z</time>
      </trkpt>
      <trkpt lat="45.55752" lon="5.3831">
        <ele>329</ele>
        <time>2021-03-07T08:52:08.423Z</time>
      </trkpt>
      <trkpt lat="45.55759" lon="5.38306">
        <ele>329</ele>
        <time>2021-03-07T08:52:09.423Z</time>
      </trkpt>
      <trkpt lat="45.55767" lon="5.38303">
        <ele>330</ele>
        <time>2021-03-07T08:52:10.423Z</time>
      </trkpt>
      <trkpt lat="45.55774" lon="5.38299">
        <ele>330</ele>
        <time>2021-03-07T08:52:11.422Z</time>
      </trkpt>
      <trkpt lat="45.55781" lon="5.38295">
        <ele>330</ele>
        <time>2021-03-07T08:52:12.422Z</time>
      </trkpt>
      <trkpt lat="45.55787" lon="5.38291">
        <ele>330</ele>
        <time>2021-03-07T08:52:13.423Z</time>
      </trkpt>
      <trkpt lat="45.55794" lon="5.38287">
        <ele>330</ele>
        <time>2021-03-07T08:52:14.423Z</time>
      </trkpt>
      <trkpt lat="45.55801" lon="5.38282">
        <ele>330</ele>
        <time>2021-03-07T08:52:15.422Z</time>
      </trkpt>
      <trkpt lat="45.55808" lon="5.38277">
        <ele>329</ele>
        <time>2021-03-07T08:52:16.423Z</time>
      </trkpt>
      <trkpt lat="45.55815" lon="5.38272">
        <ele>329</ele>
        <time>2021-03-07T08:52:17.423Z</time>
      </trkpt>
      <trkpt lat="45.55821" lon="5.38267">
        <ele>329</ele>
        <time>2021-03-07T08:52:18.423Z</time>
      </trkpt>
      <trkpt lat="45.55828" lon="5.38262">
        <ele>328</ele>
        <time>2021-03-07T08:52:19.422Z</time>
      </trkpt>
      <trkpt lat="45.55834" lon="5.38256">
        <ele>328</ele>
        <time>2021-03-07T08:52:20.423Z</time>
      </trkpt>
      <trkpt lat="45.55841" lon="5.38251">
        <ele>327</ele>
        <time>2021-03-07T08:52:21.422Z</time>
      </trkpt>
      <trkpt lat="45.55848" lon="5.38246">
        <ele>327</ele>
        <time>2021-03-07T08:52:22.423Z</time>
      </trkpt>
      <trkpt lat="45.55855" lon="5.38241">
        <ele>326</ele>
        <time>2021-03-07T08:52:23.423Z</time>
      </trkpt>
      <trkpt lat="45.55861" lon="5.38236">
        <ele>326</ele>
        <time>2021-03-07T08:52:24.423Z</time>
      </trkpt>
      <trkpt lat="45.55868" lon="5.38232">
        <ele>325</ele>
        <time>2021-03-07T08:52:25.422Z</time>
      </trkpt>
      <trkpt lat="45.55874" lon="5.38227">
        <ele>325</ele>
        <time>2021-03-07T08:52:26.423Z</time>
      </trkpt>
      <trkpt lat="45.55881" lon="5.38222">
        <ele>325</ele>
        <time>2021-03-07T08:52:27.423Z</time>
      </trkpt>
      <trkpt lat="45.55888" lon="5.38216">
        <ele>325</ele>
        <time>2021-03-07T08:52:28.422Z</time>
      </trkpt>
      <trkpt lat="45.55894" lon="5.38211">
        <ele>325</ele>
        <time>2021-03-07T08:52:29.423Z</time>
      </trkpt>
      <trkpt lat="45.55901" lon="5.38206">
        <ele>325</ele>
        <time>2021-03-07T08:52:30.423Z</time>
      </trkpt>
      <trkpt lat="45.55908" lon="5.38201">
        <ele>324</ele>
        <time>2021-03-07T08:52:31.423Z</time>
      </trkpt>
      <trkpt lat="45.55914" lon="5.38196">
        <ele>324</ele>
        <time>2021-03-07T08:52:32.423Z</time>
      </trkpt>
      <trkpt lat="45.55921" lon="5.3819">
        <ele>324</ele>
        <time>2021-03-07T08:52:33.423Z</time>
      </trkpt>
      <trkpt lat="45.55928" lon="5.38184">
        <ele>324</ele>
        <time>2021-03-07T08:52:34.423Z</time>
      </trkpt>
      <trkpt lat="45.55935" lon="5.38178">
        <ele>323</ele>
        <time>2021-03-07T08:52:35.422Z</time>
      </trkpt>
      <trkpt lat="45.55941" lon="5.38172">
        <ele>323</ele>
        <time>2021-03-07T08:52:36.423Z</time>
      </trkpt>
      <trkpt lat="45.55948" lon="5.38165">
        <ele>324</ele>
        <time>2021-03-07T08:52:37.423Z</time>
      </trkpt>
      <trkpt lat="45.55955" lon="5.38159">
        <ele>324</ele>
        <time>2021-03-07T08:52:38.422Z</time>
      </trkpt>
      <trkpt lat="45.55962" lon="5.38153">
        <ele>323</ele>
        <time>2021-03-07T08:52:39.422Z</time>
      </trkpt>
      <trkpt lat="45.55969" lon="5.38148">
        <ele>323</ele>
        <time>2021-03-07T08:52:40.422Z</time>
      </trkpt>
      <trkpt lat="45.55976" lon="5.38144">
        <ele>323</ele>
        <time>2021-03-07T08:52:41.423Z</time>
      </trkpt>
      <trkpt lat="45.55984" lon="5.38141">
        <ele>323</ele>
        <time>2021-03-07T08:52:42.423Z</time>
      </trkpt>
      <trkpt lat="45.55991" lon="5.38139">
        <ele>322</ele>
        <time>2021-03-07T08:52:43.423Z</time>
      </trkpt>
      <trkpt lat="45.55998" lon="5.38138">
        <ele>322</ele>
        <time>2021-03-07T08:52:44.423Z</time>
      </trkpt>
      <trkpt lat="45.56005" lon="5.38137">
        <ele>321</ele>
        <time>2021-03-07T08:52:45.422Z</time>
      </trkpt>
      <trkpt lat="45.56013" lon="5.38136">
        <ele>321</ele>
        <time>2021-03-07T08:52:46.423Z</time>
      </trkpt>
      <trkpt lat="45.56019" lon="5.38135">
        <ele>321</ele>
        <time>2021-03-07T08:52:47.423Z</time>
      </trkpt>
      <trkpt lat="45.56027" lon="5.38133">
        <ele>321</ele>
        <time>2021-03-07T08:52:48.423Z</time>
      </trkpt>
      <trkpt lat="45.56033" lon="5.38131">
        <ele>321</ele>
        <time>2021-03-07T08:52:49.422Z</time>
      </trkpt>
      <trkpt lat="45.5604" lon="5.38128">
        <ele>321</ele>
        <time>2021-03-07T08:52:50.422Z</time>
      </trkpt>
      <trkpt lat="45.56047" lon="5.38124">
        <ele>321</ele>
        <time>2021-03-07T08:52:51.423Z</time>
      </trkpt>
      <trkpt lat="45.56053" lon="5.3812">
        <ele>322</ele>
        <time>2021-03-07T08:52:52.423Z</time>
      </trkpt>
      <trkpt lat="45.5606" lon="5.38114">
        <ele>322</ele>
        <time>2021-03-07T08:52:53.423Z</time>
      </trkpt>
      <trkpt lat="45.56065" lon="5.38108">
        <ele>321</ele>
        <time>2021-03-07T08:52:54.423Z</time>
      </trkpt>
      <trkpt lat="45.56071" lon="5.381">
        <ele>321</ele>
        <time>2021-03-07T08:52:55.423Z</time>
      </trkpt>
      <trkpt lat="45.56076" lon="5.38092">
        <ele>321</ele>
        <time>2021-03-07T08:52:56.423Z</time>
      </trkpt>
      <trkpt lat="45.5608" lon="5.38082">
        <ele>321</ele>
        <time>2021-03-07T08:52:57.423Z</time>
      </trkpt>
      <trkpt lat="45.56083" lon="5.38072">
        <ele>321</ele>
        <time>2021-03-07T08:52:58.423Z</time>
      </trkpt>
      <trkpt lat="45.56086" lon="5.38061">
        <ele>320</ele>
        <time>2021-03-07T08:52:59.422Z</time>
      </trkpt>
      <trkpt lat="45.56087" lon="5.3805">
        <ele>320</ele>
        <time>2021-03-07T08:53:00.423Z</time>
      </trkpt>
      <trkpt lat="45.56088" lon="5.38038">
        <ele>320</ele>
        <time>2021-03-07T08:53:01.423Z</time>
      </trkpt>
      <trkpt lat="45.56088" lon="5.38027">
        <ele>320</ele>
        <time>2021-03-07T08:53:02.422Z</time>
      </trkpt>
      <trkpt lat="45.56087" lon="5.38015">
        <ele>320</ele>
        <time>2021-03-07T08:53:03.423Z</time>
      </trkpt>
      <trkpt lat="45.56086" lon="5.38003">
        <ele>320</ele>
        <time>2021-03-07T08:53:04.423Z</time>
      </trkpt>
      <trkpt lat="45.56084" lon="5.37992">
        <ele>320</ele>
        <time>2021-03-07T08:53:05.423Z</time>
      </trkpt>
      <trkpt lat="45.56083" lon="5.3798">
        <ele>320</ele>
        <time>2021-03-07T08:53:06.423Z</time>
      </trkpt>
      <trkpt lat="45.56081" lon="5.37969">
        <ele>319</ele>
        <time>2021-03-07T08:53:07.423Z</time>
      </trkpt>
      <trkpt lat="45.5608" lon="5.37957">
        <ele>319</ele>
        <time>2021-03-07T08:53:08.423Z</time>
      </trkpt>
      <trkpt lat="45.56079" lon="5.37946">
        <ele>319</ele>
        <time>2021-03-07T08:53:09.422Z</time>
      </trkpt>
      <trkpt lat="45.56078" lon="5.37934">
        <ele>319</ele>
        <time>2021-03-07T08:53:10.423Z</time>
      </trkpt>
      <trkpt lat="45.56078" lon="5.37923">
        <ele>319</ele>
        <time>2021-03-07T08:53:11.423Z</time>
      </trkpt>
      <trkpt lat="45.56078" lon="5.37911">
        <ele>319</ele>
        <time>2021-03-07T08:53:12.423Z</time>
      </trkpt>
      <trkpt lat="45.56078" lon="5.37899">
        <ele>319</ele>
        <time>2021-03-07T08:53:13.423Z</time>
      </trkpt>
      <trkpt lat="45.5608" lon="5.37888">
        <ele>319</ele>
        <time>2021-03-07T08:53:14.422Z</time>
      </trkpt>
      <trkpt lat="45.56081" lon="5.37876">
        <ele>319</ele>
        <time>2021-03-07T08:53:15.423Z</time>
      </trkpt>
      <trkpt lat="45.56083" lon="5.37864">
        <ele>319</ele>
        <time>2021-03-07T08:53:16.422Z</time>
      </trkpt>
      <trkpt lat="45.56086" lon="5.37853">
        <ele>318</ele>
        <time>2021-03-07T08:53:17.423Z</time>
      </trkpt>
      <trkpt lat="45.56089" lon="5.37842">
        <ele>318</ele>
        <time>2021-03-07T08:53:18.423Z</time>
      </trkpt>
      <trkpt lat="45.56092" lon="5.37831">
        <ele>318</ele>
        <time>2021-03-07T08:53:19.422Z</time>
      </trkpt>
      <trkpt lat="45.56096" lon="5.3782">
        <ele>318</ele>
        <time>2021-03-07T08:53:20.423Z</time>
      </trkpt>
      <trkpt lat="45.561" lon="5.37809">
        <ele>318</ele>
        <time>2021-03-07T08:53:21.423Z</time>
      </trkpt>
      <trkpt lat="45.56105" lon="5.37799">
        <ele>318</ele>
        <time>2021-03-07T08:53:22.423Z</time>
      </trkpt>
      <trkpt lat="45.56109" lon="5.37789">
        <ele>318</ele>
        <time>2021-03-07T08:53:23.423Z</time>
      </trkpt>
      <trkpt lat="45.56115" lon="5.3778">
        <ele>318</ele>
        <time>2021-03-07T08:53:24.423Z</time>
      </trkpt>
      <trkpt lat="45.56121" lon="5.37771">
        <ele>318</ele>
        <time>2021-03-07T08:53:25.423Z</time>
      </trkpt>
      <trkpt lat="45.56127" lon="5.37764">
        <ele>318</ele>
        <time>2021-03-07T08:53:26.423Z</time>
      </trkpt>
      <trkpt lat="45.56134" lon="5.37758">
        <ele>318</ele>
        <time>2021-03-07T08:53:27.423Z</time>
      </trkpt>
      <trkpt lat="45.56141" lon="5.37753">
        <ele>318</ele>
        <time>2021-03-07T08:53:28.423Z</time>
      </trkpt>
      <trkpt lat="45.56149" lon="5.3775">
        <ele>318</ele>
        <time>2021-03-07T08:53:29.423Z</time>
      </trkpt>
      <trkpt lat="45.56156" lon="5.37747">
        <ele>318</ele>
        <time>2021-03-07T08:53:30.422Z</time>
      </trkpt>
      <trkpt lat="45.56163" lon="5.37745">
        <ele>318</ele>
        <time>2021-03-07T08:53:31.423Z</time>
      </trkpt>
      <trkpt lat="45.5617" lon="5.37743">
        <ele>318</ele>
        <time>2021-03-07T08:53:32.422Z</time>
      </trkpt>
      <trkpt lat="45.56177" lon="5.37741">
        <ele>319</ele>
        <time>2021-03-07T08:53:33.423Z</time>
      </trkpt>
      <trkpt lat="45.56183" lon="5.37739">
        <ele>319</ele>
        <time>2021-03-07T08:53:34.423Z</time>
      </trkpt>
      <trkpt lat="45.5619" lon="5.37738">
        <ele>319</ele>
        <time>2021-03-07T08:53:35.422Z</time>
      </trkpt>
      <trkpt lat="45.56196" lon="5.37737">
        <ele>319</ele>
        <time>2021-03-07T08:53:36.423Z</time>
      </trkpt>
      <trkpt lat="45.56203" lon="5.37736">
        <ele>319</ele>
        <time>2021-03-07T08:53:37.422Z</time>
      </trkpt>
      <trkpt lat="45.56209" lon="5.37735">
        <ele>318</ele>
        <time>2021-03-07T08:53:38.423Z</time>
      </trkpt>
      <trkpt lat="45.56215" lon="5.37734">
        <ele>318</ele>
        <time>2021-03-07T08:53:39.422Z</time>
      </trkpt>
      <trkpt lat="45.56222" lon="5.37736">
        <ele>318</ele>
        <time>2021-03-07T08:53:40.423Z</time>
      </trkpt>
      <trkpt lat="45.56228" lon="5.37739">
        <ele>318</ele>
        <time>2021-03-07T08:53:41.423Z</time>
      </trkpt>
      <trkpt lat="45.56232" lon="5.37745">
        <ele>317</ele>
        <time>2021-03-07T08:53:42.423Z</time>
      </trkpt>
      <trkpt lat="45.56235" lon="5.37753">
        <ele>317</ele>
        <time>2021-03-07T08:53:43.423Z</time>
      </trkpt>
      <trkpt lat="45.56236" lon="5.37762">
        <ele>317</ele>
        <time>2021-03-07T08:53:44.423Z</time>
      </trkpt>
      <trkpt lat="45.56236" lon="5.37772">
        <ele>316</ele>
        <time>2021-03-07T08:53:45.423Z</time>
      </trkpt>
      <trkpt lat="45.56237" lon="5.37782">
        <ele>316</ele>
        <time>2021-03-07T08:53:46.422Z</time>
      </trkpt>
      <trkpt lat="45.56237" lon="5.37793">
        <ele>316</ele>
        <time>2021-03-07T08:53:47.423Z</time>
      </trkpt>
      <trkpt lat="45.56237" lon="5.37804">
        <ele>315</ele>
        <time>2021-03-07T08:53:48.423Z</time>
      </trkpt>
      <trkpt lat="45.56237" lon="5.37815">
        <ele>315</ele>
        <time>2021-03-07T08:53:49.422Z</time>
      </trkpt>
      <trkpt lat="45.56237" lon="5.37826">
        <ele>314</ele>
        <time>2021-03-07T08:53:50.422Z</time>
      </trkpt>
      <trkpt lat="45.56237" lon="5.37837">
        <ele>314</ele>
        <time>2021-03-07T08:53:51.423Z</time>
      </trkpt>
      <trkpt lat="45.56237" lon="5.37848">
        <ele>314</ele>
        <time>2021-03-07T08:53:52.423Z</time>
      </trkpt>
      <trkpt lat="45.56237" lon="5.37858">
        <ele>315</ele>
        <time>2021-03-07T08:53:53.423Z</time>
      </trkpt>
      <trkpt lat="45.56237" lon="5.37868">
        <ele>315</ele>
        <time>2021-03-07T08:53:54.423Z</time>
      </trkpt>
      <trkpt lat="45.56237" lon="5.37878">
        <ele>315</ele>
        <time>2021-03-07T08:53:55.422Z</time>
      </trkpt>
      <trkpt lat="45.56237" lon="5.37888">
        <ele>315</ele>
        <time>2021-03-07T08:53:56.423Z</time>
      </trkpt>
      <trkpt lat="45.56237" lon="5.37897">
        <ele>314</ele>
        <time>2021-03-07T08:53:57.423Z</time>
      </trkpt>
      <trkpt lat="45.56237" lon="5.37906">
        <ele>314</ele>
        <time>2021-03-07T08:53:58.423Z</time>
      </trkpt>
      <trkpt lat="45.56238" lon="5.37914">
        <ele>313</ele>
        <time>2021-03-07T08:53:59.423Z</time>
      </trkpt>
      <trkpt lat="45.5624" lon="5.37921">
        <ele>314</ele>
        <time>2021-03-07T08:54:00.423Z</time>
      </trkpt>
      <trkpt lat="45.56243" lon="5.37927">
        <ele>314</ele>
        <time>2021-03-07T08:54:01.422Z</time>
      </trkpt>
      <trkpt lat="45.56247" lon="5.37931">
        <ele>314</ele>
        <time>2021-03-07T08:54:02.422Z</time>
      </trkpt>
      <trkpt lat="45.56252" lon="5.37932">
        <ele>314</ele>
        <time>2021-03-07T08:54:03.423Z</time>
      </trkpt>
      <trkpt lat="45.56257" lon="5.37931">
        <ele>314</ele>
        <time>2021-03-07T08:54:04.422Z</time>
      </trkpt>
      <trkpt lat="45.56263" lon="5.37928">
        <ele>314</ele>
        <time>2021-03-07T08:54:05.423Z</time>
      </trkpt>
      <trkpt lat="45.56269" lon="5.37924">
        <ele>314</ele>
        <time>2021-03-07T08:54:06.423Z</time>
      </trkpt>
      <trkpt lat="45.56275" lon="5.37919">
        <ele>314</ele>
        <time>2021-03-07T08:54:07.423Z</time>
      </trkpt>
      <trkpt lat="45.56281" lon="5.37914">
        <ele>315</ele>
        <time>2021-03-07T08:54:08.423Z</time>
      </trkpt>
      <trkpt lat="45.56287" lon="5.3791">
        <ele>315</ele>
        <time>2021-03-07T08:54:09.423Z</time>
      </trkpt>
      <trkpt lat="45.56293" lon="5.37907">
        <ele>315</ele>
        <time>2021-03-07T08:54:10.423Z</time>
      </trkpt>
      <trkpt lat="45.56299" lon="5.37903">
        <ele>315</ele>
        <time>2021-03-07T08:54:11.422Z</time>
      </trkpt>
      <trkpt lat="45.56306" lon="5.379">
        <ele>314</ele>
        <time>2021-03-07T08:54:12.423Z</time>
      </trkpt>
      <trkpt lat="45.56312" lon="5.37896">
        <ele>314</ele>
        <time>2021-03-07T08:54:13.423Z</time>
      </trkpt>
      <trkpt lat="45.56318" lon="5.37893">
        <ele>314</ele>
        <time>2021-03-07T08:54:14.423Z</time>
      </trkpt>
      <trkpt lat="45.56325" lon="5.3789">
        <ele>314</ele>
        <time>2021-03-07T08:54:15.423Z</time>
      </trkpt>
      <trkpt lat="45.56331" lon="5.37886">
        <ele>314</ele>
        <time>2021-03-07T08:54:16.423Z</time>
      </trkpt>
      <trkpt lat="45.56338" lon="5.37883">
        <ele>314</ele>
        <time>2021-03-07T08:54:17.423Z</time>
      </trkpt>
      <trkpt lat="45.56344" lon="5.37881">
        <ele>314</ele>
        <time>2021-03-07T08:54:18.422Z</time>
      </trkpt>
      <trkpt lat="45.5635" lon="5.37878">
        <ele>314</ele>
        <time>2021-03-07T08:54:19.423Z</time>
      </trkpt>
      <trkpt lat="45.56357" lon="5.37875">
        <ele>313</ele>
        <time>2021-03-07T08:54:20.422Z</time>
      </trkpt>
      <trkpt lat="45.56363" lon="5.37872">
        <ele>313</ele>
        <time>2021-03-07T08:54:21.423Z</time>
      </trkpt>
      <trkpt lat="45.56369" lon="5.37869">
        <ele>313</ele>
        <time>2021-03-07T08:54:22.422Z</time>
      </trkpt>
      <trkpt lat="45.56376" lon="5.37866">
        <ele>313</ele>
        <time>2021-03-07T08:54:23.423Z</time>
      </trkpt>
      <trkpt lat="45.56382" lon="5.37864">
        <ele>313</ele>
        <time>2021-03-07T08:54:24.423Z</time>
      </trkpt>
      <trkpt lat="45.56389" lon="5.37861">
        <ele>313</ele>
        <time>2021-03-07T08:54:25.423Z</time>
      </trkpt>
      <trkpt lat="45.56395" lon="5.37858">
        <ele>313</ele>
        <time>2021-03-07T08:54:26.423Z</time>
      </trkpt>
      <trkpt lat="45.56402" lon="5.37855">
        <ele>312</ele>
        <time>2021-03-07T08:54:27.422Z</time>
      </trkpt>
      <trkpt lat="45.56408" lon="5.37852">
        <ele>312</ele>
        <time>2021-03-07T08:54:28.423Z</time>
      </trkpt>
      <trkpt lat="45.56415" lon="5.37849">
        <ele>312</ele>
        <time>2021-03-07T08:54:29.422Z</time>
      </trkpt>
      <trkpt lat="45.56421" lon="5.37846">
        <ele>312</ele>
        <time>2021-03-07T08:54:30.423Z</time>
      </trkpt>
      <trkpt lat="45.56427" lon="5.37843">
        <ele>312</ele>
        <time>2021-03-07T08:54:31.422Z</time>
      </trkpt>
      <trkpt lat="45.56433" lon="5.3784">
        <ele>312</ele>
        <time>2021-03-07T08:54:32.423Z</time>
      </trkpt>
      <trkpt lat="45.56439" lon="5.37837">
        <ele>311</ele>
        <time>2021-03-07T08:54:33.423Z</time>
      </trkpt>
      <trkpt lat="45.56445" lon="5.37834">
        <ele>311</ele>
        <time>2021-03-07T08:54:34.423Z</time>
      </trkpt>
      <trkpt lat="45.5645" lon="5.37829">
        <ele>311</ele>
        <time>2021-03-07T08:54:35.422Z</time>
      </trkpt>
      <trkpt lat="45.56456" lon="5.37824">
        <ele>311</ele>
        <time>2021-03-07T08:54:36.422Z</time>
      </trkpt>
      <trkpt lat="45.56462" lon="5.3782">
        <ele>311</ele>
        <time>2021-03-07T08:54:37.423Z</time>
      </trkpt>
      <trkpt lat="45.56469" lon="5.37818">
        <ele>310</ele>
        <time>2021-03-07T08:54:38.422Z</time>
      </trkpt>
      <trkpt lat="45.56476" lon="5.37816">
        <ele>310</ele>
        <time>2021-03-07T08:54:39.423Z</time>
      </trkpt>
      <trkpt lat="45.56483" lon="5.37816">
        <ele>310</ele>
        <time>2021-03-07T08:54:40.422Z</time>
      </trkpt>
      <trkpt lat="45.5649" lon="5.37815">
        <ele>310</ele>
        <time>2021-03-07T08:54:41.422Z</time>
      </trkpt>
      <trkpt lat="45.56497" lon="5.37815">
        <ele>310</ele>
        <time>2021-03-07T08:54:42.422Z</time>
      </trkpt>
      <trkpt lat="45.56504" lon="5.37815">
        <ele>310</ele>
        <time>2021-03-07T08:54:43.423Z</time>
      </trkpt>
      <trkpt lat="45.56511" lon="5.37814">
        <ele>310</ele>
        <time>2021-03-07T08:54:44.423Z</time>
      </trkpt>
      <trkpt lat="45.56518" lon="5.37814">
        <ele>310</ele>
        <time>2021-03-07T08:54:45.423Z</time>
      </trkpt>
      <trkpt lat="45.56525" lon="5.37814">
        <ele>310</ele>
        <time>2021-03-07T08:54:46.423Z</time>
      </trkpt>
      <trkpt lat="45.56532" lon="5.37814">
        <ele>310</ele>
        <time>2021-03-07T08:54:47.423Z</time>
      </trkpt>
      <trkpt lat="45.56539" lon="5.37814">
        <ele>310</ele>
        <time>2021-03-07T08:54:48.423Z</time>
      </trkpt>
      <trkpt lat="45.56546" lon="5.37814">
        <ele>309</ele>
        <time>2021-03-07T08:54:49.423Z</time>
      </trkpt>
      <trkpt lat="45.56553" lon="5.37814">
        <ele>309</ele>
        <time>2021-03-07T08:54:50.423Z</time>
      </trkpt>
      <trkpt lat="45.5656" lon="5.37814">
        <ele>309</ele>
        <time>2021-03-07T08:54:51.422Z</time>
      </trkpt>
      <trkpt lat="45.56567" lon="5.37814">
        <ele>309</ele>
        <time>2021-03-07T08:54:52.422Z</time>
      </trkpt>
      <trkpt lat="45.56574" lon="5.37814">
        <ele>309</ele>
        <time>2021-03-07T08:54:53.423Z</time>
      </trkpt>
      <trkpt lat="45.56581" lon="5.37813">
        <ele>309</ele>
        <time>2021-03-07T08:54:54.423Z</time>
      </trkpt>
      <trkpt lat="45.56587" lon="5.37813">
        <ele>309</ele>
        <time>2021-03-07T08:54:55.422Z</time>
      </trkpt>
      <trkpt lat="45.56592" lon="5.37813">
        <ele>309</ele>
        <time>2021-03-07T08:54:56.422Z</time>
      </trkpt>
      <trkpt lat="45.566" lon="5.37813">
        <ele>309</ele>
        <time>2021-03-07T08:54:57.423Z</time>
      </trkpt>
      <trkpt lat="45.56606" lon="5.37813">
        <ele>309</ele>
        <time>2021-03-07T08:54:58.422Z</time>
      </trkpt>
      <trkpt lat="45.56613" lon="5.37813">
        <ele>308</ele>
        <time>2021-03-07T08:54:59.423Z</time>
      </trkpt>
      <trkpt lat="45.5662" lon="5.37811">
        <ele>308</ele>
        <time>2021-03-07T08:55:00.422Z</time>
      </trkpt>
      <trkpt lat="45.56627" lon="5.3781">
        <ele>309</ele>
        <time>2021-03-07T08:55:01.422Z</time>
      </trkpt>
      <trkpt lat="45.56634" lon="5.37808">
        <ele>310</ele>
        <time>2021-03-07T08:55:02.423Z</time>
      </trkpt>
      <trkpt lat="45.56641" lon="5.37806">
        <ele>310</ele>
        <time>2021-03-07T08:55:03.422Z</time>
      </trkpt>
      <trkpt lat="45.56647" lon="5.37804">
        <ele>310</ele>
        <time>2021-03-07T08:55:04.423Z</time>
      </trkpt>
      <trkpt lat="45.56654" lon="5.37801">
        <ele>310</ele>
        <time>2021-03-07T08:55:05.422Z</time>
      </trkpt>
      <trkpt lat="45.56661" lon="5.37798">
        <ele>310</ele>
        <time>2021-03-07T08:55:06.422Z</time>
      </trkpt>
      <trkpt lat="45.56667" lon="5.37795">
        <ele>310</ele>
        <time>2021-03-07T08:55:07.423Z</time>
      </trkpt>
      <trkpt lat="45.56674" lon="5.37792">
        <ele>310</ele>
        <time>2021-03-07T08:55:08.422Z</time>
      </trkpt>
      <trkpt lat="45.5668" lon="5.3779">
        <ele>309</ele>
        <time>2021-03-07T08:55:09.423Z</time>
      </trkpt>
      <trkpt lat="45.56687" lon="5.37787">
        <ele>309</ele>
        <time>2021-03-07T08:55:10.422Z</time>
      </trkpt>
      <trkpt lat="45.56693" lon="5.37784">
        <ele>309</ele>
        <time>2021-03-07T08:55:11.422Z</time>
      </trkpt>
      <trkpt lat="45.56699" lon="5.37782">
        <ele>308</ele>
        <time>2021-03-07T08:55:12.423Z</time>
      </trkpt>
      <trkpt lat="45.56705" lon="5.3778">
        <ele>308</ele>
        <time>2021-03-07T08:55:13.423Z</time>
      </trkpt>
      <trkpt lat="45.5671" lon="5.37779">
        <ele>308</ele>
        <time>2021-03-07T08:55:14.423Z</time>
      </trkpt>
      <trkpt lat="45.56714" lon="5.37778">
        <ele>309</ele>
        <time>2021-03-07T08:55:15.423Z</time>
      </trkpt>
      <trkpt lat="45.56718" lon="5.37777">
        <ele>309</ele>
        <time>2021-03-07T08:55:16.423Z</time>
      </trkpt>
      <trkpt lat="45.56721" lon="5.37777">
        <ele>309</ele>
        <time>2021-03-07T08:55:17.423Z</time>
      </trkpt>
      <trkpt lat="45.56723" lon="5.37777">
        <ele>309</ele>
        <time>2021-03-07T08:55:18.423Z</time>
      </trkpt>
      <trkpt lat="45.56726" lon="5.37779">
        <ele>309</ele>
        <time>2021-03-07T08:55:19.423Z</time>
      </trkpt>
      <trkpt lat="45.56728" lon="5.37782">
        <ele>309</ele>
        <time>2021-03-07T08:55:20.423Z</time>
      </trkpt>
      <trkpt lat="45.5673" lon="5.37787">
        <ele>310</ele>
        <time>2021-03-07T08:55:21.422Z</time>
      </trkpt>
      <trkpt lat="45.56732" lon="5.37793">
        <ele>310</ele>
        <time>2021-03-07T08:55:22.423Z</time>
      </trkpt>
      <trkpt lat="45.56733" lon="5.37799">
        <ele>310</ele>
        <time>2021-03-07T08:55:23.423Z</time>
      </trkpt>
      <trkpt lat="45.56734" lon="5.37807">
        <ele>310</ele>
        <time>2021-03-07T08:55:24.423Z</time>
      </trkpt>
      <trkpt lat="45.56734" lon="5.37815">
        <ele>310</ele>
        <time>2021-03-07T08:55:25.423Z</time>
      </trkpt>
      <trkpt lat="45.56734" lon="5.37823">
        <ele>310</ele>
        <time>2021-03-07T08:55:26.422Z</time>
      </trkpt>
      <trkpt lat="45.56734" lon="5.37831">
        <ele>310</ele>
        <time>2021-03-07T08:55:27.422Z</time>
      </trkpt>
      <trkpt lat="45.56732" lon="5.37839">
        <ele>310</ele>
        <time>2021-03-07T08:55:28.423Z</time>
      </trkpt>
      <trkpt lat="45.56731" lon="5.37848">
        <ele>310</ele>
        <time>2021-03-07T08:55:29.422Z</time>
      </trkpt>
      <trkpt lat="45.5673" lon="5.37856">
        <ele>310</ele>
        <time>2021-03-07T08:55:30.423Z</time>
      </trkpt>
      <trkpt lat="45.56729" lon="5.37864">
        <ele>310</ele>
        <time>2021-03-07T08:55:31.423Z</time>
      </trkpt>
      <trkpt lat="45.56727" lon="5.37872">
        <ele>309</ele>
        <time>2021-03-07T08:55:32.423Z</time>
      </trkpt>
      <trkpt lat="45.56726" lon="5.3788">
        <ele>309</ele>
        <time>2021-03-07T08:55:33.423Z</time>
      </trkpt>
      <trkpt lat="45.56724" lon="5.37888">
        <ele>309</ele>
        <time>2021-03-07T08:55:34.423Z</time>
      </trkpt>
      <trkpt lat="45.56723" lon="5.37896">
        <ele>309</ele>
        <time>2021-03-07T08:55:35.423Z</time>
      </trkpt>
      <trkpt lat="45.56723" lon="5.37904">
        <ele>309</ele>
        <time>2021-03-07T08:55:36.423Z</time>
      </trkpt>
      <trkpt lat="45.56722" lon="5.37912">
        <ele>308</ele>
        <time>2021-03-07T08:55:37.423Z</time>
      </trkpt>
      <trkpt lat="45.56722" lon="5.37919">
        <ele>308</ele>
        <time>2021-03-07T08:55:38.423Z</time>
      </trkpt>
      <trkpt lat="45.56721" lon="5.37927">
        <ele>308</ele>
        <time>2021-03-07T08:55:39.423Z</time>
      </trkpt>
      <trkpt lat="45.56721" lon="5.37935">
        <ele>308</ele>
        <time>2021-03-07T08:55:40.423Z</time>
      </trkpt>
      <trkpt lat="45.5672" lon="5.37943">
        <ele>308</ele>
        <time>2021-03-07T08:55:41.423Z</time>
      </trkpt>
      <trkpt lat="45.5672" lon="5.37952">
        <ele>308</ele>
        <time>2021-03-07T08:55:42.423Z</time>
      </trkpt>
      <trkpt lat="45.56719" lon="5.3796">
        <ele>308</ele>
        <time>2021-03-07T08:55:43.423Z</time>
      </trkpt>
      <trkpt lat="45.5672" lon="5.37968">
        <ele>308</ele>
        <time>2021-03-07T08:55:44.422Z</time>
      </trkpt>
      <trkpt lat="45.5672" lon="5.37976">
        <ele>308</ele>
        <time>2021-03-07T08:55:45.423Z</time>
      </trkpt>
      <trkpt lat="45.56721" lon="5.37984">
        <ele>307</ele>
        <time>2021-03-07T08:55:46.423Z</time>
      </trkpt>
      <trkpt lat="45.56722" lon="5.37992">
        <ele>307</ele>
        <time>2021-03-07T08:55:47.422Z</time>
      </trkpt>
      <trkpt lat="45.56723" lon="5.38001">
        <ele>307</ele>
        <time>2021-03-07T08:55:48.422Z</time>
      </trkpt>
      <trkpt lat="45.56724" lon="5.38009">
        <ele>306</ele>
        <time>2021-03-07T08:55:49.423Z</time>
      </trkpt>
      <trkpt lat="45.56724" lon="5.38017">
        <ele>306</ele>
        <time>2021-03-07T08:55:50.423Z</time>
      </trkpt>
      <trkpt lat="45.56725" lon="5.38025">
        <ele>306</ele>
        <time>2021-03-07T08:55:51.422Z</time>
      </trkpt>
      <trkpt lat="45.56725" lon="5.38034">
        <ele>306</ele>
        <time>2021-03-07T08:55:52.422Z</time>
      </trkpt>
      <trkpt lat="45.56724" lon="5.38042">
        <ele>306</ele>
        <time>2021-03-07T08:55:53.423Z</time>
      </trkpt>
      <trkpt lat="45.56724" lon="5.3805">
        <ele>305</ele>
        <time>2021-03-07T08:55:54.422Z</time>
      </trkpt>
      <trkpt lat="45.56723" lon="5.38058">
        <ele>305</ele>
        <time>2021-03-07T08:55:55.423Z</time>
      </trkpt>
      <trkpt lat="45.56722" lon="5.38066">
        <ele>305</ele>
        <time>2021-03-07T08:55:56.422Z</time>
      </trkpt>
      <trkpt lat="45.5672" lon="5.38074">
        <ele>305</ele>
        <time>2021-03-07T08:55:57.422Z</time>
      </trkpt>
      <trkpt lat="45.56718" lon="5.38081">
        <ele>306</ele>
        <time>2021-03-07T08:55:58.423Z</time>
      </trkpt>
      <trkpt lat="45.56716" lon="5.38089">
        <ele>306</ele>
        <time>2021-03-07T08:55:59.422Z</time>
      </trkpt>
      <trkpt lat="45.56713" lon="5.38097">
        <ele>306</ele>
        <time>2021-03-07T08:56:00.422Z</time>
      </trkpt>
      <trkpt lat="45.56711" lon="5.38104">
        <ele>307</ele>
        <time>2021-03-07T08:56:01.422Z</time>
      </trkpt>
      <trkpt lat="45.56708" lon="5.38112">
        <ele>307</ele>
        <time>2021-03-07T08:56:02.423Z</time>
      </trkpt>
      <trkpt lat="45.56706" lon="5.38119">
        <ele>307</ele>
        <time>2021-03-07T08:56:03.423Z</time>
      </trkpt>
      <trkpt lat="45.56703" lon="5.38126">
        <ele>308</ele>
        <time>2021-03-07T08:56:04.423Z</time>
      </trkpt>
      <trkpt lat="45.56701" lon="5.38133">
        <ele>308</ele>
        <time>2021-03-07T08:56:05.423Z</time>
      </trkpt>
      <trkpt lat="45.56699" lon="5.3814">
        <ele>308</ele>
        <time>2021-03-07T08:56:06.423Z</time>
      </trkpt>
      <trkpt lat="45.56697" lon="5.38147">
        <ele>308</ele>
        <time>2021-03-07T08:56:07.423Z</time>
      </trkpt>
      <trkpt lat="45.56695" lon="5.38154">
        <ele>308</ele>
        <time>2021-03-07T08:56:08.423Z</time>
      </trkpt>
      <trkpt lat="45.56694" lon="5.38161">
        <ele>309</ele>
        <time>2021-03-07T08:56:09.423Z</time>
      </trkpt>
      <trkpt lat="45.56692" lon="5.38169">
        <ele>309</ele>
        <time>2021-03-07T08:56:10.423Z</time>
      </trkpt>
      <trkpt lat="45.56691" lon="5.38176">
        <ele>309</ele>
        <time>2021-03-07T08:56:11.423Z</time>
      </trkpt>
      <trkpt lat="45.5669" lon="5.38184">
        <ele>309</ele>
        <time>2021-03-07T08:56:12.422Z</time>
      </trkpt>
      <trkpt lat="45.56689" lon="5.38192">
        <ele>309</ele>
        <time>2021-03-07T08:56:13.422Z</time>
      </trkpt>
      <trkpt lat="45.56689" lon="5.38199">
        <ele>309</ele>
        <time>2021-03-07T08:56:14.423Z</time>
      </trkpt>
      <trkpt lat="45.56691" lon="5.38206">
        <ele>309</ele>
        <time>2021-03-07T08:56:15.423Z</time>
      </trkpt>
      <trkpt lat="45.56692" lon="5.38213">
        <ele>309</ele>
        <time>2021-03-07T08:56:16.423Z</time>
      </trkpt>
      <trkpt lat="45.56695" lon="5.38218">
        <ele>310</ele>
        <time>2021-03-07T08:56:17.422Z</time>
      </trkpt>
      <trkpt lat="45.56698" lon="5.38223">
        <ele>310</ele>
        <time>2021-03-07T08:56:18.423Z</time>
      </trkpt>
      <trkpt lat="45.56701" lon="5.38229">
        <ele>311</ele>
        <time>2021-03-07T08:56:19.423Z</time>
      </trkpt>
      <trkpt lat="45.56704" lon="5.38234">
        <ele>311</ele>
        <time>2021-03-07T08:56:20.423Z</time>
      </trkpt>
      <trkpt lat="45.56706" lon="5.3824">
        <ele>312</ele>
        <time>2021-03-07T08:56:21.422Z</time>
      </trkpt>
      <trkpt lat="45.56708" lon="5.38246">
        <ele>312</ele>
        <time>2021-03-07T08:56:22.423Z</time>
      </trkpt>
      <trkpt lat="45.56709" lon="5.38252">
        <ele>313</ele>
        <time>2021-03-07T08:56:23.423Z</time>
      </trkpt>
      <trkpt lat="45.5671" lon="5.38257">
        <ele>313</ele>
        <time>2021-03-07T08:56:24.423Z</time>
      </trkpt>
      <trkpt lat="45.56711" lon="5.38263">
        <ele>313</ele>
        <time>2021-03-07T08:56:25.423Z</time>
      </trkpt>
      <trkpt lat="45.56712" lon="5.38269">
        <ele>313</ele>
        <time>2021-03-07T08:56:26.422Z</time>
      </trkpt>
      <trkpt lat="45.56714" lon="5.38275">
        <ele>314</ele>
        <time>2021-03-07T08:56:27.423Z</time>
      </trkpt>
      <trkpt lat="45.56715" lon="5.3828">
        <ele>315</ele>
        <time>2021-03-07T08:56:28.423Z</time>
      </trkpt>
      <trkpt lat="45.56715" lon="5.38285">
        <ele>315</ele>
        <time>2021-03-07T08:56:29.423Z</time>
      </trkpt>
      <trkpt lat="45.56716" lon="5.38289">
        <ele>316</ele>
        <time>2021-03-07T08:56:30.422Z</time>
      </trkpt>
      <trkpt lat="45.56717" lon="5.38294">
        <ele>316</ele>
        <time>2021-03-07T08:56:31.423Z</time>
      </trkpt>
      <trkpt lat="45.56718" lon="5.38299">
        <ele>316</ele>
        <time>2021-03-07T08:56:32.423Z</time>
      </trkpt>
      <trkpt lat="45.56719" lon="5.38304">
        <ele>317</ele>
        <time>2021-03-07T08:56:33.422Z</time>
      </trkpt>
      <trkpt lat="45.56719" lon="5.38308">
        <ele>317</ele>
        <time>2021-03-07T08:56:34.423Z</time>
      </trkpt>
      <trkpt lat="45.5672" lon="5.38313">
        <ele>318</ele>
        <time>2021-03-07T08:56:35.423Z</time>
      </trkpt>
      <trkpt lat="45.5672" lon="5.38318">
        <ele>318</ele>
        <time>2021-03-07T08:56:36.422Z</time>
      </trkpt>
      <trkpt lat="45.5672" lon="5.38322">
        <ele>319</ele>
        <time>2021-03-07T08:56:37.423Z</time>
      </trkpt>
      <trkpt lat="45.5672" lon="5.38327">
        <ele>319</ele>
        <time>2021-03-07T08:56:38.423Z</time>
      </trkpt>
      <trkpt lat="45.56721" lon="5.38332">
        <ele>320</ele>
        <time>2021-03-07T08:56:39.423Z</time>
      </trkpt>
      <trkpt lat="45.56721" lon="5.38336">
        <ele>321</ele>
        <time>2021-03-07T08:56:40.422Z</time>
      </trkpt>
      <trkpt lat="45.56721" lon="5.38341">
        <ele>322</ele>
        <time>2021-03-07T08:56:41.423Z</time>
      </trkpt>
      <trkpt lat="45.5672" lon="5.38345">
        <ele>322</ele>
        <time>2021-03-07T08:56:42.422Z</time>
      </trkpt>
      <trkpt lat="45.5672" lon="5.3835">
        <ele>322</ele>
        <time>2021-03-07T08:56:43.423Z</time>
      </trkpt>
      <trkpt lat="45.5672" lon="5.38354">
        <ele>323</ele>
        <time>2021-03-07T08:56:44.423Z</time>
      </trkpt>
      <trkpt lat="45.56719" lon="5.38359">
        <ele>323</ele>
        <time>2021-03-07T08:56:45.423Z</time>
      </trkpt>
      <trkpt lat="45.56719" lon="5.38363">
        <ele>323</ele>
        <time>2021-03-07T08:56:46.422Z</time>
      </trkpt>
      <trkpt lat="45.56718" lon="5.38367">
        <ele>323</ele>
        <time>2021-03-07T08:56:47.422Z</time>
      </trkpt>
      <trkpt lat="45.56718" lon="5.38371">
        <ele>323</ele>
        <time>2021-03-07T08:56:48.422Z</time>
      </trkpt>
      <trkpt lat="45.56717" lon="5.38375">
        <ele>324</ele>
        <time>2021-03-07T08:56:49.423Z</time>
      </trkpt>
      <trkpt lat="45.56717" lon="5.38379">
        <ele>324</ele>
        <time>2021-03-07T08:56:50.422Z</time>
      </trkpt>
      <trkpt lat="45.56716" lon="5.38383">
        <ele>324</ele>
        <time>2021-03-07T08:56:51.422Z</time>
      </trkpt>
      <trkpt lat="45.56716" lon="5.38388">
        <ele>324</ele>
        <time>2021-03-07T08:56:52.423Z</time>
      </trkpt>
      <trkpt lat="45.56715" lon="5.38392">
        <ele>324</ele>
        <time>2021-03-07T08:56:53.423Z</time>
      </trkpt>
      <trkpt lat="45.56715" lon="5.38397">
        <ele>324</ele>
        <time>2021-03-07T08:56:54.423Z</time>
      </trkpt>
      <trkpt lat="45.56714" lon="5.38401">
        <ele>325</ele>
        <time>2021-03-07T08:56:55.423Z</time>
      </trkpt>
      <trkpt lat="45.56713" lon="5.38405">
        <ele>325</ele>
        <time>2021-03-07T08:56:56.423Z</time>
      </trkpt>
      <trkpt lat="45.56712" lon="5.3841">
        <ele>325</ele>
        <time>2021-03-07T08:56:57.423Z</time>
      </trkpt>
      <trkpt lat="45.56712" lon="5.38414">
        <ele>326</ele>
        <time>2021-03-07T08:56:58.423Z</time>
      </trkpt>
      <trkpt lat="45.56711" lon="5.38419">
        <ele>326</ele>
        <time>2021-03-07T08:56:59.422Z</time>
      </trkpt>
      <trkpt lat="45.5671" lon="5.38423">
        <ele>326</ele>
        <time>2021-03-07T08:57:00.423Z</time>
      </trkpt>
      <trkpt lat="45.56709" lon="5.38428">
        <ele>326</ele>
        <time>2021-03-07T08:57:01.423Z</time>
      </trkpt>
      <trkpt lat="45.56708" lon="5.38432">
        <ele>327</ele>
        <time>2021-03-07T08:57:02.422Z</time>
      </trkpt>
      <trkpt lat="45.56707" lon="5.38436">
        <ele>326</ele>
        <time>2021-03-07T08:57:03.423Z</time>
      </trkpt>
      <trkpt lat="45.56707" lon="5.3844">
        <ele>326</ele>
        <time>2021-03-07T08:57:04.423Z</time>
      </trkpt>
      <trkpt lat="45.56706" lon="5.38444">
        <ele>326</ele>
        <time>2021-03-07T08:57:05.422Z</time>
      </trkpt>
      <trkpt lat="45.56705" lon="5.38449">
        <ele>327</ele>
        <time>2021-03-07T08:57:06.422Z</time>
      </trkpt>
      <trkpt lat="45.56705" lon="5.38453">
        <ele>327</ele>
        <time>2021-03-07T08:57:07.423Z</time>
      </trkpt>
      <trkpt lat="45.56704" lon="5.38456">
        <ele>327</ele>
        <time>2021-03-07T08:57:08.423Z</time>
      </trkpt>
      <trkpt lat="45.56704" lon="5.3846">
        <ele>326</ele>
        <time>2021-03-07T08:57:09.422Z</time>
      </trkpt>
      <trkpt lat="45.56702" lon="5.38465">
        <ele>327</ele>
        <time>2021-03-07T08:57:10.423Z</time>
      </trkpt>
      <trkpt lat="45.56702" lon="5.38469">
        <ele>327</ele>
        <time>2021-03-07T08:57:11.423Z</time>
      </trkpt>
      <trkpt lat="45.56701" lon="5.38473">
        <ele>327</ele>
        <time>2021-03-07T08:57:12.423Z</time>
      </trkpt>
      <trkpt lat="45.56701" lon="5.38476">
        <ele>327</ele>
        <time>2021-03-07T08:57:13.423Z</time>
      </trkpt>
      <trkpt lat="45.567" lon="5.38482">
        <ele>328</ele>
        <time>2021-03-07T08:57:14.423Z</time>
      </trkpt>
      <trkpt lat="45.567" lon="5.38486">
        <ele>328</ele>
        <time>2021-03-07T08:57:15.423Z</time>
      </trkpt>
      <trkpt lat="45.567" lon="5.38489">
        <ele>328</ele>
        <time>2021-03-07T08:57:16.423Z</time>
      </trkpt>
      <trkpt lat="45.56699" lon="5.38494">
        <ele>329</ele>
        <time>2021-03-07T08:57:17.423Z</time>
      </trkpt>
      <trkpt lat="45.56699" lon="5.38498">
        <ele>329</ele>
        <time>2021-03-07T08:57:18.422Z</time>
      </trkpt>
      <trkpt lat="45.56699" lon="5.38502">
        <ele>329</ele>
        <time>2021-03-07T08:57:19.423Z</time>
      </trkpt>
      <trkpt lat="45.56698" lon="5.38505">
        <ele>329</ele>
        <time>2021-03-07T08:57:20.423Z</time>
      </trkpt>
      <trkpt lat="45.56698" lon="5.38509">
        <ele>329</ele>
        <time>2021-03-07T08:57:21.423Z</time>
      </trkpt>
      <trkpt lat="45.56698" lon="5.38513">
        <ele>329</ele>
        <time>2021-03-07T08:57:22.422Z</time>
      </trkpt>
      <trkpt lat="45.56698" lon="5.38517">
        <ele>329</ele>
        <time>2021-03-07T08:57:23.422Z</time>
      </trkpt>
      <trkpt lat="45.56698" lon="5.38521">
        <ele>330</ele>
        <time>2021-03-07T08:57:24.423Z</time>
      </trkpt>
      <trkpt lat="45.56698" lon="5.38525">
        <ele>330</ele>
        <time>2021-03-07T08:57:25.423Z</time>
      </trkpt>
      <trkpt lat="45.56698" lon="5.38529">
        <ele>331</ele>
        <time>2021-03-07T08:57:26.423Z</time>
      </trkpt>
      <trkpt lat="45.56699" lon="5.38532">
        <ele>331</ele>
        <time>2021-03-07T08:57:27.423Z</time>
      </trkpt>
      <trkpt lat="45.56699" lon="5.38536">
        <ele>332</ele>
        <time>2021-03-07T08:57:28.423Z</time>
      </trkpt>
      <trkpt lat="45.567" lon="5.3854">
        <ele>332</ele>
        <time>2021-03-07T08:57:29.422Z</time>
      </trkpt>
      <trkpt lat="45.56701" lon="5.38543">
        <ele>333</ele>
        <time>2021-03-07T08:57:30.423Z</time>
      </trkpt>
      <trkpt lat="45.56702" lon="5.38547">
        <ele>333</ele>
        <time>2021-03-07T08:57:31.423Z</time>
      </trkpt>
      <trkpt lat="45.56704" lon="5.38551">
        <ele>333</ele>
        <time>2021-03-07T08:57:32.423Z</time>
      </trkpt>
      <trkpt lat="45.56705" lon="5.38555">
        <ele>334</ele>
        <time>2021-03-07T08:57:33.423Z</time>
      </trkpt>
      <trkpt lat="45.56706" lon="5.38558">
        <ele>334</ele>
        <time>2021-03-07T08:57:34.423Z</time>
      </trkpt>
      <trkpt lat="45.56708" lon="5.38562">
        <ele>335</ele>
        <time>2021-03-07T08:57:35.423Z</time>
      </trkpt>
      <trkpt lat="45.56709" lon="5.38565">
        <ele>336</ele>
        <time>2021-03-07T08:57:36.423Z</time>
      </trkpt>
      <trkpt lat="45.5671" lon="5.38569">
        <ele>336</ele>
        <time>2021-03-07T08:57:37.423Z</time>
      </trkpt>
      <trkpt lat="45.56711" lon="5.38573">
        <ele>337</ele>
        <time>2021-03-07T08:57:38.423Z</time>
      </trkpt>
      <trkpt lat="45.56714" lon="5.38576">
        <ele>338</ele>
        <time>2021-03-07T08:57:39.423Z</time>
      </trkpt>
      <trkpt lat="45.56715" lon="5.3858">
        <ele>339</ele>
        <time>2021-03-07T08:57:40.423Z</time>
      </trkpt>
      <trkpt lat="45.56718" lon="5.38583">
        <ele>339</ele>
        <time>2021-03-07T08:57:41.423Z</time>
      </trkpt>
      <trkpt lat="45.56721" lon="5.38585">
        <ele>340</ele>
        <time>2021-03-07T08:57:42.423Z</time>
      </trkpt>
      <trkpt lat="45.56724" lon="5.38587">
        <ele>341</ele>
        <time>2021-03-07T08:57:43.423Z</time>
      </trkpt>
      <trkpt lat="45.56727" lon="5.3859">
        <ele>341</ele>
        <time>2021-03-07T08:57:44.422Z</time>
      </trkpt>
      <trkpt lat="45.56729" lon="5.38591">
        <ele>342</ele>
        <time>2021-03-07T08:57:45.423Z</time>
      </trkpt>
      <trkpt lat="45.56732" lon="5.38593">
        <ele>342</ele>
        <time>2021-03-07T08:57:46.423Z</time>
      </trkpt>
      <trkpt lat="45.56734" lon="5.38594">
        <ele>343</ele>
        <time>2021-03-07T08:57:47.423Z</time>
      </trkpt>
      <trkpt lat="45.56736" lon="5.38595">
        <ele>344</ele>
        <time>2021-03-07T08:57:48.422Z</time>
      </trkpt>
      <trkpt lat="45.56737" lon="5.38597">
        <ele>344</ele>
        <time>2021-03-07T08:57:49.423Z</time>
      </trkpt>
      <trkpt lat="45.56739" lon="5.38597">
        <ele>345</ele>
        <time>2021-03-07T08:57:50.423Z</time>
      </trkpt>
      <trkpt lat="45.56741" lon="5.38598">
        <ele>345</ele>
        <time>2021-03-07T08:57:51.422Z</time>
      </trkpt>
      <trkpt lat="45.56743" lon="5.38598">
        <ele>346</ele>
        <time>2021-03-07T08:57:52.423Z</time>
      </trkpt>
      <trkpt lat="45.56745" lon="5.38599">
        <ele>346</ele>
        <time>2021-03-07T08:57:53.423Z</time>
      </trkpt>
      <trkpt lat="45.56749" lon="5.38599">
        <ele>346</ele>
        <time>2021-03-07T08:57:54.423Z</time>
      </trkpt>
      <trkpt lat="45.56752" lon="5.386">
        <ele>346</ele>
        <time>2021-03-07T08:57:55.422Z</time>
      </trkpt>
      <trkpt lat="45.56755" lon="5.38601">
        <ele>345</ele>
        <time>2021-03-07T08:57:56.423Z</time>
      </trkpt>
      <trkpt lat="45.56759" lon="5.38602">
        <ele>345</ele>
        <time>2021-03-07T08:57:57.423Z</time>
      </trkpt>
      <trkpt lat="45.56762" lon="5.38603">
        <ele>345</ele>
        <time>2021-03-07T08:57:58.423Z</time>
      </trkpt>
      <trkpt lat="45.56765" lon="5.38604">
        <ele>345</ele>
        <time>2021-03-07T08:57:59.423Z</time>
      </trkpt>
      <trkpt lat="45.56768" lon="5.38605">
        <ele>345</ele>
        <time>2021-03-07T08:58:00.423Z</time>
      </trkpt>
      <trkpt lat="45.56771" lon="5.38605">
        <ele>345</ele>
        <time>2021-03-07T08:58:01.423Z</time>
      </trkpt>
      <trkpt lat="45.56774" lon="5.38606">
        <ele>345</ele>
        <time>2021-03-07T08:58:02.423Z</time>
      </trkpt>
      <trkpt lat="45.56778" lon="5.38608">
        <ele>346</ele>
        <time>2021-03-07T08:58:03.423Z</time>
      </trkpt>
      <trkpt lat="45.5678" lon="5.38608">
        <ele>346</ele>
        <time>2021-03-07T08:58:04.423Z</time>
      </trkpt>
      <trkpt lat="45.56784" lon="5.3861">
        <ele>347</ele>
        <time>2021-03-07T08:58:05.422Z</time>
      </trkpt>
      <trkpt lat="45.56787" lon="5.38612">
        <ele>347</ele>
        <time>2021-03-07T08:58:06.422Z</time>
      </trkpt>
      <trkpt lat="45.5679" lon="5.38614">
        <ele>348</ele>
        <time>2021-03-07T08:58:07.423Z</time>
      </trkpt>
      <trkpt lat="45.56793" lon="5.38617">
        <ele>348</ele>
        <time>2021-03-07T08:58:08.422Z</time>
      </trkpt>
      <trkpt lat="45.56795" lon="5.38619">
        <ele>349</ele>
        <time>2021-03-07T08:58:09.423Z</time>
      </trkpt>
      <trkpt lat="45.56798" lon="5.38623">
        <ele>350</ele>
        <time>2021-03-07T08:58:10.423Z</time>
      </trkpt>
      <trkpt lat="45.56799" lon="5.38626">
        <ele>351</ele>
        <time>2021-03-07T08:58:11.422Z</time>
      </trkpt>
      <trkpt lat="45.568" lon="5.38631">
        <ele>352</ele>
        <time>2021-03-07T08:58:12.423Z</time>
      </trkpt>
      <trkpt lat="45.568" lon="5.38636">
        <ele>353</ele>
        <time>2021-03-07T08:58:13.423Z</time>
      </trkpt>
      <trkpt lat="45.568" lon="5.38641">
        <ele>353</ele>
        <time>2021-03-07T08:58:14.422Z</time>
      </trkpt>
      <trkpt lat="45.56799" lon="5.38646">
        <ele>353</ele>
        <time>2021-03-07T08:58:15.422Z</time>
      </trkpt>
      <trkpt lat="45.56797" lon="5.3865">
        <ele>353</ele>
        <time>2021-03-07T08:58:16.423Z</time>
      </trkpt>
      <trkpt lat="45.56795" lon="5.38653">
        <ele>353</ele>
        <time>2021-03-07T08:58:17.423Z</time>
      </trkpt>
      <trkpt lat="45.56793" lon="5.38657">
        <ele>353</ele>
        <time>2021-03-07T08:58:18.422Z</time>
      </trkpt>
      <trkpt lat="45.5679" lon="5.38659">
        <ele>353</ele>
        <time>2021-03-07T08:58:19.422Z</time>
      </trkpt>
      <trkpt lat="45.56787" lon="5.3866">
        <ele>353</ele>
        <time>2021-03-07T08:58:20.422Z</time>
      </trkpt>
      <trkpt lat="45.56784" lon="5.38662">
        <ele>353</ele>
        <time>2021-03-07T08:58:21.423Z</time>
      </trkpt>
      <trkpt lat="45.56782" lon="5.38664">
        <ele>353</ele>
        <time>2021-03-07T08:58:22.423Z</time>
      </trkpt>
      <trkpt lat="45.56779" lon="5.38666">
        <ele>353</ele>
        <time>2021-03-07T08:58:23.422Z</time>
      </trkpt>
      <trkpt lat="45.56777" lon="5.38669">
        <ele>353</ele>
        <time>2021-03-07T08:58:24.423Z</time>
      </trkpt>
      <trkpt lat="45.56774" lon="5.38671">
        <ele>353</ele>
        <time>2021-03-07T08:58:25.423Z</time>
      </trkpt>
      <trkpt lat="45.56772" lon="5.38673">
        <ele>353</ele>
        <time>2021-03-07T08:58:26.423Z</time>
      </trkpt>
      <trkpt lat="45.56768" lon="5.38676">
        <ele>354</ele>
        <time>2021-03-07T08:58:27.423Z</time>
      </trkpt>
      <trkpt lat="45.56766" lon="5.38679">
        <ele>354</ele>
        <time>2021-03-07T08:58:28.423Z</time>
      </trkpt>
      <trkpt lat="45.56764" lon="5.38681">
        <ele>354</ele>
        <time>2021-03-07T08:58:29.423Z</time>
      </trkpt>
      <trkpt lat="45.56761" lon="5.38684">
        <ele>355</ele>
        <time>2021-03-07T08:58:30.423Z</time>
      </trkpt>
      <trkpt lat="45.56759" lon="5.38686">
        <ele>355</ele>
        <time>2021-03-07T08:58:31.423Z</time>
      </trkpt>
      <trkpt lat="45.56758" lon="5.38689">
        <ele>355</ele>
        <time>2021-03-07T08:58:32.423Z</time>
      </trkpt>
      <trkpt lat="45.56756" lon="5.38693">
        <ele>355</ele>
        <time>2021-03-07T08:58:33.423Z</time>
      </trkpt>
      <trkpt lat="45.56754" lon="5.38696">
        <ele>354</ele>
        <time>2021-03-07T08:58:34.422Z</time>
      </trkpt>
      <trkpt lat="45.56754" lon="5.38699">
        <ele>354</ele>
        <time>2021-03-07T08:58:35.423Z</time>
      </trkpt>
      <trkpt lat="45.56753" lon="5.38703">
        <ele>354</ele>
        <time>2021-03-07T08:58:36.423Z</time>
      </trkpt>
      <trkpt lat="45.56753" lon="5.38706">
        <ele>353</ele>
        <time>2021-03-07T08:58:37.423Z</time>
      </trkpt>
      <trkpt lat="45.56754" lon="5.3871">
        <ele>353</ele>
        <time>2021-03-07T08:58:38.423Z</time>
      </trkpt>
      <trkpt lat="45.56755" lon="5.38713">
        <ele>353</ele>
        <time>2021-03-07T08:58:39.423Z</time>
      </trkpt>
      <trkpt lat="45.56757" lon="5.38717">
        <ele>353</ele>
        <time>2021-03-07T08:58:40.422Z</time>
      </trkpt>
      <trkpt lat="45.56759" lon="5.3872">
        <ele>353</ele>
        <time>2021-03-07T08:58:41.423Z</time>
      </trkpt>
      <trkpt lat="45.5676" lon="5.38723">
        <ele>353</ele>
        <time>2021-03-07T08:58:42.423Z</time>
      </trkpt>
      <trkpt lat="45.56761" lon="5.38726">
        <ele>354</ele>
        <time>2021-03-07T08:58:43.423Z</time>
      </trkpt>
      <trkpt lat="45.56764" lon="5.38728">
        <ele>354</ele>
        <time>2021-03-07T08:58:44.423Z</time>
      </trkpt>
      <trkpt lat="45.56766" lon="5.38731">
        <ele>354</ele>
        <time>2021-03-07T08:58:45.422Z</time>
      </trkpt>
      <trkpt lat="45.56768" lon="5.38732">
        <ele>355</ele>
        <time>2021-03-07T08:58:46.422Z</time>
      </trkpt>
      <trkpt lat="45.56771" lon="5.38734">
        <ele>356</ele>
        <time>2021-03-07T08:58:47.423Z</time>
      </trkpt>
      <trkpt lat="45.56774" lon="5.38736">
        <ele>356</ele>
        <time>2021-03-07T08:58:48.422Z</time>
      </trkpt>
      <trkpt lat="45.56778" lon="5.38738">
        <ele>357</ele>
        <time>2021-03-07T08:58:49.422Z</time>
      </trkpt>
      <trkpt lat="45.56781" lon="5.38741">
        <ele>358</ele>
        <time>2021-03-07T08:58:50.422Z</time>
      </trkpt>
      <trkpt lat="45.56783" lon="5.38743">
        <ele>359</ele>
        <time>2021-03-07T08:58:51.423Z</time>
      </trkpt>
      <trkpt lat="45.56786" lon="5.38745">
        <ele>360</ele>
        <time>2021-03-07T08:58:52.423Z</time>
      </trkpt>
      <trkpt lat="45.56789" lon="5.38747">
        <ele>361</ele>
        <time>2021-03-07T08:58:53.422Z</time>
      </trkpt>
      <trkpt lat="45.56793" lon="5.38748">
        <ele>362</ele>
        <time>2021-03-07T08:58:54.422Z</time>
      </trkpt>
      <trkpt lat="45.56796" lon="5.3875">
        <ele>363</ele>
        <time>2021-03-07T08:58:55.422Z</time>
      </trkpt>
      <trkpt lat="45.56798" lon="5.38752">
        <ele>364</ele>
        <time>2021-03-07T08:58:56.423Z</time>
      </trkpt>
      <trkpt lat="45.56801" lon="5.38754">
        <ele>365</ele>
        <time>2021-03-07T08:58:57.423Z</time>
      </trkpt>
      <trkpt lat="45.56803" lon="5.38756">
        <ele>366</ele>
        <time>2021-03-07T08:58:58.422Z</time>
      </trkpt>
      <trkpt lat="45.56806" lon="5.38758">
        <ele>367</ele>
        <time>2021-03-07T08:58:59.422Z</time>
      </trkpt>
      <trkpt lat="45.56809" lon="5.38761">
        <ele>368</ele>
        <time>2021-03-07T08:59:00.423Z</time>
      </trkpt>
      <trkpt lat="45.56813" lon="5.38764">
        <ele>369</ele>
        <time>2021-03-07T08:59:01.422Z</time>
      </trkpt>
      <trkpt lat="45.56816" lon="5.38767">
        <ele>369</ele>
        <time>2021-03-07T08:59:02.423Z</time>
      </trkpt>
      <trkpt lat="45.56819" lon="5.38769">
        <ele>370</ele>
        <time>2021-03-07T08:59:03.422Z</time>
      </trkpt>
      <trkpt lat="45.56822" lon="5.38772">
        <ele>371</ele>
        <time>2021-03-07T08:59:04.422Z</time>
      </trkpt>
      <trkpt lat="45.56825" lon="5.38774">
        <ele>372</ele>
        <time>2021-03-07T08:59:05.422Z</time>
      </trkpt>
      <trkpt lat="45.56828" lon="5.38777">
        <ele>373</ele>
        <time>2021-03-07T08:59:06.423Z</time>
      </trkpt>
      <trkpt lat="45.5683" lon="5.3878">
        <ele>374</ele>
        <time>2021-03-07T08:59:07.423Z</time>
      </trkpt>
      <trkpt lat="45.56833" lon="5.38782">
        <ele>375</ele>
        <time>2021-03-07T08:59:08.422Z</time>
      </trkpt>
      <trkpt lat="45.56836" lon="5.38784">
        <ele>376</ele>
        <time>2021-03-07T08:59:09.422Z</time>
      </trkpt>
      <trkpt lat="45.5684" lon="5.38785">
        <ele>376</ele>
        <time>2021-03-07T08:59:10.422Z</time>
      </trkpt>
      <trkpt lat="45.56842" lon="5.38787">
        <ele>377</ele>
        <time>2021-03-07T08:59:11.423Z</time>
      </trkpt>
      <trkpt lat="45.56845" lon="5.38788">
        <ele>378</ele>
        <time>2021-03-07T08:59:12.423Z</time>
      </trkpt>
      <trkpt lat="45.56848" lon="5.3879">
        <ele>378</ele>
        <time>2021-03-07T08:59:13.422Z</time>
      </trkpt>
      <trkpt lat="45.56852" lon="5.38791">
        <ele>379</ele>
        <time>2021-03-07T08:59:14.422Z</time>
      </trkpt>
      <trkpt lat="45.56855" lon="5.38791">
        <ele>379</ele>
        <time>2021-03-07T08:59:15.422Z</time>
      </trkpt>
      <trkpt lat="45.56857" lon="5.3879">
        <ele>380</ele>
        <time>2021-03-07T08:59:16.423Z</time>
      </trkpt>
      <trkpt lat="45.5686" lon="5.3879">
        <ele>380</ele>
        <time>2021-03-07T08:59:17.422Z</time>
      </trkpt>
      <trkpt lat="45.56862" lon="5.38788">
        <ele>380</ele>
        <time>2021-03-07T08:59:18.422Z</time>
      </trkpt>
      <trkpt lat="45.56864" lon="5.38786">
        <ele>381</ele>
        <time>2021-03-07T08:59:19.422Z</time>
      </trkpt>
      <trkpt lat="45.56865" lon="5.38784">
        <ele>381</ele>
        <time>2021-03-07T08:59:20.423Z</time>
      </trkpt>
      <trkpt lat="45.56867" lon="5.38782">
        <ele>381</ele>
        <time>2021-03-07T08:59:21.423Z</time>
      </trkpt>
      <trkpt lat="45.56868" lon="5.38779">
        <ele>381</ele>
        <time>2021-03-07T08:59:22.422Z</time>
      </trkpt>
      <trkpt lat="45.56868" lon="5.38774">
        <ele>381</ele>
        <time>2021-03-07T08:59:23.422Z</time>
      </trkpt>
      <trkpt lat="45.56869" lon="5.38771">
        <ele>381</ele>
        <time>2021-03-07T08:59:24.422Z</time>
      </trkpt>
      <trkpt lat="45.56869" lon="5.38767">
        <ele>381</ele>
        <time>2021-03-07T08:59:25.423Z</time>
      </trkpt>
      <trkpt lat="45.56869" lon="5.38763">
        <ele>381</ele>
        <time>2021-03-07T08:59:26.423Z</time>
      </trkpt>
      <trkpt lat="45.56869" lon="5.38759">
        <ele>381</ele>
        <time>2021-03-07T08:59:27.423Z</time>
      </trkpt>
      <trkpt lat="45.56869" lon="5.38754">
        <ele>381</ele>
        <time>2021-03-07T08:59:28.422Z</time>
      </trkpt>
      <trkpt lat="45.56869" lon="5.3875">
        <ele>381</ele>
        <time>2021-03-07T08:59:29.422Z</time>
      </trkpt>
      <trkpt lat="45.56869" lon="5.38745">
        <ele>381</ele>
        <time>2021-03-07T08:59:30.422Z</time>
      </trkpt>
      <trkpt lat="45.56868" lon="5.38741">
        <ele>381</ele>
        <time>2021-03-07T08:59:31.423Z</time>
      </trkpt>
      <trkpt lat="45.56868" lon="5.38736">
        <ele>382</ele>
        <time>2021-03-07T08:59:32.423Z</time>
      </trkpt>
      <trkpt lat="45.56868" lon="5.38733">
        <ele>382</ele>
        <time>2021-03-07T08:59:33.422Z</time>
      </trkpt>
      <trkpt lat="45.56868" lon="5.38729">
        <ele>382</ele>
        <time>2021-03-07T08:59:34.423Z</time>
      </trkpt>
      <trkpt lat="45.56868" lon="5.38724">
        <ele>382</ele>
        <time>2021-03-07T08:59:35.422Z</time>
      </trkpt>
      <trkpt lat="45.56868" lon="5.38721">
        <ele>381</ele>
        <time>2021-03-07T08:59:36.422Z</time>
      </trkpt>
      <trkpt lat="45.56869" lon="5.38716">
        <ele>381</ele>
        <time>2021-03-07T08:59:37.423Z</time>
      </trkpt>
      <trkpt lat="45.5687" lon="5.38712">
        <ele>381</ele>
        <time>2021-03-07T08:59:38.422Z</time>
      </trkpt>
      <trkpt lat="45.56872" lon="5.38709">
        <ele>380</ele>
        <time>2021-03-07T08:59:39.422Z</time>
      </trkpt>
      <trkpt lat="45.56874" lon="5.38705">
        <ele>379</ele>
        <time>2021-03-07T08:59:40.422Z</time>
      </trkpt>
      <trkpt lat="45.56877" lon="5.38702">
        <ele>379</ele>
        <time>2021-03-07T08:59:41.422Z</time>
      </trkpt>
      <trkpt lat="45.56881" lon="5.387">
        <ele>379</ele>
        <time>2021-03-07T08:59:42.422Z</time>
      </trkpt>
      <trkpt lat="45.56884" lon="5.38699">
        <ele>378</ele>
        <time>2021-03-07T08:59:43.423Z</time>
      </trkpt>
      <trkpt lat="45.56887" lon="5.38698">
        <ele>378</ele>
        <time>2021-03-07T08:59:44.422Z</time>
      </trkpt>
      <trkpt lat="45.5689" lon="5.38698">
        <ele>378</ele>
        <time>2021-03-07T08:59:45.422Z</time>
      </trkpt>
      <trkpt lat="45.56893" lon="5.38698">
        <ele>377</ele>
        <time>2021-03-07T08:59:46.423Z</time>
      </trkpt>
      <trkpt lat="45.56897" lon="5.38699">
        <ele>377</ele>
        <time>2021-03-07T08:59:47.422Z</time>
      </trkpt>
      <trkpt lat="45.569" lon="5.38699">
        <ele>377</ele>
        <time>2021-03-07T08:59:48.422Z</time>
      </trkpt>
      <trkpt lat="45.56903" lon="5.38699">
        <ele>377</ele>
        <time>2021-03-07T08:59:49.423Z</time>
      </trkpt>
      <trkpt lat="45.56906" lon="5.387">
        <ele>377</ele>
        <time>2021-03-07T08:59:50.422Z</time>
      </trkpt>
      <trkpt lat="45.5691" lon="5.387">
        <ele>378</ele>
        <time>2021-03-07T08:59:51.422Z</time>
      </trkpt>
      <trkpt lat="45.56913" lon="5.38701">
        <ele>379</ele>
        <time>2021-03-07T08:59:52.422Z</time>
      </trkpt>
      <trkpt lat="45.56916" lon="5.38701">
        <ele>381</ele>
        <time>2021-03-07T08:59:53.423Z</time>
      </trkpt>
      <trkpt lat="45.56919" lon="5.38702">
        <ele>382</ele>
        <time>2021-03-07T08:59:54.423Z</time>
      </trkpt>
      <trkpt lat="45.56922" lon="5.38702">
        <ele>383</ele>
        <time>2021-03-07T08:59:55.422Z</time>
      </trkpt>
      <trkpt lat="45.56926" lon="5.38703">
        <ele>383</ele>
        <time>2021-03-07T08:59:56.422Z</time>
      </trkpt>
      <trkpt lat="45.56928" lon="5.38703">
        <ele>384</ele>
        <time>2021-03-07T08:59:57.422Z</time>
      </trkpt>
      <trkpt lat="45.56931" lon="5.38704">
        <ele>384</ele>
        <time>2021-03-07T08:59:58.422Z</time>
      </trkpt>
      <trkpt lat="45.56935" lon="5.38705">
        <ele>384</ele>
        <time>2021-03-07T08:59:59.422Z</time>
      </trkpt>
      <trkpt lat="45.56938" lon="5.38705">
        <ele>384</ele>
        <time>2021-03-07T09:00:00.422Z</time>
      </trkpt>
      <trkpt lat="45.5694" lon="5.38705">
        <ele>385</ele>
        <time>2021-03-07T09:00:01.423Z</time>
      </trkpt>
      <trkpt lat="45.56943" lon="5.38706">
        <ele>385</ele>
        <time>2021-03-07T09:00:02.423Z</time>
      </trkpt>
      <trkpt lat="45.56946" lon="5.38707">
        <ele>385</ele>
        <time>2021-03-07T09:00:03.423Z</time>
      </trkpt>
      <trkpt lat="45.56949" lon="5.38708">
        <ele>385</ele>
        <time>2021-03-07T09:00:04.423Z</time>
      </trkpt>
      <trkpt lat="45.56952" lon="5.38708">
        <ele>386</ele>
        <time>2021-03-07T09:00:05.423Z</time>
      </trkpt>
      <trkpt lat="45.56954" lon="5.38709">
        <ele>386</ele>
        <time>2021-03-07T09:00:06.422Z</time>
      </trkpt>
      <trkpt lat="45.56957" lon="5.38709">
        <ele>387</ele>
        <time>2021-03-07T09:00:07.423Z</time>
      </trkpt>
      <trkpt lat="45.56961" lon="5.38709">
        <ele>388</ele>
        <time>2021-03-07T09:00:08.423Z</time>
      </trkpt>
      <trkpt lat="45.56963" lon="5.38709">
        <ele>388</ele>
        <time>2021-03-07T09:00:09.423Z</time>
      </trkpt>
      <trkpt lat="45.56966" lon="5.38709">
        <ele>389</ele>
        <time>2021-03-07T09:00:10.423Z</time>
      </trkpt>
      <trkpt lat="45.56969" lon="5.38709">
        <ele>389</ele>
        <time>2021-03-07T09:00:11.423Z</time>
      </trkpt>
      <trkpt lat="45.56971" lon="5.38709">
        <ele>389</ele>
        <time>2021-03-07T09:00:12.422Z</time>
      </trkpt>
      <trkpt lat="45.56974" lon="5.38709">
        <ele>389</ele>
        <time>2021-03-07T09:00:13.423Z</time>
      </trkpt>
      <trkpt lat="45.56977" lon="5.38708">
        <ele>389</ele>
        <time>2021-03-07T09:00:14.423Z</time>
      </trkpt>
      <trkpt lat="45.5698" lon="5.38708">
        <ele>389</ele>
        <time>2021-03-07T09:00:15.423Z</time>
      </trkpt>
      <trkpt lat="45.56983" lon="5.38707">
        <ele>389</ele>
        <time>2021-03-07T09:00:16.423Z</time>
      </trkpt>
      <trkpt lat="45.56986" lon="5.38706">
        <ele>390</ele>
        <time>2021-03-07T09:00:17.422Z</time>
      </trkpt>
      <trkpt lat="45.56989" lon="5.38705">
        <ele>389</ele>
        <time>2021-03-07T09:00:18.422Z</time>
      </trkpt>
      <trkpt lat="45.56993" lon="5.38703">
        <ele>389</ele>
        <time>2021-03-07T09:00:19.423Z</time>
      </trkpt>
      <trkpt lat="45.56996" lon="5.38701">
        <ele>389</ele>
        <time>2021-03-07T09:00:20.422Z</time>
      </trkpt>
      <trkpt lat="45.56998" lon="5.387">
        <ele>389</ele>
        <time>2021-03-07T09:00:21.423Z</time>
      </trkpt>
      <trkpt lat="45.57" lon="5.38698">
        <ele>389</ele>
        <time>2021-03-07T09:00:22.423Z</time>
      </trkpt>
      <trkpt lat="45.57003" lon="5.38695">
        <ele>390</ele>
        <time>2021-03-07T09:00:23.422Z</time>
      </trkpt>
      <trkpt lat="45.57006" lon="5.38693">
        <ele>390</ele>
        <time>2021-03-07T09:00:24.422Z</time>
      </trkpt>
      <trkpt lat="45.57008" lon="5.38691">
        <ele>390</ele>
        <time>2021-03-07T09:00:25.423Z</time>
      </trkpt>
      <trkpt lat="45.5701" lon="5.38688">
        <ele>390</ele>
        <time>2021-03-07T09:00:26.422Z</time>
      </trkpt>
      <trkpt lat="45.57012" lon="5.38685">
        <ele>390</ele>
        <time>2021-03-07T09:00:27.422Z</time>
      </trkpt>
      <trkpt lat="45.57014" lon="5.38682">
        <ele>391</ele>
        <time>2021-03-07T09:00:28.423Z</time>
      </trkpt>
      <trkpt lat="45.57017" lon="5.38679">
        <ele>391</ele>
        <time>2021-03-07T09:00:29.422Z</time>
      </trkpt>
      <trkpt lat="45.57019" lon="5.38676">
        <ele>392</ele>
        <time>2021-03-07T09:00:30.422Z</time>
      </trkpt>
      <trkpt lat="45.57021" lon="5.38673">
        <ele>392</ele>
        <time>2021-03-07T09:00:31.423Z</time>
      </trkpt>
      <trkpt lat="45.57023" lon="5.3867">
        <ele>392</ele>
        <time>2021-03-07T09:00:32.422Z</time>
      </trkpt>
      <trkpt lat="45.57026" lon="5.38666">
        <ele>393</ele>
        <time>2021-03-07T09:00:33.423Z</time>
      </trkpt>
      <trkpt lat="45.57029" lon="5.38663">
        <ele>393</ele>
        <time>2021-03-07T09:00:34.423Z</time>
      </trkpt>
      <trkpt lat="45.57031" lon="5.3866">
        <ele>393</ele>
        <time>2021-03-07T09:00:35.423Z</time>
      </trkpt>
      <trkpt lat="45.57033" lon="5.38657">
        <ele>393</ele>
        <time>2021-03-07T09:00:36.423Z</time>
      </trkpt>
      <trkpt lat="45.57036" lon="5.38654">
        <ele>393</ele>
        <time>2021-03-07T09:00:37.423Z</time>
      </trkpt>
      <trkpt lat="45.57038" lon="5.3865">
        <ele>393</ele>
        <time>2021-03-07T09:00:38.423Z</time>
      </trkpt>
      <trkpt lat="45.5704" lon="5.38647">
        <ele>393</ele>
        <time>2021-03-07T09:00:39.423Z</time>
      </trkpt>
      <trkpt lat="45.57041" lon="5.38643">
        <ele>394</ele>
        <time>2021-03-07T09:00:40.422Z</time>
      </trkpt>
      <trkpt lat="45.57043" lon="5.38639">
        <ele>395</ele>
        <time>2021-03-07T09:00:41.423Z</time>
      </trkpt>
      <trkpt lat="45.57044" lon="5.38636">
        <ele>395</ele>
        <time>2021-03-07T09:00:42.423Z</time>
      </trkpt>
      <trkpt lat="45.57046" lon="5.38633">
        <ele>395</ele>
        <time>2021-03-07T09:00:43.423Z</time>
      </trkpt>
      <trkpt lat="45.57048" lon="5.3863">
        <ele>396</ele>
        <time>2021-03-07T09:00:44.423Z</time>
      </trkpt>
      <trkpt lat="45.5705" lon="5.38627">
        <ele>396</ele>
        <time>2021-03-07T09:00:45.423Z</time>
      </trkpt>
      <trkpt lat="45.57052" lon="5.38625">
        <ele>396</ele>
        <time>2021-03-07T09:00:46.423Z</time>
      </trkpt>
      <trkpt lat="45.57055" lon="5.38622">
        <ele>396</ele>
        <time>2021-03-07T09:00:47.423Z</time>
      </trkpt>
      <trkpt lat="45.57059" lon="5.3862">
        <ele>396</ele>
        <time>2021-03-07T09:00:48.423Z</time>
      </trkpt>
      <trkpt lat="45.57062" lon="5.38617">
        <ele>396</ele>
        <time>2021-03-07T09:00:49.422Z</time>
      </trkpt>
      <trkpt lat="45.57064" lon="5.38614">
        <ele>396</ele>
        <time>2021-03-07T09:00:50.423Z</time>
      </trkpt>
      <trkpt lat="45.57066" lon="5.38612">
        <ele>396</ele>
        <time>2021-03-07T09:00:51.423Z</time>
      </trkpt>
      <trkpt lat="45.57068" lon="5.38609">
        <ele>396</ele>
        <time>2021-03-07T09:00:52.423Z</time>
      </trkpt>
      <trkpt lat="45.5707" lon="5.38606">
        <ele>396</ele>
        <time>2021-03-07T09:00:53.423Z</time>
      </trkpt>
      <trkpt lat="45.57072" lon="5.38604">
        <ele>396</ele>
        <time>2021-03-07T09:00:54.422Z</time>
      </trkpt>
      <trkpt lat="45.57075" lon="5.38602">
        <ele>396</ele>
        <time>2021-03-07T09:00:55.422Z</time>
      </trkpt>
      <trkpt lat="45.57077" lon="5.38599">
        <ele>396</ele>
        <time>2021-03-07T09:00:56.423Z</time>
      </trkpt>
      <trkpt lat="45.5708" lon="5.38596">
        <ele>396</ele>
        <time>2021-03-07T09:00:57.423Z</time>
      </trkpt>
      <trkpt lat="45.57083" lon="5.38593">
        <ele>397</ele>
        <time>2021-03-07T09:00:58.422Z</time>
      </trkpt>
      <trkpt lat="45.57085" lon="5.38589">
        <ele>397</ele>
        <time>2021-03-07T09:00:59.423Z</time>
      </trkpt>
      <trkpt lat="45.57087" lon="5.38587">
        <ele>397</ele>
        <time>2021-03-07T09:01:00.422Z</time>
      </trkpt>
      <trkpt lat="45.5709" lon="5.38584">
        <ele>398</ele>
        <time>2021-03-07T09:01:01.423Z</time>
      </trkpt>
      <trkpt lat="45.57092" lon="5.38581">
        <ele>398</ele>
        <time>2021-03-07T09:01:02.423Z</time>
      </trkpt>
      <trkpt lat="45.57094" lon="5.38578">
        <ele>398</ele>
        <time>2021-03-07T09:01:03.422Z</time>
      </trkpt>
      <trkpt lat="45.57097" lon="5.38575">
        <ele>398</ele>
        <time>2021-03-07T09:01:04.422Z</time>
      </trkpt>
      <trkpt lat="45.571" lon="5.38572">
        <ele>399</ele>
        <time>2021-03-07T09:01:05.423Z</time>
      </trkpt>
      <trkpt lat="45.57102" lon="5.38569">
        <ele>400</ele>
        <time>2021-03-07T09:01:06.423Z</time>
      </trkpt>
      <trkpt lat="45.57104" lon="5.38565">
        <ele>400</ele>
        <time>2021-03-07T09:01:07.422Z</time>
      </trkpt>
      <trkpt lat="45.57106" lon="5.38562">
        <ele>401</ele>
        <time>2021-03-07T09:01:08.423Z</time>
      </trkpt>
      <trkpt lat="45.57108" lon="5.38558">
        <ele>401</ele>
        <time>2021-03-07T09:01:09.423Z</time>
      </trkpt>
      <trkpt lat="45.5711" lon="5.38555">
        <ele>401</ele>
        <time>2021-03-07T09:01:10.422Z</time>
      </trkpt>
      <trkpt lat="45.57112" lon="5.38551">
        <ele>402</ele>
        <time>2021-03-07T09:01:11.422Z</time>
      </trkpt>
      <trkpt lat="45.57113" lon="5.38548">
        <ele>403</ele>
        <time>2021-03-07T09:01:12.422Z</time>
      </trkpt>
      <trkpt lat="45.57114" lon="5.38544">
        <ele>403</ele>
        <time>2021-03-07T09:01:13.423Z</time>
      </trkpt>
      <trkpt lat="45.57115" lon="5.38541">
        <ele>403</ele>
        <time>2021-03-07T09:01:14.423Z</time>
      </trkpt>
      <trkpt lat="45.57116" lon="5.38537">
        <ele>403</ele>
        <time>2021-03-07T09:01:15.423Z</time>
      </trkpt>
      <trkpt lat="45.57117" lon="5.38534">
        <ele>404</ele>
        <time>2021-03-07T09:01:16.423Z</time>
      </trkpt>
      <trkpt lat="45.57118" lon="5.3853">
        <ele>405</ele>
        <time>2021-03-07T09:01:17.423Z</time>
      </trkpt>
      <trkpt lat="45.57118" lon="5.38526">
        <ele>405</ele>
        <time>2021-03-07T09:01:18.423Z</time>
      </trkpt>
      <trkpt lat="45.57118" lon="5.38522">
        <ele>406</ele>
        <time>2021-03-07T09:01:19.423Z</time>
      </trkpt>
      <trkpt lat="45.57117" lon="5.38518">
        <ele>406</ele>
        <time>2021-03-07T09:01:20.423Z</time>
      </trkpt>
      <trkpt lat="45.57116" lon="5.38513">
        <ele>407</ele>
        <time>2021-03-07T09:01:21.423Z</time>
      </trkpt>
      <trkpt lat="45.57114" lon="5.38509">
        <ele>407</ele>
        <time>2021-03-07T09:01:22.423Z</time>
      </trkpt>
      <trkpt lat="45.57112" lon="5.38505">
        <ele>408</ele>
        <time>2021-03-07T09:01:23.422Z</time>
      </trkpt>
      <trkpt lat="45.57111" lon="5.38501">
        <ele>408</ele>
        <time>2021-03-07T09:01:24.422Z</time>
      </trkpt>
      <trkpt lat="45.57109" lon="5.38498">
        <ele>409</ele>
        <time>2021-03-07T09:01:25.422Z</time>
      </trkpt>
      <trkpt lat="45.57106" lon="5.38495">
        <ele>409</ele>
        <time>2021-03-07T09:01:26.422Z</time>
      </trkpt>
      <trkpt lat="45.57104" lon="5.38493">
        <ele>409</ele>
        <time>2021-03-07T09:01:27.423Z</time>
      </trkpt>
      <trkpt lat="45.57101" lon="5.3849">
        <ele>410</ele>
        <time>2021-03-07T09:01:28.423Z</time>
      </trkpt>
      <trkpt lat="45.57098" lon="5.38489">
        <ele>410</ele>
        <time>2021-03-07T09:01:29.423Z</time>
      </trkpt>
      <trkpt lat="45.57094" lon="5.38487">
        <ele>410</ele>
        <time>2021-03-07T09:01:30.423Z</time>
      </trkpt>
      <trkpt lat="45.57091" lon="5.38486">
        <ele>411</ele>
        <time>2021-03-07T09:01:31.423Z</time>
      </trkpt>
      <trkpt lat="45.57087" lon="5.38484">
        <ele>411</ele>
        <time>2021-03-07T09:01:32.423Z</time>
      </trkpt>
      <trkpt lat="45.57084" lon="5.38483">
        <ele>411</ele>
        <time>2021-03-07T09:01:33.423Z</time>
      </trkpt>
      <trkpt lat="45.5708" lon="5.38482">
        <ele>411</ele>
        <time>2021-03-07T09:01:34.423Z</time>
      </trkpt>
      <trkpt lat="45.57077" lon="5.38481">
        <ele>412</ele>
        <time>2021-03-07T09:01:35.422Z</time>
      </trkpt>
      <trkpt lat="45.57074" lon="5.3848">
        <ele>412</ele>
        <time>2021-03-07T09:01:36.423Z</time>
      </trkpt>
      <trkpt lat="45.57071" lon="5.38479">
        <ele>412</ele>
        <time>2021-03-07T09:01:37.423Z</time>
      </trkpt>
      <trkpt lat="45.57068" lon="5.3848">
        <ele>413</ele>
        <time>2021-03-07T09:01:38.423Z</time>
      </trkpt>
      <trkpt lat="45.57065" lon="5.3848">
        <ele>414</ele>
        <time>2021-03-07T09:01:39.423Z</time>
      </trkpt>
      <trkpt lat="45.57061" lon="5.3848">
        <ele>414</ele>
        <time>2021-03-07T09:01:40.423Z</time>
      </trkpt>
      <trkpt lat="45.57057" lon="5.38481">
        <ele>415</ele>
        <time>2021-03-07T09:01:41.423Z</time>
      </trkpt>
      <trkpt lat="45.57054" lon="5.38481">
        <ele>415</ele>
        <time>2021-03-07T09:01:42.423Z</time>
      </trkpt>
      <trkpt lat="45.5705" lon="5.38481">
        <ele>416</ele>
        <time>2021-03-07T09:01:43.423Z</time>
      </trkpt>
      <trkpt lat="45.57047" lon="5.38482">
        <ele>417</ele>
        <time>2021-03-07T09:01:44.423Z</time>
      </trkpt>
      <trkpt lat="45.57043" lon="5.38483">
        <ele>417</ele>
        <time>2021-03-07T09:01:45.423Z</time>
      </trkpt>
      <trkpt lat="45.5704" lon="5.38484">
        <ele>417</ele>
        <time>2021-03-07T09:01:46.422Z</time>
      </trkpt>
      <trkpt lat="45.57037" lon="5.38484">
        <ele>418</ele>
        <time>2021-03-07T09:01:47.423Z</time>
      </trkpt>
      <trkpt lat="45.57033" lon="5.38485">
        <ele>418</ele>
        <time>2021-03-07T09:01:48.423Z</time>
      </trkpt>
      <trkpt lat="45.5703" lon="5.38486">
        <ele>418</ele>
        <time>2021-03-07T09:01:49.423Z</time>
      </trkpt>
      <trkpt lat="45.57027" lon="5.38487">
        <ele>419</ele>
        <time>2021-03-07T09:01:50.423Z</time>
      </trkpt>
      <trkpt lat="45.57023" lon="5.38488">
        <ele>419</ele>
        <time>2021-03-07T09:01:51.423Z</time>
      </trkpt>
      <trkpt lat="45.5702" lon="5.3849">
        <ele>419</ele>
        <time>2021-03-07T09:01:52.422Z</time>
      </trkpt>
      <trkpt lat="45.57016" lon="5.38491">
        <ele>419</ele>
        <time>2021-03-07T09:01:53.423Z</time>
      </trkpt>
      <trkpt lat="45.57013" lon="5.38492">
        <ele>419</ele>
        <time>2021-03-07T09:01:54.423Z</time>
      </trkpt>
      <trkpt lat="45.5701" lon="5.38494">
        <ele>419</ele>
        <time>2021-03-07T09:01:55.422Z</time>
      </trkpt>
      <trkpt lat="45.57006" lon="5.38495">
        <ele>419</ele>
        <time>2021-03-07T09:01:56.423Z</time>
      </trkpt>
      <trkpt lat="45.57003" lon="5.38496">
        <ele>419</ele>
        <time>2021-03-07T09:01:57.422Z</time>
      </trkpt>
      <trkpt lat="45.57" lon="5.38498">
        <ele>419</ele>
        <time>2021-03-07T09:01:58.423Z</time>
      </trkpt>
      <trkpt lat="45.56997" lon="5.385">
        <ele>419</ele>
        <time>2021-03-07T09:01:59.423Z</time>
      </trkpt>
      <trkpt lat="45.56994" lon="5.38501">
        <ele>419</ele>
        <time>2021-03-07T09:02:00.423Z</time>
      </trkpt>
      <trkpt lat="45.5699" lon="5.38502">
        <ele>419</ele>
        <time>2021-03-07T09:02:01.422Z</time>
      </trkpt>
      <trkpt lat="45.56987" lon="5.38503">
        <ele>419</ele>
        <time>2021-03-07T09:02:02.423Z</time>
      </trkpt>
      <trkpt lat="45.56983" lon="5.38503">
        <ele>419</ele>
        <time>2021-03-07T09:02:03.423Z</time>
      </trkpt>
      <trkpt lat="45.5698" lon="5.38502">
        <ele>419</ele>
        <time>2021-03-07T09:02:04.423Z</time>
      </trkpt>
      <trkpt lat="45.56977" lon="5.38501">
        <ele>419</ele>
        <time>2021-03-07T09:02:05.423Z</time>
      </trkpt>
      <trkpt lat="45.56973" lon="5.38498">
        <ele>419</ele>
        <time>2021-03-07T09:02:06.423Z</time>
      </trkpt>
      <trkpt lat="45.56971" lon="5.38495">
        <ele>419</ele>
        <time>2021-03-07T09:02:07.422Z</time>
      </trkpt>
      <trkpt lat="45.56968" lon="5.3849">
        <ele>419</ele>
        <time>2021-03-07T09:02:08.423Z</time>
      </trkpt>
      <trkpt lat="45.56966" lon="5.38486">
        <ele>419</ele>
        <time>2021-03-07T09:02:09.423Z</time>
      </trkpt>
      <trkpt lat="45.56964" lon="5.3848">
        <ele>419</ele>
        <time>2021-03-07T09:02:10.423Z</time>
      </trkpt>
      <trkpt lat="45.56962" lon="5.38475">
        <ele>419</ele>
        <time>2021-03-07T09:02:11.423Z</time>
      </trkpt>
      <trkpt lat="45.56961" lon="5.38469">
        <ele>420</ele>
        <time>2021-03-07T09:02:12.423Z</time>
      </trkpt>
      <trkpt lat="45.5696" lon="5.38463">
        <ele>420</ele>
        <time>2021-03-07T09:02:13.423Z</time>
      </trkpt>
      <trkpt lat="45.56959" lon="5.38457">
        <ele>420</ele>
        <time>2021-03-07T09:02:14.423Z</time>
      </trkpt>
      <trkpt lat="45.56958" lon="5.38451">
        <ele>420</ele>
        <time>2021-03-07T09:02:15.423Z</time>
      </trkpt>
      <trkpt lat="45.56959" lon="5.38446">
        <ele>420</ele>
        <time>2021-03-07T09:02:16.423Z</time>
      </trkpt>
      <trkpt lat="45.5696" lon="5.3844">
        <ele>421</ele>
        <time>2021-03-07T09:02:17.423Z</time>
      </trkpt>
      <trkpt lat="45.56961" lon="5.38435">
        <ele>421</ele>
        <time>2021-03-07T09:02:18.423Z</time>
      </trkpt>
      <trkpt lat="45.56962" lon="5.3843">
        <ele>421</ele>
        <time>2021-03-07T09:02:19.423Z</time>
      </trkpt>
      <trkpt lat="45.56963" lon="5.38425">
        <ele>422</ele>
        <time>2021-03-07T09:02:20.423Z</time>
      </trkpt>
      <trkpt lat="45.56965" lon="5.38421">
        <ele>422</ele>
        <time>2021-03-07T09:02:21.423Z</time>
      </trkpt>
      <trkpt lat="45.56966" lon="5.38417">
        <ele>422</ele>
        <time>2021-03-07T09:02:22.423Z</time>
      </trkpt>
      <trkpt lat="45.56969" lon="5.38413">
        <ele>422</ele>
        <time>2021-03-07T09:02:23.423Z</time>
      </trkpt>
      <trkpt lat="45.56971" lon="5.38409">
        <ele>423</ele>
        <time>2021-03-07T09:02:24.423Z</time>
      </trkpt>
      <trkpt lat="45.56973" lon="5.38406">
        <ele>423</ele>
        <time>2021-03-07T09:02:25.423Z</time>
      </trkpt>
      <trkpt lat="45.56977" lon="5.38403">
        <ele>423</ele>
        <time>2021-03-07T09:02:26.423Z</time>
      </trkpt>
      <trkpt lat="45.5698" lon="5.38401">
        <ele>424</ele>
        <time>2021-03-07T09:02:27.423Z</time>
      </trkpt>
      <trkpt lat="45.56984" lon="5.38398">
        <ele>424</ele>
        <time>2021-03-07T09:02:28.423Z</time>
      </trkpt>
      <trkpt lat="45.56987" lon="5.38396">
        <ele>424</ele>
        <time>2021-03-07T09:02:29.423Z</time>
      </trkpt>
      <trkpt lat="45.5699" lon="5.38394">
        <ele>425</ele>
        <time>2021-03-07T09:02:30.422Z</time>
      </trkpt>
      <trkpt lat="45.56993" lon="5.38391">
        <ele>425</ele>
        <time>2021-03-07T09:02:31.422Z</time>
      </trkpt>
      <trkpt lat="45.56996" lon="5.38389">
        <ele>425</ele>
        <time>2021-03-07T09:02:32.423Z</time>
      </trkpt>
      <trkpt lat="45.57" lon="5.38387">
        <ele>425</ele>
        <time>2021-03-07T09:02:33.423Z</time>
      </trkpt>
      <trkpt lat="45.57003" lon="5.38384">
        <ele>426</ele>
        <time>2021-03-07T09:02:34.423Z</time>
      </trkpt>
      <trkpt lat="45.57006" lon="5.38382">
        <ele>426</ele>
        <time>2021-03-07T09:02:35.423Z</time>
      </trkpt>
      <trkpt lat="45.57009" lon="5.3838">
        <ele>427</ele>
        <time>2021-03-07T09:02:36.423Z</time>
      </trkpt>
      <trkpt lat="45.57012" lon="5.38377">
        <ele>427</ele>
        <time>2021-03-07T09:02:37.423Z</time>
      </trkpt>
      <trkpt lat="45.57015" lon="5.38373">
        <ele>428</ele>
        <time>2021-03-07T09:02:38.422Z</time>
      </trkpt>
      <trkpt lat="45.57018" lon="5.3837">
        <ele>428</ele>
        <time>2021-03-07T09:02:39.423Z</time>
      </trkpt>
      <trkpt lat="45.57021" lon="5.38367">
        <ele>428</ele>
        <time>2021-03-07T09:02:40.423Z</time>
      </trkpt>
      <trkpt lat="45.57023" lon="5.38364">
        <ele>429</ele>
        <time>2021-03-07T09:02:41.422Z</time>
      </trkpt>
      <trkpt lat="45.57026" lon="5.38361">
        <ele>429</ele>
        <time>2021-03-07T09:02:42.423Z</time>
      </trkpt>
      <trkpt lat="45.57029" lon="5.38357">
        <ele>430</ele>
        <time>2021-03-07T09:02:43.423Z</time>
      </trkpt>
      <trkpt lat="45.57031" lon="5.38353">
        <ele>430</ele>
        <time>2021-03-07T09:02:44.423Z</time>
      </trkpt>
      <trkpt lat="45.57033" lon="5.3835">
        <ele>430</ele>
        <time>2021-03-07T09:02:45.423Z</time>
      </trkpt>
      <trkpt lat="45.57036" lon="5.38347">
        <ele>431</ele>
        <time>2021-03-07T09:02:46.423Z</time>
      </trkpt>
      <trkpt lat="45.57038" lon="5.38343">
        <ele>431</ele>
        <time>2021-03-07T09:02:47.423Z</time>
      </trkpt>
      <trkpt lat="45.57041" lon="5.38339">
        <ele>431</ele>
        <time>2021-03-07T09:02:48.423Z</time>
      </trkpt>
      <trkpt lat="45.57043" lon="5.38335">
        <ele>432</ele>
        <time>2021-03-07T09:02:49.423Z</time>
      </trkpt>
      <trkpt lat="45.57046" lon="5.38331">
        <ele>432</ele>
        <time>2021-03-07T09:02:50.423Z</time>
      </trkpt>
      <trkpt lat="45.57047" lon="5.38328">
        <ele>433</ele>
        <time>2021-03-07T09:02:51.423Z</time>
      </trkpt>
      <trkpt lat="45.57049" lon="5.38324">
        <ele>433</ele>
        <time>2021-03-07T09:02:52.423Z</time>
      </trkpt>
      <trkpt lat="45.57051" lon="5.3832">
        <ele>433</ele>
        <time>2021-03-07T09:02:53.423Z</time>
      </trkpt>
      <trkpt lat="45.57052" lon="5.38316">
        <ele>434</ele>
        <time>2021-03-07T09:02:54.423Z</time>
      </trkpt>
      <trkpt lat="45.57054" lon="5.38313">
        <ele>434</ele>
        <time>2021-03-07T09:02:55.423Z</time>
      </trkpt>
      <trkpt lat="45.57056" lon="5.3831">
        <ele>435</ele>
        <time>2021-03-07T09:02:56.423Z</time>
      </trkpt>
      <trkpt lat="45.57059" lon="5.38308">
        <ele>435</ele>
        <time>2021-03-07T09:02:57.422Z</time>
      </trkpt>
      <trkpt lat="45.57063" lon="5.38307">
        <ele>436</ele>
        <time>2021-03-07T09:02:58.423Z</time>
      </trkpt>
      <trkpt lat="45.57065" lon="5.38309">
        <ele>436</ele>
        <time>2021-03-07T09:02:59.422Z</time>
      </trkpt>
      <trkpt lat="45.57067" lon="5.38313">
        <ele>437</ele>
        <time>2021-03-07T09:03:00.423Z</time>
      </trkpt>
      <trkpt lat="45.57066" lon="5.38318">
        <ele>437</ele>
        <time>2021-03-07T09:03:01.423Z</time>
      </trkpt>
      <trkpt lat="45.57066" lon="5.38323">
        <ele>437</ele>
        <time>2021-03-07T09:03:02.422Z</time>
      </trkpt>
      <trkpt lat="45.57064" lon="5.38329">
        <ele>437</ele>
        <time>2021-03-07T09:03:03.422Z</time>
      </trkpt>
      <trkpt lat="45.57062" lon="5.38334">
        <ele>437</ele>
        <time>2021-03-07T09:03:04.423Z</time>
      </trkpt>
      <trkpt lat="45.5706" lon="5.38339">
        <ele>438</ele>
        <time>2021-03-07T09:03:05.423Z</time>
      </trkpt>
      <trkpt lat="45.57059" lon="5.38343">
        <ele>438</ele>
        <time>2021-03-07T09:03:06.423Z</time>
      </trkpt>
      <trkpt lat="45.57057" lon="5.38348">
        <ele>438</ele>
        <time>2021-03-07T09:03:07.423Z</time>
      </trkpt>
      <trkpt lat="45.57054" lon="5.38355">
        <ele>438</ele>
        <time>2021-03-07T09:03:08.423Z</time>
      </trkpt>
      <trkpt lat="45.57053" lon="5.3836">
        <ele>439</ele>
        <time>2021-03-07T09:03:09.422Z</time>
      </trkpt>
      <trkpt lat="45.57051" lon="5.38364">
        <ele>439</ele>
        <time>2021-03-07T09:03:10.423Z</time>
      </trkpt>
      <trkpt lat="45.57049" lon="5.38368">
        <ele>439</ele>
        <time>2021-03-07T09:03:11.422Z</time>
      </trkpt>
      <trkpt lat="45.57048" lon="5.38373">
        <ele>440</ele>
        <time>2021-03-07T09:03:12.423Z</time>
      </trkpt>
      <trkpt lat="45.57046" lon="5.38379">
        <ele>440</ele>
        <time>2021-03-07T09:03:13.422Z</time>
      </trkpt>
      <trkpt lat="45.57045" lon="5.38384">
        <ele>440</ele>
        <time>2021-03-07T09:03:14.423Z</time>
      </trkpt>
      <trkpt lat="45.57045" lon="5.38388">
        <ele>440</ele>
        <time>2021-03-07T09:03:15.423Z</time>
      </trkpt>
      <trkpt lat="45.57046" lon="5.38392">
        <ele>441</ele>
        <time>2021-03-07T09:03:16.422Z</time>
      </trkpt>
      <trkpt lat="45.57048" lon="5.38396">
        <ele>441</ele>
        <time>2021-03-07T09:03:17.422Z</time>
      </trkpt>
      <trkpt lat="45.57051" lon="5.38399">
        <ele>441</ele>
        <time>2021-03-07T09:03:18.423Z</time>
      </trkpt>
      <trkpt lat="45.57054" lon="5.384">
        <ele>441</ele>
        <time>2021-03-07T09:03:19.423Z</time>
      </trkpt>
      <trkpt lat="45.57058" lon="5.384">
        <ele>441</ele>
        <time>2021-03-07T09:03:20.423Z</time>
      </trkpt>
      <trkpt lat="45.5706" lon="5.384">
        <ele>441</ele>
        <time>2021-03-07T09:03:21.423Z</time>
      </trkpt>
      <trkpt lat="45.57063" lon="5.38399">
        <ele>441</ele>
        <time>2021-03-07T09:03:22.423Z</time>
      </trkpt>
      <trkpt lat="45.57067" lon="5.38397">
        <ele>441</ele>
        <time>2021-03-07T09:03:23.422Z</time>
      </trkpt>
      <trkpt lat="45.57071" lon="5.38395">
        <ele>441</ele>
        <time>2021-03-07T09:03:24.422Z</time>
      </trkpt>
      <trkpt lat="45.57074" lon="5.38394">
        <ele>441</ele>
        <time>2021-03-07T09:03:25.422Z</time>
      </trkpt>
      <trkpt lat="45.57077" lon="5.38393">
        <ele>441</ele>
        <time>2021-03-07T09:03:26.422Z</time>
      </trkpt>
      <trkpt lat="45.57082" lon="5.38391">
        <ele>442</ele>
        <time>2021-03-07T09:03:27.423Z</time>
      </trkpt>
      <trkpt lat="45.57086" lon="5.3839">
        <ele>442</ele>
        <time>2021-03-07T09:03:28.422Z</time>
      </trkpt>
      <trkpt lat="45.5709" lon="5.3839">
        <ele>443</ele>
        <time>2021-03-07T09:03:29.423Z</time>
      </trkpt>
      <trkpt lat="45.57093" lon="5.3839">
        <ele>443</ele>
        <time>2021-03-07T09:03:30.423Z</time>
      </trkpt>
      <trkpt lat="45.57097" lon="5.3839">
        <ele>444</ele>
        <time>2021-03-07T09:03:31.423Z</time>
      </trkpt>
      <trkpt lat="45.57099" lon="5.3839">
        <ele>444</ele>
        <time>2021-03-07T09:03:32.423Z</time>
      </trkpt>
      <trkpt lat="45.57103" lon="5.3839">
        <ele>445</ele>
        <time>2021-03-07T09:03:33.423Z</time>
      </trkpt>
      <trkpt lat="45.57107" lon="5.38389">
        <ele>445</ele>
        <time>2021-03-07T09:03:34.423Z</time>
      </trkpt>
      <trkpt lat="45.57109" lon="5.38389">
        <ele>446</ele>
        <time>2021-03-07T09:03:35.423Z</time>
      </trkpt>
      <trkpt lat="45.57114" lon="5.38387">
        <ele>446</ele>
        <time>2021-03-07T09:03:36.422Z</time>
      </trkpt>
      <trkpt lat="45.57114" lon="5.38387">
        <ele>446</ele>
        <time>2021-03-07T09:03:37.423Z</time>
      </trkpt>
      <trkpt lat="45.5712" lon="5.38385">
        <ele>447</ele>
        <time>2021-03-07T09:03:38.423Z</time>
      </trkpt>
      <trkpt lat="45.57123" lon="5.38383">
        <ele>447</ele>
        <time>2021-03-07T09:03:39.423Z</time>
      </trkpt>
      <trkpt lat="45.57127" lon="5.38382">
        <ele>447</ele>
        <time>2021-03-07T09:03:40.422Z</time>
      </trkpt>
      <trkpt lat="45.5713" lon="5.3838">
        <ele>448</ele>
        <time>2021-03-07T09:03:41.423Z</time>
      </trkpt>
      <trkpt lat="45.57133" lon="5.38379">
        <ele>448</ele>
        <time>2021-03-07T09:03:42.422Z</time>
      </trkpt>
      <trkpt lat="45.57136" lon="5.38377">
        <ele>448</ele>
        <time>2021-03-07T09:03:43.423Z</time>
      </trkpt>
      <trkpt lat="45.57139" lon="5.38375">
        <ele>449</ele>
        <time>2021-03-07T09:03:44.423Z</time>
      </trkpt>
      <trkpt lat="45.57142" lon="5.38373">
        <ele>449</ele>
        <time>2021-03-07T09:03:45.422Z</time>
      </trkpt>
      <trkpt lat="45.57146" lon="5.38371">
        <ele>449</ele>
        <time>2021-03-07T09:03:46.423Z</time>
      </trkpt>
      <trkpt lat="45.57148" lon="5.38368">
        <ele>449</ele>
        <time>2021-03-07T09:03:47.423Z</time>
      </trkpt>
      <trkpt lat="45.57151" lon="5.38366">
        <ele>450</ele>
        <time>2021-03-07T09:03:48.422Z</time>
      </trkpt>
      <trkpt lat="45.57153" lon="5.38363">
        <ele>450</ele>
        <time>2021-03-07T09:03:49.423Z</time>
      </trkpt>
      <trkpt lat="45.57155" lon="5.3836">
        <ele>450</ele>
        <time>2021-03-07T09:03:50.423Z</time>
      </trkpt>
      <trkpt lat="45.57157" lon="5.38356">
        <ele>450</ele>
        <time>2021-03-07T09:03:51.423Z</time>
      </trkpt>
      <trkpt lat="45.5716" lon="5.38351">
        <ele>451</ele>
        <time>2021-03-07T09:03:52.423Z</time>
      </trkpt>
      <trkpt lat="45.57162" lon="5.38347">
        <ele>451</ele>
        <time>2021-03-07T09:03:53.422Z</time>
      </trkpt>
      <trkpt lat="45.57163" lon="5.38343">
        <ele>452</ele>
        <time>2021-03-07T09:03:54.423Z</time>
      </trkpt>
      <trkpt lat="45.57165" lon="5.38339">
        <ele>452</ele>
        <time>2021-03-07T09:03:55.423Z</time>
      </trkpt>
      <trkpt lat="45.57166" lon="5.38334">
        <ele>452</ele>
        <time>2021-03-07T09:03:56.423Z</time>
      </trkpt>
      <trkpt lat="45.57168" lon="5.3833">
        <ele>452</ele>
        <time>2021-03-07T09:03:57.423Z</time>
      </trkpt>
      <trkpt lat="45.5717" lon="5.38326">
        <ele>452</ele>
        <time>2021-03-07T09:03:58.423Z</time>
      </trkpt>
      <trkpt lat="45.57172" lon="5.38322">
        <ele>452</ele>
        <time>2021-03-07T09:03:59.422Z</time>
      </trkpt>
      <trkpt lat="45.57175" lon="5.38318">
        <ele>452</ele>
        <time>2021-03-07T09:04:00.423Z</time>
      </trkpt>
      <trkpt lat="45.57176" lon="5.38316">
        <ele>452</ele>
        <time>2021-03-07T09:04:01.423Z</time>
      </trkpt>
      <trkpt lat="45.57179" lon="5.38311">
        <ele>452</ele>
        <time>2021-03-07T09:04:02.422Z</time>
      </trkpt>
      <trkpt lat="45.57182" lon="5.38308">
        <ele>452</ele>
        <time>2021-03-07T09:04:03.423Z</time>
      </trkpt>
      <trkpt lat="45.57184" lon="5.38305">
        <ele>452</ele>
        <time>2021-03-07T09:04:04.423Z</time>
      </trkpt>
      <trkpt lat="45.57187" lon="5.38301">
        <ele>453</ele>
        <time>2021-03-07T09:04:05.422Z</time>
      </trkpt>
      <trkpt lat="45.5719" lon="5.38299">
        <ele>453</ele>
        <time>2021-03-07T09:04:06.422Z</time>
      </trkpt>
      <trkpt lat="45.57193" lon="5.38296">
        <ele>453</ele>
        <time>2021-03-07T09:04:07.423Z</time>
      </trkpt>
      <trkpt lat="45.57196" lon="5.38293">
        <ele>454</ele>
        <time>2021-03-07T09:04:08.423Z</time>
      </trkpt>
      <trkpt lat="45.57199" lon="5.38291">
        <ele>454</ele>
        <time>2021-03-07T09:04:09.423Z</time>
      </trkpt>
      <trkpt lat="45.57202" lon="5.38288">
        <ele>454</ele>
        <time>2021-03-07T09:04:10.423Z</time>
      </trkpt>
      <trkpt lat="45.57205" lon="5.38286">
        <ele>454</ele>
        <time>2021-03-07T09:04:11.423Z</time>
      </trkpt>
      <trkpt lat="45.57208" lon="5.38283">
        <ele>454</ele>
        <time>2021-03-07T09:04:12.423Z</time>
      </trkpt>
      <trkpt lat="45.57211" lon="5.38281">
        <ele>454</ele>
        <time>2021-03-07T09:04:13.423Z</time>
      </trkpt>
      <trkpt lat="45.57215" lon="5.38279">
        <ele>454</ele>
        <time>2021-03-07T09:04:14.423Z</time>
      </trkpt>
      <trkpt lat="45.57219" lon="5.38277">
        <ele>454</ele>
        <time>2021-03-07T09:04:15.422Z</time>
      </trkpt>
      <trkpt lat="45.57222" lon="5.38276">
        <ele>455</ele>
        <time>2021-03-07T09:04:16.423Z</time>
      </trkpt>
      <trkpt lat="45.57227" lon="5.38275">
        <ele>455</ele>
        <time>2021-03-07T09:04:17.422Z</time>
      </trkpt>
      <trkpt lat="45.57232" lon="5.38274">
        <ele>455</ele>
        <time>2021-03-07T09:04:18.423Z</time>
      </trkpt>
      <trkpt lat="45.57235" lon="5.38273">
        <ele>455</ele>
        <time>2021-03-07T09:04:19.423Z</time>
      </trkpt>
      <trkpt lat="45.57239" lon="5.38273">
        <ele>455</ele>
        <time>2021-03-07T09:04:20.422Z</time>
      </trkpt>
      <trkpt lat="45.57243" lon="5.38274">
        <ele>455</ele>
        <time>2021-03-07T09:04:21.423Z</time>
      </trkpt>
      <trkpt lat="45.57247" lon="5.38275">
        <ele>455</ele>
        <time>2021-03-07T09:04:22.422Z</time>
      </trkpt>
      <trkpt lat="45.5725" lon="5.38276">
        <ele>456</ele>
        <time>2021-03-07T09:04:23.422Z</time>
      </trkpt>
      <trkpt lat="45.57254" lon="5.38278">
        <ele>456</ele>
        <time>2021-03-07T09:04:24.423Z</time>
      </trkpt>
      <trkpt lat="45.57258" lon="5.3828">
        <ele>457</ele>
        <time>2021-03-07T09:04:25.423Z</time>
      </trkpt>
      <trkpt lat="45.57261" lon="5.38282">
        <ele>458</ele>
        <time>2021-03-07T09:04:26.423Z</time>
      </trkpt>
      <trkpt lat="45.57265" lon="5.38284">
        <ele>458</ele>
        <time>2021-03-07T09:04:27.422Z</time>
      </trkpt>
      <trkpt lat="45.57269" lon="5.38286">
        <ele>459</ele>
        <time>2021-03-07T09:04:28.422Z</time>
      </trkpt>
      <trkpt lat="45.57272" lon="5.38288">
        <ele>460</ele>
        <time>2021-03-07T09:04:29.423Z</time>
      </trkpt>
      <trkpt lat="45.57276" lon="5.38289">
        <ele>460</ele>
        <time>2021-03-07T09:04:30.423Z</time>
      </trkpt>
      <trkpt lat="45.5728" lon="5.38292">
        <ele>461</ele>
        <time>2021-03-07T09:04:31.422Z</time>
      </trkpt>
      <trkpt lat="45.57282" lon="5.38295">
        <ele>462</ele>
        <time>2021-03-07T09:04:32.423Z</time>
      </trkpt>
      <trkpt lat="45.57286" lon="5.38298">
        <ele>462</ele>
        <time>2021-03-07T09:04:33.423Z</time>
      </trkpt>
      <trkpt lat="45.57289" lon="5.38301">
        <ele>463</ele>
        <time>2021-03-07T09:04:34.423Z</time>
      </trkpt>
      <trkpt lat="45.57292" lon="5.38303">
        <ele>463</ele>
        <time>2021-03-07T09:04:35.423Z</time>
      </trkpt>
      <trkpt lat="45.57296" lon="5.38307">
        <ele>464</ele>
        <time>2021-03-07T09:04:36.423Z</time>
      </trkpt>
      <trkpt lat="45.57299" lon="5.3831">
        <ele>465</ele>
        <time>2021-03-07T09:04:37.422Z</time>
      </trkpt>
      <trkpt lat="45.57302" lon="5.38314">
        <ele>466</ele>
        <time>2021-03-07T09:04:38.423Z</time>
      </trkpt>
      <trkpt lat="45.57305" lon="5.38317">
        <ele>466</ele>
        <time>2021-03-07T09:04:39.422Z</time>
      </trkpt>
      <trkpt lat="45.57308" lon="5.38321">
        <ele>467</ele>
        <time>2021-03-07T09:04:40.423Z</time>
      </trkpt>
      <trkpt lat="45.5731" lon="5.38324">
        <ele>468</ele>
        <time>2021-03-07T09:04:41.422Z</time>
      </trkpt>
      <trkpt lat="45.57313" lon="5.38328">
        <ele>468</ele>
        <time>2021-03-07T09:04:42.423Z</time>
      </trkpt>
      <trkpt lat="45.57315" lon="5.38332">
        <ele>469</ele>
        <time>2021-03-07T09:04:43.423Z</time>
      </trkpt>
      <trkpt lat="45.57317" lon="5.38335">
        <ele>469</ele>
        <time>2021-03-07T09:04:44.423Z</time>
      </trkpt>
      <trkpt lat="45.5732" lon="5.38338">
        <ele>469</ele>
        <time>2021-03-07T09:04:45.422Z</time>
      </trkpt>
      <trkpt lat="45.57323" lon="5.3834">
        <ele>469</ele>
        <time>2021-03-07T09:04:46.423Z</time>
      </trkpt>
      <trkpt lat="45.57326" lon="5.38342">
        <ele>469</ele>
        <time>2021-03-07T09:04:47.423Z</time>
      </trkpt>
      <trkpt lat="45.57329" lon="5.38343">
        <ele>469</ele>
        <time>2021-03-07T09:04:48.423Z</time>
      </trkpt>
      <trkpt lat="45.57334" lon="5.38344">
        <ele>470</ele>
        <time>2021-03-07T09:04:49.423Z</time>
      </trkpt>
      <trkpt lat="45.57338" lon="5.38345">
        <ele>470</ele>
        <time>2021-03-07T09:04:50.423Z</time>
      </trkpt>
      <trkpt lat="45.57342" lon="5.38346">
        <ele>470</ele>
        <time>2021-03-07T09:04:51.422Z</time>
      </trkpt>
      <trkpt lat="45.57346" lon="5.38346">
        <ele>471</ele>
        <time>2021-03-07T09:04:52.423Z</time>
      </trkpt>
      <trkpt lat="45.57349" lon="5.38347">
        <ele>471</ele>
        <time>2021-03-07T09:04:53.423Z</time>
      </trkpt>
      <trkpt lat="45.57353" lon="5.38347">
        <ele>471</ele>
        <time>2021-03-07T09:04:54.423Z</time>
      </trkpt>
      <trkpt lat="45.57356" lon="5.38348">
        <ele>471</ele>
        <time>2021-03-07T09:04:55.422Z</time>
      </trkpt>
      <trkpt lat="45.5736" lon="5.38349">
        <ele>471</ele>
        <time>2021-03-07T09:04:56.423Z</time>
      </trkpt>
      <trkpt lat="45.57364" lon="5.3835">
        <ele>471</ele>
        <time>2021-03-07T09:04:57.423Z</time>
      </trkpt>
      <trkpt lat="45.57367" lon="5.38352">
        <ele>472</ele>
        <time>2021-03-07T09:04:58.423Z</time>
      </trkpt>
      <trkpt lat="45.57371" lon="5.38354">
        <ele>472</ele>
        <time>2021-03-07T09:04:59.422Z</time>
      </trkpt>
      <trkpt lat="45.57375" lon="5.38355">
        <ele>473</ele>
        <time>2021-03-07T09:05:00.423Z</time>
      </trkpt>
      <trkpt lat="45.57378" lon="5.38356">
        <ele>473</ele>
        <time>2021-03-07T09:05:01.423Z</time>
      </trkpt>
      <trkpt lat="45.57382" lon="5.38358">
        <ele>474</ele>
        <time>2021-03-07T09:05:02.423Z</time>
      </trkpt>
      <trkpt lat="45.57386" lon="5.38359">
        <ele>474</ele>
        <time>2021-03-07T09:05:03.423Z</time>
      </trkpt>
      <trkpt lat="45.57389" lon="5.3836">
        <ele>475</ele>
        <time>2021-03-07T09:05:04.423Z</time>
      </trkpt>
      <trkpt lat="45.57393" lon="5.38361">
        <ele>475</ele>
        <time>2021-03-07T09:05:05.423Z</time>
      </trkpt>
      <trkpt lat="45.57396" lon="5.38363">
        <ele>475</ele>
        <time>2021-03-07T09:05:06.423Z</time>
      </trkpt>
      <trkpt lat="45.57399" lon="5.38365">
        <ele>475</ele>
        <time>2021-03-07T09:05:07.423Z</time>
      </trkpt>
      <trkpt lat="45.57403" lon="5.38367">
        <ele>475</ele>
        <time>2021-03-07T09:05:08.423Z</time>
      </trkpt>
      <trkpt lat="45.57406" lon="5.38369">
        <ele>476</ele>
        <time>2021-03-07T09:05:09.423Z</time>
      </trkpt>
      <trkpt lat="45.57409" lon="5.38371">
        <ele>476</ele>
        <time>2021-03-07T09:05:10.423Z</time>
      </trkpt>
      <trkpt lat="45.57412" lon="5.38374">
        <ele>476</ele>
        <time>2021-03-07T09:05:11.423Z</time>
      </trkpt>
      <trkpt lat="45.57415" lon="5.38377">
        <ele>477</ele>
        <time>2021-03-07T09:05:12.423Z</time>
      </trkpt>
      <trkpt lat="45.57418" lon="5.3838">
        <ele>476</ele>
        <time>2021-03-07T09:05:13.422Z</time>
      </trkpt>
      <trkpt lat="45.57421" lon="5.38383">
        <ele>476</ele>
        <time>2021-03-07T09:05:14.423Z</time>
      </trkpt>
      <trkpt lat="45.57424" lon="5.38386">
        <ele>476</ele>
        <time>2021-03-07T09:05:15.423Z</time>
      </trkpt>
      <trkpt lat="45.57427" lon="5.3839">
        <ele>476</ele>
        <time>2021-03-07T09:05:16.423Z</time>
      </trkpt>
      <trkpt lat="45.57429" lon="5.38394">
        <ele>476</ele>
        <time>2021-03-07T09:05:17.423Z</time>
      </trkpt>
      <trkpt lat="45.57432" lon="5.38397">
        <ele>476</ele>
        <time>2021-03-07T09:05:18.423Z</time>
      </trkpt>
      <trkpt lat="45.57435" lon="5.38401">
        <ele>476</ele>
        <time>2021-03-07T09:05:19.423Z</time>
      </trkpt>
      <trkpt lat="45.57437" lon="5.38405">
        <ele>476</ele>
        <time>2021-03-07T09:05:20.422Z</time>
      </trkpt>
      <trkpt lat="45.5744" lon="5.38409">
        <ele>476</ele>
        <time>2021-03-07T09:05:21.422Z</time>
      </trkpt>
      <trkpt lat="45.57442" lon="5.38413">
        <ele>476</ele>
        <time>2021-03-07T09:05:22.422Z</time>
      </trkpt>
      <trkpt lat="45.57445" lon="5.38418">
        <ele>476</ele>
        <time>2021-03-07T09:05:23.423Z</time>
      </trkpt>
      <trkpt lat="45.57448" lon="5.38422">
        <ele>476</ele>
        <time>2021-03-07T09:05:24.422Z</time>
      </trkpt>
      <trkpt lat="45.57451" lon="5.38426">
        <ele>476</ele>
        <time>2021-03-07T09:05:25.423Z</time>
      </trkpt>
      <trkpt lat="45.57454" lon="5.3843">
        <ele>476</ele>
        <time>2021-03-07T09:05:26.423Z</time>
      </trkpt>
      <trkpt lat="45.57458" lon="5.38433">
        <ele>476</ele>
        <time>2021-03-07T09:05:27.423Z</time>
      </trkpt>
      <trkpt lat="45.57462" lon="5.38436">
        <ele>477</ele>
        <time>2021-03-07T09:05:28.422Z</time>
      </trkpt>
      <trkpt lat="45.57466" lon="5.38439">
        <ele>477</ele>
        <time>2021-03-07T09:05:29.423Z</time>
      </trkpt>
      <trkpt lat="45.5747" lon="5.38442">
        <ele>478</ele>
        <time>2021-03-07T09:05:30.422Z</time>
      </trkpt>
      <trkpt lat="45.57474" lon="5.38444">
        <ele>478</ele>
        <time>2021-03-07T09:05:31.423Z</time>
      </trkpt>
      <trkpt lat="45.57479" lon="5.38446">
        <ele>479</ele>
        <time>2021-03-07T09:05:32.422Z</time>
      </trkpt>
      <trkpt lat="45.57483" lon="5.38448">
        <ele>480</ele>
        <time>2021-03-07T09:05:33.423Z</time>
      </trkpt>
      <trkpt lat="45.57487" lon="5.38449">
        <ele>480</ele>
        <time>2021-03-07T09:05:34.422Z</time>
      </trkpt>
      <trkpt lat="45.57492" lon="5.3845">
        <ele>480</ele>
        <time>2021-03-07T09:05:35.423Z</time>
      </trkpt>
      <trkpt lat="45.57497" lon="5.3845">
        <ele>480</ele>
        <time>2021-03-07T09:05:36.423Z</time>
      </trkpt>
      <trkpt lat="45.57502" lon="5.38451">
        <ele>481</ele>
        <time>2021-03-07T09:05:37.422Z</time>
      </trkpt>
      <trkpt lat="45.57506" lon="5.38451">
        <ele>481</ele>
        <time>2021-03-07T09:05:38.423Z</time>
      </trkpt>
      <trkpt lat="45.57511" lon="5.38451">
        <ele>481</ele>
        <time>2021-03-07T09:05:39.423Z</time>
      </trkpt>
      <trkpt lat="45.57515" lon="5.38451">
        <ele>481</ele>
        <time>2021-03-07T09:05:40.423Z</time>
      </trkpt>
      <trkpt lat="45.57521" lon="5.38451">
        <ele>481</ele>
        <time>2021-03-07T09:05:41.423Z</time>
      </trkpt>
      <trkpt lat="45.57525" lon="5.38451">
        <ele>481</ele>
        <time>2021-03-07T09:05:42.423Z</time>
      </trkpt>
      <trkpt lat="45.57529" lon="5.3845">
        <ele>481</ele>
        <time>2021-03-07T09:05:43.422Z</time>
      </trkpt>
      <trkpt lat="45.57534" lon="5.3845">
        <ele>482</ele>
        <time>2021-03-07T09:05:44.423Z</time>
      </trkpt>
      <trkpt lat="45.57538" lon="5.3845">
        <ele>482</ele>
        <time>2021-03-07T09:05:45.423Z</time>
      </trkpt>
      <trkpt lat="45.57543" lon="5.3845">
        <ele>483</ele>
        <time>2021-03-07T09:05:46.423Z</time>
      </trkpt>
      <trkpt lat="45.57548" lon="5.3845">
        <ele>483</ele>
        <time>2021-03-07T09:05:47.423Z</time>
      </trkpt>
      <trkpt lat="45.57551" lon="5.3845">
        <ele>484</ele>
        <time>2021-03-07T09:05:48.422Z</time>
      </trkpt>
      <trkpt lat="45.57556" lon="5.3845">
        <ele>484</ele>
        <time>2021-03-07T09:05:49.423Z</time>
      </trkpt>
      <trkpt lat="45.5756" lon="5.3845">
        <ele>485</ele>
        <time>2021-03-07T09:05:50.423Z</time>
      </trkpt>
      <trkpt lat="45.57564" lon="5.3845">
        <ele>486</ele>
        <time>2021-03-07T09:05:51.423Z</time>
      </trkpt>
      <trkpt lat="45.57568" lon="5.38449">
        <ele>486</ele>
        <time>2021-03-07T09:05:52.423Z</time>
      </trkpt>
      <trkpt lat="45.5757" lon="5.38449">
        <ele>487</ele>
        <time>2021-03-07T09:05:53.423Z</time>
      </trkpt>
      <trkpt lat="45.57573" lon="5.38448">
        <ele>487</ele>
        <time>2021-03-07T09:05:54.423Z</time>
      </trkpt>
      <trkpt lat="45.57575" lon="5.38446">
        <ele>488</ele>
        <time>2021-03-07T09:05:55.423Z</time>
      </trkpt>
      <trkpt lat="45.57576" lon="5.38444">
        <ele>489</ele>
        <time>2021-03-07T09:05:56.423Z</time>
      </trkpt>
      <trkpt lat="45.57575" lon="5.3844">
        <ele>489</ele>
        <time>2021-03-07T09:05:57.423Z</time>
      </trkpt>
      <trkpt lat="45.57575" lon="5.38437">
        <ele>490</ele>
        <time>2021-03-07T09:05:58.423Z</time>
      </trkpt>
      <trkpt lat="45.57574" lon="5.38434">
        <ele>490</ele>
        <time>2021-03-07T09:05:59.423Z</time>
      </trkpt>
      <trkpt lat="45.57574" lon="5.3843">
        <ele>490</ele>
        <time>2021-03-07T09:06:00.423Z</time>
      </trkpt>
      <trkpt lat="45.57573" lon="5.38425">
        <ele>490</ele>
        <time>2021-03-07T09:06:01.423Z</time>
      </trkpt>
      <trkpt lat="45.57573" lon="5.38422">
        <ele>490</ele>
        <time>2021-03-07T09:06:02.423Z</time>
      </trkpt>
      <trkpt lat="45.57572" lon="5.38418">
        <ele>490</ele>
        <time>2021-03-07T09:06:03.422Z</time>
      </trkpt>
      <trkpt lat="45.57571" lon="5.38415">
        <ele>490</ele>
        <time>2021-03-07T09:06:04.423Z</time>
      </trkpt>
      <trkpt lat="45.5757" lon="5.38411">
        <ele>490</ele>
        <time>2021-03-07T09:06:05.423Z</time>
      </trkpt>
      <trkpt lat="45.57569" lon="5.38407">
        <ele>490</ele>
        <time>2021-03-07T09:06:06.423Z</time>
      </trkpt>
      <trkpt lat="45.57568" lon="5.38402">
        <ele>490</ele>
        <time>2021-03-07T09:06:07.423Z</time>
      </trkpt>
      <trkpt lat="45.57567" lon="5.38399">
        <ele>490</ele>
        <time>2021-03-07T09:06:08.423Z</time>
      </trkpt>
      <trkpt lat="45.57566" lon="5.38395">
        <ele>490</ele>
        <time>2021-03-07T09:06:09.423Z</time>
      </trkpt>
      <trkpt lat="45.57564" lon="5.38391">
        <ele>490</ele>
        <time>2021-03-07T09:06:10.423Z</time>
      </trkpt>
      <trkpt lat="45.57562" lon="5.38386">
        <ele>489</ele>
        <time>2021-03-07T09:06:11.423Z</time>
      </trkpt>
      <trkpt lat="45.57561" lon="5.38382">
        <ele>489</ele>
        <time>2021-03-07T09:06:12.423Z</time>
      </trkpt>
      <trkpt lat="45.5756" lon="5.38379">
        <ele>489</ele>
        <time>2021-03-07T09:06:13.423Z</time>
      </trkpt>
      <trkpt lat="45.57559" lon="5.38375">
        <ele>489</ele>
        <time>2021-03-07T09:06:14.422Z</time>
      </trkpt>
      <trkpt lat="45.57557" lon="5.3837">
        <ele>490</ele>
        <time>2021-03-07T09:06:15.423Z</time>
      </trkpt>
      <trkpt lat="45.57555" lon="5.38365">
        <ele>489</ele>
        <time>2021-03-07T09:06:16.423Z</time>
      </trkpt>
      <trkpt lat="45.57554" lon="5.38361">
        <ele>489</ele>
        <time>2021-03-07T09:06:17.423Z</time>
      </trkpt>
      <trkpt lat="45.57552" lon="5.38357">
        <ele>489</ele>
        <time>2021-03-07T09:06:18.423Z</time>
      </trkpt>
      <trkpt lat="45.57551" lon="5.38353">
        <ele>489</ele>
        <time>2021-03-07T09:06:19.422Z</time>
      </trkpt>
      <trkpt lat="45.57549" lon="5.38349">
        <ele>489</ele>
        <time>2021-03-07T09:06:20.423Z</time>
      </trkpt>
      <trkpt lat="45.57548" lon="5.38344">
        <ele>489</ele>
        <time>2021-03-07T09:06:21.423Z</time>
      </trkpt>
      <trkpt lat="45.57546" lon="5.3834">
        <ele>489</ele>
        <time>2021-03-07T09:06:22.423Z</time>
      </trkpt>
      <trkpt lat="45.57545" lon="5.38336">
        <ele>489</ele>
        <time>2021-03-07T09:06:23.423Z</time>
      </trkpt>
      <trkpt lat="45.57544" lon="5.38332">
        <ele>489</ele>
        <time>2021-03-07T09:06:24.423Z</time>
      </trkpt>
      <trkpt lat="45.57542" lon="5.38328">
        <ele>489</ele>
        <time>2021-03-07T09:06:25.423Z</time>
      </trkpt>
      <trkpt lat="45.5754" lon="5.38323">
        <ele>489</ele>
        <time>2021-03-07T09:06:26.423Z</time>
      </trkpt>
      <trkpt lat="45.57539" lon="5.38318">
        <ele>489</ele>
        <time>2021-03-07T09:06:27.423Z</time>
      </trkpt>
      <trkpt lat="45.57537" lon="5.38314">
        <ele>490</ele>
        <time>2021-03-07T09:06:28.422Z</time>
      </trkpt>
      <trkpt lat="45.57536" lon="5.38309">
        <ele>489</ele>
        <time>2021-03-07T09:06:29.423Z</time>
      </trkpt>
      <trkpt lat="45.57534" lon="5.38304">
        <ele>489</ele>
        <time>2021-03-07T09:06:30.422Z</time>
      </trkpt>
      <trkpt lat="45.57532" lon="5.38299">
        <ele>490</ele>
        <time>2021-03-07T09:06:31.423Z</time>
      </trkpt>
      <trkpt lat="45.5753" lon="5.38294">
        <ele>490</ele>
        <time>2021-03-07T09:06:32.423Z</time>
      </trkpt>
      <trkpt lat="45.57528" lon="5.38288">
        <ele>490</ele>
        <time>2021-03-07T09:06:33.423Z</time>
      </trkpt>
      <trkpt lat="45.57526" lon="5.38282">
        <ele>490</ele>
        <time>2021-03-07T09:06:34.423Z</time>
      </trkpt>
      <trkpt lat="45.57524" lon="5.38275">
        <ele>490</ele>
        <time>2021-03-07T09:06:35.423Z</time>
      </trkpt>
      <trkpt lat="45.57522" lon="5.38269">
        <ele>490</ele>
        <time>2021-03-07T09:06:36.423Z</time>
      </trkpt>
      <trkpt lat="45.5752" lon="5.38263">
        <ele>491</ele>
        <time>2021-03-07T09:06:37.423Z</time>
      </trkpt>
      <trkpt lat="45.57518" lon="5.38257">
        <ele>491</ele>
        <time>2021-03-07T09:06:38.423Z</time>
      </trkpt>
      <trkpt lat="45.57516" lon="5.3825">
        <ele>491</ele>
        <time>2021-03-07T09:06:39.423Z</time>
      </trkpt>
      <trkpt lat="45.57515" lon="5.38244">
        <ele>491</ele>
        <time>2021-03-07T09:06:40.423Z</time>
      </trkpt>
      <trkpt lat="45.57513" lon="5.38238">
        <ele>491</ele>
        <time>2021-03-07T09:06:41.423Z</time>
      </trkpt>
      <trkpt lat="45.57511" lon="5.38232">
        <ele>490</ele>
        <time>2021-03-07T09:06:42.423Z</time>
      </trkpt>
      <trkpt lat="45.57509" lon="5.38226">
        <ele>490</ele>
        <time>2021-03-07T09:06:43.423Z</time>
      </trkpt>
      <trkpt lat="45.57508" lon="5.3822">
        <ele>490</ele>
        <time>2021-03-07T09:06:44.423Z</time>
      </trkpt>
      <trkpt lat="45.57506" lon="5.38215">
        <ele>490</ele>
        <time>2021-03-07T09:06:45.423Z</time>
      </trkpt>
      <trkpt lat="45.57505" lon="5.38209">
        <ele>490</ele>
        <time>2021-03-07T09:06:46.423Z</time>
      </trkpt>
      <trkpt lat="45.57503" lon="5.38204">
        <ele>490</ele>
        <time>2021-03-07T09:06:47.422Z</time>
      </trkpt>
      <trkpt lat="45.57501" lon="5.38199">
        <ele>490</ele>
        <time>2021-03-07T09:06:48.423Z</time>
      </trkpt>
      <trkpt lat="45.575" lon="5.38194">
        <ele>490</ele>
        <time>2021-03-07T09:06:49.423Z</time>
      </trkpt>
      <trkpt lat="45.57498" lon="5.38187">
        <ele>489</ele>
        <time>2021-03-07T09:06:50.423Z</time>
      </trkpt>
      <trkpt lat="45.57496" lon="5.38181">
        <ele>489</ele>
        <time>2021-03-07T09:06:51.423Z</time>
      </trkpt>
      <trkpt lat="45.57494" lon="5.38176">
        <ele>490</ele>
        <time>2021-03-07T09:06:52.423Z</time>
      </trkpt>
      <trkpt lat="45.57493" lon="5.38171">
        <ele>490</ele>
        <time>2021-03-07T09:06:53.423Z</time>
      </trkpt>
      <trkpt lat="45.57492" lon="5.38165">
        <ele>490</ele>
        <time>2021-03-07T09:06:54.423Z</time>
      </trkpt>
      <trkpt lat="45.5749" lon="5.38159">
        <ele>490</ele>
        <time>2021-03-07T09:06:55.423Z</time>
      </trkpt>
      <trkpt lat="45.57488" lon="5.38153">
        <ele>491</ele>
        <time>2021-03-07T09:06:56.423Z</time>
      </trkpt>
      <trkpt lat="45.57487" lon="5.38149">
        <ele>491</ele>
        <time>2021-03-07T09:06:57.423Z</time>
      </trkpt>
      <trkpt lat="45.57485" lon="5.38144">
        <ele>491</ele>
        <time>2021-03-07T09:06:58.422Z</time>
      </trkpt>
      <trkpt lat="45.57483" lon="5.38138">
        <ele>491</ele>
        <time>2021-03-07T09:06:59.423Z</time>
      </trkpt>
      <trkpt lat="45.57481" lon="5.38132">
        <ele>491</ele>
        <time>2021-03-07T09:07:00.423Z</time>
      </trkpt>
      <trkpt lat="45.5748" lon="5.38127">
        <ele>491</ele>
        <time>2021-03-07T09:07:01.423Z</time>
      </trkpt>
      <trkpt lat="45.57478" lon="5.38123">
        <ele>492</ele>
        <time>2021-03-07T09:07:02.422Z</time>
      </trkpt>
      <trkpt lat="45.57477" lon="5.38119">
        <ele>492</ele>
        <time>2021-03-07T09:07:03.422Z</time>
      </trkpt>
      <trkpt lat="45.57476" lon="5.38115">
        <ele>493</ele>
        <time>2021-03-07T09:07:04.423Z</time>
      </trkpt>
      <trkpt lat="45.57474" lon="5.38109">
        <ele>493</ele>
        <time>2021-03-07T09:07:05.423Z</time>
      </trkpt>
      <trkpt lat="45.57472" lon="5.38104">
        <ele>493</ele>
        <time>2021-03-07T09:07:06.423Z</time>
      </trkpt>
      <trkpt lat="45.57471" lon="5.381">
        <ele>493</ele>
        <time>2021-03-07T09:07:07.423Z</time>
      </trkpt>
      <trkpt lat="45.5747" lon="5.38095">
        <ele>493</ele>
        <time>2021-03-07T09:07:08.423Z</time>
      </trkpt>
      <trkpt lat="45.57469" lon="5.3809">
        <ele>493</ele>
        <time>2021-03-07T09:07:09.423Z</time>
      </trkpt>
      <trkpt lat="45.57467" lon="5.38086">
        <ele>493</ele>
        <time>2021-03-07T09:07:10.423Z</time>
      </trkpt>
      <trkpt lat="45.57466" lon="5.38081">
        <ele>493</ele>
        <time>2021-03-07T09:07:11.423Z</time>
      </trkpt>
      <trkpt lat="45.57465" lon="5.38076">
        <ele>493</ele>
        <time>2021-03-07T09:07:12.423Z</time>
      </trkpt>
      <trkpt lat="45.57463" lon="5.38071">
        <ele>493</ele>
        <time>2021-03-07T09:07:13.423Z</time>
      </trkpt>
      <trkpt lat="45.57462" lon="5.38066">
        <ele>493</ele>
        <time>2021-03-07T09:07:14.423Z</time>
      </trkpt>
      <trkpt lat="45.5746" lon="5.3806">
        <ele>493</ele>
        <time>2021-03-07T09:07:15.422Z</time>
      </trkpt>
      <trkpt lat="45.57459" lon="5.38055">
        <ele>493</ele>
        <time>2021-03-07T09:07:16.423Z</time>
      </trkpt>
      <trkpt lat="45.57458" lon="5.38048">
        <ele>493</ele>
        <time>2021-03-07T09:07:17.422Z</time>
      </trkpt>
      <trkpt lat="45.57457" lon="5.38043">
        <ele>494</ele>
        <time>2021-03-07T09:07:18.422Z</time>
      </trkpt>
      <trkpt lat="45.57456" lon="5.38037">
        <ele>494</ele>
        <time>2021-03-07T09:07:19.423Z</time>
      </trkpt>
      <trkpt lat="45.57455" lon="5.38031">
        <ele>494</ele>
        <time>2021-03-07T09:07:20.422Z</time>
      </trkpt>
      <trkpt lat="45.57454" lon="5.38025">
        <ele>494</ele>
        <time>2021-03-07T09:07:21.423Z</time>
      </trkpt>
      <trkpt lat="45.57453" lon="5.38018">
        <ele>495</ele>
        <time>2021-03-07T09:07:22.423Z</time>
      </trkpt>
      <trkpt lat="45.57452" lon="5.38012">
        <ele>495</ele>
        <time>2021-03-07T09:07:23.423Z</time>
      </trkpt>
      <trkpt lat="45.57451" lon="5.38006">
        <ele>495</ele>
        <time>2021-03-07T09:07:24.422Z</time>
      </trkpt>
      <trkpt lat="45.57451" lon="5.37998">
        <ele>496</ele>
        <time>2021-03-07T09:07:25.423Z</time>
      </trkpt>
      <trkpt lat="45.5745" lon="5.37993">
        <ele>495</ele>
        <time>2021-03-07T09:07:26.423Z</time>
      </trkpt>
      <trkpt lat="45.57449" lon="5.37985">
        <ele>496</ele>
        <time>2021-03-07T09:07:27.423Z</time>
      </trkpt>
      <trkpt lat="45.57448" lon="5.37979">
        <ele>496</ele>
        <time>2021-03-07T09:07:28.423Z</time>
      </trkpt>
      <trkpt lat="45.57446" lon="5.37972">
        <ele>496</ele>
        <time>2021-03-07T09:07:29.422Z</time>
      </trkpt>
      <trkpt lat="45.57445" lon="5.37965">
        <ele>496</ele>
        <time>2021-03-07T09:07:30.423Z</time>
      </trkpt>
      <trkpt lat="45.57444" lon="5.37958">
        <ele>496</ele>
        <time>2021-03-07T09:07:31.423Z</time>
      </trkpt>
      <trkpt lat="45.57443" lon="5.3795">
        <ele>496</ele>
        <time>2021-03-07T09:07:32.423Z</time>
      </trkpt>
      <trkpt lat="45.57442" lon="5.37945">
        <ele>496</ele>
        <time>2021-03-07T09:07:33.423Z</time>
      </trkpt>
      <trkpt lat="45.5744" lon="5.37938">
        <ele>496</ele>
        <time>2021-03-07T09:07:34.423Z</time>
      </trkpt>
      <trkpt lat="45.57438" lon="5.3793">
        <ele>496</ele>
        <time>2021-03-07T09:07:35.423Z</time>
      </trkpt>
      <trkpt lat="45.57437" lon="5.37923">
        <ele>496</ele>
        <time>2021-03-07T09:07:36.422Z</time>
      </trkpt>
      <trkpt lat="45.57435" lon="5.37916">
        <ele>495</ele>
        <time>2021-03-07T09:07:37.423Z</time>
      </trkpt>
      <trkpt lat="45.57434" lon="5.37911">
        <ele>495</ele>
        <time>2021-03-07T09:07:38.423Z</time>
      </trkpt>
      <trkpt lat="45.57434" lon="5.37911">
        <ele>495</ele>
        <time>2021-03-07T09:07:39.422Z</time>
      </trkpt>
      <trkpt lat="45.57431" lon="5.37895">
        <ele>495</ele>
        <time>2021-03-07T09:07:40.423Z</time>
      </trkpt>
      <trkpt lat="45.5743" lon="5.37888">
        <ele>495</ele>
        <time>2021-03-07T09:07:41.423Z</time>
      </trkpt>
      <trkpt lat="45.57429" lon="5.37881">
        <ele>495</ele>
        <time>2021-03-07T09:07:42.422Z</time>
      </trkpt>
      <trkpt lat="45.57427" lon="5.37874">
        <ele>496</ele>
        <time>2021-03-07T09:07:43.423Z</time>
      </trkpt>
      <trkpt lat="45.57425" lon="5.37866">
        <ele>496</ele>
        <time>2021-03-07T09:07:44.422Z</time>
      </trkpt>
      <trkpt lat="45.57424" lon="5.37858">
        <ele>496</ele>
        <time>2021-03-07T09:07:45.423Z</time>
      </trkpt>
      <trkpt lat="45.57423" lon="5.37851">
        <ele>496</ele>
        <time>2021-03-07T09:07:46.422Z</time>
      </trkpt>
      <trkpt lat="45.57422" lon="5.37843">
        <ele>496</ele>
        <time>2021-03-07T09:07:47.423Z</time>
      </trkpt>
      <trkpt lat="45.57421" lon="5.37834">
        <ele>496</ele>
        <time>2021-03-07T09:07:48.423Z</time>
      </trkpt>
      <trkpt lat="45.5742" lon="5.37828">
        <ele>496</ele>
        <time>2021-03-07T09:07:49.423Z</time>
      </trkpt>
      <trkpt lat="45.5742" lon="5.37818">
        <ele>496</ele>
        <time>2021-03-07T09:07:50.423Z</time>
      </trkpt>
      <trkpt lat="45.57419" lon="5.37809">
        <ele>495</ele>
        <time>2021-03-07T09:07:51.423Z</time>
      </trkpt>
      <trkpt lat="45.57418" lon="5.378">
        <ele>495</ele>
        <time>2021-03-07T09:07:52.423Z</time>
      </trkpt>
      <trkpt lat="45.57418" lon="5.37792">
        <ele>494</ele>
        <time>2021-03-07T09:07:53.423Z</time>
      </trkpt>
      <trkpt lat="45.57418" lon="5.37783">
        <ele>494</ele>
        <time>2021-03-07T09:07:54.422Z</time>
      </trkpt>
      <trkpt lat="45.57418" lon="5.37774">
        <ele>494</ele>
        <time>2021-03-07T09:07:55.422Z</time>
      </trkpt>
      <trkpt lat="45.57418" lon="5.37765">
        <ele>494</ele>
        <time>2021-03-07T09:07:56.423Z</time>
      </trkpt>
      <trkpt lat="45.57418" lon="5.37755">
        <ele>493</ele>
        <time>2021-03-07T09:07:57.423Z</time>
      </trkpt>
      <trkpt lat="45.57418" lon="5.37746">
        <ele>493</ele>
        <time>2021-03-07T09:07:58.423Z</time>
      </trkpt>
      <trkpt lat="45.57419" lon="5.37737">
        <ele>493</ele>
        <time>2021-03-07T09:07:59.423Z</time>
      </trkpt>
      <trkpt lat="45.5742" lon="5.37727">
        <ele>493</ele>
        <time>2021-03-07T09:08:00.423Z</time>
      </trkpt>
      <trkpt lat="45.57421" lon="5.37717">
        <ele>492</ele>
        <time>2021-03-07T09:08:01.423Z</time>
      </trkpt>
      <trkpt lat="45.57422" lon="5.37707">
        <ele>492</ele>
        <time>2021-03-07T09:08:02.423Z</time>
      </trkpt>
      <trkpt lat="45.57423" lon="5.37697">
        <ele>492</ele>
        <time>2021-03-07T09:08:03.423Z</time>
      </trkpt>
      <trkpt lat="45.57424" lon="5.37685">
        <ele>491</ele>
        <time>2021-03-07T09:08:04.423Z</time>
      </trkpt>
      <trkpt lat="45.57424" lon="5.37676">
        <ele>491</ele>
        <time>2021-03-07T09:08:05.423Z</time>
      </trkpt>
      <trkpt lat="45.57425" lon="5.37661">
        <ele>491</ele>
        <time>2021-03-07T09:08:06.423Z</time>
      </trkpt>
      <trkpt lat="45.57426" lon="5.37648">
        <ele>490</ele>
        <time>2021-03-07T09:08:07.423Z</time>
      </trkpt>
      <trkpt lat="45.57427" lon="5.37637">
        <ele>490</ele>
        <time>2021-03-07T09:08:08.423Z</time>
      </trkpt>
      <trkpt lat="45.57429" lon="5.37624">
        <ele>490</ele>
        <time>2021-03-07T09:08:09.423Z</time>
      </trkpt>
      <trkpt lat="45.57431" lon="5.37608">
        <ele>490</ele>
        <time>2021-03-07T09:08:10.422Z</time>
      </trkpt>
      <trkpt lat="45.57433" lon="5.37595">
        <ele>489</ele>
        <time>2021-03-07T09:08:11.422Z</time>
      </trkpt>
      <trkpt lat="45.57435" lon="5.37585">
        <ele>489</ele>
        <time>2021-03-07T09:08:12.422Z</time>
      </trkpt>
      <trkpt lat="45.57438" lon="5.3757">
        <ele>488</ele>
        <time>2021-03-07T09:08:13.423Z</time>
      </trkpt>
      <trkpt lat="45.57442" lon="5.37557">
        <ele>488</ele>
        <time>2021-03-07T09:08:14.423Z</time>
      </trkpt>
      <trkpt lat="45.57445" lon="5.37545">
        <ele>487</ele>
        <time>2021-03-07T09:08:15.422Z</time>
      </trkpt>
      <trkpt lat="45.57447" lon="5.37536">
        <ele>487</ele>
        <time>2021-03-07T09:08:16.422Z</time>
      </trkpt>
      <trkpt lat="45.5745" lon="5.37522">
        <ele>487</ele>
        <time>2021-03-07T09:08:17.423Z</time>
      </trkpt>
      <trkpt lat="45.57453" lon="5.37512">
        <ele>486</ele>
        <time>2021-03-07T09:08:18.423Z</time>
      </trkpt>
      <trkpt lat="45.57455" lon="5.37502">
        <ele>487</ele>
        <time>2021-03-07T09:08:19.423Z</time>
      </trkpt>
      <trkpt lat="45.57457" lon="5.37492">
        <ele>487</ele>
        <time>2021-03-07T09:08:20.423Z</time>
      </trkpt>
      <trkpt lat="45.57459" lon="5.37484">
        <ele>487</ele>
        <time>2021-03-07T09:08:21.422Z</time>
      </trkpt>
      <trkpt lat="45.57461" lon="5.37476">
        <ele>487</ele>
        <time>2021-03-07T09:08:22.423Z</time>
      </trkpt>
      <trkpt lat="45.57463" lon="5.37469">
        <ele>487</ele>
        <time>2021-03-07T09:08:23.422Z</time>
      </trkpt>
      <trkpt lat="45.57464" lon="5.37463">
        <ele>487</ele>
        <time>2021-03-07T09:08:24.423Z</time>
      </trkpt>
      <trkpt lat="45.57466" lon="5.37457">
        <ele>487</ele>
        <time>2021-03-07T09:08:25.423Z</time>
      </trkpt>
      <trkpt lat="45.57468" lon="5.37452">
        <ele>486</ele>
        <time>2021-03-07T09:08:26.423Z</time>
      </trkpt>
      <trkpt lat="45.5747" lon="5.37447">
        <ele>486</ele>
        <time>2021-03-07T09:08:27.423Z</time>
      </trkpt>
      <trkpt lat="45.57472" lon="5.37441">
        <ele>486</ele>
        <time>2021-03-07T09:08:28.423Z</time>
      </trkpt>
      <trkpt lat="45.57475" lon="5.37435">
        <ele>485</ele>
        <time>2021-03-07T09:08:29.422Z</time>
      </trkpt>
      <trkpt lat="45.57478" lon="5.3743">
        <ele>485</ele>
        <time>2021-03-07T09:08:30.422Z</time>
      </trkpt>
      <trkpt lat="45.57482" lon="5.37426">
        <ele>485</ele>
        <time>2021-03-07T09:08:31.423Z</time>
      </trkpt>
      <trkpt lat="45.57486" lon="5.37421">
        <ele>484</ele>
        <time>2021-03-07T09:08:32.423Z</time>
      </trkpt>
      <trkpt lat="45.57491" lon="5.37417">
        <ele>484</ele>
        <time>2021-03-07T09:08:33.423Z</time>
      </trkpt>
      <trkpt lat="45.57495" lon="5.37412">
        <ele>484</ele>
        <time>2021-03-07T09:08:34.422Z</time>
      </trkpt>
      <trkpt lat="45.57501" lon="5.37408">
        <ele>484</ele>
        <time>2021-03-07T09:08:35.423Z</time>
      </trkpt>
      <trkpt lat="45.57507" lon="5.37403">
        <ele>485</ele>
        <time>2021-03-07T09:08:36.422Z</time>
      </trkpt>
      <trkpt lat="45.57514" lon="5.37399">
        <ele>485</ele>
        <time>2021-03-07T09:08:37.423Z</time>
      </trkpt>
      <trkpt lat="45.5752" lon="5.37395">
        <ele>486</ele>
        <time>2021-03-07T09:08:38.422Z</time>
      </trkpt>
      <trkpt lat="45.57526" lon="5.37391">
        <ele>487</ele>
        <time>2021-03-07T09:08:39.423Z</time>
      </trkpt>
      <trkpt lat="45.57532" lon="5.37388">
        <ele>487</ele>
        <time>2021-03-07T09:08:40.422Z</time>
      </trkpt>
      <trkpt lat="45.57537" lon="5.37384">
        <ele>487</ele>
        <time>2021-03-07T09:08:41.422Z</time>
      </trkpt>
      <trkpt lat="45.57543" lon="5.37381">
        <ele>488</ele>
        <time>2021-03-07T09:08:42.423Z</time>
      </trkpt>
      <trkpt lat="45.57549" lon="5.37378">
        <ele>488</ele>
        <time>2021-03-07T09:08:43.422Z</time>
      </trkpt>
      <trkpt lat="45.57554" lon="5.37374">
        <ele>488</ele>
        <time>2021-03-07T09:08:44.423Z</time>
      </trkpt>
      <trkpt lat="45.5756" lon="5.37371">
        <ele>489</ele>
        <time>2021-03-07T09:08:45.422Z</time>
      </trkpt>
      <trkpt lat="45.57566" lon="5.37367">
        <ele>489</ele>
        <time>2021-03-07T09:08:46.423Z</time>
      </trkpt>
      <trkpt lat="45.57571" lon="5.37363">
        <ele>490</ele>
        <time>2021-03-07T09:08:47.423Z</time>
      </trkpt>
      <trkpt lat="45.57576" lon="5.3736">
        <ele>490</ele>
        <time>2021-03-07T09:08:48.423Z</time>
      </trkpt>
      <trkpt lat="45.57581" lon="5.37356">
        <ele>490</ele>
        <time>2021-03-07T09:08:49.423Z</time>
      </trkpt>
      <trkpt lat="45.57586" lon="5.37352">
        <ele>491</ele>
        <time>2021-03-07T09:08:50.422Z</time>
      </trkpt>
      <trkpt lat="45.57591" lon="5.37347">
        <ele>491</ele>
        <time>2021-03-07T09:08:51.423Z</time>
      </trkpt>
      <trkpt lat="45.57595" lon="5.37343">
        <ele>491</ele>
        <time>2021-03-07T09:08:52.422Z</time>
      </trkpt>
      <trkpt lat="45.57599" lon="5.37338">
        <ele>491</ele>
        <time>2021-03-07T09:08:53.423Z</time>
      </trkpt>
      <trkpt lat="45.57603" lon="5.37333">
        <ele>491</ele>
        <time>2021-03-07T09:08:54.422Z</time>
      </trkpt>
      <trkpt lat="45.57606" lon="5.37328">
        <ele>491</ele>
        <time>2021-03-07T09:08:55.423Z</time>
      </trkpt>
      <trkpt lat="45.5761" lon="5.37323">
        <ele>491</ele>
        <time>2021-03-07T09:08:56.423Z</time>
      </trkpt>
      <trkpt lat="45.57613" lon="5.37317">
        <ele>491</ele>
        <time>2021-03-07T09:08:57.423Z</time>
      </trkpt>
      <trkpt lat="45.57616" lon="5.37312">
        <ele>491</ele>
        <time>2021-03-07T09:08:58.423Z</time>
      </trkpt>
      <trkpt lat="45.57619" lon="5.37306">
        <ele>491</ele>
        <time>2021-03-07T09:08:59.423Z</time>
      </trkpt>
      <trkpt lat="45.57622" lon="5.373">
        <ele>491</ele>
        <time>2021-03-07T09:09:00.423Z</time>
      </trkpt>
      <trkpt lat="45.57625" lon="5.37294">
        <ele>491</ele>
        <time>2021-03-07T09:09:01.422Z</time>
      </trkpt>
      <trkpt lat="45.57627" lon="5.37287">
        <ele>491</ele>
        <time>2021-03-07T09:09:02.422Z</time>
      </trkpt>
      <trkpt lat="45.57629" lon="5.37281">
        <ele>491</ele>
        <time>2021-03-07T09:09:03.423Z</time>
      </trkpt>
      <trkpt lat="45.57631" lon="5.37275">
        <ele>490</ele>
        <time>2021-03-07T09:09:04.423Z</time>
      </trkpt>
      <trkpt lat="45.57633" lon="5.37269">
        <ele>490</ele>
        <time>2021-03-07T09:09:05.423Z</time>
      </trkpt>
      <trkpt lat="45.57636" lon="5.37263">
        <ele>490</ele>
        <time>2021-03-07T09:09:06.423Z</time>
      </trkpt>
      <trkpt lat="45.57638" lon="5.37257">
        <ele>490</ele>
        <time>2021-03-07T09:09:07.423Z</time>
      </trkpt>
      <trkpt lat="45.57641" lon="5.3725">
        <ele>490</ele>
        <time>2021-03-07T09:09:08.423Z</time>
      </trkpt>
      <trkpt lat="45.57643" lon="5.37243">
        <ele>490</ele>
        <time>2021-03-07T09:09:09.422Z</time>
      </trkpt>
      <trkpt lat="45.57645" lon="5.37235">
        <ele>490</ele>
        <time>2021-03-07T09:09:10.423Z</time>
      </trkpt>
      <trkpt lat="45.57647" lon="5.37228">
        <ele>490</ele>
        <time>2021-03-07T09:09:11.423Z</time>
      </trkpt>
      <trkpt lat="45.57649" lon="5.37221">
        <ele>490</ele>
        <time>2021-03-07T09:09:12.423Z</time>
      </trkpt>
      <trkpt lat="45.57651" lon="5.37213">
        <ele>490</ele>
        <time>2021-03-07T09:09:13.423Z</time>
      </trkpt>
      <trkpt lat="45.57654" lon="5.37206">
        <ele>490</ele>
        <time>2021-03-07T09:09:14.423Z</time>
      </trkpt>
      <trkpt lat="45.57656" lon="5.37199">
        <ele>489</ele>
        <time>2021-03-07T09:09:15.422Z</time>
      </trkpt>
      <trkpt lat="45.57659" lon="5.37191">
        <ele>489</ele>
        <time>2021-03-07T09:09:16.423Z</time>
      </trkpt>
      <trkpt lat="45.57661" lon="5.37184">
        <ele>489</ele>
        <time>2021-03-07T09:09:17.423Z</time>
      </trkpt>
      <trkpt lat="45.57663" lon="5.37177">
        <ele>489</ele>
        <time>2021-03-07T09:09:18.423Z</time>
      </trkpt>
      <trkpt lat="45.57665" lon="5.37169">
        <ele>488</ele>
        <time>2021-03-07T09:09:19.423Z</time>
      </trkpt>
      <trkpt lat="45.57668" lon="5.37162">
        <ele>488</ele>
        <time>2021-03-07T09:09:20.423Z</time>
      </trkpt>
      <trkpt lat="45.57671" lon="5.37155">
        <ele>488</ele>
        <time>2021-03-07T09:09:21.422Z</time>
      </trkpt>
      <trkpt lat="45.57674" lon="5.37147">
        <ele>488</ele>
        <time>2021-03-07T09:09:22.422Z</time>
      </trkpt>
      <trkpt lat="45.57678" lon="5.3714">
        <ele>488</ele>
        <time>2021-03-07T09:09:23.423Z</time>
      </trkpt>
      <trkpt lat="45.57681" lon="5.37132">
        <ele>488</ele>
        <time>2021-03-07T09:09:24.423Z</time>
      </trkpt>
      <trkpt lat="45.57684" lon="5.37124">
        <ele>487</ele>
        <time>2021-03-07T09:09:25.423Z</time>
      </trkpt>
      <trkpt lat="45.57687" lon="5.37116">
        <ele>487</ele>
        <time>2021-03-07T09:09:26.423Z</time>
      </trkpt>
      <trkpt lat="45.5769" lon="5.37107">
        <ele>487</ele>
        <time>2021-03-07T09:09:27.423Z</time>
      </trkpt>
      <trkpt lat="45.57693" lon="5.37099">
        <ele>486</ele>
        <time>2021-03-07T09:09:28.423Z</time>
      </trkpt>
      <trkpt lat="45.57695" lon="5.3709">
        <ele>486</ele>
        <time>2021-03-07T09:09:29.422Z</time>
      </trkpt>
      <trkpt lat="45.57697" lon="5.37081">
        <ele>486</ele>
        <time>2021-03-07T09:09:30.423Z</time>
      </trkpt>
      <trkpt lat="45.57699" lon="5.37072">
        <ele>486</ele>
        <time>2021-03-07T09:09:31.423Z</time>
      </trkpt>
      <trkpt lat="45.57701" lon="5.37063">
        <ele>486</ele>
        <time>2021-03-07T09:09:32.423Z</time>
      </trkpt>
      <trkpt lat="45.57702" lon="5.37054">
        <ele>485</ele>
        <time>2021-03-07T09:09:33.422Z</time>
      </trkpt>
      <trkpt lat="45.57704" lon="5.37045">
        <ele>485</ele>
        <time>2021-03-07T09:09:34.422Z</time>
      </trkpt>
      <trkpt lat="45.57705" lon="5.37036">
        <ele>485</ele>
        <time>2021-03-07T09:09:35.423Z</time>
      </trkpt>
      <trkpt lat="45.57706" lon="5.37027">
        <ele>485</ele>
        <time>2021-03-07T09:09:36.423Z</time>
      </trkpt>
      <trkpt lat="45.57708" lon="5.37018">
        <ele>485</ele>
        <time>2021-03-07T09:09:37.423Z</time>
      </trkpt>
      <trkpt lat="45.5771" lon="5.3701">
        <ele>485</ele>
        <time>2021-03-07T09:09:38.423Z</time>
      </trkpt>
      <trkpt lat="45.57713" lon="5.37002">
        <ele>485</ele>
        <time>2021-03-07T09:09:39.423Z</time>
      </trkpt>
      <trkpt lat="45.57715" lon="5.36993">
        <ele>485</ele>
        <time>2021-03-07T09:09:40.422Z</time>
      </trkpt>
      <trkpt lat="45.57718" lon="5.36985">
        <ele>484</ele>
        <time>2021-03-07T09:09:41.422Z</time>
      </trkpt>
      <trkpt lat="45.57721" lon="5.36977">
        <ele>484</ele>
        <time>2021-03-07T09:09:42.423Z</time>
      </trkpt>
      <trkpt lat="45.57724" lon="5.36968">
        <ele>484</ele>
        <time>2021-03-07T09:09:43.422Z</time>
      </trkpt>
      <trkpt lat="45.57727" lon="5.3696">
        <ele>484</ele>
        <time>2021-03-07T09:09:44.422Z</time>
      </trkpt>
      <trkpt lat="45.57731" lon="5.36952">
        <ele>484</ele>
        <time>2021-03-07T09:09:45.423Z</time>
      </trkpt>
      <trkpt lat="45.57734" lon="5.36944">
        <ele>484</ele>
        <time>2021-03-07T09:09:46.422Z</time>
      </trkpt>
      <trkpt lat="45.57738" lon="5.36936">
        <ele>484</ele>
        <time>2021-03-07T09:09:47.422Z</time>
      </trkpt>
      <trkpt lat="45.57741" lon="5.36928">
        <ele>484</ele>
        <time>2021-03-07T09:09:48.423Z</time>
      </trkpt>
      <trkpt lat="45.57744" lon="5.36921">
        <ele>484</ele>
        <time>2021-03-07T09:09:49.422Z</time>
      </trkpt>
      <trkpt lat="45.57748" lon="5.36913">
        <ele>484</ele>
        <time>2021-03-07T09:09:50.422Z</time>
      </trkpt>
      <trkpt lat="45.57751" lon="5.36905">
        <ele>484</ele>
        <time>2021-03-07T09:09:51.423Z</time>
      </trkpt>
      <trkpt lat="45.57754" lon="5.36898">
        <ele>484</ele>
        <time>2021-03-07T09:09:52.423Z</time>
      </trkpt>
      <trkpt lat="45.57757" lon="5.3689">
        <ele>484</ele>
        <time>2021-03-07T09:09:53.422Z</time>
      </trkpt>
      <trkpt lat="45.57759" lon="5.36884">
        <ele>484</ele>
        <time>2021-03-07T09:09:54.422Z</time>
      </trkpt>
      <trkpt lat="45.57761" lon="5.36876">
        <ele>484</ele>
        <time>2021-03-07T09:09:55.423Z</time>
      </trkpt>
      <trkpt lat="45.57763" lon="5.36867">
        <ele>484</ele>
        <time>2021-03-07T09:09:56.422Z</time>
      </trkpt>
      <trkpt lat="45.57766" lon="5.36859">
        <ele>484</ele>
        <time>2021-03-07T09:09:57.423Z</time>
      </trkpt>
      <trkpt lat="45.57768" lon="5.36852">
        <ele>484</ele>
        <time>2021-03-07T09:09:58.423Z</time>
      </trkpt>
      <trkpt lat="45.57769" lon="5.36846">
        <ele>484</ele>
        <time>2021-03-07T09:09:59.422Z</time>
      </trkpt>
      <trkpt lat="45.57771" lon="5.36838">
        <ele>484</ele>
        <time>2021-03-07T09:10:00.422Z</time>
      </trkpt>
      <trkpt lat="45.57772" lon="5.3683">
        <ele>484</ele>
        <time>2021-03-07T09:10:01.423Z</time>
      </trkpt>
      <trkpt lat="45.57774" lon="5.36821">
        <ele>484</ele>
        <time>2021-03-07T09:10:02.422Z</time>
      </trkpt>
      <trkpt lat="45.57775" lon="5.36812">
        <ele>484</ele>
        <time>2021-03-07T09:10:03.423Z</time>
      </trkpt>
      <trkpt lat="45.57776" lon="5.36806">
        <ele>484</ele>
        <time>2021-03-07T09:10:04.423Z</time>
      </trkpt>
      <trkpt lat="45.57777" lon="5.36798">
        <ele>484</ele>
        <time>2021-03-07T09:10:05.423Z</time>
      </trkpt>
      <trkpt lat="45.57778" lon="5.36789">
        <ele>484</ele>
        <time>2021-03-07T09:10:06.423Z</time>
      </trkpt>
      <trkpt lat="45.57778" lon="5.36781">
        <ele>484</ele>
        <time>2021-03-07T09:10:07.422Z</time>
      </trkpt>
      <trkpt lat="45.57778" lon="5.36775">
        <ele>484</ele>
        <time>2021-03-07T09:10:08.423Z</time>
      </trkpt>
      <trkpt lat="45.57779" lon="5.36768">
        <ele>484</ele>
        <time>2021-03-07T09:10:09.422Z</time>
      </trkpt>
      <trkpt lat="45.57779" lon="5.3676">
        <ele>484</ele>
        <time>2021-03-07T09:10:10.423Z</time>
      </trkpt>
      <trkpt lat="45.5778" lon="5.36752">
        <ele>484</ele>
        <time>2021-03-07T09:10:11.423Z</time>
      </trkpt>
      <trkpt lat="45.5778" lon="5.36744">
        <ele>485</ele>
        <time>2021-03-07T09:10:12.422Z</time>
      </trkpt>
      <trkpt lat="45.5778" lon="5.36738">
        <ele>485</ele>
        <time>2021-03-07T09:10:13.423Z</time>
      </trkpt>
      <trkpt lat="45.5778" lon="5.36731">
        <ele>485</ele>
        <time>2021-03-07T09:10:14.423Z</time>
      </trkpt>
      <trkpt lat="45.57781" lon="5.36724">
        <ele>486</ele>
        <time>2021-03-07T09:10:15.423Z</time>
      </trkpt>
      <trkpt lat="45.57781" lon="5.36716">
        <ele>486</ele>
        <time>2021-03-07T09:10:16.423Z</time>
      </trkpt>
      <trkpt lat="45.57781" lon="5.36709">
        <ele>487</ele>
        <time>2021-03-07T09:10:17.423Z</time>
      </trkpt>
      <trkpt lat="45.5778" lon="5.36702">
        <ele>487</ele>
        <time>2021-03-07T09:10:18.423Z</time>
      </trkpt>
      <trkpt lat="45.5778" lon="5.36696">
        <ele>488</ele>
        <time>2021-03-07T09:10:19.423Z</time>
      </trkpt>
      <trkpt lat="45.5778" lon="5.36689">
        <ele>488</ele>
        <time>2021-03-07T09:10:20.423Z</time>
      </trkpt>
      <trkpt lat="45.57781" lon="5.3668">
        <ele>489</ele>
        <time>2021-03-07T09:10:21.423Z</time>
      </trkpt>
      <trkpt lat="45.57781" lon="5.36673">
        <ele>489</ele>
        <time>2021-03-07T09:10:22.423Z</time>
      </trkpt>
      <trkpt lat="45.57781" lon="5.36666">
        <ele>489</ele>
        <time>2021-03-07T09:10:23.423Z</time>
      </trkpt>
      <trkpt lat="45.57781" lon="5.36661">
        <ele>490</ele>
        <time>2021-03-07T09:10:24.423Z</time>
      </trkpt>
      <trkpt lat="45.57782" lon="5.36654">
        <ele>490</ele>
        <time>2021-03-07T09:10:25.423Z</time>
      </trkpt>
      <trkpt lat="45.57782" lon="5.36648">
        <ele>491</ele>
        <time>2021-03-07T09:10:26.423Z</time>
      </trkpt>
      <trkpt lat="45.57783" lon="5.36641">
        <ele>491</ele>
        <time>2021-03-07T09:10:27.423Z</time>
      </trkpt>
      <trkpt lat="45.57783" lon="5.36636">
        <ele>492</ele>
        <time>2021-03-07T09:10:28.423Z</time>
      </trkpt>
      <trkpt lat="45.57784" lon="5.3663">
        <ele>493</ele>
        <time>2021-03-07T09:10:29.423Z</time>
      </trkpt>
      <trkpt lat="45.57783" lon="5.36624">
        <ele>493</ele>
        <time>2021-03-07T09:10:30.423Z</time>
      </trkpt>
      <trkpt lat="45.57782" lon="5.36618">
        <ele>494</ele>
        <time>2021-03-07T09:10:31.422Z</time>
      </trkpt>
      <trkpt lat="45.57778" lon="5.36614">
        <ele>494</ele>
        <time>2021-03-07T09:10:32.423Z</time>
      </trkpt>
      <trkpt lat="45.57775" lon="5.36611">
        <ele>494</ele>
        <time>2021-03-07T09:10:33.423Z</time>
      </trkpt>
      <trkpt lat="45.5777" lon="5.3661">
        <ele>494</ele>
        <time>2021-03-07T09:10:34.423Z</time>
      </trkpt>
      <trkpt lat="45.57766" lon="5.3661">
        <ele>493</ele>
        <time>2021-03-07T09:10:35.423Z</time>
      </trkpt>
      <trkpt lat="45.57761" lon="5.36611">
        <ele>493</ele>
        <time>2021-03-07T09:10:36.423Z</time>
      </trkpt>
      <trkpt lat="45.57756" lon="5.36612">
        <ele>493</ele>
        <time>2021-03-07T09:10:37.423Z</time>
      </trkpt>
      <trkpt lat="45.57751" lon="5.36613">
        <ele>493</ele>
        <time>2021-03-07T09:10:38.422Z</time>
      </trkpt>
      <trkpt lat="45.57745" lon="5.36615">
        <ele>493</ele>
        <time>2021-03-07T09:10:39.422Z</time>
      </trkpt>
      <trkpt lat="45.5774" lon="5.36616">
        <ele>493</ele>
        <time>2021-03-07T09:10:40.423Z</time>
      </trkpt>
      <trkpt lat="45.57735" lon="5.36618">
        <ele>493</ele>
        <time>2021-03-07T09:10:41.423Z</time>
      </trkpt>
      <trkpt lat="45.57729" lon="5.36619">
        <ele>493</ele>
        <time>2021-03-07T09:10:42.423Z</time>
      </trkpt>
      <trkpt lat="45.57724" lon="5.36621">
        <ele>492</ele>
        <time>2021-03-07T09:10:43.422Z</time>
      </trkpt>
      <trkpt lat="45.57718" lon="5.36623">
        <ele>492</ele>
        <time>2021-03-07T09:10:44.423Z</time>
      </trkpt>
      <trkpt lat="45.57713" lon="5.36625">
        <ele>491</ele>
        <time>2021-03-07T09:10:45.422Z</time>
      </trkpt>
      <trkpt lat="45.57708" lon="5.36626">
        <ele>491</ele>
        <time>2021-03-07T09:10:46.423Z</time>
      </trkpt>
      <trkpt lat="45.57703" lon="5.36628">
        <ele>491</ele>
        <time>2021-03-07T09:10:47.422Z</time>
      </trkpt>
      <trkpt lat="45.57697" lon="5.3663">
        <ele>492</ele>
        <time>2021-03-07T09:10:48.423Z</time>
      </trkpt>
      <trkpt lat="45.57692" lon="5.36632">
        <ele>492</ele>
        <time>2021-03-07T09:10:49.423Z</time>
      </trkpt>
      <trkpt lat="45.57687" lon="5.36634">
        <ele>492</ele>
        <time>2021-03-07T09:10:50.422Z</time>
      </trkpt>
      <trkpt lat="45.57682" lon="5.36635">
        <ele>492</ele>
        <time>2021-03-07T09:10:51.423Z</time>
      </trkpt>
      <trkpt lat="45.57677" lon="5.36637">
        <ele>492</ele>
        <time>2021-03-07T09:10:52.422Z</time>
      </trkpt>
      <trkpt lat="45.57672" lon="5.36639">
        <ele>493</ele>
        <time>2021-03-07T09:10:53.422Z</time>
      </trkpt>
      <trkpt lat="45.57667" lon="5.36641">
        <ele>493</ele>
        <time>2021-03-07T09:10:54.422Z</time>
      </trkpt>
      <trkpt lat="45.57662" lon="5.36643">
        <ele>493</ele>
        <time>2021-03-07T09:10:55.423Z</time>
      </trkpt>
      <trkpt lat="45.57657" lon="5.36645">
        <ele>493</ele>
        <time>2021-03-07T09:10:56.422Z</time>
      </trkpt>
      <trkpt lat="45.57652" lon="5.36646">
        <ele>494</ele>
        <time>2021-03-07T09:10:57.422Z</time>
      </trkpt>
      <trkpt lat="45.57648" lon="5.36647">
        <ele>494</ele>
        <time>2021-03-07T09:10:58.422Z</time>
      </trkpt>
      <trkpt lat="45.57643" lon="5.36646">
        <ele>494</ele>
        <time>2021-03-07T09:10:59.422Z</time>
      </trkpt>
      <trkpt lat="45.57638" lon="5.36644">
        <ele>494</ele>
        <time>2021-03-07T09:11:00.423Z</time>
      </trkpt>
      <trkpt lat="45.57634" lon="5.36641">
        <ele>494</ele>
        <time>2021-03-07T09:11:01.422Z</time>
      </trkpt>
      <trkpt lat="45.57631" lon="5.36635">
        <ele>494</ele>
        <time>2021-03-07T09:11:02.422Z</time>
      </trkpt>
      <trkpt lat="45.57628" lon="5.36629">
        <ele>494</ele>
        <time>2021-03-07T09:11:03.422Z</time>
      </trkpt>
      <trkpt lat="45.57627" lon="5.36622">
        <ele>494</ele>
        <time>2021-03-07T09:11:04.422Z</time>
      </trkpt>
      <trkpt lat="45.57626" lon="5.36615">
        <ele>494</ele>
        <time>2021-03-07T09:11:05.423Z</time>
      </trkpt>
      <trkpt lat="45.57624" lon="5.36607">
        <ele>494</ele>
        <time>2021-03-07T09:11:06.423Z</time>
      </trkpt>
      <trkpt lat="45.57623" lon="5.36599">
        <ele>494</ele>
        <time>2021-03-07T09:11:07.422Z</time>
      </trkpt>
      <trkpt lat="45.57622" lon="5.36589">
        <ele>494</ele>
        <time>2021-03-07T09:11:08.423Z</time>
      </trkpt>
      <trkpt lat="45.57621" lon="5.36579">
        <ele>494</ele>
        <time>2021-03-07T09:11:09.423Z</time>
      </trkpt>
      <trkpt lat="45.5762" lon="5.36571">
        <ele>494</ele>
        <time>2021-03-07T09:11:10.423Z</time>
      </trkpt>
      <trkpt lat="45.57618" lon="5.36562">
        <ele>494</ele>
        <time>2021-03-07T09:11:11.423Z</time>
      </trkpt>
      <trkpt lat="45.57617" lon="5.36553">
        <ele>493</ele>
        <time>2021-03-07T09:11:12.423Z</time>
      </trkpt>
      <trkpt lat="45.57616" lon="5.36545">
        <ele>493</ele>
        <time>2021-03-07T09:11:13.423Z</time>
      </trkpt>
      <trkpt lat="45.57614" lon="5.36536">
        <ele>493</ele>
        <time>2021-03-07T09:11:14.423Z</time>
      </trkpt>
      <trkpt lat="45.57612" lon="5.36527">
        <ele>494</ele>
        <time>2021-03-07T09:11:15.423Z</time>
      </trkpt>
      <trkpt lat="45.57611" lon="5.36519">
        <ele>494</ele>
        <time>2021-03-07T09:11:16.423Z</time>
      </trkpt>
      <trkpt lat="45.57609" lon="5.36511">
        <ele>494</ele>
        <time>2021-03-07T09:11:17.423Z</time>
      </trkpt>
      <trkpt lat="45.57607" lon="5.36502">
        <ele>495</ele>
        <time>2021-03-07T09:11:18.423Z</time>
      </trkpt>
      <trkpt lat="45.57605" lon="5.36495">
        <ele>495</ele>
        <time>2021-03-07T09:11:19.423Z</time>
      </trkpt>
      <trkpt lat="45.57602" lon="5.36487">
        <ele>495</ele>
        <time>2021-03-07T09:11:20.423Z</time>
      </trkpt>
      <trkpt lat="45.576" lon="5.36479">
        <ele>495</ele>
        <time>2021-03-07T09:11:21.423Z</time>
      </trkpt>
      <trkpt lat="45.57598" lon="5.36471">
        <ele>495</ele>
        <time>2021-03-07T09:11:22.423Z</time>
      </trkpt>
      <trkpt lat="45.57596" lon="5.36464">
        <ele>495</ele>
        <time>2021-03-07T09:11:23.422Z</time>
      </trkpt>
      <trkpt lat="45.57594" lon="5.36456">
        <ele>495</ele>
        <time>2021-03-07T09:11:24.423Z</time>
      </trkpt>
      <trkpt lat="45.57592" lon="5.36448">
        <ele>495</ele>
        <time>2021-03-07T09:11:25.423Z</time>
      </trkpt>
      <trkpt lat="45.5759" lon="5.3644">
        <ele>495</ele>
        <time>2021-03-07T09:11:26.423Z</time>
      </trkpt>
      <trkpt lat="45.57588" lon="5.36432">
        <ele>496</ele>
        <time>2021-03-07T09:11:27.423Z</time>
      </trkpt>
      <trkpt lat="45.57586" lon="5.36423">
        <ele>496</ele>
        <time>2021-03-07T09:11:28.423Z</time>
      </trkpt>
      <trkpt lat="45.57585" lon="5.36415">
        <ele>496</ele>
        <time>2021-03-07T09:11:29.423Z</time>
      </trkpt>
      <trkpt lat="45.57583" lon="5.36406">
        <ele>496</ele>
        <time>2021-03-07T09:11:30.422Z</time>
      </trkpt>
      <trkpt lat="45.57583" lon="5.36397">
        <ele>497</ele>
        <time>2021-03-07T09:11:31.423Z</time>
      </trkpt>
      <trkpt lat="45.57581" lon="5.36388">
        <ele>497</ele>
        <time>2021-03-07T09:11:32.422Z</time>
      </trkpt>
      <trkpt lat="45.5758" lon="5.36379">
        <ele>497</ele>
        <time>2021-03-07T09:11:33.422Z</time>
      </trkpt>
      <trkpt lat="45.57579" lon="5.3637">
        <ele>498</ele>
        <time>2021-03-07T09:11:34.422Z</time>
      </trkpt>
      <trkpt lat="45.57578" lon="5.36361">
        <ele>498</ele>
        <time>2021-03-07T09:11:35.422Z</time>
      </trkpt>
      <trkpt lat="45.57578" lon="5.36353">
        <ele>498</ele>
        <time>2021-03-07T09:11:36.422Z</time>
      </trkpt>
      <trkpt lat="45.57578" lon="5.36344">
        <ele>498</ele>
        <time>2021-03-07T09:11:37.422Z</time>
      </trkpt>
      <trkpt lat="45.57577" lon="5.36336">
        <ele>498</ele>
        <time>2021-03-07T09:11:38.423Z</time>
      </trkpt>
      <trkpt lat="45.57577" lon="5.36328">
        <ele>498</ele>
        <time>2021-03-07T09:11:39.422Z</time>
      </trkpt>
      <trkpt lat="45.57577" lon="5.3632">
        <ele>498</ele>
        <time>2021-03-07T09:11:40.423Z</time>
      </trkpt>
      <trkpt lat="45.57578" lon="5.36313">
        <ele>498</ele>
        <time>2021-03-07T09:11:41.423Z</time>
      </trkpt>
      <trkpt lat="45.57578" lon="5.36304">
        <ele>498</ele>
        <time>2021-03-07T09:11:42.423Z</time>
      </trkpt>
      <trkpt lat="45.57578" lon="5.36296">
        <ele>498</ele>
        <time>2021-03-07T09:11:43.423Z</time>
      </trkpt>
      <trkpt lat="45.57579" lon="5.36288">
        <ele>497</ele>
        <time>2021-03-07T09:11:44.423Z</time>
      </trkpt>
      <trkpt lat="45.57579" lon="5.3628">
        <ele>497</ele>
        <time>2021-03-07T09:11:45.423Z</time>
      </trkpt>
      <trkpt lat="45.5758" lon="5.36271">
        <ele>497</ele>
        <time>2021-03-07T09:11:46.423Z</time>
      </trkpt>
      <trkpt lat="45.5758" lon="5.36263">
        <ele>497</ele>
        <time>2021-03-07T09:11:47.423Z</time>
      </trkpt>
      <trkpt lat="45.57581" lon="5.36255">
        <ele>497</ele>
        <time>2021-03-07T09:11:48.423Z</time>
      </trkpt>
      <trkpt lat="45.57582" lon="5.36247">
        <ele>497</ele>
        <time>2021-03-07T09:11:49.423Z</time>
      </trkpt>
      <trkpt lat="45.57583" lon="5.36239">
        <ele>497</ele>
        <time>2021-03-07T09:11:50.423Z</time>
      </trkpt>
      <trkpt lat="45.57583" lon="5.3623">
        <ele>497</ele>
        <time>2021-03-07T09:11:51.423Z</time>
      </trkpt>
      <trkpt lat="45.57584" lon="5.36222">
        <ele>498</ele>
        <time>2021-03-07T09:11:52.423Z</time>
      </trkpt>
      <trkpt lat="45.57585" lon="5.36213">
        <ele>498</ele>
        <time>2021-03-07T09:11:53.423Z</time>
      </trkpt>
      <trkpt lat="45.57587" lon="5.36204">
        <ele>498</ele>
        <time>2021-03-07T09:11:54.423Z</time>
      </trkpt>
      <trkpt lat="45.57588" lon="5.36196">
        <ele>498</ele>
        <time>2021-03-07T09:11:55.423Z</time>
      </trkpt>
      <trkpt lat="45.57589" lon="5.36187">
        <ele>498</ele>
        <time>2021-03-07T09:11:56.423Z</time>
      </trkpt>
      <trkpt lat="45.5759" lon="5.36177">
        <ele>499</ele>
        <time>2021-03-07T09:11:57.423Z</time>
      </trkpt>
      <trkpt lat="45.57591" lon="5.36168">
        <ele>499</ele>
        <time>2021-03-07T09:11:58.423Z</time>
      </trkpt>
      <trkpt lat="45.57592" lon="5.36158">
        <ele>499</ele>
        <time>2021-03-07T09:11:59.423Z</time>
      </trkpt>
      <trkpt lat="45.57594" lon="5.36148">
        <ele>498</ele>
        <time>2021-03-07T09:12:00.423Z</time>
      </trkpt>
      <trkpt lat="45.57596" lon="5.36138">
        <ele>498</ele>
        <time>2021-03-07T09:12:01.423Z</time>
      </trkpt>
      <trkpt lat="45.57599" lon="5.36128">
        <ele>498</ele>
        <time>2021-03-07T09:12:02.423Z</time>
      </trkpt>
      <trkpt lat="45.57602" lon="5.36118">
        <ele>497</ele>
        <time>2021-03-07T09:12:03.423Z</time>
      </trkpt>
      <trkpt lat="45.57605" lon="5.36109">
        <ele>497</ele>
        <time>2021-03-07T09:12:04.423Z</time>
      </trkpt>
      <trkpt lat="45.5761" lon="5.36099">
        <ele>497</ele>
        <time>2021-03-07T09:12:05.423Z</time>
      </trkpt>
      <trkpt lat="45.57615" lon="5.36089">
        <ele>497</ele>
        <time>2021-03-07T09:12:06.422Z</time>
      </trkpt>
      <trkpt lat="45.57621" lon="5.3608">
        <ele>496</ele>
        <time>2021-03-07T09:12:07.422Z</time>
      </trkpt>
      <trkpt lat="45.57627" lon="5.36071">
        <ele>496</ele>
        <time>2021-03-07T09:12:08.423Z</time>
      </trkpt>
      <trkpt lat="45.57634" lon="5.36062">
        <ele>495</ele>
        <time>2021-03-07T09:12:09.423Z</time>
      </trkpt>
      <trkpt lat="45.5764" lon="5.36053">
        <ele>495</ele>
        <time>2021-03-07T09:12:10.423Z</time>
      </trkpt>
      <trkpt lat="45.57647" lon="5.36044">
        <ele>495</ele>
        <time>2021-03-07T09:12:11.423Z</time>
      </trkpt>
      <trkpt lat="45.57654" lon="5.36035">
        <ele>495</ele>
        <time>2021-03-07T09:12:12.423Z</time>
      </trkpt>
      <trkpt lat="45.57661" lon="5.36027">
        <ele>495</ele>
        <time>2021-03-07T09:12:13.422Z</time>
      </trkpt>
      <trkpt lat="45.57668" lon="5.36018">
        <ele>495</ele>
        <time>2021-03-07T09:12:14.422Z</time>
      </trkpt>
      <trkpt lat="45.57675" lon="5.36009">
        <ele>495</ele>
        <time>2021-03-07T09:12:15.422Z</time>
      </trkpt>
      <trkpt lat="45.57681" lon="5.36">
        <ele>495</ele>
        <time>2021-03-07T09:12:16.423Z</time>
      </trkpt>
      <trkpt lat="45.57687" lon="5.3599">
        <ele>495</ele>
        <time>2021-03-07T09:12:17.422Z</time>
      </trkpt>
      <trkpt lat="45.57692" lon="5.3598">
        <ele>495</ele>
        <time>2021-03-07T09:12:18.422Z</time>
      </trkpt>
      <trkpt lat="45.57697" lon="5.35973">
        <ele>494</ele>
        <time>2021-03-07T09:12:19.422Z</time>
      </trkpt>
      <trkpt lat="45.57702" lon="5.35963">
        <ele>493</ele>
        <time>2021-03-07T09:12:20.422Z</time>
      </trkpt>
      <trkpt lat="45.57707" lon="5.35954">
        <ele>492</ele>
        <time>2021-03-07T09:12:21.423Z</time>
      </trkpt>
      <trkpt lat="45.57711" lon="5.35945">
        <ele>491</ele>
        <time>2021-03-07T09:12:22.423Z</time>
      </trkpt>
      <trkpt lat="45.57716" lon="5.35934">
        <ele>491</ele>
        <time>2021-03-07T09:12:23.423Z</time>
      </trkpt>
      <trkpt lat="45.57719" lon="5.35927">
        <ele>490</ele>
        <time>2021-03-07T09:12:24.423Z</time>
      </trkpt>
      <trkpt lat="45.57725" lon="5.35918">
        <ele>490</ele>
        <time>2021-03-07T09:12:25.423Z</time>
      </trkpt>
      <trkpt lat="45.57729" lon="5.35907">
        <ele>490</ele>
        <time>2021-03-07T09:12:26.423Z</time>
      </trkpt>
      <trkpt lat="45.57732" lon="5.359">
        <ele>489</ele>
        <time>2021-03-07T09:12:27.422Z</time>
      </trkpt>
      <trkpt lat="45.57736" lon="5.3589">
        <ele>489</ele>
        <time>2021-03-07T09:12:28.423Z</time>
      </trkpt>
      <trkpt lat="45.57738" lon="5.35883">
        <ele>489</ele>
        <time>2021-03-07T09:12:29.423Z</time>
      </trkpt>
      <trkpt lat="45.57741" lon="5.35874">
        <ele>489</ele>
        <time>2021-03-07T09:12:30.422Z</time>
      </trkpt>
      <trkpt lat="45.57745" lon="5.35865">
        <ele>488</ele>
        <time>2021-03-07T09:12:31.422Z</time>
      </trkpt>
      <trkpt lat="45.57748" lon="5.35857">
        <ele>488</ele>
        <time>2021-03-07T09:12:32.422Z</time>
      </trkpt>
      <trkpt lat="45.57751" lon="5.35849">
        <ele>487</ele>
        <time>2021-03-07T09:12:33.423Z</time>
      </trkpt>
      <trkpt lat="45.57754" lon="5.35841">
        <ele>486</ele>
        <time>2021-03-07T09:12:34.423Z</time>
      </trkpt>
      <trkpt lat="45.57757" lon="5.35835">
        <ele>486</ele>
        <time>2021-03-07T09:12:35.423Z</time>
      </trkpt>
      <trkpt lat="45.57761" lon="5.35826">
        <ele>485</ele>
        <time>2021-03-07T09:12:36.423Z</time>
      </trkpt>
      <trkpt lat="45.57764" lon="5.35818">
        <ele>485</ele>
        <time>2021-03-07T09:12:37.423Z</time>
      </trkpt>
      <trkpt lat="45.57767" lon="5.35811">
        <ele>485</ele>
        <time>2021-03-07T09:12:38.423Z</time>
      </trkpt>
      <trkpt lat="45.57769" lon="5.35803">
        <ele>485</ele>
        <time>2021-03-07T09:12:39.423Z</time>
      </trkpt>
      <trkpt lat="45.57772" lon="5.35796">
        <ele>485</ele>
        <time>2021-03-07T09:12:40.423Z</time>
      </trkpt>
      <trkpt lat="45.57775" lon="5.35787">
        <ele>485</ele>
        <time>2021-03-07T09:12:41.423Z</time>
      </trkpt>
      <trkpt lat="45.57778" lon="5.35779">
        <ele>485</ele>
        <time>2021-03-07T09:12:42.423Z</time>
      </trkpt>
      <trkpt lat="45.57781" lon="5.3577">
        <ele>485</ele>
        <time>2021-03-07T09:12:43.422Z</time>
      </trkpt>
      <trkpt lat="45.57785" lon="5.35762">
        <ele>485</ele>
        <time>2021-03-07T09:12:44.423Z</time>
      </trkpt>
      <trkpt lat="45.57788" lon="5.35753">
        <ele>485</ele>
        <time>2021-03-07T09:12:45.423Z</time>
      </trkpt>
      <trkpt lat="45.5779" lon="5.35744">
        <ele>486</ele>
        <time>2021-03-07T09:12:46.423Z</time>
      </trkpt>
      <trkpt lat="45.57793" lon="5.35735">
        <ele>486</ele>
        <time>2021-03-07T09:12:47.423Z</time>
      </trkpt>
      <trkpt lat="45.57796" lon="5.35726">
        <ele>487</ele>
        <time>2021-03-07T09:12:48.423Z</time>
      </trkpt>
      <trkpt lat="45.57798" lon="5.35716">
        <ele>487</ele>
        <time>2021-03-07T09:12:49.422Z</time>
      </trkpt>
      <trkpt lat="45.578" lon="5.35706">
        <ele>487</ele>
        <time>2021-03-07T09:12:50.423Z</time>
      </trkpt>
      <trkpt lat="45.57802" lon="5.35697">
        <ele>487</ele>
        <time>2021-03-07T09:12:51.422Z</time>
      </trkpt>
      <trkpt lat="45.57804" lon="5.35687">
        <ele>488</ele>
        <time>2021-03-07T09:12:52.423Z</time>
      </trkpt>
      <trkpt lat="45.57805" lon="5.35677">
        <ele>488</ele>
        <time>2021-03-07T09:12:53.423Z</time>
      </trkpt>
      <trkpt lat="45.57807" lon="5.35667">
        <ele>487</ele>
        <time>2021-03-07T09:12:54.423Z</time>
      </trkpt>
      <trkpt lat="45.57808" lon="5.35657">
        <ele>487</ele>
        <time>2021-03-07T09:12:55.423Z</time>
      </trkpt>
      <trkpt lat="45.57808" lon="5.35647">
        <ele>487</ele>
        <time>2021-03-07T09:12:56.423Z</time>
      </trkpt>
      <trkpt lat="45.5781" lon="5.35637">
        <ele>487</ele>
        <time>2021-03-07T09:12:57.422Z</time>
      </trkpt>
      <trkpt lat="45.57811" lon="5.35628">
        <ele>487</ele>
        <time>2021-03-07T09:12:58.423Z</time>
      </trkpt>
      <trkpt lat="45.57812" lon="5.35619">
        <ele>487</ele>
        <time>2021-03-07T09:12:59.423Z</time>
      </trkpt>
      <trkpt lat="45.57813" lon="5.3561">
        <ele>487</ele>
        <time>2021-03-07T09:13:00.423Z</time>
      </trkpt>
      <trkpt lat="45.57814" lon="5.35601">
        <ele>487</ele>
        <time>2021-03-07T09:13:01.423Z</time>
      </trkpt>
      <trkpt lat="45.57814" lon="5.35591">
        <ele>487</ele>
        <time>2021-03-07T09:13:02.423Z</time>
      </trkpt>
      <trkpt lat="45.57814" lon="5.35582">
        <ele>486</ele>
        <time>2021-03-07T09:13:03.423Z</time>
      </trkpt>
      <trkpt lat="45.57814" lon="5.35572">
        <ele>486</ele>
        <time>2021-03-07T09:13:04.423Z</time>
      </trkpt>
      <trkpt lat="45.57814" lon="5.35563">
        <ele>486</ele>
        <time>2021-03-07T09:13:05.423Z</time>
      </trkpt>
      <trkpt lat="45.57813" lon="5.35554">
        <ele>487</ele>
        <time>2021-03-07T09:13:06.423Z</time>
      </trkpt>
      <trkpt lat="45.57813" lon="5.35545">
        <ele>487</ele>
        <time>2021-03-07T09:13:07.423Z</time>
      </trkpt>
      <trkpt lat="45.57812" lon="5.35536">
        <ele>487</ele>
        <time>2021-03-07T09:13:08.423Z</time>
      </trkpt>
      <trkpt lat="45.57811" lon="5.35527">
        <ele>487</ele>
        <time>2021-03-07T09:13:09.423Z</time>
      </trkpt>
      <trkpt lat="45.5781" lon="5.35519">
        <ele>487</ele>
        <time>2021-03-07T09:13:10.423Z</time>
      </trkpt>
      <trkpt lat="45.57808" lon="5.35509">
        <ele>488</ele>
        <time>2021-03-07T09:13:11.423Z</time>
      </trkpt>
      <trkpt lat="45.57806" lon="5.355">
        <ele>488</ele>
        <time>2021-03-07T09:13:12.423Z</time>
      </trkpt>
      <trkpt lat="45.57805" lon="5.35491">
        <ele>488</ele>
        <time>2021-03-07T09:13:13.423Z</time>
      </trkpt>
      <trkpt lat="45.57802" lon="5.35484">
        <ele>488</ele>
        <time>2021-03-07T09:13:14.423Z</time>
      </trkpt>
      <trkpt lat="45.578" lon="5.35472">
        <ele>488</ele>
        <time>2021-03-07T09:13:15.422Z</time>
      </trkpt>
      <trkpt lat="45.57799" lon="5.35464">
        <ele>488</ele>
        <time>2021-03-07T09:13:16.423Z</time>
      </trkpt>
      <trkpt lat="45.57797" lon="5.35455">
        <ele>487</ele>
        <time>2021-03-07T09:13:17.423Z</time>
      </trkpt>
      <trkpt lat="45.57796" lon="5.35446">
        <ele>488</ele>
        <time>2021-03-07T09:13:18.423Z</time>
      </trkpt>
      <trkpt lat="45.57794" lon="5.35437">
        <ele>488</ele>
        <time>2021-03-07T09:13:19.423Z</time>
      </trkpt>
      <trkpt lat="45.57792" lon="5.35428">
        <ele>488</ele>
        <time>2021-03-07T09:13:20.423Z</time>
      </trkpt>
      <trkpt lat="45.57791" lon="5.3542">
        <ele>488</ele>
        <time>2021-03-07T09:13:21.423Z</time>
      </trkpt>
      <trkpt lat="45.57789" lon="5.35411">
        <ele>487</ele>
        <time>2021-03-07T09:13:22.423Z</time>
      </trkpt>
      <trkpt lat="45.57788" lon="5.35403">
        <ele>487</ele>
        <time>2021-03-07T09:13:23.423Z</time>
      </trkpt>
      <trkpt lat="45.57787" lon="5.35394">
        <ele>487</ele>
        <time>2021-03-07T09:13:24.423Z</time>
      </trkpt>
      <trkpt lat="45.57786" lon="5.35382">
        <ele>487</ele>
        <time>2021-03-07T09:13:25.423Z</time>
      </trkpt>
      <trkpt lat="45.57787" lon="5.35373">
        <ele>487</ele>
        <time>2021-03-07T09:13:26.422Z</time>
      </trkpt>
      <trkpt lat="45.57788" lon="5.35364">
        <ele>487</ele>
        <time>2021-03-07T09:13:27.423Z</time>
      </trkpt>
      <trkpt lat="45.5779" lon="5.35355">
        <ele>487</ele>
        <time>2021-03-07T09:13:28.423Z</time>
      </trkpt>
      <trkpt lat="45.57793" lon="5.35349">
        <ele>487</ele>
        <time>2021-03-07T09:13:29.423Z</time>
      </trkpt>
      <trkpt lat="45.57796" lon="5.35339">
        <ele>488</ele>
        <time>2021-03-07T09:13:30.423Z</time>
      </trkpt>
      <trkpt lat="45.57799" lon="5.3533">
        <ele>487</ele>
        <time>2021-03-07T09:13:31.423Z</time>
      </trkpt>
      <trkpt lat="45.57802" lon="5.35322">
        <ele>487</ele>
        <time>2021-03-07T09:13:32.423Z</time>
      </trkpt>
      <trkpt lat="45.57804" lon="5.35315">
        <ele>487</ele>
        <time>2021-03-07T09:13:33.423Z</time>
      </trkpt>
      <trkpt lat="45.57807" lon="5.35307">
        <ele>486</ele>
        <time>2021-03-07T09:13:34.423Z</time>
      </trkpt>
      <trkpt lat="45.57811" lon="5.35298">
        <ele>486</ele>
        <time>2021-03-07T09:13:35.423Z</time>
      </trkpt>
      <trkpt lat="45.57816" lon="5.35292">
        <ele>485</ele>
        <time>2021-03-07T09:13:36.423Z</time>
      </trkpt>
      <trkpt lat="45.5782" lon="5.35289">
        <ele>485</ele>
        <time>2021-03-07T09:13:37.422Z</time>
      </trkpt>
      <trkpt lat="45.57827" lon="5.35286">
        <ele>485</ele>
        <time>2021-03-07T09:13:38.422Z</time>
      </trkpt>
      <trkpt lat="45.57835" lon="5.35286">
        <ele>485</ele>
        <time>2021-03-07T09:13:39.423Z</time>
      </trkpt>
      <trkpt lat="45.57841" lon="5.35287">
        <ele>485</ele>
        <time>2021-03-07T09:13:40.423Z</time>
      </trkpt>
      <trkpt lat="45.57847" lon="5.3529">
        <ele>485</ele>
        <time>2021-03-07T09:13:41.423Z</time>
      </trkpt>
      <trkpt lat="45.57853" lon="5.35293">
        <ele>486</ele>
        <time>2021-03-07T09:13:42.423Z</time>
      </trkpt>
      <trkpt lat="45.57859" lon="5.35297">
        <ele>486</ele>
        <time>2021-03-07T09:13:43.422Z</time>
      </trkpt>
      <trkpt lat="45.57865" lon="5.353">
        <ele>485</ele>
        <time>2021-03-07T09:13:44.423Z</time>
      </trkpt>
      <trkpt lat="45.57871" lon="5.35304">
        <ele>485</ele>
        <time>2021-03-07T09:13:45.423Z</time>
      </trkpt>
      <trkpt lat="45.57877" lon="5.35308">
        <ele>486</ele>
        <time>2021-03-07T09:13:46.422Z</time>
      </trkpt>
      <trkpt lat="45.57883" lon="5.35311">
        <ele>486</ele>
        <time>2021-03-07T09:13:47.423Z</time>
      </trkpt>
      <trkpt lat="45.57889" lon="5.35314">
        <ele>486</ele>
        <time>2021-03-07T09:13:48.422Z</time>
      </trkpt>
      <trkpt lat="45.57893" lon="5.35317">
        <ele>487</ele>
        <time>2021-03-07T09:13:49.422Z</time>
      </trkpt>
      <trkpt lat="45.57899" lon="5.35319">
        <ele>487</ele>
        <time>2021-03-07T09:13:50.423Z</time>
      </trkpt>
      <trkpt lat="45.57903" lon="5.35319">
        <ele>487</ele>
        <time>2021-03-07T09:13:51.423Z</time>
      </trkpt>
      <trkpt lat="45.57907" lon="5.35318">
        <ele>487</ele>
        <time>2021-03-07T09:13:52.423Z</time>
      </trkpt>
      <trkpt lat="45.5791" lon="5.35313">
        <ele>488</ele>
        <time>2021-03-07T09:13:53.423Z</time>
      </trkpt>
      <trkpt lat="45.57913" lon="5.35306">
        <ele>488</ele>
        <time>2021-03-07T09:13:54.422Z</time>
      </trkpt>
      <trkpt lat="45.57914" lon="5.35299">
        <ele>488</ele>
        <time>2021-03-07T09:13:55.422Z</time>
      </trkpt>
      <trkpt lat="45.57916" lon="5.35289">
        <ele>488</ele>
        <time>2021-03-07T09:13:56.422Z</time>
      </trkpt>
      <trkpt lat="45.57918" lon="5.35283">
        <ele>489</ele>
        <time>2021-03-07T09:13:57.423Z</time>
      </trkpt>
      <trkpt lat="45.5792" lon="5.35273">
        <ele>489</ele>
        <time>2021-03-07T09:13:58.423Z</time>
      </trkpt>
      <trkpt lat="45.57921" lon="5.3526">
        <ele>489</ele>
        <time>2021-03-07T09:13:59.423Z</time>
      </trkpt>
      <trkpt lat="45.57923" lon="5.35249">
        <ele>489</ele>
        <time>2021-03-07T09:14:00.422Z</time>
      </trkpt>
      <trkpt lat="45.57925" lon="5.35237">
        <ele>489</ele>
        <time>2021-03-07T09:14:01.423Z</time>
      </trkpt>
      <trkpt lat="45.57928" lon="5.35227">
        <ele>488</ele>
        <time>2021-03-07T09:14:02.422Z</time>
      </trkpt>
      <trkpt lat="45.57932" lon="5.35215">
        <ele>488</ele>
        <time>2021-03-07T09:14:03.422Z</time>
      </trkpt>
      <trkpt lat="45.57937" lon="5.352">
        <ele>488</ele>
        <time>2021-03-07T09:14:04.423Z</time>
      </trkpt>
      <trkpt lat="45.57941" lon="5.35185">
        <ele>487</ele>
        <time>2021-03-07T09:14:05.422Z</time>
      </trkpt>
      <trkpt lat="45.57946" lon="5.35171">
        <ele>486</ele>
        <time>2021-03-07T09:14:06.423Z</time>
      </trkpt>
      <trkpt lat="45.5795" lon="5.35159">
        <ele>486</ele>
        <time>2021-03-07T09:14:07.423Z</time>
      </trkpt>
      <trkpt lat="45.57955" lon="5.35143">
        <ele>485</ele>
        <time>2021-03-07T09:14:08.423Z</time>
      </trkpt>
      <trkpt lat="45.57962" lon="5.35125">
        <ele>484</ele>
        <time>2021-03-07T09:14:09.422Z</time>
      </trkpt>
      <trkpt lat="45.57968" lon="5.3511">
        <ele>483</ele>
        <time>2021-03-07T09:14:10.423Z</time>
      </trkpt>
      <trkpt lat="45.57973" lon="5.35095">
        <ele>483</ele>
        <time>2021-03-07T09:14:11.422Z</time>
      </trkpt>
      <trkpt lat="45.57979" lon="5.35081">
        <ele>482</ele>
        <time>2021-03-07T09:14:12.423Z</time>
      </trkpt>
      <trkpt lat="45.57983" lon="5.35071">
        <ele>481</ele>
        <time>2021-03-07T09:14:13.423Z</time>
      </trkpt>
      <trkpt lat="45.57989" lon="5.35056">
        <ele>480</ele>
        <time>2021-03-07T09:14:14.423Z</time>
      </trkpt>
      <trkpt lat="45.57995" lon="5.35042">
        <ele>480</ele>
        <time>2021-03-07T09:14:15.423Z</time>
      </trkpt>
      <trkpt lat="45.58" lon="5.35029">
        <ele>479</ele>
        <time>2021-03-07T09:14:16.423Z</time>
      </trkpt>
      <trkpt lat="45.58005" lon="5.35014">
        <ele>478</ele>
        <time>2021-03-07T09:14:17.422Z</time>
      </trkpt>
      <trkpt lat="45.58008" lon="5.34999">
        <ele>477</ele>
        <time>2021-03-07T09:14:18.423Z</time>
      </trkpt>
      <trkpt lat="45.58011" lon="5.34982">
        <ele>475</ele>
        <time>2021-03-07T09:14:19.423Z</time>
      </trkpt>
      <trkpt lat="45.58014" lon="5.34965">
        <ele>474</ele>
        <time>2021-03-07T09:14:20.423Z</time>
      </trkpt>
      <trkpt lat="45.58017" lon="5.34948">
        <ele>474</ele>
        <time>2021-03-07T09:14:21.423Z</time>
      </trkpt>
      <trkpt lat="45.58021" lon="5.3493">
        <ele>473</ele>
        <time>2021-03-07T09:14:22.423Z</time>
      </trkpt>
      <trkpt lat="45.58025" lon="5.34912">
        <ele>472</ele>
        <time>2021-03-07T09:14:23.423Z</time>
      </trkpt>
      <trkpt lat="45.5803" lon="5.34894">
        <ele>471</ele>
        <time>2021-03-07T09:14:24.423Z</time>
      </trkpt>
      <trkpt lat="45.58033" lon="5.34877">
        <ele>470</ele>
        <time>2021-03-07T09:14:25.422Z</time>
      </trkpt>
      <trkpt lat="45.58037" lon="5.34859">
        <ele>469</ele>
        <time>2021-03-07T09:14:26.422Z</time>
      </trkpt>
      <trkpt lat="45.58041" lon="5.34841">
        <ele>468</ele>
        <time>2021-03-07T09:14:27.423Z</time>
      </trkpt>
      <trkpt lat="45.58046" lon="5.34824">
        <ele>467</ele>
        <time>2021-03-07T09:14:28.423Z</time>
      </trkpt>
      <trkpt lat="45.58052" lon="5.34808">
        <ele>466</ele>
        <time>2021-03-07T09:14:29.423Z</time>
      </trkpt>
      <trkpt lat="45.58059" lon="5.34793">
        <ele>465</ele>
        <time>2021-03-07T09:14:30.423Z</time>
      </trkpt>
      <trkpt lat="45.58066" lon="5.34779">
        <ele>464</ele>
        <time>2021-03-07T09:14:31.422Z</time>
      </trkpt>
      <trkpt lat="45.58074" lon="5.34765">
        <ele>463</ele>
        <time>2021-03-07T09:14:32.422Z</time>
      </trkpt>
      <trkpt lat="45.58081" lon="5.34752">
        <ele>461</ele>
        <time>2021-03-07T09:14:33.422Z</time>
      </trkpt>
      <trkpt lat="45.58089" lon="5.3474">
        <ele>460</ele>
        <time>2021-03-07T09:14:34.423Z</time>
      </trkpt>
      <trkpt lat="45.58098" lon="5.3473">
        <ele>459</ele>
        <time>2021-03-07T09:14:35.423Z</time>
      </trkpt>
      <trkpt lat="45.58108" lon="5.34721">
        <ele>458</ele>
        <time>2021-03-07T09:14:36.423Z</time>
      </trkpt>
      <trkpt lat="45.58118" lon="5.34714">
        <ele>456</ele>
        <time>2021-03-07T09:14:37.422Z</time>
      </trkpt>
      <trkpt lat="45.58128" lon="5.34708">
        <ele>455</ele>
        <time>2021-03-07T09:14:38.423Z</time>
      </trkpt>
      <trkpt lat="45.58139" lon="5.34703">
        <ele>454</ele>
        <time>2021-03-07T09:14:39.422Z</time>
      </trkpt>
      <trkpt lat="45.5815" lon="5.34697">
        <ele>452</ele>
        <time>2021-03-07T09:14:40.423Z</time>
      </trkpt>
      <trkpt lat="45.58161" lon="5.34691">
        <ele>451</ele>
        <time>2021-03-07T09:14:41.423Z</time>
      </trkpt>
      <trkpt lat="45.58171" lon="5.34685">
        <ele>450</ele>
        <time>2021-03-07T09:14:42.423Z</time>
      </trkpt>
      <trkpt lat="45.58181" lon="5.34678">
        <ele>448</ele>
        <time>2021-03-07T09:14:43.422Z</time>
      </trkpt>
      <trkpt lat="45.5819" lon="5.34672">
        <ele>447</ele>
        <time>2021-03-07T09:14:44.423Z</time>
      </trkpt>
      <trkpt lat="45.58199" lon="5.34667">
        <ele>446</ele>
        <time>2021-03-07T09:14:45.423Z</time>
      </trkpt>
      <trkpt lat="45.58206" lon="5.34661">
        <ele>445</ele>
        <time>2021-03-07T09:14:46.423Z</time>
      </trkpt>
      <trkpt lat="45.58211" lon="5.34655">
        <ele>444</ele>
        <time>2021-03-07T09:14:47.423Z</time>
      </trkpt>
      <trkpt lat="45.58216" lon="5.34648">
        <ele>444</ele>
        <time>2021-03-07T09:14:48.422Z</time>
      </trkpt>
      <trkpt lat="45.58219" lon="5.3464">
        <ele>443</ele>
        <time>2021-03-07T09:14:49.422Z</time>
      </trkpt>
      <trkpt lat="45.58222" lon="5.34633">
        <ele>442</ele>
        <time>2021-03-07T09:14:50.423Z</time>
      </trkpt>
      <trkpt lat="45.58225" lon="5.34627">
        <ele>442</ele>
        <time>2021-03-07T09:14:51.423Z</time>
      </trkpt>
      <trkpt lat="45.58228" lon="5.34622">
        <ele>441</ele>
        <time>2021-03-07T09:14:52.423Z</time>
      </trkpt>
      <trkpt lat="45.58231" lon="5.34618">
        <ele>440</ele>
        <time>2021-03-07T09:14:53.423Z</time>
      </trkpt>
      <trkpt lat="45.58233" lon="5.34614">
        <ele>439</ele>
        <time>2021-03-07T09:14:54.423Z</time>
      </trkpt>
      <trkpt lat="45.58235" lon="5.34612">
        <ele>439</ele>
        <time>2021-03-07T09:14:55.423Z</time>
      </trkpt>
      <trkpt lat="45.58237" lon="5.34609">
        <ele>438</ele>
        <time>2021-03-07T09:14:56.423Z</time>
      </trkpt>
      <trkpt lat="45.58237" lon="5.34606">
        <ele>438</ele>
        <time>2021-03-07T09:14:57.423Z</time>
      </trkpt>
      <trkpt lat="45.58237" lon="5.34603">
        <ele>437</ele>
        <time>2021-03-07T09:14:58.423Z</time>
      </trkpt>
      <trkpt lat="45.58236" lon="5.34601">
        <ele>437</ele>
        <time>2021-03-07T09:14:59.423Z</time>
      </trkpt>
      <trkpt lat="45.58234" lon="5.34598">
        <ele>436</ele>
        <time>2021-03-07T09:15:00.422Z</time>
      </trkpt>
      <trkpt lat="45.58233" lon="5.34596">
        <ele>436</ele>
        <time>2021-03-07T09:15:01.422Z</time>
      </trkpt>
      <trkpt lat="45.58231" lon="5.34594">
        <ele>435</ele>
        <time>2021-03-07T09:15:02.422Z</time>
      </trkpt>
      <trkpt lat="45.5823" lon="5.34593">
        <ele>435</ele>
        <time>2021-03-07T09:15:03.422Z</time>
      </trkpt>
      <trkpt lat="45.5823" lon="5.34592">
        <ele>434</ele>
        <time>2021-03-07T09:15:04.423Z</time>
      </trkpt>
      <trkpt lat="45.58229" lon="5.3459">
        <ele>434</ele>
        <time>2021-03-07T09:15:05.423Z</time>
      </trkpt>
      <trkpt lat="45.58228" lon="5.34589">
        <ele>434</ele>
        <time>2021-03-07T09:15:06.423Z</time>
      </trkpt>
      <trkpt lat="45.58227" lon="5.34588">
        <ele>434</ele>
        <time>2021-03-07T09:15:07.423Z</time>
      </trkpt>
      <trkpt lat="45.58226" lon="5.34587">
        <ele>434</ele>
        <time>2021-03-07T09:15:08.422Z</time>
      </trkpt>
      <trkpt lat="45.58225" lon="5.34585">
        <ele>434</ele>
        <time>2021-03-07T09:15:09.423Z</time>
      </trkpt>
      <trkpt lat="45.58224" lon="5.34583">
        <ele>434</ele>
        <time>2021-03-07T09:15:10.423Z</time>
      </trkpt>
      <trkpt lat="45.58223" lon="5.34583">
        <ele>434</ele>
        <time>2021-03-07T09:15:11.423Z</time>
      </trkpt>
      <trkpt lat="45.58222" lon="5.34582">
        <ele>434</ele>
        <time>2021-03-07T09:15:12.422Z</time>
      </trkpt>
      <trkpt lat="45.5822" lon="5.34581">
        <ele>434</ele>
        <time>2021-03-07T09:15:13.423Z</time>
      </trkpt>
      <trkpt lat="45.58218" lon="5.3458">
        <ele>434</ele>
        <time>2021-03-07T09:15:14.423Z</time>
      </trkpt>
      <trkpt lat="45.58217" lon="5.34579">
        <ele>434</ele>
        <time>2021-03-07T09:15:15.422Z</time>
      </trkpt>
      <trkpt lat="45.58217" lon="5.34577">
        <ele>434</ele>
        <time>2021-03-07T09:15:16.423Z</time>
      </trkpt>
      <trkpt lat="45.58216" lon="5.34577">
        <ele>434</ele>
        <time>2021-03-07T09:15:17.422Z</time>
      </trkpt>
      <trkpt lat="45.58215" lon="5.34576">
        <ele>434</ele>
        <time>2021-03-07T09:15:18.422Z</time>
      </trkpt>
      <trkpt lat="45.58214" lon="5.34575">
        <ele>434</ele>
        <time>2021-03-07T09:15:19.423Z</time>
      </trkpt>
      <trkpt lat="45.58213" lon="5.34574">
        <ele>433</ele>
        <time>2021-03-07T09:15:20.423Z</time>
      </trkpt>
      <trkpt lat="45.58212" lon="5.34573">
        <ele>433</ele>
        <time>2021-03-07T09:15:21.423Z</time>
      </trkpt>
      <trkpt lat="45.58211" lon="5.34572">
        <ele>433</ele>
        <time>2021-03-07T09:15:22.423Z</time>
      </trkpt>
      <trkpt lat="45.5821" lon="5.34571">
        <ele>433</ele>
        <time>2021-03-07T09:15:23.423Z</time>
      </trkpt>
      <trkpt lat="45.5821" lon="5.34569">
        <ele>433</ele>
        <time>2021-03-07T09:15:24.422Z</time>
      </trkpt>
      <trkpt lat="45.58207" lon="5.34566">
        <ele>433</ele>
        <time>2021-03-07T09:15:25.423Z</time>
      </trkpt>
      <trkpt lat="45.58205" lon="5.34564">
        <ele>433</ele>
        <time>2021-03-07T09:15:26.423Z</time>
      </trkpt>
      <trkpt lat="45.58204" lon="5.34563">
        <ele>433</ele>
        <time>2021-03-07T09:15:27.423Z</time>
      </trkpt>
      <trkpt lat="45.58203" lon="5.34562">
        <ele>433</ele>
        <time>2021-03-07T09:15:28.422Z</time>
      </trkpt>
      <trkpt lat="45.58202" lon="5.34561">
        <ele>433</ele>
        <time>2021-03-07T09:15:29.423Z</time>
      </trkpt>
      <trkpt lat="45.582" lon="5.34559">
        <ele>433</ele>
        <time>2021-03-07T09:15:30.423Z</time>
      </trkpt>
      <trkpt lat="45.58198" lon="5.34557">
        <ele>433</ele>
        <time>2021-03-07T09:15:31.423Z</time>
      </trkpt>
      <trkpt lat="45.58196" lon="5.34555">
        <ele>434</ele>
        <time>2021-03-07T09:15:32.423Z</time>
      </trkpt>
      <trkpt lat="45.58194" lon="5.34553">
        <ele>434</ele>
        <time>2021-03-07T09:15:33.423Z</time>
      </trkpt>
      <trkpt lat="45.58191" lon="5.34551">
        <ele>434</ele>
        <time>2021-03-07T09:15:34.423Z</time>
      </trkpt>
      <trkpt lat="45.58189" lon="5.34548">
        <ele>434</ele>
        <time>2021-03-07T09:15:35.423Z</time>
      </trkpt>
      <trkpt lat="45.58187" lon="5.34546">
        <ele>435</ele>
        <time>2021-03-07T09:15:36.422Z</time>
      </trkpt>
      <trkpt lat="45.58184" lon="5.34543">
        <ele>435</ele>
        <time>2021-03-07T09:15:37.422Z</time>
      </trkpt>
      <trkpt lat="45.58181" lon="5.3454">
        <ele>436</ele>
        <time>2021-03-07T09:15:38.423Z</time>
      </trkpt>
      <trkpt lat="45.58178" lon="5.34537">
        <ele>437</ele>
        <time>2021-03-07T09:15:39.422Z</time>
      </trkpt>
      <trkpt lat="45.58175" lon="5.34535">
        <ele>437</ele>
        <time>2021-03-07T09:15:40.422Z</time>
      </trkpt>
      <trkpt lat="45.58171" lon="5.34532">
        <ele>437</ele>
        <time>2021-03-07T09:15:41.423Z</time>
      </trkpt>
      <trkpt lat="45.58168" lon="5.34529">
        <ele>438</ele>
        <time>2021-03-07T09:15:42.423Z</time>
      </trkpt>
      <trkpt lat="45.58164" lon="5.34525">
        <ele>438</ele>
        <time>2021-03-07T09:15:43.423Z</time>
      </trkpt>
      <trkpt lat="45.58161" lon="5.34522">
        <ele>438</ele>
        <time>2021-03-07T09:15:44.423Z</time>
      </trkpt>
      <trkpt lat="45.58157" lon="5.34518">
        <ele>439</ele>
        <time>2021-03-07T09:15:45.423Z</time>
      </trkpt>
      <trkpt lat="45.58154" lon="5.34514">
        <ele>439</ele>
        <time>2021-03-07T09:15:46.423Z</time>
      </trkpt>
      <trkpt lat="45.5815" lon="5.34509">
        <ele>439</ele>
        <time>2021-03-07T09:15:47.423Z</time>
      </trkpt>
      <trkpt lat="45.58147" lon="5.34504">
        <ele>439</ele>
        <time>2021-03-07T09:15:48.423Z</time>
      </trkpt>
      <trkpt lat="45.58144" lon="5.34499">
        <ele>439</ele>
        <time>2021-03-07T09:15:49.423Z</time>
      </trkpt>
      <trkpt lat="45.58141" lon="5.34493">
        <ele>439</ele>
        <time>2021-03-07T09:15:50.422Z</time>
      </trkpt>
      <trkpt lat="45.58139" lon="5.34487">
        <ele>439</ele>
        <time>2021-03-07T09:15:51.422Z</time>
      </trkpt>
      <trkpt lat="45.58136" lon="5.34481">
        <ele>439</ele>
        <time>2021-03-07T09:15:52.422Z</time>
      </trkpt>
      <trkpt lat="45.58133" lon="5.34475">
        <ele>439</ele>
        <time>2021-03-07T09:15:53.423Z</time>
      </trkpt>
      <trkpt lat="45.58131" lon="5.34468">
        <ele>439</ele>
        <time>2021-03-07T09:15:54.423Z</time>
      </trkpt>
      <trkpt lat="45.58129" lon="5.34461">
        <ele>439</ele>
        <time>2021-03-07T09:15:55.423Z</time>
      </trkpt>
      <trkpt lat="45.58127" lon="5.34454">
        <ele>439</ele>
        <time>2021-03-07T09:15:56.422Z</time>
      </trkpt>
      <trkpt lat="45.58125" lon="5.34446">
        <ele>439</ele>
        <time>2021-03-07T09:15:57.422Z</time>
      </trkpt>
      <trkpt lat="45.58124" lon="5.34439">
        <ele>439</ele>
        <time>2021-03-07T09:15:58.423Z</time>
      </trkpt>
      <trkpt lat="45.58122" lon="5.34431">
        <ele>439</ele>
        <time>2021-03-07T09:15:59.423Z</time>
      </trkpt>
      <trkpt lat="45.58121" lon="5.34424">
        <ele>439</ele>
        <time>2021-03-07T09:16:00.423Z</time>
      </trkpt>
      <trkpt lat="45.5812" lon="5.34416">
        <ele>439</ele>
        <time>2021-03-07T09:16:01.423Z</time>
      </trkpt>
      <trkpt lat="45.58117" lon="5.34408">
        <ele>439</ele>
        <time>2021-03-07T09:16:02.422Z</time>
      </trkpt>
      <trkpt lat="45.58115" lon="5.344">
        <ele>438</ele>
        <time>2021-03-07T09:16:03.422Z</time>
      </trkpt>
      <trkpt lat="45.58112" lon="5.34391">
        <ele>438</ele>
        <time>2021-03-07T09:16:04.423Z</time>
      </trkpt>
      <trkpt lat="45.58109" lon="5.34383">
        <ele>438</ele>
        <time>2021-03-07T09:16:05.422Z</time>
      </trkpt>
      <trkpt lat="45.58105" lon="5.34375">
        <ele>437</ele>
        <time>2021-03-07T09:16:06.422Z</time>
      </trkpt>
      <trkpt lat="45.58102" lon="5.34367">
        <ele>437</ele>
        <time>2021-03-07T09:16:07.422Z</time>
      </trkpt>
      <trkpt lat="45.58098" lon="5.3436">
        <ele>436</ele>
        <time>2021-03-07T09:16:08.422Z</time>
      </trkpt>
      <trkpt lat="45.58094" lon="5.34352">
        <ele>436</ele>
        <time>2021-03-07T09:16:09.423Z</time>
      </trkpt>
      <trkpt lat="45.5809" lon="5.34344">
        <ele>436</ele>
        <time>2021-03-07T09:16:10.422Z</time>
      </trkpt>
      <trkpt lat="45.58087" lon="5.34336">
        <ele>436</ele>
        <time>2021-03-07T09:16:11.423Z</time>
      </trkpt>
      <trkpt lat="45.58083" lon="5.34328">
        <ele>435</ele>
        <time>2021-03-07T09:16:12.422Z</time>
      </trkpt>
      <trkpt lat="45.58079" lon="5.3432">
        <ele>435</ele>
        <time>2021-03-07T09:16:13.423Z</time>
      </trkpt>
      <trkpt lat="45.58076" lon="5.34312">
        <ele>435</ele>
        <time>2021-03-07T09:16:14.422Z</time>
      </trkpt>
      <trkpt lat="45.58072" lon="5.34304">
        <ele>434</ele>
        <time>2021-03-07T09:16:15.423Z</time>
      </trkpt>
      <trkpt lat="45.58068" lon="5.34296">
        <ele>434</ele>
        <time>2021-03-07T09:16:16.423Z</time>
      </trkpt>
      <trkpt lat="45.58065" lon="5.34288">
        <ele>434</ele>
        <time>2021-03-07T09:16:17.423Z</time>
      </trkpt>
      <trkpt lat="45.58062" lon="5.34279">
        <ele>434</ele>
        <time>2021-03-07T09:16:18.422Z</time>
      </trkpt>
      <trkpt lat="45.58058" lon="5.34271">
        <ele>433</ele>
        <time>2021-03-07T09:16:19.423Z</time>
      </trkpt>
      <trkpt lat="45.58055" lon="5.34263">
        <ele>433</ele>
        <time>2021-03-07T09:16:20.423Z</time>
      </trkpt>
      <trkpt lat="45.58053" lon="5.34255">
        <ele>432</ele>
        <time>2021-03-07T09:16:21.423Z</time>
      </trkpt>
      <trkpt lat="45.58049" lon="5.34247">
        <ele>432</ele>
        <time>2021-03-07T09:16:22.422Z</time>
      </trkpt>
      <trkpt lat="45.58044" lon="5.34239">
        <ele>431</ele>
        <time>2021-03-07T09:16:23.422Z</time>
      </trkpt>
      <trkpt lat="45.5804" lon="5.3423">
        <ele>431</ele>
        <time>2021-03-07T09:16:24.422Z</time>
      </trkpt>
      <trkpt lat="45.58037" lon="5.34223">
        <ele>430</ele>
        <time>2021-03-07T09:16:25.422Z</time>
      </trkpt>
      <trkpt lat="45.58033" lon="5.34216">
        <ele>430</ele>
        <time>2021-03-07T09:16:26.422Z</time>
      </trkpt>
      <trkpt lat="45.58029" lon="5.34209">
        <ele>430</ele>
        <time>2021-03-07T09:16:27.423Z</time>
      </trkpt>
      <trkpt lat="45.58025" lon="5.34202">
        <ele>429</ele>
        <time>2021-03-07T09:16:28.423Z</time>
      </trkpt>
      <trkpt lat="45.58022" lon="5.34194">
        <ele>429</ele>
        <time>2021-03-07T09:16:29.423Z</time>
      </trkpt>
      <trkpt lat="45.58019" lon="5.34186">
        <ele>429</ele>
        <time>2021-03-07T09:16:30.423Z</time>
      </trkpt>
      <trkpt lat="45.58016" lon="5.34177">
        <ele>429</ele>
        <time>2021-03-07T09:16:31.423Z</time>
      </trkpt>
      <trkpt lat="45.58013" lon="5.34168">
        <ele>429</ele>
        <time>2021-03-07T09:16:32.423Z</time>
      </trkpt>
      <trkpt lat="45.5801" lon="5.34158">
        <ele>429</ele>
        <time>2021-03-07T09:16:33.422Z</time>
      </trkpt>
      <trkpt lat="45.58007" lon="5.34146">
        <ele>429</ele>
        <time>2021-03-07T09:16:34.422Z</time>
      </trkpt>
      <trkpt lat="45.58005" lon="5.34135">
        <ele>430</ele>
        <time>2021-03-07T09:16:35.422Z</time>
      </trkpt>
      <trkpt lat="45.58002" lon="5.34121">
        <ele>430</ele>
        <time>2021-03-07T09:16:36.423Z</time>
      </trkpt>
      <trkpt lat="45.58" lon="5.34107">
        <ele>430</ele>
        <time>2021-03-07T09:16:37.422Z</time>
      </trkpt>
      <trkpt lat="45.57998" lon="5.34094">
        <ele>430</ele>
        <time>2021-03-07T09:16:38.423Z</time>
      </trkpt>
      <trkpt lat="45.57995" lon="5.34081">
        <ele>429</ele>
        <time>2021-03-07T09:16:39.423Z</time>
      </trkpt>
      <trkpt lat="45.57994" lon="5.3407">
        <ele>429</ele>
        <time>2021-03-07T09:16:40.423Z</time>
      </trkpt>
      <trkpt lat="45.57992" lon="5.34058">
        <ele>429</ele>
        <time>2021-03-07T09:16:41.423Z</time>
      </trkpt>
      <trkpt lat="45.5799" lon="5.34047">
        <ele>429</ele>
        <time>2021-03-07T09:16:42.423Z</time>
      </trkpt>
      <trkpt lat="45.57989" lon="5.34036">
        <ele>428</ele>
        <time>2021-03-07T09:16:43.423Z</time>
      </trkpt>
      <trkpt lat="45.57988" lon="5.34026">
        <ele>428</ele>
        <time>2021-03-07T09:16:44.422Z</time>
      </trkpt>
      <trkpt lat="45.57988" lon="5.34016">
        <ele>427</ele>
        <time>2021-03-07T09:16:45.423Z</time>
      </trkpt>
      <trkpt lat="45.57986" lon="5.34006">
        <ele>427</ele>
        <time>2021-03-07T09:16:46.423Z</time>
      </trkpt>
      <trkpt lat="45.57984" lon="5.33995">
        <ele>427</ele>
        <time>2021-03-07T09:16:47.423Z</time>
      </trkpt>
      <trkpt lat="45.57982" lon="5.33984">
        <ele>426</ele>
        <time>2021-03-07T09:16:48.423Z</time>
      </trkpt>
      <trkpt lat="45.5798" lon="5.33972">
        <ele>426</ele>
        <time>2021-03-07T09:16:49.423Z</time>
      </trkpt>
      <trkpt lat="45.5798" lon="5.3396">
        <ele>425</ele>
        <time>2021-03-07T09:16:50.423Z</time>
      </trkpt>
      <trkpt lat="45.57981" lon="5.33947">
        <ele>425</ele>
        <time>2021-03-07T09:16:51.423Z</time>
      </trkpt>
      <trkpt lat="45.57985" lon="5.33937">
        <ele>424</ele>
        <time>2021-03-07T09:16:52.423Z</time>
      </trkpt>
      <trkpt lat="45.57989" lon="5.33926">
        <ele>424</ele>
        <time>2021-03-07T09:16:53.423Z</time>
      </trkpt>
      <trkpt lat="45.57994" lon="5.33915">
        <ele>423</ele>
        <time>2021-03-07T09:16:54.423Z</time>
      </trkpt>
      <trkpt lat="45.57999" lon="5.33904">
        <ele>422</ele>
        <time>2021-03-07T09:16:55.422Z</time>
      </trkpt>
      <trkpt lat="45.58002" lon="5.33892">
        <ele>422</ele>
        <time>2021-03-07T09:16:56.423Z</time>
      </trkpt>
      <trkpt lat="45.58006" lon="5.33881">
        <ele>421</ele>
        <time>2021-03-07T09:16:57.422Z</time>
      </trkpt>
      <trkpt lat="45.58009" lon="5.33869">
        <ele>421</ele>
        <time>2021-03-07T09:16:58.422Z</time>
      </trkpt>
      <trkpt lat="45.58012" lon="5.33858">
        <ele>420</ele>
        <time>2021-03-07T09:16:59.423Z</time>
      </trkpt>
      <trkpt lat="45.58016" lon="5.33846">
        <ele>420</ele>
        <time>2021-03-07T09:17:00.422Z</time>
      </trkpt>
      <trkpt lat="45.5802" lon="5.33836">
        <ele>419</ele>
        <time>2021-03-07T09:17:01.422Z</time>
      </trkpt>
      <trkpt lat="45.58025" lon="5.33826">
        <ele>419</ele>
        <time>2021-03-07T09:17:02.423Z</time>
      </trkpt>
      <trkpt lat="45.58031" lon="5.33817">
        <ele>418</ele>
        <time>2021-03-07T09:17:03.423Z</time>
      </trkpt>
      <trkpt lat="45.58037" lon="5.33808">
        <ele>417</ele>
        <time>2021-03-07T09:17:04.423Z</time>
      </trkpt>
      <trkpt lat="45.58044" lon="5.338">
        <ele>416</ele>
        <time>2021-03-07T09:17:05.423Z</time>
      </trkpt>
      <trkpt lat="45.5805" lon="5.33792">
        <ele>415</ele>
        <time>2021-03-07T09:17:06.423Z</time>
      </trkpt>
      <trkpt lat="45.58056" lon="5.33784">
        <ele>414</ele>
        <time>2021-03-07T09:17:07.422Z</time>
      </trkpt>
      <trkpt lat="45.58061" lon="5.33776">
        <ele>413</ele>
        <time>2021-03-07T09:17:08.423Z</time>
      </trkpt>
      <trkpt lat="45.58066" lon="5.33768">
        <ele>412</ele>
        <time>2021-03-07T09:17:09.423Z</time>
      </trkpt>
      <trkpt lat="45.58069" lon="5.3376">
        <ele>411</ele>
        <time>2021-03-07T09:17:10.423Z</time>
      </trkpt>
      <trkpt lat="45.58072" lon="5.3375">
        <ele>410</ele>
        <time>2021-03-07T09:17:11.422Z</time>
      </trkpt>
      <trkpt lat="45.58075" lon="5.33743">
        <ele>409</ele>
        <time>2021-03-07T09:17:12.422Z</time>
      </trkpt>
      <trkpt lat="45.58076" lon="5.33736">
        <ele>408</ele>
        <time>2021-03-07T09:17:13.423Z</time>
      </trkpt>
      <trkpt lat="45.58076" lon="5.33731">
        <ele>407</ele>
        <time>2021-03-07T09:17:14.423Z</time>
      </trkpt>
      <trkpt lat="45.58075" lon="5.33726">
        <ele>407</ele>
        <time>2021-03-07T09:17:15.423Z</time>
      </trkpt>
      <trkpt lat="45.58071" lon="5.33722">
        <ele>406</ele>
        <time>2021-03-07T09:17:16.423Z</time>
      </trkpt>
      <trkpt lat="45.58068" lon="5.33721">
        <ele>405</ele>
        <time>2021-03-07T09:17:17.423Z</time>
      </trkpt>
      <trkpt lat="45.58063" lon="5.33722">
        <ele>404</ele>
        <time>2021-03-07T09:17:18.423Z</time>
      </trkpt>
      <trkpt lat="45.58057" lon="5.33725">
        <ele>404</ele>
        <time>2021-03-07T09:17:19.422Z</time>
      </trkpt>
      <trkpt lat="45.58052" lon="5.33729">
        <ele>403</ele>
        <time>2021-03-07T09:17:20.422Z</time>
      </trkpt>
      <trkpt lat="45.58046" lon="5.33735">
        <ele>402</ele>
        <time>2021-03-07T09:17:21.423Z</time>
      </trkpt>
      <trkpt lat="45.58039" lon="5.33741">
        <ele>401</ele>
        <time>2021-03-07T09:17:22.423Z</time>
      </trkpt>
      <trkpt lat="45.58033" lon="5.33747">
        <ele>400</ele>
        <time>2021-03-07T09:17:23.422Z</time>
      </trkpt>
      <trkpt lat="45.58025" lon="5.33751">
        <ele>400</ele>
        <time>2021-03-07T09:17:24.423Z</time>
      </trkpt>
      <trkpt lat="45.58017" lon="5.33752">
        <ele>399</ele>
        <time>2021-03-07T09:17:25.422Z</time>
      </trkpt>
      <trkpt lat="45.58009" lon="5.33749">
        <ele>398</ele>
        <time>2021-03-07T09:17:26.422Z</time>
      </trkpt>
      <trkpt lat="45.58002" lon="5.33744">
        <ele>398</ele>
        <time>2021-03-07T09:17:27.422Z</time>
      </trkpt>
      <trkpt lat="45.57998" lon="5.33737">
        <ele>397</ele>
        <time>2021-03-07T09:17:28.423Z</time>
      </trkpt>
      <trkpt lat="45.57996" lon="5.33729">
        <ele>397</ele>
        <time>2021-03-07T09:17:29.423Z</time>
      </trkpt>
      <trkpt lat="45.57995" lon="5.33723">
        <ele>396</ele>
        <time>2021-03-07T09:17:30.423Z</time>
      </trkpt>
      <trkpt lat="45.57991" lon="5.33717">
        <ele>396</ele>
        <time>2021-03-07T09:17:31.423Z</time>
      </trkpt>
      <trkpt lat="45.57989" lon="5.33715">
        <ele>395</ele>
        <time>2021-03-07T09:17:32.422Z</time>
      </trkpt>
      <trkpt lat="45.57986" lon="5.33715">
        <ele>395</ele>
        <time>2021-03-07T09:17:33.422Z</time>
      </trkpt>
      <trkpt lat="45.57983" lon="5.33718">
        <ele>394</ele>
        <time>2021-03-07T09:17:34.422Z</time>
      </trkpt>
      <trkpt lat="45.5798" lon="5.33722">
        <ele>394</ele>
        <time>2021-03-07T09:17:35.422Z</time>
      </trkpt>
      <trkpt lat="45.57976" lon="5.33728">
        <ele>393</ele>
        <time>2021-03-07T09:17:36.422Z</time>
      </trkpt>
      <trkpt lat="45.57972" lon="5.33736">
        <ele>392</ele>
        <time>2021-03-07T09:17:37.423Z</time>
      </trkpt>
      <trkpt lat="45.57969" lon="5.33746">
        <ele>392</ele>
        <time>2021-03-07T09:17:38.422Z</time>
      </trkpt>
      <trkpt lat="45.57965" lon="5.33755">
        <ele>391</ele>
        <time>2021-03-07T09:17:39.423Z</time>
      </trkpt>
      <trkpt lat="45.57963" lon="5.33764">
        <ele>391</ele>
        <time>2021-03-07T09:17:40.422Z</time>
      </trkpt>
      <trkpt lat="45.5796" lon="5.3377">
        <ele>390</ele>
        <time>2021-03-07T09:17:41.423Z</time>
      </trkpt>
      <trkpt lat="45.57957" lon="5.33772">
        <ele>389</ele>
        <time>2021-03-07T09:17:42.423Z</time>
      </trkpt>
      <trkpt lat="45.57954" lon="5.33772">
        <ele>389</ele>
        <time>2021-03-07T09:17:43.423Z</time>
      </trkpt>
      <trkpt lat="45.57953" lon="5.3377">
        <ele>388</ele>
        <time>2021-03-07T09:17:44.423Z</time>
      </trkpt>
      <trkpt lat="45.57952" lon="5.33765">
        <ele>388</ele>
        <time>2021-03-07T09:17:45.423Z</time>
      </trkpt>
      <trkpt lat="45.57952" lon="5.33757">
        <ele>388</ele>
        <time>2021-03-07T09:17:46.423Z</time>
      </trkpt>
      <trkpt lat="45.57953" lon="5.3375">
        <ele>387</ele>
        <time>2021-03-07T09:17:47.423Z</time>
      </trkpt>
      <trkpt lat="45.57954" lon="5.3374">
        <ele>386</ele>
        <time>2021-03-07T09:17:48.423Z</time>
      </trkpt>
      <trkpt lat="45.57955" lon="5.33728">
        <ele>385</ele>
        <time>2021-03-07T09:17:49.423Z</time>
      </trkpt>
      <trkpt lat="45.57955" lon="5.33715">
        <ele>384</ele>
        <time>2021-03-07T09:17:50.423Z</time>
      </trkpt>
      <trkpt lat="45.57955" lon="5.33701">
        <ele>383</ele>
        <time>2021-03-07T09:17:51.423Z</time>
      </trkpt>
      <trkpt lat="45.57953" lon="5.33685">
        <ele>382</ele>
        <time>2021-03-07T09:17:52.423Z</time>
      </trkpt>
      <trkpt lat="45.57952" lon="5.3367">
        <ele>381</ele>
        <time>2021-03-07T09:17:53.423Z</time>
      </trkpt>
      <trkpt lat="45.57951" lon="5.33655">
        <ele>380</ele>
        <time>2021-03-07T09:17:54.423Z</time>
      </trkpt>
      <trkpt lat="45.57949" lon="5.3364">
        <ele>378</ele>
        <time>2021-03-07T09:17:55.423Z</time>
      </trkpt>
      <trkpt lat="45.57947" lon="5.33626">
        <ele>377</ele>
        <time>2021-03-07T09:17:56.422Z</time>
      </trkpt>
      <trkpt lat="45.57945" lon="5.33613">
        <ele>376</ele>
        <time>2021-03-07T09:17:57.423Z</time>
      </trkpt>
      <trkpt lat="45.57941" lon="5.33598">
        <ele>374</ele>
        <time>2021-03-07T09:17:58.423Z</time>
      </trkpt>
      <trkpt lat="45.57937" lon="5.33586">
        <ele>373</ele>
        <time>2021-03-07T09:17:59.422Z</time>
      </trkpt>
      <trkpt lat="45.57933" lon="5.33573">
        <ele>372</ele>
        <time>2021-03-07T09:18:00.423Z</time>
      </trkpt>
      <trkpt lat="45.57927" lon="5.33559">
        <ele>371</ele>
        <time>2021-03-07T09:18:01.423Z</time>
      </trkpt>
      <trkpt lat="45.57923" lon="5.33546">
        <ele>370</ele>
        <time>2021-03-07T09:18:02.423Z</time>
      </trkpt>
      <trkpt lat="45.57919" lon="5.33535">
        <ele>369</ele>
        <time>2021-03-07T09:18:03.423Z</time>
      </trkpt>
      <trkpt lat="45.57913" lon="5.33522">
        <ele>368</ele>
        <time>2021-03-07T09:18:04.423Z</time>
      </trkpt>
      <trkpt lat="45.57911" lon="5.33513">
        <ele>367</ele>
        <time>2021-03-07T09:18:05.423Z</time>
      </trkpt>
      <trkpt lat="45.57912" lon="5.33503">
        <ele>366</ele>
        <time>2021-03-07T09:18:06.423Z</time>
      </trkpt>
      <trkpt lat="45.57913" lon="5.33493">
        <ele>364</ele>
        <time>2021-03-07T09:18:07.423Z</time>
      </trkpt>
      <trkpt lat="45.57916" lon="5.33484">
        <ele>362</ele>
        <time>2021-03-07T09:18:08.423Z</time>
      </trkpt>
      <trkpt lat="45.57919" lon="5.33474">
        <ele>360</ele>
        <time>2021-03-07T09:18:09.423Z</time>
      </trkpt>
      <trkpt lat="45.57922" lon="5.33464">
        <ele>358</ele>
        <time>2021-03-07T09:18:10.423Z</time>
      </trkpt>
      <trkpt lat="45.57924" lon="5.33453">
        <ele>356</ele>
        <time>2021-03-07T09:18:11.423Z</time>
      </trkpt>
      <trkpt lat="45.57924" lon="5.33442">
        <ele>355</ele>
        <time>2021-03-07T09:18:12.423Z</time>
      </trkpt>
      <trkpt lat="45.57924" lon="5.3343">
        <ele>353</ele>
        <time>2021-03-07T09:18:13.423Z</time>
      </trkpt>
      <trkpt lat="45.57923" lon="5.33418">
        <ele>352</ele>
        <time>2021-03-07T09:18:14.423Z</time>
      </trkpt>
      <trkpt lat="45.57922" lon="5.33405">
        <ele>350</ele>
        <time>2021-03-07T09:18:15.422Z</time>
      </trkpt>
      <trkpt lat="45.57921" lon="5.33393">
        <ele>349</ele>
        <time>2021-03-07T09:18:16.422Z</time>
      </trkpt>
      <trkpt lat="45.57919" lon="5.3338">
        <ele>347</ele>
        <time>2021-03-07T09:18:17.423Z</time>
      </trkpt>
      <trkpt lat="45.57918" lon="5.33367">
        <ele>346</ele>
        <time>2021-03-07T09:18:18.423Z</time>
      </trkpt>
      <trkpt lat="45.57917" lon="5.33354">
        <ele>344</ele>
        <time>2021-03-07T09:18:19.423Z</time>
      </trkpt>
      <trkpt lat="45.57917" lon="5.33341">
        <ele>343</ele>
        <time>2021-03-07T09:18:20.422Z</time>
      </trkpt>
      <trkpt lat="45.57916" lon="5.33328">
        <ele>341</ele>
        <time>2021-03-07T09:18:21.422Z</time>
      </trkpt>
      <trkpt lat="45.57915" lon="5.33314">
        <ele>339</ele>
        <time>2021-03-07T09:18:22.423Z</time>
      </trkpt>
      <trkpt lat="45.57914" lon="5.33302">
        <ele>338</ele>
        <time>2021-03-07T09:18:23.423Z</time>
      </trkpt>
      <trkpt lat="45.57913" lon="5.33289">
        <ele>336</ele>
        <time>2021-03-07T09:18:24.423Z</time>
      </trkpt>
      <trkpt lat="45.57912" lon="5.33276">
        <ele>335</ele>
        <time>2021-03-07T09:18:25.422Z</time>
      </trkpt>
      <trkpt lat="45.57912" lon="5.33264">
        <ele>333</ele>
        <time>2021-03-07T09:18:26.423Z</time>
      </trkpt>
      <trkpt lat="45.57911" lon="5.33251">
        <ele>331</ele>
        <time>2021-03-07T09:18:27.422Z</time>
      </trkpt>
      <trkpt lat="45.57911" lon="5.33239">
        <ele>330</ele>
        <time>2021-03-07T09:18:28.423Z</time>
      </trkpt>
      <trkpt lat="45.5791" lon="5.33229">
        <ele>328</ele>
        <time>2021-03-07T09:18:29.422Z</time>
      </trkpt>
      <trkpt lat="45.5791" lon="5.33219">
        <ele>327</ele>
        <time>2021-03-07T09:18:30.422Z</time>
      </trkpt>
      <trkpt lat="45.57909" lon="5.33209">
        <ele>325</ele>
        <time>2021-03-07T09:18:31.423Z</time>
      </trkpt>
      <trkpt lat="45.57908" lon="5.332">
        <ele>324</ele>
        <time>2021-03-07T09:18:32.422Z</time>
      </trkpt>
      <trkpt lat="45.57908" lon="5.33192">
        <ele>322</ele>
        <time>2021-03-07T09:18:33.423Z</time>
      </trkpt>
      <trkpt lat="45.57907" lon="5.33183">
        <ele>321</ele>
        <time>2021-03-07T09:18:34.423Z</time>
      </trkpt>
      <trkpt lat="45.57906" lon="5.33174">
        <ele>320</ele>
        <time>2021-03-07T09:18:35.422Z</time>
      </trkpt>
      <trkpt lat="45.57906" lon="5.33165">
        <ele>319</ele>
        <time>2021-03-07T09:18:36.422Z</time>
      </trkpt>
      <trkpt lat="45.57906" lon="5.33156">
        <ele>318</ele>
        <time>2021-03-07T09:18:37.423Z</time>
      </trkpt>
      <trkpt lat="45.57905" lon="5.33147">
        <ele>317</ele>
        <time>2021-03-07T09:18:38.423Z</time>
      </trkpt>
      <trkpt lat="45.57905" lon="5.3314">
        <ele>316</ele>
        <time>2021-03-07T09:18:39.423Z</time>
      </trkpt>
      <trkpt lat="45.57906" lon="5.33134">
        <ele>315</ele>
        <time>2021-03-07T09:18:40.423Z</time>
      </trkpt>
      <trkpt lat="45.57906" lon="5.33129">
        <ele>315</ele>
        <time>2021-03-07T09:18:41.423Z</time>
      </trkpt>
      <trkpt lat="45.57907" lon="5.33125">
        <ele>314</ele>
        <time>2021-03-07T09:18:42.422Z</time>
      </trkpt>
      <trkpt lat="45.57908" lon="5.33122">
        <ele>313</ele>
        <time>2021-03-07T09:18:43.422Z</time>
      </trkpt>
      <trkpt lat="45.5791" lon="5.3312">
        <ele>313</ele>
        <time>2021-03-07T09:18:44.423Z</time>
      </trkpt>
      <trkpt lat="45.57912" lon="5.33118">
        <ele>312</ele>
        <time>2021-03-07T09:18:45.423Z</time>
      </trkpt>
      <trkpt lat="45.57915" lon="5.33116">
        <ele>311</ele>
        <time>2021-03-07T09:18:46.423Z</time>
      </trkpt>
      <trkpt lat="45.57917" lon="5.33114">
        <ele>311</ele>
        <time>2021-03-07T09:18:47.423Z</time>
      </trkpt>
      <trkpt lat="45.57921" lon="5.33112">
        <ele>311</ele>
        <time>2021-03-07T09:18:48.423Z</time>
      </trkpt>
      <trkpt lat="45.57926" lon="5.3311">
        <ele>311</ele>
        <time>2021-03-07T09:18:49.422Z</time>
      </trkpt>
      <trkpt lat="45.5793" lon="5.33108">
        <ele>310</ele>
        <time>2021-03-07T09:18:50.423Z</time>
      </trkpt>
      <trkpt lat="45.57936" lon="5.33106">
        <ele>310</ele>
        <time>2021-03-07T09:18:51.423Z</time>
      </trkpt>
      <trkpt lat="45.57942" lon="5.33104">
        <ele>310</ele>
        <time>2021-03-07T09:18:52.423Z</time>
      </trkpt>
      <trkpt lat="45.57947" lon="5.33101">
        <ele>310</ele>
        <time>2021-03-07T09:18:53.422Z</time>
      </trkpt>
      <trkpt lat="45.57953" lon="5.33098">
        <ele>309</ele>
        <time>2021-03-07T09:18:54.422Z</time>
      </trkpt>
      <trkpt lat="45.57958" lon="5.33095">
        <ele>309</ele>
        <time>2021-03-07T09:18:55.423Z</time>
      </trkpt>
      <trkpt lat="45.57963" lon="5.33091">
        <ele>309</ele>
        <time>2021-03-07T09:18:56.423Z</time>
      </trkpt>
      <trkpt lat="45.57969" lon="5.33088">
        <ele>308</ele>
        <time>2021-03-07T09:18:57.423Z</time>
      </trkpt>
      <trkpt lat="45.57974" lon="5.33083">
        <ele>308</ele>
        <time>2021-03-07T09:18:58.423Z</time>
      </trkpt>
      <trkpt lat="45.5798" lon="5.3308">
        <ele>307</ele>
        <time>2021-03-07T09:18:59.423Z</time>
      </trkpt>
      <trkpt lat="45.57986" lon="5.33075">
        <ele>307</ele>
        <time>2021-03-07T09:19:00.422Z</time>
      </trkpt>
      <trkpt lat="45.57992" lon="5.33071">
        <ele>306</ele>
        <time>2021-03-07T09:19:01.422Z</time>
      </trkpt>
      <trkpt lat="45.57998" lon="5.33066">
        <ele>306</ele>
        <time>2021-03-07T09:19:02.423Z</time>
      </trkpt>
      <trkpt lat="45.58004" lon="5.33061">
        <ele>306</ele>
        <time>2021-03-07T09:19:03.423Z</time>
      </trkpt>
      <trkpt lat="45.5801" lon="5.33056">
        <ele>305</ele>
        <time>2021-03-07T09:19:04.422Z</time>
      </trkpt>
      <trkpt lat="45.58016" lon="5.33051">
        <ele>304</ele>
        <time>2021-03-07T09:19:05.422Z</time>
      </trkpt>
      <trkpt lat="45.58022" lon="5.33046">
        <ele>304</ele>
        <time>2021-03-07T09:19:06.423Z</time>
      </trkpt>
      <trkpt lat="45.58029" lon="5.3304">
        <ele>303</ele>
        <time>2021-03-07T09:19:07.423Z</time>
      </trkpt>
      <trkpt lat="45.58035" lon="5.33035">
        <ele>303</ele>
        <time>2021-03-07T09:19:08.422Z</time>
      </trkpt>
      <trkpt lat="45.58042" lon="5.3303">
        <ele>303</ele>
        <time>2021-03-07T09:19:09.423Z</time>
      </trkpt>
      <trkpt lat="45.58049" lon="5.33025">
        <ele>302</ele>
        <time>2021-03-07T09:19:10.423Z</time>
      </trkpt>
      <trkpt lat="45.58056" lon="5.33019">
        <ele>302</ele>
        <time>2021-03-07T09:19:11.423Z</time>
      </trkpt>
      <trkpt lat="45.58063" lon="5.33013">
        <ele>302</ele>
        <time>2021-03-07T09:19:12.422Z</time>
      </trkpt>
      <trkpt lat="45.5807" lon="5.33007">
        <ele>301</ele>
        <time>2021-03-07T09:19:13.423Z</time>
      </trkpt>
      <trkpt lat="45.58077" lon="5.33">
        <ele>301</ele>
        <time>2021-03-07T09:19:14.423Z</time>
      </trkpt>
      <trkpt lat="45.58084" lon="5.32994">
        <ele>301</ele>
        <time>2021-03-07T09:19:15.423Z</time>
      </trkpt>
      <trkpt lat="45.58091" lon="5.32987">
        <ele>300</ele>
        <time>2021-03-07T09:19:16.423Z</time>
      </trkpt>
      <trkpt lat="45.58098" lon="5.3298">
        <ele>300</ele>
        <time>2021-03-07T09:19:17.423Z</time>
      </trkpt>
      <trkpt lat="45.58105" lon="5.32973">
        <ele>300</ele>
        <time>2021-03-07T09:19:18.422Z</time>
      </trkpt>
      <trkpt lat="45.58112" lon="5.32966">
        <ele>300</ele>
        <time>2021-03-07T09:19:19.423Z</time>
      </trkpt>
      <trkpt lat="45.58119" lon="5.32958">
        <ele>299</ele>
        <time>2021-03-07T09:19:20.423Z</time>
      </trkpt>
      <trkpt lat="45.58126" lon="5.3295">
        <ele>299</ele>
        <time>2021-03-07T09:19:21.423Z</time>
      </trkpt>
      <trkpt lat="45.58133" lon="5.32943">
        <ele>299</ele>
        <time>2021-03-07T09:19:22.423Z</time>
      </trkpt>
      <trkpt lat="45.58139" lon="5.32935">
        <ele>299</ele>
        <time>2021-03-07T09:19:23.423Z</time>
      </trkpt>
      <trkpt lat="45.58146" lon="5.32927">
        <ele>298</ele>
        <time>2021-03-07T09:19:24.423Z</time>
      </trkpt>
      <trkpt lat="45.58152" lon="5.32919">
        <ele>298</ele>
        <time>2021-03-07T09:19:25.423Z</time>
      </trkpt>
      <trkpt lat="45.58158" lon="5.32911">
        <ele>297</ele>
        <time>2021-03-07T09:19:26.423Z</time>
      </trkpt>
      <trkpt lat="45.58164" lon="5.32902">
        <ele>296</ele>
        <time>2021-03-07T09:19:27.423Z</time>
      </trkpt>
      <trkpt lat="45.5817" lon="5.32893">
        <ele>296</ele>
        <time>2021-03-07T09:19:28.422Z</time>
      </trkpt>
      <trkpt lat="45.58177" lon="5.32884">
        <ele>295</ele>
        <time>2021-03-07T09:19:29.422Z</time>
      </trkpt>
      <trkpt lat="45.58183" lon="5.32876">
        <ele>295</ele>
        <time>2021-03-07T09:19:30.422Z</time>
      </trkpt>
      <trkpt lat="45.5819" lon="5.32867">
        <ele>294</ele>
        <time>2021-03-07T09:19:31.423Z</time>
      </trkpt>
      <trkpt lat="45.58196" lon="5.32858">
        <ele>294</ele>
        <time>2021-03-07T09:19:32.423Z</time>
      </trkpt>
      <trkpt lat="45.58201" lon="5.32849">
        <ele>293</ele>
        <time>2021-03-07T09:19:33.422Z</time>
      </trkpt>
      <trkpt lat="45.58207" lon="5.3284">
        <ele>293</ele>
        <time>2021-03-07T09:19:34.423Z</time>
      </trkpt>
      <trkpt lat="45.58211" lon="5.32831">
        <ele>292</ele>
        <time>2021-03-07T09:19:35.422Z</time>
      </trkpt>
      <trkpt lat="45.58216" lon="5.32822">
        <ele>292</ele>
        <time>2021-03-07T09:19:36.423Z</time>
      </trkpt>
      <trkpt lat="45.58221" lon="5.32813">
        <ele>291</ele>
        <time>2021-03-07T09:19:37.422Z</time>
      </trkpt>
      <trkpt lat="45.58225" lon="5.32804">
        <ele>291</ele>
        <time>2021-03-07T09:19:38.422Z</time>
      </trkpt>
      <trkpt lat="45.58229" lon="5.32795">
        <ele>291</ele>
        <time>2021-03-07T09:19:39.422Z</time>
      </trkpt>
      <trkpt lat="45.58233" lon="5.32786">
        <ele>291</ele>
        <time>2021-03-07T09:19:40.423Z</time>
      </trkpt>
      <trkpt lat="45.58236" lon="5.32777">
        <ele>291</ele>
        <time>2021-03-07T09:19:41.423Z</time>
      </trkpt>
      <trkpt lat="45.58239" lon="5.32767">
        <ele>291</ele>
        <time>2021-03-07T09:19:42.422Z</time>
      </trkpt>
      <trkpt lat="45.58241" lon="5.32757">
        <ele>290</ele>
        <time>2021-03-07T09:19:43.423Z</time>
      </trkpt>
      <trkpt lat="45.58243" lon="5.32748">
        <ele>290</ele>
        <time>2021-03-07T09:19:44.423Z</time>
      </trkpt>
      <trkpt lat="45.58246" lon="5.32739">
        <ele>290</ele>
        <time>2021-03-07T09:19:45.423Z</time>
      </trkpt>
      <trkpt lat="45.5825" lon="5.32731">
        <ele>291</ele>
        <time>2021-03-07T09:19:46.422Z</time>
      </trkpt>
      <trkpt lat="45.58255" lon="5.32725">
        <ele>291</ele>
        <time>2021-03-07T09:19:47.422Z</time>
      </trkpt>
      <trkpt lat="45.58261" lon="5.3272">
        <ele>291</ele>
        <time>2021-03-07T09:19:48.423Z</time>
      </trkpt>
      <trkpt lat="45.58267" lon="5.32715">
        <ele>291</ele>
        <time>2021-03-07T09:19:49.422Z</time>
      </trkpt>
      <trkpt lat="45.58274" lon="5.32712">
        <ele>291</ele>
        <time>2021-03-07T09:19:50.422Z</time>
      </trkpt>
      <trkpt lat="45.58281" lon="5.32709">
        <ele>290</ele>
        <time>2021-03-07T09:19:51.422Z</time>
      </trkpt>
      <trkpt lat="45.58288" lon="5.32706">
        <ele>290</ele>
        <time>2021-03-07T09:19:52.423Z</time>
      </trkpt>
      <trkpt lat="45.58295" lon="5.32703">
        <ele>289</ele>
        <time>2021-03-07T09:19:53.422Z</time>
      </trkpt>
      <trkpt lat="45.58303" lon="5.327">
        <ele>288</ele>
        <time>2021-03-07T09:19:54.423Z</time>
      </trkpt>
      <trkpt lat="45.5831" lon="5.32696">
        <ele>288</ele>
        <time>2021-03-07T09:19:55.423Z</time>
      </trkpt>
      <trkpt lat="45.58317" lon="5.32692">
        <ele>287</ele>
        <time>2021-03-07T09:19:56.422Z</time>
      </trkpt>
      <trkpt lat="45.58323" lon="5.32688">
        <ele>287</ele>
        <time>2021-03-07T09:19:57.422Z</time>
      </trkpt>
      <trkpt lat="45.5833" lon="5.32684">
        <ele>286</ele>
        <time>2021-03-07T09:19:58.423Z</time>
      </trkpt>
      <trkpt lat="45.58337" lon="5.32681">
        <ele>286</ele>
        <time>2021-03-07T09:19:59.423Z</time>
      </trkpt>
      <trkpt lat="45.58344" lon="5.32678">
        <ele>285</ele>
        <time>2021-03-07T09:20:00.422Z</time>
      </trkpt>
      <trkpt lat="45.5835" lon="5.32674">
        <ele>285</ele>
        <time>2021-03-07T09:20:01.423Z</time>
      </trkpt>
      <trkpt lat="45.58357" lon="5.32671">
        <ele>285</ele>
        <time>2021-03-07T09:20:02.422Z</time>
      </trkpt>
      <trkpt lat="45.58363" lon="5.32667">
        <ele>285</ele>
        <time>2021-03-07T09:20:03.422Z</time>
      </trkpt>
      <trkpt lat="45.5837" lon="5.32663">
        <ele>285</ele>
        <time>2021-03-07T09:20:04.423Z</time>
      </trkpt>
      <trkpt lat="45.58376" lon="5.32659">
        <ele>285</ele>
        <time>2021-03-07T09:20:05.422Z</time>
      </trkpt>
      <trkpt lat="45.58382" lon="5.32655">
        <ele>285</ele>
        <time>2021-03-07T09:20:06.422Z</time>
      </trkpt>
      <trkpt lat="45.58388" lon="5.3265">
        <ele>284</ele>
        <time>2021-03-07T09:20:07.423Z</time>
      </trkpt>
      <trkpt lat="45.58394" lon="5.32644">
        <ele>284</ele>
        <time>2021-03-07T09:20:08.423Z</time>
      </trkpt>
      <trkpt lat="45.584" lon="5.32638">
        <ele>284</ele>
        <time>2021-03-07T09:20:09.423Z</time>
      </trkpt>
      <trkpt lat="45.58406" lon="5.32632">
        <ele>284</ele>
        <time>2021-03-07T09:20:10.423Z</time>
      </trkpt>
      <trkpt lat="45.58411" lon="5.32625">
        <ele>284</ele>
        <time>2021-03-07T09:20:11.422Z</time>
      </trkpt>
      <trkpt lat="45.58417" lon="5.32617">
        <ele>284</ele>
        <time>2021-03-07T09:20:12.423Z</time>
      </trkpt>
      <trkpt lat="45.58422" lon="5.3261">
        <ele>285</ele>
        <time>2021-03-07T09:20:13.423Z</time>
      </trkpt>
      <trkpt lat="45.58427" lon="5.32603">
        <ele>284</ele>
        <time>2021-03-07T09:20:14.423Z</time>
      </trkpt>
      <trkpt lat="45.58433" lon="5.32595">
        <ele>284</ele>
        <time>2021-03-07T09:20:15.422Z</time>
      </trkpt>
      <trkpt lat="45.58438" lon="5.32588">
        <ele>284</ele>
        <time>2021-03-07T09:20:16.423Z</time>
      </trkpt>
      <trkpt lat="45.58444" lon="5.3258">
        <ele>284</ele>
        <time>2021-03-07T09:20:17.422Z</time>
      </trkpt>
      <trkpt lat="45.58449" lon="5.32573">
        <ele>284</ele>
        <time>2021-03-07T09:20:18.423Z</time>
      </trkpt>
      <trkpt lat="45.58455" lon="5.32565">
        <ele>284</ele>
        <time>2021-03-07T09:20:19.423Z</time>
      </trkpt>
      <trkpt lat="45.58461" lon="5.32557">
        <ele>284</ele>
        <time>2021-03-07T09:20:20.423Z</time>
      </trkpt>
      <trkpt lat="45.58466" lon="5.32549">
        <ele>283</ele>
        <time>2021-03-07T09:20:21.422Z</time>
      </trkpt>
      <trkpt lat="45.58472" lon="5.32541">
        <ele>283</ele>
        <time>2021-03-07T09:20:22.423Z</time>
      </trkpt>
      <trkpt lat="45.58477" lon="5.32533">
        <ele>283</ele>
        <time>2021-03-07T09:20:23.423Z</time>
      </trkpt>
      <trkpt lat="45.58483" lon="5.32524">
        <ele>283</ele>
        <time>2021-03-07T09:20:24.423Z</time>
      </trkpt>
      <trkpt lat="45.58488" lon="5.32516">
        <ele>283</ele>
        <time>2021-03-07T09:20:25.423Z</time>
      </trkpt>
      <trkpt lat="45.58493" lon="5.32507">
        <ele>282</ele>
        <time>2021-03-07T09:20:26.423Z</time>
      </trkpt>
      <trkpt lat="45.58498" lon="5.32498">
        <ele>282</ele>
        <time>2021-03-07T09:20:27.423Z</time>
      </trkpt>
      <trkpt lat="45.58503" lon="5.32489">
        <ele>282</ele>
        <time>2021-03-07T09:20:28.423Z</time>
      </trkpt>
      <trkpt lat="45.58507" lon="5.3248">
        <ele>282</ele>
        <time>2021-03-07T09:20:29.423Z</time>
      </trkpt>
      <trkpt lat="45.58512" lon="5.3247">
        <ele>281</ele>
        <time>2021-03-07T09:20:30.423Z</time>
      </trkpt>
      <trkpt lat="45.58517" lon="5.32461">
        <ele>281</ele>
        <time>2021-03-07T09:20:31.423Z</time>
      </trkpt>
      <trkpt lat="45.58522" lon="5.32452">
        <ele>281</ele>
        <time>2021-03-07T09:20:32.422Z</time>
      </trkpt>
      <trkpt lat="45.58527" lon="5.32442">
        <ele>281</ele>
        <time>2021-03-07T09:20:33.423Z</time>
      </trkpt>
      <trkpt lat="45.58531" lon="5.32432">
        <ele>280</ele>
        <time>2021-03-07T09:20:34.423Z</time>
      </trkpt>
      <trkpt lat="45.58536" lon="5.32422">
        <ele>280</ele>
        <time>2021-03-07T09:20:35.423Z</time>
      </trkpt>
      <trkpt lat="45.5854" lon="5.32411">
        <ele>280</ele>
        <time>2021-03-07T09:20:36.423Z</time>
      </trkpt>
      <trkpt lat="45.58544" lon="5.32401">
        <ele>280</ele>
        <time>2021-03-07T09:20:37.423Z</time>
      </trkpt>
      <trkpt lat="45.58548" lon="5.3239">
        <ele>280</ele>
        <time>2021-03-07T09:20:38.423Z</time>
      </trkpt>
      <trkpt lat="45.58552" lon="5.32379">
        <ele>279</ele>
        <time>2021-03-07T09:20:39.422Z</time>
      </trkpt>
      <trkpt lat="45.58556" lon="5.32369">
        <ele>279</ele>
        <time>2021-03-07T09:20:40.423Z</time>
      </trkpt>
      <trkpt lat="45.5856" lon="5.32358">
        <ele>279</ele>
        <time>2021-03-07T09:20:41.423Z</time>
      </trkpt>
      <trkpt lat="45.58563" lon="5.32348">
        <ele>279</ele>
        <time>2021-03-07T09:20:42.423Z</time>
      </trkpt>
      <trkpt lat="45.58567" lon="5.32338">
        <ele>278</ele>
        <time>2021-03-07T09:20:43.423Z</time>
      </trkpt>
      <trkpt lat="45.58571" lon="5.32328">
        <ele>278</ele>
        <time>2021-03-07T09:20:44.423Z</time>
      </trkpt>
      <trkpt lat="45.58575" lon="5.32319">
        <ele>278</ele>
        <time>2021-03-07T09:20:45.423Z</time>
      </trkpt>
      <trkpt lat="45.58579" lon="5.32309">
        <ele>278</ele>
        <time>2021-03-07T09:20:46.422Z</time>
      </trkpt>
      <trkpt lat="45.58583" lon="5.323">
        <ele>277</ele>
        <time>2021-03-07T09:20:47.423Z</time>
      </trkpt>
      <trkpt lat="45.58588" lon="5.32291">
        <ele>277</ele>
        <time>2021-03-07T09:20:48.423Z</time>
      </trkpt>
      <trkpt lat="45.58593" lon="5.32282">
        <ele>277</ele>
        <time>2021-03-07T09:20:49.423Z</time>
      </trkpt>
      <trkpt lat="45.58598" lon="5.32273">
        <ele>277</ele>
        <time>2021-03-07T09:20:50.423Z</time>
      </trkpt>
      <trkpt lat="45.58604" lon="5.32265">
        <ele>277</ele>
        <time>2021-03-07T09:20:51.423Z</time>
      </trkpt>
      <trkpt lat="45.58609" lon="5.32256">
        <ele>277</ele>
        <time>2021-03-07T09:20:52.423Z</time>
      </trkpt>
      <trkpt lat="45.58615" lon="5.32248">
        <ele>277</ele>
        <time>2021-03-07T09:20:53.423Z</time>
      </trkpt>
      <trkpt lat="45.58621" lon="5.32239">
        <ele>276</ele>
        <time>2021-03-07T09:20:54.423Z</time>
      </trkpt>
      <trkpt lat="45.58627" lon="5.32231">
        <ele>276</ele>
        <time>2021-03-07T09:20:55.423Z</time>
      </trkpt>
      <trkpt lat="45.58633" lon="5.32223">
        <ele>276</ele>
        <time>2021-03-07T09:20:56.423Z</time>
      </trkpt>
      <trkpt lat="45.58638" lon="5.32214">
        <ele>276</ele>
        <time>2021-03-07T09:20:57.423Z</time>
      </trkpt>
      <trkpt lat="45.58644" lon="5.32206">
        <ele>276</ele>
        <time>2021-03-07T09:20:58.423Z</time>
      </trkpt>
      <trkpt lat="45.5865" lon="5.32198">
        <ele>276</ele>
        <time>2021-03-07T09:20:59.422Z</time>
      </trkpt>
      <trkpt lat="45.58655" lon="5.32191">
        <ele>276</ele>
        <time>2021-03-07T09:21:00.422Z</time>
      </trkpt>
      <trkpt lat="45.58661" lon="5.32183">
        <ele>276</ele>
        <time>2021-03-07T09:21:01.423Z</time>
      </trkpt>
      <trkpt lat="45.58666" lon="5.32175">
        <ele>276</ele>
        <time>2021-03-07T09:21:02.423Z</time>
      </trkpt>
      <trkpt lat="45.58672" lon="5.32167">
        <ele>276</ele>
        <time>2021-03-07T09:21:03.423Z</time>
      </trkpt>
      <trkpt lat="45.58677" lon="5.32159">
        <ele>276</ele>
        <time>2021-03-07T09:21:04.422Z</time>
      </trkpt>
      <trkpt lat="45.58682" lon="5.3215">
        <ele>276</ele>
        <time>2021-03-07T09:21:05.423Z</time>
      </trkpt>
      <trkpt lat="45.58687" lon="5.32141">
        <ele>275</ele>
        <time>2021-03-07T09:21:06.423Z</time>
      </trkpt>
      <trkpt lat="45.58691" lon="5.32132">
        <ele>275</ele>
        <time>2021-03-07T09:21:07.423Z</time>
      </trkpt>
      <trkpt lat="45.58695" lon="5.32122">
        <ele>274</ele>
        <time>2021-03-07T09:21:08.423Z</time>
      </trkpt>
      <trkpt lat="45.587" lon="5.32113">
        <ele>274</ele>
        <time>2021-03-07T09:21:09.423Z</time>
      </trkpt>
      <trkpt lat="45.58704" lon="5.32104">
        <ele>274</ele>
        <time>2021-03-07T09:21:10.422Z</time>
      </trkpt>
      <trkpt lat="45.58708" lon="5.32095">
        <ele>273</ele>
        <time>2021-03-07T09:21:11.422Z</time>
      </trkpt>
      <trkpt lat="45.58712" lon="5.32086">
        <ele>273</ele>
        <time>2021-03-07T09:21:12.423Z</time>
      </trkpt>
      <trkpt lat="45.58716" lon="5.32077">
        <ele>273</ele>
        <time>2021-03-07T09:21:13.423Z</time>
      </trkpt>
      <trkpt lat="45.58719" lon="5.32067">
        <ele>273</ele>
        <time>2021-03-07T09:21:14.422Z</time>
      </trkpt>
      <trkpt lat="45.58723" lon="5.32058">
        <ele>273</ele>
        <time>2021-03-07T09:21:15.423Z</time>
      </trkpt>
      <trkpt lat="45.58727" lon="5.32049">
        <ele>273</ele>
        <time>2021-03-07T09:21:16.423Z</time>
      </trkpt>
      <trkpt lat="45.5873" lon="5.3204">
        <ele>273</ele>
        <time>2021-03-07T09:21:17.423Z</time>
      </trkpt>
      <trkpt lat="45.58733" lon="5.32031">
        <ele>274</ele>
        <time>2021-03-07T09:21:18.422Z</time>
      </trkpt>
      <trkpt lat="45.58736" lon="5.32022">
        <ele>274</ele>
        <time>2021-03-07T09:21:19.423Z</time>
      </trkpt>
      <trkpt lat="45.58738" lon="5.32013">
        <ele>274</ele>
        <time>2021-03-07T09:21:20.423Z</time>
      </trkpt>
      <trkpt lat="45.5874" lon="5.32003">
        <ele>274</ele>
        <time>2021-03-07T09:21:21.423Z</time>
      </trkpt>
      <trkpt lat="45.58742" lon="5.31993">
        <ele>274</ele>
        <time>2021-03-07T09:21:22.423Z</time>
      </trkpt>
      <trkpt lat="45.58744" lon="5.31983">
        <ele>274</ele>
        <time>2021-03-07T09:21:23.422Z</time>
      </trkpt>
      <trkpt lat="45.58745" lon="5.31973">
        <ele>274</ele>
        <time>2021-03-07T09:21:24.423Z</time>
      </trkpt>
      <trkpt lat="45.58748" lon="5.31964">
        <ele>274</ele>
        <time>2021-03-07T09:21:25.423Z</time>
      </trkpt>
      <trkpt lat="45.5875" lon="5.31955">
        <ele>273</ele>
        <time>2021-03-07T09:21:26.422Z</time>
      </trkpt>
      <trkpt lat="45.58753" lon="5.31945">
        <ele>273</ele>
        <time>2021-03-07T09:21:27.423Z</time>
      </trkpt>
      <trkpt lat="45.58755" lon="5.31936">
        <ele>273</ele>
        <time>2021-03-07T09:21:28.422Z</time>
      </trkpt>
      <trkpt lat="45.58758" lon="5.31926">
        <ele>272</ele>
        <time>2021-03-07T09:21:29.423Z</time>
      </trkpt>
      <trkpt lat="45.58761" lon="5.31917">
        <ele>272</ele>
        <time>2021-03-07T09:21:30.423Z</time>
      </trkpt>
      <trkpt lat="45.58763" lon="5.31908">
        <ele>272</ele>
        <time>2021-03-07T09:21:31.423Z</time>
      </trkpt>
      <trkpt lat="45.58766" lon="5.31899">
        <ele>272</ele>
        <time>2021-03-07T09:21:32.423Z</time>
      </trkpt>
      <trkpt lat="45.58769" lon="5.3189">
        <ele>272</ele>
        <time>2021-03-07T09:21:33.422Z</time>
      </trkpt>
      <trkpt lat="45.58772" lon="5.3188">
        <ele>272</ele>
        <time>2021-03-07T09:21:34.423Z</time>
      </trkpt>
      <trkpt lat="45.58774" lon="5.31871">
        <ele>272</ele>
        <time>2021-03-07T09:21:35.423Z</time>
      </trkpt>
      <trkpt lat="45.58777" lon="5.31861">
        <ele>272</ele>
        <time>2021-03-07T09:21:36.423Z</time>
      </trkpt>
      <trkpt lat="45.5878" lon="5.31852">
        <ele>272</ele>
        <time>2021-03-07T09:21:37.423Z</time>
      </trkpt>
      <trkpt lat="45.58783" lon="5.31843">
        <ele>272</ele>
        <time>2021-03-07T09:21:38.423Z</time>
      </trkpt>
      <trkpt lat="45.58786" lon="5.31834">
        <ele>272</ele>
        <time>2021-03-07T09:21:39.423Z</time>
      </trkpt>
      <trkpt lat="45.58789" lon="5.31825">
        <ele>272</ele>
        <time>2021-03-07T09:21:40.423Z</time>
      </trkpt>
      <trkpt lat="45.58792" lon="5.31817">
        <ele>271</ele>
        <time>2021-03-07T09:21:41.423Z</time>
      </trkpt>
      <trkpt lat="45.58795" lon="5.31809">
        <ele>271</ele>
        <time>2021-03-07T09:21:42.423Z</time>
      </trkpt>
      <trkpt lat="45.58797" lon="5.318">
        <ele>271</ele>
        <time>2021-03-07T09:21:43.423Z</time>
      </trkpt>
      <trkpt lat="45.588" lon="5.31792">
        <ele>271</ele>
        <time>2021-03-07T09:21:44.423Z</time>
      </trkpt>
      <trkpt lat="45.58803" lon="5.31784">
        <ele>271</ele>
        <time>2021-03-07T09:21:45.423Z</time>
      </trkpt>
      <trkpt lat="45.58806" lon="5.31776">
        <ele>271</ele>
        <time>2021-03-07T09:21:46.422Z</time>
      </trkpt>
      <trkpt lat="45.58809" lon="5.31768">
        <ele>270</ele>
        <time>2021-03-07T09:21:47.423Z</time>
      </trkpt>
      <trkpt lat="45.58813" lon="5.3176">
        <ele>270</ele>
        <time>2021-03-07T09:21:48.423Z</time>
      </trkpt>
      <trkpt lat="45.58816" lon="5.31752">
        <ele>270</ele>
        <time>2021-03-07T09:21:49.423Z</time>
      </trkpt>
      <trkpt lat="45.58819" lon="5.31744">
        <ele>269</ele>
        <time>2021-03-07T09:21:50.423Z</time>
      </trkpt>
      <trkpt lat="45.58822" lon="5.31736">
        <ele>269</ele>
        <time>2021-03-07T09:21:51.423Z</time>
      </trkpt>
      <trkpt lat="45.58824" lon="5.31728">
        <ele>268</ele>
        <time>2021-03-07T09:21:52.423Z</time>
      </trkpt>
      <trkpt lat="45.58826" lon="5.3172">
        <ele>268</ele>
        <time>2021-03-07T09:21:53.422Z</time>
      </trkpt>
      <trkpt lat="45.58828" lon="5.31711">
        <ele>268</ele>
        <time>2021-03-07T09:21:54.423Z</time>
      </trkpt>
      <trkpt lat="45.5883" lon="5.31703">
        <ele>268</ele>
        <time>2021-03-07T09:21:55.423Z</time>
      </trkpt>
      <trkpt lat="45.58831" lon="5.31695">
        <ele>267</ele>
        <time>2021-03-07T09:21:56.422Z</time>
      </trkpt>
      <trkpt lat="45.58832" lon="5.31687">
        <ele>267</ele>
        <time>2021-03-07T09:21:57.422Z</time>
      </trkpt>
      <trkpt lat="45.58832" lon="5.31678">
        <ele>266</ele>
        <time>2021-03-07T09:21:58.423Z</time>
      </trkpt>
      <trkpt lat="45.58832" lon="5.31668">
        <ele>266</ele>
        <time>2021-03-07T09:21:59.423Z</time>
      </trkpt>
      <trkpt lat="45.58833" lon="5.31659">
        <ele>266</ele>
        <time>2021-03-07T09:22:00.422Z</time>
      </trkpt>
      <trkpt lat="45.58833" lon="5.31651">
        <ele>266</ele>
        <time>2021-03-07T09:22:01.423Z</time>
      </trkpt>
      <trkpt lat="45.58834" lon="5.31641">
        <ele>266</ele>
        <time>2021-03-07T09:22:02.422Z</time>
      </trkpt>
      <trkpt lat="45.58834" lon="5.31631">
        <ele>266</ele>
        <time>2021-03-07T09:22:03.422Z</time>
      </trkpt>
      <trkpt lat="45.58834" lon="5.31622">
        <ele>266</ele>
        <time>2021-03-07T09:22:04.422Z</time>
      </trkpt>
      <trkpt lat="45.58834" lon="5.31612">
        <ele>266</ele>
        <time>2021-03-07T09:22:05.422Z</time>
      </trkpt>
      <trkpt lat="45.58836" lon="5.31603">
        <ele>266</ele>
        <time>2021-03-07T09:22:06.422Z</time>
      </trkpt>
      <trkpt lat="45.58838" lon="5.31595">
        <ele>266</ele>
        <time>2021-03-07T09:22:07.422Z</time>
      </trkpt>
      <trkpt lat="45.5884" lon="5.31587">
        <ele>266</ele>
        <time>2021-03-07T09:22:08.423Z</time>
      </trkpt>
      <trkpt lat="45.58842" lon="5.31578">
        <ele>266</ele>
        <time>2021-03-07T09:22:09.422Z</time>
      </trkpt>
      <trkpt lat="45.58842" lon="5.31568">
        <ele>266</ele>
        <time>2021-03-07T09:22:10.423Z</time>
      </trkpt>
      <trkpt lat="45.58841" lon="5.31558">
        <ele>267</ele>
        <time>2021-03-07T09:22:11.423Z</time>
      </trkpt>
      <trkpt lat="45.58841" lon="5.31548">
        <ele>267</ele>
        <time>2021-03-07T09:22:12.423Z</time>
      </trkpt>
      <trkpt lat="45.58842" lon="5.31539">
        <ele>268</ele>
        <time>2021-03-07T09:22:13.423Z</time>
      </trkpt>
      <trkpt lat="45.58842" lon="5.31529">
        <ele>268</ele>
        <time>2021-03-07T09:22:14.422Z</time>
      </trkpt>
      <trkpt lat="45.58843" lon="5.3152">
        <ele>268</ele>
        <time>2021-03-07T09:22:15.422Z</time>
      </trkpt>
      <trkpt lat="45.58843" lon="5.31511">
        <ele>268</ele>
        <time>2021-03-07T09:22:16.423Z</time>
      </trkpt>
      <trkpt lat="45.58844" lon="5.31502">
        <ele>269</ele>
        <time>2021-03-07T09:22:17.423Z</time>
      </trkpt>
      <trkpt lat="45.58844" lon="5.31493">
        <ele>269</ele>
        <time>2021-03-07T09:22:18.423Z</time>
      </trkpt>
      <trkpt lat="45.58845" lon="5.31485">
        <ele>269</ele>
        <time>2021-03-07T09:22:19.422Z</time>
      </trkpt>
      <trkpt lat="45.58845" lon="5.31476">
        <ele>270</ele>
        <time>2021-03-07T09:22:20.422Z</time>
      </trkpt>
      <trkpt lat="45.58846" lon="5.31468">
        <ele>270</ele>
        <time>2021-03-07T09:22:21.423Z</time>
      </trkpt>
      <trkpt lat="45.58846" lon="5.3146">
        <ele>270</ele>
        <time>2021-03-07T09:22:22.423Z</time>
      </trkpt>
      <trkpt lat="45.58846" lon="5.31452">
        <ele>270</ele>
        <time>2021-03-07T09:22:23.423Z</time>
      </trkpt>
      <trkpt lat="45.58846" lon="5.31444">
        <ele>270</ele>
        <time>2021-03-07T09:22:24.423Z</time>
      </trkpt>
      <trkpt lat="45.58846" lon="5.31436">
        <ele>270</ele>
        <time>2021-03-07T09:22:25.423Z</time>
      </trkpt>
      <trkpt lat="45.58846" lon="5.31428">
        <ele>270</ele>
        <time>2021-03-07T09:22:26.422Z</time>
      </trkpt>
      <trkpt lat="45.58845" lon="5.31419">
        <ele>270</ele>
        <time>2021-03-07T09:22:27.423Z</time>
      </trkpt>
      <trkpt lat="45.58844" lon="5.3141">
        <ele>270</ele>
        <time>2021-03-07T09:22:28.423Z</time>
      </trkpt>
      <trkpt lat="45.58843" lon="5.31401">
        <ele>269</ele>
        <time>2021-03-07T09:22:29.422Z</time>
      </trkpt>
      <trkpt lat="45.58842" lon="5.31392">
        <ele>269</ele>
        <time>2021-03-07T09:22:30.423Z</time>
      </trkpt>
      <trkpt lat="45.58842" lon="5.31384">
        <ele>269</ele>
        <time>2021-03-07T09:22:31.423Z</time>
      </trkpt>
      <trkpt lat="45.58842" lon="5.31375">
        <ele>269</ele>
        <time>2021-03-07T09:22:32.423Z</time>
      </trkpt>
      <trkpt lat="45.58842" lon="5.31366">
        <ele>268</ele>
        <time>2021-03-07T09:22:33.422Z</time>
      </trkpt>
      <trkpt lat="45.58841" lon="5.31357">
        <ele>268</ele>
        <time>2021-03-07T09:22:34.423Z</time>
      </trkpt>
      <trkpt lat="45.58841" lon="5.31348">
        <ele>268</ele>
        <time>2021-03-07T09:22:35.422Z</time>
      </trkpt>
      <trkpt lat="45.5884" lon="5.31339">
        <ele>268</ele>
        <time>2021-03-07T09:22:36.422Z</time>
      </trkpt>
      <trkpt lat="45.58839" lon="5.31329">
        <ele>267</ele>
        <time>2021-03-07T09:22:37.423Z</time>
      </trkpt>
      <trkpt lat="45.58838" lon="5.3132">
        <ele>267</ele>
        <time>2021-03-07T09:22:38.423Z</time>
      </trkpt>
      <trkpt lat="45.58838" lon="5.31312">
        <ele>267</ele>
        <time>2021-03-07T09:22:39.422Z</time>
      </trkpt>
      <trkpt lat="45.58837" lon="5.31304">
        <ele>266</ele>
        <time>2021-03-07T09:22:40.423Z</time>
      </trkpt>
      <trkpt lat="45.58837" lon="5.31297">
        <ele>266</ele>
        <time>2021-03-07T09:22:41.422Z</time>
      </trkpt>
      <trkpt lat="45.58836" lon="5.31291">
        <ele>266</ele>
        <time>2021-03-07T09:22:42.422Z</time>
      </trkpt>
      <trkpt lat="45.58835" lon="5.31287">
        <ele>266</ele>
        <time>2021-03-07T09:22:43.423Z</time>
      </trkpt>
      <trkpt lat="45.58835" lon="5.31285">
        <ele>266</ele>
        <time>2021-03-07T09:22:44.423Z</time>
      </trkpt>
      <trkpt lat="45.58835" lon="5.31284">
        <ele>265</ele>
        <time>2021-03-07T09:22:45.422Z</time>
      </trkpt>
      <trkpt lat="45.58834" lon="5.31282">
        <ele>265</ele>
        <time>2021-03-07T09:22:46.423Z</time>
      </trkpt>
      <trkpt lat="45.58833" lon="5.3128">
        <ele>265</ele>
        <time>2021-03-07T09:22:47.423Z</time>
      </trkpt>
      <trkpt lat="45.58833" lon="5.31278">
        <ele>264</ele>
        <time>2021-03-07T09:22:48.423Z</time>
      </trkpt>
      <trkpt lat="45.58833" lon="5.31276">
        <ele>264</ele>
        <time>2021-03-07T09:22:49.423Z</time>
      </trkpt>
      <trkpt lat="45.58832" lon="5.31272">
        <ele>265</ele>
        <time>2021-03-07T09:22:50.422Z</time>
      </trkpt>
      <trkpt lat="45.58832" lon="5.31268">
        <ele>265</ele>
        <time>2021-03-07T09:22:51.423Z</time>
      </trkpt>
      <trkpt lat="45.58832" lon="5.31263">
        <ele>265</ele>
        <time>2021-03-07T09:22:52.422Z</time>
      </trkpt>
      <trkpt lat="45.58832" lon="5.31257">
        <ele>265</ele>
        <time>2021-03-07T09:22:53.423Z</time>
      </trkpt>
      <trkpt lat="45.58832" lon="5.31249">
        <ele>265</ele>
        <time>2021-03-07T09:22:54.423Z</time>
      </trkpt>
      <trkpt lat="45.58831" lon="5.31241">
        <ele>265</ele>
        <time>2021-03-07T09:22:55.422Z</time>
      </trkpt>
      <trkpt lat="45.5883" lon="5.31233">
        <ele>265</ele>
        <time>2021-03-07T09:22:56.423Z</time>
      </trkpt>
      <trkpt lat="45.5883" lon="5.31224">
        <ele>265</ele>
        <time>2021-03-07T09:22:57.422Z</time>
      </trkpt>
      <trkpt lat="45.58829" lon="5.31216">
        <ele>264</ele>
        <time>2021-03-07T09:22:58.422Z</time>
      </trkpt>
      <trkpt lat="45.58829" lon="5.31207">
        <ele>264</ele>
        <time>2021-03-07T09:22:59.423Z</time>
      </trkpt>
      <trkpt lat="45.5883" lon="5.31199">
        <ele>264</ele>
        <time>2021-03-07T09:23:00.422Z</time>
      </trkpt>
      <trkpt lat="45.5883" lon="5.3119">
        <ele>264</ele>
        <time>2021-03-07T09:23:01.423Z</time>
      </trkpt>
      <trkpt lat="45.58829" lon="5.31181">
        <ele>263</ele>
        <time>2021-03-07T09:23:02.423Z</time>
      </trkpt>
      <trkpt lat="45.5883" lon="5.31172">
        <ele>263</ele>
        <time>2021-03-07T09:23:03.422Z</time>
      </trkpt>
      <trkpt lat="45.58829" lon="5.31163">
        <ele>263</ele>
        <time>2021-03-07T09:23:04.423Z</time>
      </trkpt>
      <trkpt lat="45.58829" lon="5.31154">
        <ele>263</ele>
        <time>2021-03-07T09:23:05.423Z</time>
      </trkpt>
      <trkpt lat="45.58829" lon="5.31145">
        <ele>262</ele>
        <time>2021-03-07T09:23:06.423Z</time>
      </trkpt>
      <trkpt lat="45.58829" lon="5.31135">
        <ele>262</ele>
        <time>2021-03-07T09:23:07.423Z</time>
      </trkpt>
      <trkpt lat="45.58829" lon="5.31126">
        <ele>262</ele>
        <time>2021-03-07T09:23:08.423Z</time>
      </trkpt>
      <trkpt lat="45.5883" lon="5.31117">
        <ele>262</ele>
        <time>2021-03-07T09:23:09.423Z</time>
      </trkpt>
      <trkpt lat="45.5883" lon="5.31108">
        <ele>263</ele>
        <time>2021-03-07T09:23:10.423Z</time>
      </trkpt>
      <trkpt lat="45.5883" lon="5.31098">
        <ele>263</ele>
        <time>2021-03-07T09:23:11.423Z</time>
      </trkpt>
      <trkpt lat="45.5883" lon="5.31088">
        <ele>263</ele>
        <time>2021-03-07T09:23:12.423Z</time>
      </trkpt>
      <trkpt lat="45.5883" lon="5.31078">
        <ele>263</ele>
        <time>2021-03-07T09:23:13.422Z</time>
      </trkpt>
      <trkpt lat="45.5883" lon="5.31068">
        <ele>263</ele>
        <time>2021-03-07T09:23:14.422Z</time>
      </trkpt>
      <trkpt lat="45.58829" lon="5.31058">
        <ele>263</ele>
        <time>2021-03-07T09:23:15.422Z</time>
      </trkpt>
      <trkpt lat="45.58829" lon="5.31047">
        <ele>263</ele>
        <time>2021-03-07T09:23:16.423Z</time>
      </trkpt>
      <trkpt lat="45.5883" lon="5.31037">
        <ele>262</ele>
        <time>2021-03-07T09:23:17.423Z</time>
      </trkpt>
      <trkpt lat="45.5883" lon="5.31027">
        <ele>262</ele>
        <time>2021-03-07T09:23:18.423Z</time>
      </trkpt>
      <trkpt lat="45.5883" lon="5.31017">
        <ele>262</ele>
        <time>2021-03-07T09:23:19.422Z</time>
      </trkpt>
      <trkpt lat="45.58831" lon="5.31007">
        <ele>262</ele>
        <time>2021-03-07T09:23:20.423Z</time>
      </trkpt>
      <trkpt lat="45.58831" lon="5.30997">
        <ele>261</ele>
        <time>2021-03-07T09:23:21.422Z</time>
      </trkpt>
      <trkpt lat="45.58831" lon="5.30988">
        <ele>261</ele>
        <time>2021-03-07T09:23:22.422Z</time>
      </trkpt>
      <trkpt lat="45.5883" lon="5.30978">
        <ele>261</ele>
        <time>2021-03-07T09:23:23.423Z</time>
      </trkpt>
      <trkpt lat="45.5883" lon="5.30969">
        <ele>261</ele>
        <time>2021-03-07T09:23:24.422Z</time>
      </trkpt>
      <trkpt lat="45.58832" lon="5.30961">
        <ele>261</ele>
        <time>2021-03-07T09:23:25.422Z</time>
      </trkpt>
      <trkpt lat="45.58836" lon="5.30954">
        <ele>260</ele>
        <time>2021-03-07T09:23:26.423Z</time>
      </trkpt>
      <trkpt lat="45.58841" lon="5.30948">
        <ele>260</ele>
        <time>2021-03-07T09:23:27.423Z</time>
      </trkpt>
      <trkpt lat="45.58846" lon="5.30942">
        <ele>259</ele>
        <time>2021-03-07T09:23:28.423Z</time>
      </trkpt>
      <trkpt lat="45.58851" lon="5.30936">
        <ele>258</ele>
        <time>2021-03-07T09:23:29.423Z</time>
      </trkpt>
      <trkpt lat="45.58856" lon="5.30927">
        <ele>258</ele>
        <time>2021-03-07T09:23:30.423Z</time>
      </trkpt>
      <trkpt lat="45.58859" lon="5.30922">
        <ele>257</ele>
        <time>2021-03-07T09:23:31.422Z</time>
      </trkpt>
      <trkpt lat="45.58863" lon="5.30914">
        <ele>257</ele>
        <time>2021-03-07T09:23:32.423Z</time>
      </trkpt>
      <trkpt lat="45.58867" lon="5.30906">
        <ele>257</ele>
        <time>2021-03-07T09:23:33.423Z</time>
      </trkpt>
      <trkpt lat="45.5887" lon="5.30899">
        <ele>256</ele>
        <time>2021-03-07T09:23:34.423Z</time>
      </trkpt>
      <trkpt lat="45.58874" lon="5.30891">
        <ele>256</ele>
        <time>2021-03-07T09:23:35.422Z</time>
      </trkpt>
      <trkpt lat="45.58878" lon="5.30884">
        <ele>255</ele>
        <time>2021-03-07T09:23:36.423Z</time>
      </trkpt>
      <trkpt lat="45.58882" lon="5.30877">
        <ele>255</ele>
        <time>2021-03-07T09:23:37.422Z</time>
      </trkpt>
      <trkpt lat="45.58886" lon="5.30869">
        <ele>255</ele>
        <time>2021-03-07T09:23:38.423Z</time>
      </trkpt>
      <trkpt lat="45.58889" lon="5.30861">
        <ele>254</ele>
        <time>2021-03-07T09:23:39.423Z</time>
      </trkpt>
      <trkpt lat="45.58892" lon="5.30852">
        <ele>254</ele>
        <time>2021-03-07T09:23:40.423Z</time>
      </trkpt>
      <trkpt lat="45.58896" lon="5.30844">
        <ele>254</ele>
        <time>2021-03-07T09:23:41.423Z</time>
      </trkpt>
      <trkpt lat="45.58899" lon="5.30836">
        <ele>254</ele>
        <time>2021-03-07T09:23:42.422Z</time>
      </trkpt>
      <trkpt lat="45.58903" lon="5.30827">
        <ele>254</ele>
        <time>2021-03-07T09:23:43.422Z</time>
      </trkpt>
      <trkpt lat="45.58906" lon="5.30818">
        <ele>254</ele>
        <time>2021-03-07T09:23:44.423Z</time>
      </trkpt>
      <trkpt lat="45.58909" lon="5.30809">
        <ele>254</ele>
        <time>2021-03-07T09:23:45.423Z</time>
      </trkpt>
      <trkpt lat="45.58912" lon="5.30799">
        <ele>254</ele>
        <time>2021-03-07T09:23:46.422Z</time>
      </trkpt>
      <trkpt lat="45.58915" lon="5.30789">
        <ele>254</ele>
        <time>2021-03-07T09:23:47.422Z</time>
      </trkpt>
      <trkpt lat="45.58917" lon="5.30779">
        <ele>254</ele>
        <time>2021-03-07T09:23:48.423Z</time>
      </trkpt>
      <trkpt lat="45.5892" lon="5.30769">
        <ele>254</ele>
        <time>2021-03-07T09:23:49.423Z</time>
      </trkpt>
      <trkpt lat="45.58922" lon="5.30759">
        <ele>254</ele>
        <time>2021-03-07T09:23:50.423Z</time>
      </trkpt>
      <trkpt lat="45.58925" lon="5.30749">
        <ele>255</ele>
        <time>2021-03-07T09:23:51.423Z</time>
      </trkpt>
      <trkpt lat="45.58927" lon="5.30739">
        <ele>255</ele>
        <time>2021-03-07T09:23:52.423Z</time>
      </trkpt>
      <trkpt lat="45.58928" lon="5.30729">
        <ele>255</ele>
        <time>2021-03-07T09:23:53.423Z</time>
      </trkpt>
      <trkpt lat="45.5893" lon="5.30719">
        <ele>256</ele>
        <time>2021-03-07T09:23:54.422Z</time>
      </trkpt>
      <trkpt lat="45.58932" lon="5.30709">
        <ele>256</ele>
        <time>2021-03-07T09:23:55.422Z</time>
      </trkpt>
      <trkpt lat="45.58934" lon="5.30699">
        <ele>256</ele>
        <time>2021-03-07T09:23:56.422Z</time>
      </trkpt>
      <trkpt lat="45.58935" lon="5.30689">
        <ele>256</ele>
        <time>2021-03-07T09:23:57.422Z</time>
      </trkpt>
      <trkpt lat="45.58937" lon="5.30679">
        <ele>256</ele>
        <time>2021-03-07T09:23:58.423Z</time>
      </trkpt>
      <trkpt lat="45.58939" lon="5.30669">
        <ele>256</ele>
        <time>2021-03-07T09:23:59.422Z</time>
      </trkpt>
      <trkpt lat="45.5894" lon="5.30659">
        <ele>255</ele>
        <time>2021-03-07T09:24:00.423Z</time>
      </trkpt>
      <trkpt lat="45.58942" lon="5.30649">
        <ele>255</ele>
        <time>2021-03-07T09:24:01.422Z</time>
      </trkpt>
      <trkpt lat="45.58943" lon="5.30639">
        <ele>255</ele>
        <time>2021-03-07T09:24:02.423Z</time>
      </trkpt>
      <trkpt lat="45.58945" lon="5.30629">
        <ele>254</ele>
        <time>2021-03-07T09:24:03.423Z</time>
      </trkpt>
      <trkpt lat="45.58946" lon="5.30619">
        <ele>254</ele>
        <time>2021-03-07T09:24:04.423Z</time>
      </trkpt>
      <trkpt lat="45.58948" lon="5.3061">
        <ele>253</ele>
        <time>2021-03-07T09:24:05.423Z</time>
      </trkpt>
      <trkpt lat="45.58949" lon="5.306">
        <ele>253</ele>
        <time>2021-03-07T09:24:06.423Z</time>
      </trkpt>
      <trkpt lat="45.58951" lon="5.3059">
        <ele>253</ele>
        <time>2021-03-07T09:24:07.422Z</time>
      </trkpt>
      <trkpt lat="45.58952" lon="5.30581">
        <ele>253</ele>
        <time>2021-03-07T09:24:08.423Z</time>
      </trkpt>
      <trkpt lat="45.58954" lon="5.30571">
        <ele>253</ele>
        <time>2021-03-07T09:24:09.423Z</time>
      </trkpt>
      <trkpt lat="45.58955" lon="5.30562">
        <ele>253</ele>
        <time>2021-03-07T09:24:10.422Z</time>
      </trkpt>
      <trkpt lat="45.58957" lon="5.30552">
        <ele>253</ele>
        <time>2021-03-07T09:24:11.422Z</time>
      </trkpt>
      <trkpt lat="45.58958" lon="5.30543">
        <ele>253</ele>
        <time>2021-03-07T09:24:12.423Z</time>
      </trkpt>
      <trkpt lat="45.5896" lon="5.30533">
        <ele>254</ele>
        <time>2021-03-07T09:24:13.423Z</time>
      </trkpt>
      <trkpt lat="45.58962" lon="5.30524">
        <ele>254</ele>
        <time>2021-03-07T09:24:14.422Z</time>
      </trkpt>
      <trkpt lat="45.58964" lon="5.30515">
        <ele>253</ele>
        <time>2021-03-07T09:24:15.423Z</time>
      </trkpt>
      <trkpt lat="45.58966" lon="5.30505">
        <ele>253</ele>
        <time>2021-03-07T09:24:16.422Z</time>
      </trkpt>
      <trkpt lat="45.58968" lon="5.30496">
        <ele>253</ele>
        <time>2021-03-07T09:24:17.422Z</time>
      </trkpt>
      <trkpt lat="45.5897" lon="5.30486">
        <ele>253</ele>
        <time>2021-03-07T09:24:18.422Z</time>
      </trkpt>
      <trkpt lat="45.58972" lon="5.30477">
        <ele>253</ele>
        <time>2021-03-07T09:24:19.422Z</time>
      </trkpt>
      <trkpt lat="45.58974" lon="5.30468">
        <ele>253</ele>
        <time>2021-03-07T09:24:20.422Z</time>
      </trkpt>
      <trkpt lat="45.58977" lon="5.30458">
        <ele>252</ele>
        <time>2021-03-07T09:24:21.422Z</time>
      </trkpt>
      <trkpt lat="45.58979" lon="5.30449">
        <ele>252</ele>
        <time>2021-03-07T09:24:22.422Z</time>
      </trkpt>
      <trkpt lat="45.58982" lon="5.3044">
        <ele>252</ele>
        <time>2021-03-07T09:24:23.422Z</time>
      </trkpt>
      <trkpt lat="45.58984" lon="5.3043">
        <ele>252</ele>
        <time>2021-03-07T09:24:24.423Z</time>
      </trkpt>
      <trkpt lat="45.58987" lon="5.30421">
        <ele>252</ele>
        <time>2021-03-07T09:24:25.422Z</time>
      </trkpt>
      <trkpt lat="45.5899" lon="5.30412">
        <ele>252</ele>
        <time>2021-03-07T09:24:26.422Z</time>
      </trkpt>
      <trkpt lat="45.58993" lon="5.30402">
        <ele>253</ele>
        <time>2021-03-07T09:24:27.423Z</time>
      </trkpt>
      <trkpt lat="45.58996" lon="5.30393">
        <ele>253</ele>
        <time>2021-03-07T09:24:28.423Z</time>
      </trkpt>
      <trkpt lat="45.58998" lon="5.30384">
        <ele>253</ele>
        <time>2021-03-07T09:24:29.423Z</time>
      </trkpt>
      <trkpt lat="45.59001" lon="5.30375">
        <ele>253</ele>
        <time>2021-03-07T09:24:30.422Z</time>
      </trkpt>
      <trkpt lat="45.59004" lon="5.30365">
        <ele>253</ele>
        <time>2021-03-07T09:24:31.423Z</time>
      </trkpt>
      <trkpt lat="45.59007" lon="5.30356">
        <ele>253</ele>
        <time>2021-03-07T09:24:32.423Z</time>
      </trkpt>
      <trkpt lat="45.5901" lon="5.30347">
        <ele>253</ele>
        <time>2021-03-07T09:24:33.422Z</time>
      </trkpt>
      <trkpt lat="45.59013" lon="5.30338">
        <ele>253</ele>
        <time>2021-03-07T09:24:34.423Z</time>
      </trkpt>
      <trkpt lat="45.59016" lon="5.30329">
        <ele>253</ele>
        <time>2021-03-07T09:24:35.423Z</time>
      </trkpt>
      <trkpt lat="45.59018" lon="5.30319">
        <ele>253</ele>
        <time>2021-03-07T09:24:36.423Z</time>
      </trkpt>
      <trkpt lat="45.59021" lon="5.3031">
        <ele>254</ele>
        <time>2021-03-07T09:24:37.423Z</time>
      </trkpt>
      <trkpt lat="45.59024" lon="5.303">
        <ele>254</ele>
        <time>2021-03-07T09:24:38.423Z</time>
      </trkpt>
      <trkpt lat="45.59026" lon="5.30291">
        <ele>254</ele>
        <time>2021-03-07T09:24:39.423Z</time>
      </trkpt>
      <trkpt lat="45.59029" lon="5.30282">
        <ele>254</ele>
        <time>2021-03-07T09:24:40.422Z</time>
      </trkpt>
      <trkpt lat="45.59032" lon="5.30273">
        <ele>254</ele>
        <time>2021-03-07T09:24:41.423Z</time>
      </trkpt>
      <trkpt lat="45.59035" lon="5.30263">
        <ele>254</ele>
        <time>2021-03-07T09:24:42.422Z</time>
      </trkpt>
      <trkpt lat="45.59038" lon="5.30254">
        <ele>254</ele>
        <time>2021-03-07T09:24:43.423Z</time>
      </trkpt>
      <trkpt lat="45.59041" lon="5.30245">
        <ele>254</ele>
        <time>2021-03-07T09:24:44.423Z</time>
      </trkpt>
      <trkpt lat="45.59043" lon="5.30236">
        <ele>254</ele>
        <time>2021-03-07T09:24:45.423Z</time>
      </trkpt>
      <trkpt lat="45.59046" lon="5.30226">
        <ele>254</ele>
        <time>2021-03-07T09:24:46.423Z</time>
      </trkpt>
      <trkpt lat="45.59048" lon="5.30217">
        <ele>254</ele>
        <time>2021-03-07T09:24:47.423Z</time>
      </trkpt>
      <trkpt lat="45.59051" lon="5.30208">
        <ele>254</ele>
        <time>2021-03-07T09:24:48.423Z</time>
      </trkpt>
      <trkpt lat="45.59053" lon="5.30198">
        <ele>254</ele>
        <time>2021-03-07T09:24:49.423Z</time>
      </trkpt>
      <trkpt lat="45.59056" lon="5.30189">
        <ele>254</ele>
        <time>2021-03-07T09:24:50.422Z</time>
      </trkpt>
      <trkpt lat="45.59058" lon="5.3018">
        <ele>254</ele>
        <time>2021-03-07T09:24:51.423Z</time>
      </trkpt>
      <trkpt lat="45.59061" lon="5.30171">
        <ele>254</ele>
        <time>2021-03-07T09:24:52.423Z</time>
      </trkpt>
      <trkpt lat="45.59063" lon="5.30162">
        <ele>254</ele>
        <time>2021-03-07T09:24:53.423Z</time>
      </trkpt>
      <trkpt lat="45.59066" lon="5.30153">
        <ele>254</ele>
        <time>2021-03-07T09:24:54.422Z</time>
      </trkpt>
      <trkpt lat="45.59068" lon="5.30143">
        <ele>254</ele>
        <time>2021-03-07T09:24:55.422Z</time>
      </trkpt>
      <trkpt lat="45.59071" lon="5.30133">
        <ele>254</ele>
        <time>2021-03-07T09:24:56.422Z</time>
      </trkpt>
      <trkpt lat="45.59073" lon="5.30124">
        <ele>254</ele>
        <time>2021-03-07T09:24:57.423Z</time>
      </trkpt>
      <trkpt lat="45.59076" lon="5.30115">
        <ele>255</ele>
        <time>2021-03-07T09:24:58.422Z</time>
      </trkpt>
      <trkpt lat="45.59077" lon="5.30105">
        <ele>255</ele>
        <time>2021-03-07T09:24:59.422Z</time>
      </trkpt>
      <trkpt lat="45.5908" lon="5.30096">
        <ele>255</ele>
        <time>2021-03-07T09:25:00.423Z</time>
      </trkpt>
      <trkpt lat="45.59081" lon="5.30086">
        <ele>254</ele>
        <time>2021-03-07T09:25:01.422Z</time>
      </trkpt>
      <trkpt lat="45.59083" lon="5.30077">
        <ele>254</ele>
        <time>2021-03-07T09:25:02.423Z</time>
      </trkpt>
      <trkpt lat="45.59085" lon="5.30067">
        <ele>253</ele>
        <time>2021-03-07T09:25:03.422Z</time>
      </trkpt>
      <trkpt lat="45.59087" lon="5.30058">
        <ele>252</ele>
        <time>2021-03-07T09:25:04.423Z</time>
      </trkpt>
      <trkpt lat="45.59089" lon="5.30048">
        <ele>252</ele>
        <time>2021-03-07T09:25:05.423Z</time>
      </trkpt>
      <trkpt lat="45.59091" lon="5.30038">
        <ele>252</ele>
        <time>2021-03-07T09:25:06.423Z</time>
      </trkpt>
      <trkpt lat="45.59093" lon="5.30028">
        <ele>252</ele>
        <time>2021-03-07T09:25:07.423Z</time>
      </trkpt>
      <trkpt lat="45.59095" lon="5.30019">
        <ele>252</ele>
        <time>2021-03-07T09:25:08.423Z</time>
      </trkpt>
      <trkpt lat="45.59097" lon="5.30009">
        <ele>252</ele>
        <time>2021-03-07T09:25:09.422Z</time>
      </trkpt>
      <trkpt lat="45.59099" lon="5.29999">
        <ele>252</ele>
        <time>2021-03-07T09:25:10.423Z</time>
      </trkpt>
      <trkpt lat="45.59101" lon="5.2999">
        <ele>252</ele>
        <time>2021-03-07T09:25:11.423Z</time>
      </trkpt>
      <trkpt lat="45.59102" lon="5.2998">
        <ele>252</ele>
        <time>2021-03-07T09:25:12.423Z</time>
      </trkpt>
      <trkpt lat="45.59104" lon="5.29971">
        <ele>252</ele>
        <time>2021-03-07T09:25:13.423Z</time>
      </trkpt>
      <trkpt lat="45.59107" lon="5.29961">
        <ele>252</ele>
        <time>2021-03-07T09:25:14.423Z</time>
      </trkpt>
      <trkpt lat="45.59109" lon="5.29952">
        <ele>253</ele>
        <time>2021-03-07T09:25:15.422Z</time>
      </trkpt>
      <trkpt lat="45.59111" lon="5.29942">
        <ele>253</ele>
        <time>2021-03-07T09:25:16.423Z</time>
      </trkpt>
      <trkpt lat="45.59113" lon="5.29932">
        <ele>253</ele>
        <time>2021-03-07T09:25:17.423Z</time>
      </trkpt>
      <trkpt lat="45.59115" lon="5.29923">
        <ele>253</ele>
        <time>2021-03-07T09:25:18.423Z</time>
      </trkpt>
      <trkpt lat="45.59117" lon="5.29913">
        <ele>253</ele>
        <time>2021-03-07T09:25:19.423Z</time>
      </trkpt>
      <trkpt lat="45.59119" lon="5.29903">
        <ele>253</ele>
        <time>2021-03-07T09:25:20.423Z</time>
      </trkpt>
      <trkpt lat="45.59121" lon="5.29894">
        <ele>253</ele>
        <time>2021-03-07T09:25:21.422Z</time>
      </trkpt>
      <trkpt lat="45.59123" lon="5.29884">
        <ele>253</ele>
        <time>2021-03-07T09:25:22.423Z</time>
      </trkpt>
      <trkpt lat="45.59126" lon="5.29875">
        <ele>253</ele>
        <time>2021-03-07T09:25:23.422Z</time>
      </trkpt>
      <trkpt lat="45.59128" lon="5.29865">
        <ele>253</ele>
        <time>2021-03-07T09:25:24.422Z</time>
      </trkpt>
      <trkpt lat="45.59129" lon="5.29856">
        <ele>253</ele>
        <time>2021-03-07T09:25:25.422Z</time>
      </trkpt>
      <trkpt lat="45.59132" lon="5.29847">
        <ele>253</ele>
        <time>2021-03-07T09:25:26.423Z</time>
      </trkpt>
      <trkpt lat="45.59134" lon="5.29837">
        <ele>253</ele>
        <time>2021-03-07T09:25:27.423Z</time>
      </trkpt>
      <trkpt lat="45.59136" lon="5.29828">
        <ele>253</ele>
        <time>2021-03-07T09:25:28.423Z</time>
      </trkpt>
      <trkpt lat="45.59138" lon="5.29819">
        <ele>253</ele>
        <time>2021-03-07T09:25:29.423Z</time>
      </trkpt>
      <trkpt lat="45.5914" lon="5.2981">
        <ele>253</ele>
        <time>2021-03-07T09:25:30.423Z</time>
      </trkpt>
      <trkpt lat="45.59142" lon="5.298">
        <ele>253</ele>
        <time>2021-03-07T09:25:31.422Z</time>
      </trkpt>
      <trkpt lat="45.59144" lon="5.29791">
        <ele>253</ele>
        <time>2021-03-07T09:25:32.423Z</time>
      </trkpt>
      <trkpt lat="45.59145" lon="5.29781">
        <ele>253</ele>
        <time>2021-03-07T09:25:33.423Z</time>
      </trkpt>
      <trkpt lat="45.59147" lon="5.29771">
        <ele>253</ele>
        <time>2021-03-07T09:25:34.423Z</time>
      </trkpt>
      <trkpt lat="45.59148" lon="5.29762">
        <ele>253</ele>
        <time>2021-03-07T09:25:35.423Z</time>
      </trkpt>
      <trkpt lat="45.5915" lon="5.29752">
        <ele>253</ele>
        <time>2021-03-07T09:25:36.422Z</time>
      </trkpt>
      <trkpt lat="45.59151" lon="5.29743">
        <ele>253</ele>
        <time>2021-03-07T09:25:37.423Z</time>
      </trkpt>
      <trkpt lat="45.59153" lon="5.29733">
        <ele>254</ele>
        <time>2021-03-07T09:25:38.423Z</time>
      </trkpt>
      <trkpt lat="45.59154" lon="5.29723">
        <ele>254</ele>
        <time>2021-03-07T09:25:39.423Z</time>
      </trkpt>
      <trkpt lat="45.59155" lon="5.29713">
        <ele>254</ele>
        <time>2021-03-07T09:25:40.423Z</time>
      </trkpt>
      <trkpt lat="45.59157" lon="5.29704">
        <ele>253</ele>
        <time>2021-03-07T09:25:41.423Z</time>
      </trkpt>
      <trkpt lat="45.59158" lon="5.29694">
        <ele>253</ele>
        <time>2021-03-07T09:25:42.423Z</time>
      </trkpt>
      <trkpt lat="45.59161" lon="5.29685">
        <ele>253</ele>
        <time>2021-03-07T09:25:43.423Z</time>
      </trkpt>
      <trkpt lat="45.59164" lon="5.29675">
        <ele>253</ele>
        <time>2021-03-07T09:25:44.422Z</time>
      </trkpt>
      <trkpt lat="45.59167" lon="5.29666">
        <ele>252</ele>
        <time>2021-03-07T09:25:45.422Z</time>
      </trkpt>
      <trkpt lat="45.5917" lon="5.29657">
        <ele>252</ele>
        <time>2021-03-07T09:25:46.423Z</time>
      </trkpt>
      <trkpt lat="45.59174" lon="5.29648">
        <ele>252</ele>
        <time>2021-03-07T09:25:47.423Z</time>
      </trkpt>
      <trkpt lat="45.59178" lon="5.29639">
        <ele>252</ele>
        <time>2021-03-07T09:25:48.423Z</time>
      </trkpt>
      <trkpt lat="45.59182" lon="5.2963">
        <ele>253</ele>
        <time>2021-03-07T09:25:49.423Z</time>
      </trkpt>
      <trkpt lat="45.59185" lon="5.29621">
        <ele>253</ele>
        <time>2021-03-07T09:25:50.423Z</time>
      </trkpt>
      <trkpt lat="45.59189" lon="5.29612">
        <ele>253</ele>
        <time>2021-03-07T09:25:51.423Z</time>
      </trkpt>
      <trkpt lat="45.59193" lon="5.29604">
        <ele>253</ele>
        <time>2021-03-07T09:25:52.423Z</time>
      </trkpt>
      <trkpt lat="45.59196" lon="5.29596">
        <ele>252</ele>
        <time>2021-03-07T09:25:53.423Z</time>
      </trkpt>
      <trkpt lat="45.592" lon="5.29588">
        <ele>252</ele>
        <time>2021-03-07T09:25:54.422Z</time>
      </trkpt>
      <trkpt lat="45.59204" lon="5.2958">
        <ele>253</ele>
        <time>2021-03-07T09:25:55.422Z</time>
      </trkpt>
      <trkpt lat="45.59208" lon="5.29573">
        <ele>253</ele>
        <time>2021-03-07T09:25:56.423Z</time>
      </trkpt>
      <trkpt lat="45.59212" lon="5.29567">
        <ele>253</ele>
        <time>2021-03-07T09:25:57.422Z</time>
      </trkpt>
      <trkpt lat="45.59217" lon="5.29561">
        <ele>253</ele>
        <time>2021-03-07T09:25:58.422Z</time>
      </trkpt>
      <trkpt lat="45.59221" lon="5.29556">
        <ele>253</ele>
        <time>2021-03-07T09:25:59.422Z</time>
      </trkpt>
      <trkpt lat="45.59226" lon="5.29551">
        <ele>253</ele>
        <time>2021-03-07T09:26:00.422Z</time>
      </trkpt>
      <trkpt lat="45.59232" lon="5.29548">
        <ele>253</ele>
        <time>2021-03-07T09:26:01.423Z</time>
      </trkpt>
      <trkpt lat="45.59237" lon="5.29545">
        <ele>253</ele>
        <time>2021-03-07T09:26:02.423Z</time>
      </trkpt>
      <trkpt lat="45.59243" lon="5.29543">
        <ele>253</ele>
        <time>2021-03-07T09:26:03.423Z</time>
      </trkpt>
      <trkpt lat="45.59249" lon="5.2954">
        <ele>254</ele>
        <time>2021-03-07T09:26:04.423Z</time>
      </trkpt>
      <trkpt lat="45.59254" lon="5.29539">
        <ele>254</ele>
        <time>2021-03-07T09:26:05.423Z</time>
      </trkpt>
      <trkpt lat="45.5926" lon="5.29537">
        <ele>254</ele>
        <time>2021-03-07T09:26:06.423Z</time>
      </trkpt>
      <trkpt lat="45.59266" lon="5.29534">
        <ele>254</ele>
        <time>2021-03-07T09:26:07.422Z</time>
      </trkpt>
      <trkpt lat="45.59271" lon="5.29532">
        <ele>254</ele>
        <time>2021-03-07T09:26:08.422Z</time>
      </trkpt>
      <trkpt lat="45.59277" lon="5.2953">
        <ele>255</ele>
        <time>2021-03-07T09:26:09.422Z</time>
      </trkpt>
      <trkpt lat="45.59282" lon="5.29528">
        <ele>255</ele>
        <time>2021-03-07T09:26:10.422Z</time>
      </trkpt>
      <trkpt lat="45.59287" lon="5.29526">
        <ele>255</ele>
        <time>2021-03-07T09:26:11.422Z</time>
      </trkpt>
      <trkpt lat="45.59293" lon="5.29523">
        <ele>255</ele>
        <time>2021-03-07T09:26:12.423Z</time>
      </trkpt>
      <trkpt lat="45.59298" lon="5.29521">
        <ele>255</ele>
        <time>2021-03-07T09:26:13.423Z</time>
      </trkpt>
      <trkpt lat="45.59303" lon="5.29519">
        <ele>255</ele>
        <time>2021-03-07T09:26:14.423Z</time>
      </trkpt>
      <trkpt lat="45.59308" lon="5.29517">
        <ele>255</ele>
        <time>2021-03-07T09:26:15.423Z</time>
      </trkpt>
      <trkpt lat="45.59313" lon="5.29515">
        <ele>255</ele>
        <time>2021-03-07T09:26:16.422Z</time>
      </trkpt>
      <trkpt lat="45.59318" lon="5.29512">
        <ele>255</ele>
        <time>2021-03-07T09:26:17.423Z</time>
      </trkpt>
      <trkpt lat="45.59323" lon="5.2951">
        <ele>255</ele>
        <time>2021-03-07T09:26:18.423Z</time>
      </trkpt>
      <trkpt lat="45.59328" lon="5.29508">
        <ele>256</ele>
        <time>2021-03-07T09:26:19.422Z</time>
      </trkpt>
      <trkpt lat="45.59332" lon="5.29506">
        <ele>256</ele>
        <time>2021-03-07T09:26:20.423Z</time>
      </trkpt>
      <trkpt lat="45.59336" lon="5.29505">
        <ele>256</ele>
        <time>2021-03-07T09:26:21.422Z</time>
      </trkpt>
      <trkpt lat="45.5934" lon="5.29503">
        <ele>257</ele>
        <time>2021-03-07T09:26:22.423Z</time>
      </trkpt>
      <trkpt lat="45.59344" lon="5.295">
        <ele>257</ele>
        <time>2021-03-07T09:26:23.423Z</time>
      </trkpt>
      <trkpt lat="45.59345" lon="5.29496">
        <ele>257</ele>
        <time>2021-03-07T09:26:24.422Z</time>
      </trkpt>
      <trkpt lat="45.59346" lon="5.29493">
        <ele>257</ele>
        <time>2021-03-07T09:26:25.423Z</time>
      </trkpt>
      <trkpt lat="45.59345" lon="5.29489">
        <ele>257</ele>
        <time>2021-03-07T09:26:26.422Z</time>
      </trkpt>
      <trkpt lat="45.59343" lon="5.29486">
        <ele>256</ele>
        <time>2021-03-07T09:26:27.423Z</time>
      </trkpt>
      <trkpt lat="45.59338" lon="5.29482">
        <ele>255</ele>
        <time>2021-03-07T09:26:28.423Z</time>
      </trkpt>
      <trkpt lat="45.59334" lon="5.29478">
        <ele>255</ele>
        <time>2021-03-07T09:26:29.423Z</time>
      </trkpt>
      <trkpt lat="45.59329" lon="5.29474">
        <ele>254</ele>
        <time>2021-03-07T09:26:30.423Z</time>
      </trkpt>
      <trkpt lat="45.59323" lon="5.29471">
        <ele>254</ele>
        <time>2021-03-07T09:26:31.423Z</time>
      </trkpt>
      <trkpt lat="45.59318" lon="5.29467">
        <ele>254</ele>
        <time>2021-03-07T09:26:32.423Z</time>
      </trkpt>
      <trkpt lat="45.59313" lon="5.29463">
        <ele>254</ele>
        <time>2021-03-07T09:26:33.423Z</time>
      </trkpt>
      <trkpt lat="45.59309" lon="5.29459">
        <ele>255</ele>
        <time>2021-03-07T09:26:34.423Z</time>
      </trkpt>
      <trkpt lat="45.59303" lon="5.29455">
        <ele>255</ele>
        <time>2021-03-07T09:26:35.423Z</time>
      </trkpt>
      <trkpt lat="45.59298" lon="5.29451">
        <ele>255</ele>
        <time>2021-03-07T09:26:36.423Z</time>
      </trkpt>
      <trkpt lat="45.59293" lon="5.29447">
        <ele>255</ele>
        <time>2021-03-07T09:26:37.423Z</time>
      </trkpt>
      <trkpt lat="45.59289" lon="5.29443">
        <ele>255</ele>
        <time>2021-03-07T09:26:38.423Z</time>
      </trkpt>
      <trkpt lat="45.59284" lon="5.29439">
        <ele>255</ele>
        <time>2021-03-07T09:26:39.422Z</time>
      </trkpt>
      <trkpt lat="45.5928" lon="5.29435">
        <ele>256</ele>
        <time>2021-03-07T09:26:40.422Z</time>
      </trkpt>
      <trkpt lat="45.59275" lon="5.29431">
        <ele>256</ele>
        <time>2021-03-07T09:26:41.422Z</time>
      </trkpt>
      <trkpt lat="45.5927" lon="5.29428">
        <ele>257</ele>
        <time>2021-03-07T09:26:42.423Z</time>
      </trkpt>
      <trkpt lat="45.59266" lon="5.29424">
        <ele>257</ele>
        <time>2021-03-07T09:26:43.422Z</time>
      </trkpt>
      <trkpt lat="45.59262" lon="5.29421">
        <ele>257</ele>
        <time>2021-03-07T09:26:44.423Z</time>
      </trkpt>
      <trkpt lat="45.59258" lon="5.29417">
        <ele>257</ele>
        <time>2021-03-07T09:26:45.423Z</time>
      </trkpt>
      <trkpt lat="45.59254" lon="5.29413">
        <ele>257</ele>
        <time>2021-03-07T09:26:46.422Z</time>
      </trkpt>
      <trkpt lat="45.59249" lon="5.29409">
        <ele>257</ele>
        <time>2021-03-07T09:26:47.423Z</time>
      </trkpt>
      <trkpt lat="45.59245" lon="5.29405">
        <ele>257</ele>
        <time>2021-03-07T09:26:48.423Z</time>
      </trkpt>
      <trkpt lat="45.59241" lon="5.29401">
        <ele>257</ele>
        <time>2021-03-07T09:26:49.423Z</time>
      </trkpt>
      <trkpt lat="45.59236" lon="5.29398">
        <ele>257</ele>
        <time>2021-03-07T09:26:50.423Z</time>
      </trkpt>
      <trkpt lat="45.59232" lon="5.29394">
        <ele>257</ele>
        <time>2021-03-07T09:26:51.423Z</time>
      </trkpt>
      <trkpt lat="45.59227" lon="5.2939">
        <ele>258</ele>
        <time>2021-03-07T09:26:52.423Z</time>
      </trkpt>
      <trkpt lat="45.59223" lon="5.29386">
        <ele>258</ele>
        <time>2021-03-07T09:26:53.423Z</time>
      </trkpt>
      <trkpt lat="45.59218" lon="5.29381">
        <ele>258</ele>
        <time>2021-03-07T09:26:54.422Z</time>
      </trkpt>
      <trkpt lat="45.59214" lon="5.29375">
        <ele>258</ele>
        <time>2021-03-07T09:26:55.423Z</time>
      </trkpt>
      <trkpt lat="45.5921" lon="5.29369">
        <ele>258</ele>
        <time>2021-03-07T09:26:56.422Z</time>
      </trkpt>
      <trkpt lat="45.59207" lon="5.29362">
        <ele>258</ele>
        <time>2021-03-07T09:26:57.422Z</time>
      </trkpt>
      <trkpt lat="45.59204" lon="5.29355">
        <ele>258</ele>
        <time>2021-03-07T09:26:58.422Z</time>
      </trkpt>
      <trkpt lat="45.59202" lon="5.29348">
        <ele>258</ele>
        <time>2021-03-07T09:26:59.423Z</time>
      </trkpt>
      <trkpt lat="45.592" lon="5.29343">
        <ele>257</ele>
        <time>2021-03-07T09:27:00.422Z</time>
      </trkpt>
      <trkpt lat="45.59199" lon="5.29339">
        <ele>257</ele>
        <time>2021-03-07T09:27:01.422Z</time>
      </trkpt>
      <trkpt lat="45.59198" lon="5.29336">
        <ele>256</ele>
        <time>2021-03-07T09:27:02.422Z</time>
      </trkpt>
      <trkpt lat="45.59199" lon="5.29335">
        <ele>256</ele>
        <time>2021-03-07T09:27:03.423Z</time>
      </trkpt>
      <trkpt lat="45.592" lon="5.29334">
        <ele>256</ele>
        <time>2021-03-07T09:27:04.423Z</time>
      </trkpt>
      <trkpt lat="45.59199" lon="5.29333">
        <ele>256</ele>
        <time>2021-03-07T09:27:05.422Z</time>
      </trkpt>
      <trkpt lat="45.59199" lon="5.2933">
        <ele>256</ele>
        <time>2021-03-07T09:27:06.423Z</time>
      </trkpt>
      <trkpt lat="45.59199" lon="5.29327">
        <ele>256</ele>
        <time>2021-03-07T09:27:07.423Z</time>
      </trkpt>
      <trkpt lat="45.59199" lon="5.29323">
        <ele>256</ele>
        <time>2021-03-07T09:27:08.423Z</time>
      </trkpt>
      <trkpt lat="45.592" lon="5.29319">
        <ele>255</ele>
        <time>2021-03-07T09:27:09.422Z</time>
      </trkpt>
      <trkpt lat="45.59201" lon="5.29315">
        <ele>255</ele>
        <time>2021-03-07T09:27:10.422Z</time>
      </trkpt>
      <trkpt lat="45.59202" lon="5.29311">
        <ele>255</ele>
        <time>2021-03-07T09:27:11.423Z</time>
      </trkpt>
      <trkpt lat="45.59203" lon="5.29307">
        <ele>254</ele>
        <time>2021-03-07T09:27:12.423Z</time>
      </trkpt>
      <trkpt lat="45.59204" lon="5.29304">
        <ele>254</ele>
        <time>2021-03-07T09:27:13.423Z</time>
      </trkpt>
      <trkpt lat="45.59205" lon="5.293">
        <ele>253</ele>
        <time>2021-03-07T09:27:14.422Z</time>
      </trkpt>
      <trkpt lat="45.59206" lon="5.29297">
        <ele>253</ele>
        <time>2021-03-07T09:27:15.423Z</time>
      </trkpt>
      <trkpt lat="45.59208" lon="5.29292">
        <ele>253</ele>
        <time>2021-03-07T09:27:16.423Z</time>
      </trkpt>
      <trkpt lat="45.5921" lon="5.29287">
        <ele>253</ele>
        <time>2021-03-07T09:27:17.423Z</time>
      </trkpt>
      <trkpt lat="45.59212" lon="5.29281">
        <ele>253</ele>
        <time>2021-03-07T09:27:18.422Z</time>
      </trkpt>
      <trkpt lat="45.59214" lon="5.29274">
        <ele>254</ele>
        <time>2021-03-07T09:27:19.423Z</time>
      </trkpt>
      <trkpt lat="45.59217" lon="5.29267">
        <ele>254</ele>
        <time>2021-03-07T09:27:20.423Z</time>
      </trkpt>
      <trkpt lat="45.59219" lon="5.2926">
        <ele>253</ele>
        <time>2021-03-07T09:27:21.422Z</time>
      </trkpt>
      <trkpt lat="45.59222" lon="5.29253">
        <ele>253</ele>
        <time>2021-03-07T09:27:22.423Z</time>
      </trkpt>
      <trkpt lat="45.59224" lon="5.29245">
        <ele>253</ele>
        <time>2021-03-07T09:27:23.423Z</time>
      </trkpt>
      <trkpt lat="45.59227" lon="5.29236">
        <ele>252</ele>
        <time>2021-03-07T09:27:24.423Z</time>
      </trkpt>
      <trkpt lat="45.5923" lon="5.29227">
        <ele>252</ele>
        <time>2021-03-07T09:27:25.423Z</time>
      </trkpt>
      <trkpt lat="45.59233" lon="5.29219">
        <ele>251</ele>
        <time>2021-03-07T09:27:26.422Z</time>
      </trkpt>
      <trkpt lat="45.59236" lon="5.2921">
        <ele>251</ele>
        <time>2021-03-07T09:27:27.423Z</time>
      </trkpt>
      <trkpt lat="45.59239" lon="5.29201">
        <ele>251</ele>
        <time>2021-03-07T09:27:28.423Z</time>
      </trkpt>
      <trkpt lat="45.59243" lon="5.29192">
        <ele>251</ele>
        <time>2021-03-07T09:27:29.422Z</time>
      </trkpt>
      <trkpt lat="45.59246" lon="5.29183">
        <ele>251</ele>
        <time>2021-03-07T09:27:30.423Z</time>
      </trkpt>
      <trkpt lat="45.59249" lon="5.29174">
        <ele>251</ele>
        <time>2021-03-07T09:27:31.423Z</time>
      </trkpt>
      <trkpt lat="45.59252" lon="5.29164">
        <ele>250</ele>
        <time>2021-03-07T09:27:32.423Z</time>
      </trkpt>
      <trkpt lat="45.59255" lon="5.29155">
        <ele>250</ele>
        <time>2021-03-07T09:27:33.422Z</time>
      </trkpt>
      <trkpt lat="45.59258" lon="5.29145">
        <ele>250</ele>
        <time>2021-03-07T09:27:34.423Z</time>
      </trkpt>
      <trkpt lat="45.59261" lon="5.29136">
        <ele>250</ele>
        <time>2021-03-07T09:27:35.422Z</time>
      </trkpt>
      <trkpt lat="45.59264" lon="5.29126">
        <ele>250</ele>
        <time>2021-03-07T09:27:36.423Z</time>
      </trkpt>
      <trkpt lat="45.59268" lon="5.29116">
        <ele>250</ele>
        <time>2021-03-07T09:27:37.423Z</time>
      </trkpt>
      <trkpt lat="45.59271" lon="5.29106">
        <ele>250</ele>
        <time>2021-03-07T09:27:38.422Z</time>
      </trkpt>
      <trkpt lat="45.59275" lon="5.29096">
        <ele>249</ele>
        <time>2021-03-07T09:27:39.422Z</time>
      </trkpt>
      <trkpt lat="45.59278" lon="5.29086">
        <ele>249</ele>
        <time>2021-03-07T09:27:40.422Z</time>
      </trkpt>
      <trkpt lat="45.59281" lon="5.29077">
        <ele>249</ele>
        <time>2021-03-07T09:27:41.423Z</time>
      </trkpt>
      <trkpt lat="45.59285" lon="5.29067">
        <ele>248</ele>
        <time>2021-03-07T09:27:42.423Z</time>
      </trkpt>
      <trkpt lat="45.59288" lon="5.29057">
        <ele>248</ele>
        <time>2021-03-07T09:27:43.423Z</time>
      </trkpt>
      <trkpt lat="45.59291" lon="5.29047">
        <ele>247</ele>
        <time>2021-03-07T09:27:44.423Z</time>
      </trkpt>
      <trkpt lat="45.59295" lon="5.29036">
        <ele>246</ele>
        <time>2021-03-07T09:27:45.423Z</time>
      </trkpt>
      <trkpt lat="45.59299" lon="5.29026">
        <ele>246</ele>
        <time>2021-03-07T09:27:46.423Z</time>
      </trkpt>
      <trkpt lat="45.59302" lon="5.29015">
        <ele>246</ele>
        <time>2021-03-07T09:27:47.422Z</time>
      </trkpt>
      <trkpt lat="45.59306" lon="5.29005">
        <ele>245</ele>
        <time>2021-03-07T09:27:48.423Z</time>
      </trkpt>
      <trkpt lat="45.5931" lon="5.28994">
        <ele>245</ele>
        <time>2021-03-07T09:27:49.422Z</time>
      </trkpt>
      <trkpt lat="45.59314" lon="5.28984">
        <ele>245</ele>
        <time>2021-03-07T09:27:50.423Z</time>
      </trkpt>
      <trkpt lat="45.59318" lon="5.28973">
        <ele>245</ele>
        <time>2021-03-07T09:27:51.422Z</time>
      </trkpt>
      <trkpt lat="45.59321" lon="5.28963">
        <ele>245</ele>
        <time>2021-03-07T09:27:52.423Z</time>
      </trkpt>
      <trkpt lat="45.59324" lon="5.28953">
        <ele>245</ele>
        <time>2021-03-07T09:27:53.423Z</time>
      </trkpt>
      <trkpt lat="45.59328" lon="5.28943">
        <ele>244</ele>
        <time>2021-03-07T09:27:54.423Z</time>
      </trkpt>
      <trkpt lat="45.59331" lon="5.28933">
        <ele>244</ele>
        <time>2021-03-07T09:27:55.422Z</time>
      </trkpt>
      <trkpt lat="45.59333" lon="5.28922">
        <ele>243</ele>
        <time>2021-03-07T09:27:56.423Z</time>
      </trkpt>
      <trkpt lat="45.59336" lon="5.28912">
        <ele>243</ele>
        <time>2021-03-07T09:27:57.423Z</time>
      </trkpt>
      <trkpt lat="45.59338" lon="5.28902">
        <ele>243</ele>
        <time>2021-03-07T09:27:58.423Z</time>
      </trkpt>
      <trkpt lat="45.5934" lon="5.28893">
        <ele>243</ele>
        <time>2021-03-07T09:27:59.422Z</time>
      </trkpt>
      <trkpt lat="45.59341" lon="5.28883">
        <ele>243</ele>
        <time>2021-03-07T09:28:00.422Z</time>
      </trkpt>
      <trkpt lat="45.59343" lon="5.28873">
        <ele>242</ele>
        <time>2021-03-07T09:28:01.423Z</time>
      </trkpt>
      <trkpt lat="45.59343" lon="5.28863">
        <ele>241</ele>
        <time>2021-03-07T09:28:02.423Z</time>
      </trkpt>
      <trkpt lat="45.59344" lon="5.28853">
        <ele>241</ele>
        <time>2021-03-07T09:28:03.423Z</time>
      </trkpt>
      <trkpt lat="45.59344" lon="5.28843">
        <ele>241</ele>
        <time>2021-03-07T09:28:04.422Z</time>
      </trkpt>
      <trkpt lat="45.59345" lon="5.28833">
        <ele>240</ele>
        <time>2021-03-07T09:28:05.423Z</time>
      </trkpt>
      <trkpt lat="45.59346" lon="5.28823">
        <ele>240</ele>
        <time>2021-03-07T09:28:06.422Z</time>
      </trkpt>
      <trkpt lat="45.59346" lon="5.28813">
        <ele>240</ele>
        <time>2021-03-07T09:28:07.423Z</time>
      </trkpt>
      <trkpt lat="45.59346" lon="5.28803">
        <ele>240</ele>
        <time>2021-03-07T09:28:08.423Z</time>
      </trkpt>
      <trkpt lat="45.59346" lon="5.28793">
        <ele>240</ele>
        <time>2021-03-07T09:28:09.422Z</time>
      </trkpt>
      <trkpt lat="45.59347" lon="5.28783">
        <ele>240</ele>
        <time>2021-03-07T09:28:10.422Z</time>
      </trkpt>
      <trkpt lat="45.59348" lon="5.28773">
        <ele>240</ele>
        <time>2021-03-07T09:28:11.422Z</time>
      </trkpt>
      <trkpt lat="45.59348" lon="5.28764">
        <ele>240</ele>
        <time>2021-03-07T09:28:12.422Z</time>
      </trkpt>
      <trkpt lat="45.59349" lon="5.28754">
        <ele>240</ele>
        <time>2021-03-07T09:28:13.423Z</time>
      </trkpt>
      <trkpt lat="45.59349" lon="5.28744">
        <ele>240</ele>
        <time>2021-03-07T09:28:14.423Z</time>
      </trkpt>
      <trkpt lat="45.5935" lon="5.28735">
        <ele>240</ele>
        <time>2021-03-07T09:28:15.423Z</time>
      </trkpt>
      <trkpt lat="45.59351" lon="5.28725">
        <ele>239</ele>
        <time>2021-03-07T09:28:16.422Z</time>
      </trkpt>
      <trkpt lat="45.59352" lon="5.28716">
        <ele>239</ele>
        <time>2021-03-07T09:28:17.423Z</time>
      </trkpt>
      <trkpt lat="45.59353" lon="5.28706">
        <ele>239</ele>
        <time>2021-03-07T09:28:18.423Z</time>
      </trkpt>
      <trkpt lat="45.59354" lon="5.28697">
        <ele>239</ele>
        <time>2021-03-07T09:28:19.422Z</time>
      </trkpt>
      <trkpt lat="45.59356" lon="5.28687">
        <ele>239</ele>
        <time>2021-03-07T09:28:20.422Z</time>
      </trkpt>
      <trkpt lat="45.59357" lon="5.28678">
        <ele>239</ele>
        <time>2021-03-07T09:28:21.422Z</time>
      </trkpt>
      <trkpt lat="45.5936" lon="5.28669">
        <ele>239</ele>
        <time>2021-03-07T09:28:22.422Z</time>
      </trkpt>
      <trkpt lat="45.59362" lon="5.2866">
        <ele>239</ele>
        <time>2021-03-07T09:28:23.423Z</time>
      </trkpt>
      <trkpt lat="45.59364" lon="5.28651">
        <ele>239</ele>
        <time>2021-03-07T09:28:24.423Z</time>
      </trkpt>
      <trkpt lat="45.59367" lon="5.28643">
        <ele>239</ele>
        <time>2021-03-07T09:28:25.423Z</time>
      </trkpt>
      <trkpt lat="45.59369" lon="5.28635">
        <ele>239</ele>
        <time>2021-03-07T09:28:26.423Z</time>
      </trkpt>
      <trkpt lat="45.59371" lon="5.28627">
        <ele>239</ele>
        <time>2021-03-07T09:28:27.423Z</time>
      </trkpt>
      <trkpt lat="45.59373" lon="5.2862">
        <ele>240</ele>
        <time>2021-03-07T09:28:28.423Z</time>
      </trkpt>
      <trkpt lat="45.59375" lon="5.28613">
        <ele>240</ele>
        <time>2021-03-07T09:28:29.423Z</time>
      </trkpt>
      <trkpt lat="45.59377" lon="5.28608">
        <ele>240</ele>
        <time>2021-03-07T09:28:30.422Z</time>
      </trkpt>
      <trkpt lat="45.59379" lon="5.28603">
        <ele>240</ele>
        <time>2021-03-07T09:28:31.422Z</time>
      </trkpt>
      <trkpt lat="45.5938" lon="5.28599">
        <ele>240</ele>
        <time>2021-03-07T09:28:32.422Z</time>
      </trkpt>
      <trkpt lat="45.5938" lon="5.28595">
        <ele>240</ele>
        <time>2021-03-07T09:28:33.423Z</time>
      </trkpt>
      <trkpt lat="45.59379" lon="5.28591">
        <ele>241</ele>
        <time>2021-03-07T09:28:34.422Z</time>
      </trkpt>
      <trkpt lat="45.59378" lon="5.28588">
        <ele>241</ele>
        <time>2021-03-07T09:28:35.423Z</time>
      </trkpt>
      <trkpt lat="45.59375" lon="5.28586">
        <ele>241</ele>
        <time>2021-03-07T09:28:36.422Z</time>
      </trkpt>
      <trkpt lat="45.59372" lon="5.28584">
        <ele>242</ele>
        <time>2021-03-07T09:28:37.422Z</time>
      </trkpt>
      <trkpt lat="45.59368" lon="5.28583">
        <ele>242</ele>
        <time>2021-03-07T09:28:38.423Z</time>
      </trkpt>
      <trkpt lat="45.59365" lon="5.28582">
        <ele>242</ele>
        <time>2021-03-07T09:28:39.423Z</time>
      </trkpt>
      <trkpt lat="45.59362" lon="5.2858">
        <ele>243</ele>
        <time>2021-03-07T09:28:40.423Z</time>
      </trkpt>
      <trkpt lat="45.59359" lon="5.28577">
        <ele>243</ele>
        <time>2021-03-07T09:28:41.423Z</time>
      </trkpt>
      <trkpt lat="45.59357" lon="5.28573">
        <ele>243</ele>
        <time>2021-03-07T09:28:42.423Z</time>
      </trkpt>
      <trkpt lat="45.59358" lon="5.28568">
        <ele>243</ele>
        <time>2021-03-07T09:28:43.422Z</time>
      </trkpt>
      <trkpt lat="45.59359" lon="5.28563">
        <ele>243</ele>
        <time>2021-03-07T09:28:44.422Z</time>
      </trkpt>
      <trkpt lat="45.5936" lon="5.28557">
        <ele>242</ele>
        <time>2021-03-07T09:28:45.422Z</time>
      </trkpt>
      <trkpt lat="45.59362" lon="5.2855">
        <ele>242</ele>
        <time>2021-03-07T09:28:46.423Z</time>
      </trkpt>
      <trkpt lat="45.59364" lon="5.28543">
        <ele>241</ele>
        <time>2021-03-07T09:28:47.423Z</time>
      </trkpt>
      <trkpt lat="45.59367" lon="5.28535">
        <ele>241</ele>
        <time>2021-03-07T09:28:48.423Z</time>
      </trkpt>
      <trkpt lat="45.59368" lon="5.28526">
        <ele>241</ele>
        <time>2021-03-07T09:28:49.423Z</time>
      </trkpt>
      <trkpt lat="45.5937" lon="5.28517">
        <ele>241</ele>
        <time>2021-03-07T09:28:50.422Z</time>
      </trkpt>
      <trkpt lat="45.59372" lon="5.28508">
        <ele>240</ele>
        <time>2021-03-07T09:28:51.422Z</time>
      </trkpt>
      <trkpt lat="45.59374" lon="5.285">
        <ele>240</ele>
        <time>2021-03-07T09:28:52.423Z</time>
      </trkpt>
      <trkpt lat="45.59375" lon="5.28491">
        <ele>240</ele>
        <time>2021-03-07T09:28:53.422Z</time>
      </trkpt>
      <trkpt lat="45.59377" lon="5.28483">
        <ele>240</ele>
        <time>2021-03-07T09:28:54.422Z</time>
      </trkpt>
      <trkpt lat="45.59379" lon="5.28474">
        <ele>240</ele>
        <time>2021-03-07T09:28:55.423Z</time>
      </trkpt>
      <trkpt lat="45.5938" lon="5.28466">
        <ele>240</ele>
        <time>2021-03-07T09:28:56.422Z</time>
      </trkpt>
      <trkpt lat="45.59381" lon="5.28458">
        <ele>240</ele>
        <time>2021-03-07T09:28:57.423Z</time>
      </trkpt>
      <trkpt lat="45.59383" lon="5.2845">
        <ele>239</ele>
        <time>2021-03-07T09:28:58.422Z</time>
      </trkpt>
      <trkpt lat="45.59385" lon="5.28442">
        <ele>240</ele>
        <time>2021-03-07T09:28:59.423Z</time>
      </trkpt>
      <trkpt lat="45.59387" lon="5.28434">
        <ele>240</ele>
        <time>2021-03-07T09:29:00.422Z</time>
      </trkpt>
      <trkpt lat="45.59389" lon="5.28425">
        <ele>240</ele>
        <time>2021-03-07T09:29:01.423Z</time>
      </trkpt>
      <trkpt lat="45.59391" lon="5.28416">
        <ele>240</ele>
        <time>2021-03-07T09:29:02.423Z</time>
      </trkpt>
      <trkpt lat="45.59392" lon="5.28408">
        <ele>240</ele>
        <time>2021-03-07T09:29:03.422Z</time>
      </trkpt>
      <trkpt lat="45.59394" lon="5.28399">
        <ele>239</ele>
        <time>2021-03-07T09:29:04.422Z</time>
      </trkpt>
      <trkpt lat="45.59395" lon="5.2839">
        <ele>239</ele>
        <time>2021-03-07T09:29:05.423Z</time>
      </trkpt>
      <trkpt lat="45.59396" lon="5.28382">
        <ele>239</ele>
        <time>2021-03-07T09:29:06.422Z</time>
      </trkpt>
      <trkpt lat="45.59397" lon="5.28373">
        <ele>239</ele>
        <time>2021-03-07T09:29:07.423Z</time>
      </trkpt>
      <trkpt lat="45.59397" lon="5.28364">
        <ele>239</ele>
        <time>2021-03-07T09:29:08.422Z</time>
      </trkpt>
      <trkpt lat="45.59397" lon="5.28355">
        <ele>239</ele>
        <time>2021-03-07T09:29:09.422Z</time>
      </trkpt>
      <trkpt lat="45.59396" lon="5.28346">
        <ele>239</ele>
        <time>2021-03-07T09:29:10.423Z</time>
      </trkpt>
      <trkpt lat="45.59395" lon="5.28336">
        <ele>239</ele>
        <time>2021-03-07T09:29:11.423Z</time>
      </trkpt>
      <trkpt lat="45.59394" lon="5.28326">
        <ele>239</ele>
        <time>2021-03-07T09:29:12.422Z</time>
      </trkpt>
      <trkpt lat="45.59392" lon="5.28317">
        <ele>239</ele>
        <time>2021-03-07T09:29:13.423Z</time>
      </trkpt>
      <trkpt lat="45.5939" lon="5.28307">
        <ele>239</ele>
        <time>2021-03-07T09:29:14.423Z</time>
      </trkpt>
      <trkpt lat="45.59388" lon="5.28298">
        <ele>239</ele>
        <time>2021-03-07T09:29:15.422Z</time>
      </trkpt>
      <trkpt lat="45.59386" lon="5.28288">
        <ele>239</ele>
        <time>2021-03-07T09:29:16.422Z</time>
      </trkpt>
      <trkpt lat="45.59384" lon="5.28278">
        <ele>239</ele>
        <time>2021-03-07T09:29:17.423Z</time>
      </trkpt>
      <trkpt lat="45.59382" lon="5.28269">
        <ele>239</ele>
        <time>2021-03-07T09:29:18.423Z</time>
      </trkpt>
      <trkpt lat="45.59381" lon="5.28259">
        <ele>239</ele>
        <time>2021-03-07T09:29:19.422Z</time>
      </trkpt>
      <trkpt lat="45.59379" lon="5.2825">
        <ele>239</ele>
        <time>2021-03-07T09:29:20.422Z</time>
      </trkpt>
      <trkpt lat="45.59378" lon="5.28241">
        <ele>239</ele>
        <time>2021-03-07T09:29:21.423Z</time>
      </trkpt>
      <trkpt lat="45.59377" lon="5.28231">
        <ele>240</ele>
        <time>2021-03-07T09:29:22.423Z</time>
      </trkpt>
      <trkpt lat="45.59376" lon="5.28222">
        <ele>239</ele>
        <time>2021-03-07T09:29:23.423Z</time>
      </trkpt>
      <trkpt lat="45.59376" lon="5.28212">
        <ele>239</ele>
        <time>2021-03-07T09:29:24.422Z</time>
      </trkpt>
      <trkpt lat="45.59377" lon="5.28202">
        <ele>239</ele>
        <time>2021-03-07T09:29:25.422Z</time>
      </trkpt>
      <trkpt lat="45.59377" lon="5.28193">
        <ele>239</ele>
        <time>2021-03-07T09:29:26.422Z</time>
      </trkpt>
      <trkpt lat="45.59377" lon="5.28183">
        <ele>239</ele>
        <time>2021-03-07T09:29:27.423Z</time>
      </trkpt>
      <trkpt lat="45.59377" lon="5.28174">
        <ele>239</ele>
        <time>2021-03-07T09:29:28.423Z</time>
      </trkpt>
      <trkpt lat="45.59378" lon="5.28164">
        <ele>238</ele>
        <time>2021-03-07T09:29:29.422Z</time>
      </trkpt>
      <trkpt lat="45.59378" lon="5.28155">
        <ele>238</ele>
        <time>2021-03-07T09:29:30.422Z</time>
      </trkpt>
      <trkpt lat="45.59378" lon="5.28145">
        <ele>238</ele>
        <time>2021-03-07T09:29:31.422Z</time>
      </trkpt>
      <trkpt lat="45.59378" lon="5.28136">
        <ele>238</ele>
        <time>2021-03-07T09:29:32.423Z</time>
      </trkpt>
      <trkpt lat="45.59377" lon="5.28127">
        <ele>238</ele>
        <time>2021-03-07T09:29:33.423Z</time>
      </trkpt>
      <trkpt lat="45.59377" lon="5.28118">
        <ele>238</ele>
        <time>2021-03-07T09:29:34.422Z</time>
      </trkpt>
      <trkpt lat="45.59376" lon="5.2811">
        <ele>238</ele>
        <time>2021-03-07T09:29:35.422Z</time>
      </trkpt>
      <trkpt lat="45.59375" lon="5.28101">
        <ele>238</ele>
        <time>2021-03-07T09:29:36.422Z</time>
      </trkpt>
      <trkpt lat="45.59374" lon="5.28092">
        <ele>237</ele>
        <time>2021-03-07T09:29:37.423Z</time>
      </trkpt>
      <trkpt lat="45.59373" lon="5.28084">
        <ele>237</ele>
        <time>2021-03-07T09:29:38.423Z</time>
      </trkpt>
      <trkpt lat="45.59372" lon="5.28075">
        <ele>238</ele>
        <time>2021-03-07T09:29:39.422Z</time>
      </trkpt>
      <trkpt lat="45.59371" lon="5.28067">
        <ele>238</ele>
        <time>2021-03-07T09:29:40.422Z</time>
      </trkpt>
      <trkpt lat="45.59369" lon="5.28059">
        <ele>238</ele>
        <time>2021-03-07T09:29:41.422Z</time>
      </trkpt>
      <trkpt lat="45.59368" lon="5.28052">
        <ele>238</ele>
        <time>2021-03-07T09:29:42.423Z</time>
      </trkpt>
      <trkpt lat="45.59366" lon="5.28045">
        <ele>238</ele>
        <time>2021-03-07T09:29:43.423Z</time>
      </trkpt>
      <trkpt lat="45.59364" lon="5.28039">
        <ele>239</ele>
        <time>2021-03-07T09:29:44.423Z</time>
      </trkpt>
      <trkpt lat="45.59363" lon="5.28034">
        <ele>239</ele>
        <time>2021-03-07T09:29:45.422Z</time>
      </trkpt>
      <trkpt lat="45.59362" lon="5.2803">
        <ele>239</ele>
        <time>2021-03-07T09:29:46.422Z</time>
      </trkpt>
      <trkpt lat="45.59362" lon="5.28027">
        <ele>239</ele>
        <time>2021-03-07T09:29:47.423Z</time>
      </trkpt>
      <trkpt lat="45.59361" lon="5.28025">
        <ele>239</ele>
        <time>2021-03-07T09:29:48.423Z</time>
      </trkpt>
      <trkpt lat="45.59362" lon="5.28023">
        <ele>239</ele>
        <time>2021-03-07T09:29:49.422Z</time>
      </trkpt>
      <trkpt lat="45.59362" lon="5.28022">
        <ele>239</ele>
        <time>2021-03-07T09:29:50.422Z</time>
      </trkpt>
      <trkpt lat="45.59362" lon="5.28021">
        <ele>238</ele>
        <time>2021-03-07T09:29:51.422Z</time>
      </trkpt>
      <trkpt lat="45.59361" lon="5.2802">
        <ele>238</ele>
        <time>2021-03-07T09:29:52.422Z</time>
      </trkpt>
      <trkpt lat="45.59361" lon="5.2802">
        <ele>238</ele>
        <time>2021-03-07T09:29:53.422Z</time>
      </trkpt>
      <trkpt lat="45.59361" lon="5.2802">
        <ele>238</ele>
        <time>2021-03-07T09:29:54.422Z</time>
      </trkpt>
      <trkpt lat="45.59361" lon="5.28017">
        <ele>237</ele>
        <time>2021-03-07T09:29:55.423Z</time>
      </trkpt>
      <trkpt lat="45.5936" lon="5.28015">
        <ele>237</ele>
        <time>2021-03-07T09:29:56.422Z</time>
      </trkpt>
      <trkpt lat="45.59359" lon="5.28013">
        <ele>237</ele>
        <time>2021-03-07T09:29:57.422Z</time>
      </trkpt>
      <trkpt lat="45.59358" lon="5.28012">
        <ele>238</ele>
        <time>2021-03-07T09:29:58.422Z</time>
      </trkpt>
      <trkpt lat="45.59356" lon="5.2801">
        <ele>238</ele>
        <time>2021-03-07T09:29:59.423Z</time>
      </trkpt>
      <trkpt lat="45.59353" lon="5.28009">
        <ele>239</ele>
        <time>2021-03-07T09:30:00.422Z</time>
      </trkpt>
      <trkpt lat="45.5935" lon="5.28008">
        <ele>239</ele>
        <time>2021-03-07T09:30:01.422Z</time>
      </trkpt>
      <trkpt lat="45.59346" lon="5.28006">
        <ele>239</ele>
        <time>2021-03-07T09:30:02.422Z</time>
      </trkpt>
      <trkpt lat="45.59341" lon="5.28004">
        <ele>240</ele>
        <time>2021-03-07T09:30:03.423Z</time>
      </trkpt>
      <trkpt lat="45.59336" lon="5.28002">
        <ele>240</ele>
        <time>2021-03-07T09:30:04.422Z</time>
      </trkpt>
      <trkpt lat="45.5933" lon="5.28">
        <ele>240</ele>
        <time>2021-03-07T09:30:05.423Z</time>
      </trkpt>
      <trkpt lat="45.59325" lon="5.27997">
        <ele>241</ele>
        <time>2021-03-07T09:30:06.423Z</time>
      </trkpt>
      <trkpt lat="45.5932" lon="5.27995">
        <ele>242</ele>
        <time>2021-03-07T09:30:07.422Z</time>
      </trkpt>
      <trkpt lat="45.59314" lon="5.27993">
        <ele>243</ele>
        <time>2021-03-07T09:30:08.422Z</time>
      </trkpt>
      <trkpt lat="45.59309" lon="5.2799">
        <ele>244</ele>
        <time>2021-03-07T09:30:09.422Z</time>
      </trkpt>
      <trkpt lat="45.59304" lon="5.27988">
        <ele>244</ele>
        <time>2021-03-07T09:30:10.423Z</time>
      </trkpt>
      <trkpt lat="45.59299" lon="5.27986">
        <ele>245</ele>
        <time>2021-03-07T09:30:11.422Z</time>
      </trkpt>
      <trkpt lat="45.59293" lon="5.27983">
        <ele>246</ele>
        <time>2021-03-07T09:30:12.422Z</time>
      </trkpt>
      <trkpt lat="45.59288" lon="5.2798">
        <ele>246</ele>
        <time>2021-03-07T09:30:13.422Z</time>
      </trkpt>
      <trkpt lat="45.59282" lon="5.27978">
        <ele>246</ele>
        <time>2021-03-07T09:30:14.423Z</time>
      </trkpt>
      <trkpt lat="45.59276" lon="5.27977">
        <ele>246</ele>
        <time>2021-03-07T09:30:15.422Z</time>
      </trkpt>
      <trkpt lat="45.5927" lon="5.27976">
        <ele>246</ele>
        <time>2021-03-07T09:30:16.422Z</time>
      </trkpt>
      <trkpt lat="45.59264" lon="5.27975">
        <ele>246</ele>
        <time>2021-03-07T09:30:17.422Z</time>
      </trkpt>
      <trkpt lat="45.59258" lon="5.27975">
        <ele>247</ele>
        <time>2021-03-07T09:30:18.422Z</time>
      </trkpt>
      <trkpt lat="45.59251" lon="5.27975">
        <ele>247</ele>
        <time>2021-03-07T09:30:19.423Z</time>
      </trkpt>
      <trkpt lat="45.59245" lon="5.27975">
        <ele>247</ele>
        <time>2021-03-07T09:30:20.422Z</time>
      </trkpt>
      <trkpt lat="45.59239" lon="5.27976">
        <ele>247</ele>
        <time>2021-03-07T09:30:21.423Z</time>
      </trkpt>
      <trkpt lat="45.59233" lon="5.27976">
        <ele>248</ele>
        <time>2021-03-07T09:30:22.423Z</time>
      </trkpt>
      <trkpt lat="45.59227" lon="5.27976">
        <ele>249</ele>
        <time>2021-03-07T09:30:23.422Z</time>
      </trkpt>
      <trkpt lat="45.59221" lon="5.27977">
        <ele>250</ele>
        <time>2021-03-07T09:30:24.423Z</time>
      </trkpt>
      <trkpt lat="45.59214" lon="5.27977">
        <ele>250</ele>
        <time>2021-03-07T09:30:25.423Z</time>
      </trkpt>
      <trkpt lat="45.59208" lon="5.27976">
        <ele>251</ele>
        <time>2021-03-07T09:30:26.422Z</time>
      </trkpt>
      <trkpt lat="45.592" lon="5.27977">
        <ele>252</ele>
        <time>2021-03-07T09:30:27.423Z</time>
      </trkpt>
      <trkpt lat="45.59194" lon="5.27977">
        <ele>252</ele>
        <time>2021-03-07T09:30:28.422Z</time>
      </trkpt>
      <trkpt lat="45.59187" lon="5.27977">
        <ele>253</ele>
        <time>2021-03-07T09:30:29.423Z</time>
      </trkpt>
      <trkpt lat="45.59179" lon="5.27976">
        <ele>252</ele>
        <time>2021-03-07T09:30:30.423Z</time>
      </trkpt>
      <trkpt lat="45.59174" lon="5.27976">
        <ele>251</ele>
        <time>2021-03-07T09:30:31.423Z</time>
      </trkpt>
      <trkpt lat="45.59169" lon="5.27977">
        <ele>251</ele>
        <time>2021-03-07T09:30:32.422Z</time>
      </trkpt>
      <trkpt lat="45.59162" lon="5.27978">
        <ele>250</ele>
        <time>2021-03-07T09:30:33.422Z</time>
      </trkpt>
      <trkpt lat="45.59157" lon="5.2798">
        <ele>250</ele>
        <time>2021-03-07T09:30:34.422Z</time>
      </trkpt>
      <trkpt lat="45.59152" lon="5.27982">
        <ele>249</ele>
        <time>2021-03-07T09:30:35.423Z</time>
      </trkpt>
      <trkpt lat="45.59146" lon="5.27982">
        <ele>249</ele>
        <time>2021-03-07T09:30:36.422Z</time>
      </trkpt>
      <trkpt lat="45.5914" lon="5.2798">
        <ele>248</ele>
        <time>2021-03-07T09:30:37.422Z</time>
      </trkpt>
      <trkpt lat="45.59134" lon="5.27979">
        <ele>248</ele>
        <time>2021-03-07T09:30:38.422Z</time>
      </trkpt>
      <trkpt lat="45.59127" lon="5.27978">
        <ele>248</ele>
        <time>2021-03-07T09:30:39.423Z</time>
      </trkpt>
      <trkpt lat="45.59121" lon="5.27976">
        <ele>247</ele>
        <time>2021-03-07T09:30:40.423Z</time>
      </trkpt>
      <trkpt lat="45.59115" lon="5.27974">
        <ele>247</ele>
        <time>2021-03-07T09:30:41.422Z</time>
      </trkpt>
      <trkpt lat="45.59109" lon="5.27972">
        <ele>247</ele>
        <time>2021-03-07T09:30:42.422Z</time>
      </trkpt>
      <trkpt lat="45.59104" lon="5.27971">
        <ele>246</ele>
        <time>2021-03-07T09:30:43.422Z</time>
      </trkpt>
      <trkpt lat="45.59098" lon="5.27968">
        <ele>246</ele>
        <time>2021-03-07T09:30:44.422Z</time>
      </trkpt>
      <trkpt lat="45.59092" lon="5.27966">
        <ele>246</ele>
        <time>2021-03-07T09:30:45.423Z</time>
      </trkpt>
      <trkpt lat="45.59086" lon="5.27964">
        <ele>246</ele>
        <time>2021-03-07T09:30:46.422Z</time>
      </trkpt>
      <trkpt lat="45.5908" lon="5.27961">
        <ele>245</ele>
        <time>2021-03-07T09:30:47.422Z</time>
      </trkpt>
      <trkpt lat="45.59076" lon="5.27959">
        <ele>245</ele>
        <time>2021-03-07T09:30:48.422Z</time>
      </trkpt>
      <trkpt lat="45.59071" lon="5.27957">
        <ele>245</ele>
        <time>2021-03-07T09:30:49.422Z</time>
      </trkpt>
      <trkpt lat="45.59067" lon="5.27954">
        <ele>245</ele>
        <time>2021-03-07T09:30:50.423Z</time>
      </trkpt>
      <trkpt lat="45.59063" lon="5.2795">
        <ele>245</ele>
        <time>2021-03-07T09:30:51.422Z</time>
      </trkpt>
      <trkpt lat="45.59059" lon="5.27946">
        <ele>245</ele>
        <time>2021-03-07T09:30:52.422Z</time>
      </trkpt>
      <trkpt lat="45.59055" lon="5.27942">
        <ele>244</ele>
        <time>2021-03-07T09:30:53.422Z</time>
      </trkpt>
      <trkpt lat="45.59051" lon="5.2794">
        <ele>244</ele>
        <time>2021-03-07T09:30:54.422Z</time>
      </trkpt>
      <trkpt lat="45.59046" lon="5.27941">
        <ele>244</ele>
        <time>2021-03-07T09:30:55.423Z</time>
      </trkpt>
      <trkpt lat="45.59042" lon="5.27942">
        <ele>244</ele>
        <time>2021-03-07T09:30:56.422Z</time>
      </trkpt>
      <trkpt lat="45.59036" lon="5.27941">
        <ele>244</ele>
        <time>2021-03-07T09:30:57.422Z</time>
      </trkpt>
      <trkpt lat="45.59031" lon="5.27939">
        <ele>244</ele>
        <time>2021-03-07T09:30:58.422Z</time>
      </trkpt>
      <trkpt lat="45.59026" lon="5.27937">
        <ele>244</ele>
        <time>2021-03-07T09:30:59.422Z</time>
      </trkpt>
      <trkpt lat="45.59019" lon="5.27936">
        <ele>244</ele>
        <time>2021-03-07T09:31:00.423Z</time>
      </trkpt>
      <trkpt lat="45.59013" lon="5.27933">
        <ele>245</ele>
        <time>2021-03-07T09:31:01.423Z</time>
      </trkpt>
      <trkpt lat="45.59009" lon="5.2793">
        <ele>245</ele>
        <time>2021-03-07T09:31:02.423Z</time>
      </trkpt>
      <trkpt lat="45.59004" lon="5.27928">
        <ele>245</ele>
        <time>2021-03-07T09:31:03.422Z</time>
      </trkpt>
      <trkpt lat="45.58999" lon="5.27924">
        <ele>245</ele>
        <time>2021-03-07T09:31:04.422Z</time>
      </trkpt>
      <trkpt lat="45.58993" lon="5.27921">
        <ele>245</ele>
        <time>2021-03-07T09:31:05.423Z</time>
      </trkpt>
      <trkpt lat="45.58987" lon="5.27917">
        <ele>245</ele>
        <time>2021-03-07T09:31:06.423Z</time>
      </trkpt>
      <trkpt lat="45.58982" lon="5.27914">
        <ele>245</ele>
        <time>2021-03-07T09:31:07.423Z</time>
      </trkpt>
      <trkpt lat="45.58979" lon="5.27911">
        <ele>245</ele>
        <time>2021-03-07T09:31:08.422Z</time>
      </trkpt>
      <trkpt lat="45.58975" lon="5.27908">
        <ele>245</ele>
        <time>2021-03-07T09:31:09.422Z</time>
      </trkpt>
      <trkpt lat="45.58971" lon="5.27906">
        <ele>245</ele>
        <time>2021-03-07T09:31:10.423Z</time>
      </trkpt>
      <trkpt lat="45.58967" lon="5.27903">
        <ele>245</ele>
        <time>2021-03-07T09:31:11.423Z</time>
      </trkpt>
      <trkpt lat="45.58962" lon="5.279">
        <ele>246</ele>
        <time>2021-03-07T09:31:12.423Z</time>
      </trkpt>
      <trkpt lat="45.58959" lon="5.27899">
        <ele>246</ele>
        <time>2021-03-07T09:31:13.423Z</time>
      </trkpt>
      <trkpt lat="45.58955" lon="5.27897">
        <ele>246</ele>
        <time>2021-03-07T09:31:14.423Z</time>
      </trkpt>
      <trkpt lat="45.58951" lon="5.27895">
        <ele>247</ele>
        <time>2021-03-07T09:31:15.423Z</time>
      </trkpt>
      <trkpt lat="45.58948" lon="5.27893">
        <ele>247</ele>
        <time>2021-03-07T09:31:16.423Z</time>
      </trkpt>
      <trkpt lat="45.58945" lon="5.27891">
        <ele>248</ele>
        <time>2021-03-07T09:31:17.423Z</time>
      </trkpt>
      <trkpt lat="45.58942" lon="5.2789">
        <ele>248</ele>
        <time>2021-03-07T09:31:18.423Z</time>
      </trkpt>
      <trkpt lat="45.58941" lon="5.27889">
        <ele>248</ele>
        <time>2021-03-07T09:31:19.422Z</time>
      </trkpt>
      <trkpt lat="45.58939" lon="5.27889">
        <ele>248</ele>
        <time>2021-03-07T09:31:20.423Z</time>
      </trkpt>
      <trkpt lat="45.58938" lon="5.27888">
        <ele>248</ele>
        <time>2021-03-07T09:31:21.423Z</time>
      </trkpt>
      <trkpt lat="45.58937" lon="5.27887">
        <ele>248</ele>
        <time>2021-03-07T09:31:22.422Z</time>
      </trkpt>
      <trkpt lat="45.58936" lon="5.27885">
        <ele>248</ele>
        <time>2021-03-07T09:31:23.423Z</time>
      </trkpt>
      <trkpt lat="45.58936" lon="5.27884">
        <ele>248</ele>
        <time>2021-03-07T09:31:24.423Z</time>
      </trkpt>
      <trkpt lat="45.58936" lon="5.27884">
        <ele>248</ele>
        <time>2021-03-07T09:31:25.423Z</time>
      </trkpt>
      <trkpt lat="45.58936" lon="5.27884">
        <ele>245</ele>
        <time>2021-03-07T09:31:26.424Z</time>
      </trkpt>
      <trkpt lat="45.58935" lon="5.27883">
        <ele>245</ele>
        <time>2021-03-07T09:31:27.423Z</time>
      </trkpt>
      <trkpt lat="45.58934" lon="5.27883">
        <ele>245</ele>
        <time>2021-03-07T09:31:28.423Z</time>
      </trkpt>
      <trkpt lat="45.58933" lon="5.27883">
        <ele>245</ele>
        <time>2021-03-07T09:31:29.424Z</time>
      </trkpt>
      <trkpt lat="45.58932" lon="5.27883">
        <ele>245</ele>
        <time>2021-03-07T09:31:30.424Z</time>
      </trkpt>
      <trkpt lat="45.58932" lon="5.27883">
        <ele>244</ele>
        <time>2021-03-07T09:31:31.424Z</time>
      </trkpt>
      <trkpt lat="45.5893" lon="5.27883">
        <ele>244</ele>
        <time>2021-03-07T09:31:32.424Z</time>
      </trkpt>
      <trkpt lat="45.5893" lon="5.27883">
        <ele>244</ele>
        <time>2021-03-07T09:31:33.424Z</time>
      </trkpt>
      <trkpt lat="45.58929" lon="5.27883">
        <ele>244</ele>
        <time>2021-03-07T09:31:34.423Z</time>
      </trkpt>
      <trkpt lat="45.58928" lon="5.27881">
        <ele>245</ele>
        <time>2021-03-07T09:31:35.424Z</time>
      </trkpt>
      <trkpt lat="45.58926" lon="5.2788">
        <ele>245</ele>
        <time>2021-03-07T09:31:36.424Z</time>
      </trkpt>
      <trkpt lat="45.58925" lon="5.27879">
        <ele>245</ele>
        <time>2021-03-07T09:31:37.424Z</time>
      </trkpt>
      <trkpt lat="45.58924" lon="5.27878">
        <ele>246</ele>
        <time>2021-03-07T09:31:38.424Z</time>
      </trkpt>
      <trkpt lat="45.58923" lon="5.27877">
        <ele>246</ele>
        <time>2021-03-07T09:31:39.424Z</time>
      </trkpt>
      <trkpt lat="45.58922" lon="5.27875">
        <ele>247</ele>
        <time>2021-03-07T09:31:40.424Z</time>
      </trkpt>
      <trkpt lat="45.5892" lon="5.27873">
        <ele>248</ele>
        <time>2021-03-07T09:31:41.423Z</time>
      </trkpt>
      <trkpt lat="45.58918" lon="5.27871">
        <ele>249</ele>
        <time>2021-03-07T09:31:42.424Z</time>
      </trkpt>
      <trkpt lat="45.58915" lon="5.27869">
        <ele>249</ele>
        <time>2021-03-07T09:31:43.424Z</time>
      </trkpt>
      <trkpt lat="45.58911" lon="5.27865">
        <ele>250</ele>
        <time>2021-03-07T09:31:44.424Z</time>
      </trkpt>
      <trkpt lat="45.58909" lon="5.27862">
        <ele>250</ele>
        <time>2021-03-07T09:31:45.424Z</time>
      </trkpt>
      <trkpt lat="45.58906" lon="5.27859">
        <ele>251</ele>
        <time>2021-03-07T09:31:46.423Z</time>
      </trkpt>
      <trkpt lat="45.58903" lon="5.27856">
        <ele>251</ele>
        <time>2021-03-07T09:31:47.423Z</time>
      </trkpt>
      <trkpt lat="45.589" lon="5.27852">
        <ele>251</ele>
        <time>2021-03-07T09:31:48.424Z</time>
      </trkpt>
      <trkpt lat="45.58897" lon="5.27849">
        <ele>251</ele>
        <time>2021-03-07T09:31:49.424Z</time>
      </trkpt>
      <trkpt lat="45.58894" lon="5.27846">
        <ele>251</ele>
        <time>2021-03-07T09:31:50.424Z</time>
      </trkpt>
      <trkpt lat="45.58891" lon="5.27842">
        <ele>251</ele>
        <time>2021-03-07T09:31:51.423Z</time>
      </trkpt>
      <trkpt lat="45.58888" lon="5.27838">
        <ele>252</ele>
        <time>2021-03-07T09:31:52.423Z</time>
      </trkpt>
      <trkpt lat="45.58885" lon="5.27834">
        <ele>252</ele>
        <time>2021-03-07T09:31:53.424Z</time>
      </trkpt>
      <trkpt lat="45.58882" lon="5.27831">
        <ele>252</ele>
        <time>2021-03-07T09:31:54.424Z</time>
      </trkpt>
      <trkpt lat="45.58879" lon="5.27828">
        <ele>253</ele>
        <time>2021-03-07T09:31:55.424Z</time>
      </trkpt>
      <trkpt lat="45.58875" lon="5.27826">
        <ele>253</ele>
        <time>2021-03-07T09:31:56.424Z</time>
      </trkpt>
      <trkpt lat="45.58871" lon="5.27824">
        <ele>253</ele>
        <time>2021-03-07T09:31:57.423Z</time>
      </trkpt>
      <trkpt lat="45.58866" lon="5.27821">
        <ele>253</ele>
        <time>2021-03-07T09:31:58.423Z</time>
      </trkpt>
      <trkpt lat="45.58862" lon="5.27819">
        <ele>253</ele>
        <time>2021-03-07T09:31:59.423Z</time>
      </trkpt>
      <trkpt lat="45.58857" lon="5.27816">
        <ele>253</ele>
        <time>2021-03-07T09:32:00.424Z</time>
      </trkpt>
      <trkpt lat="45.58852" lon="5.27814">
        <ele>253</ele>
        <time>2021-03-07T09:32:01.424Z</time>
      </trkpt>
      <trkpt lat="45.58846" lon="5.27812">
        <ele>253</ele>
        <time>2021-03-07T09:32:02.423Z</time>
      </trkpt>
      <trkpt lat="45.58841" lon="5.27811">
        <ele>253</ele>
        <time>2021-03-07T09:32:03.424Z</time>
      </trkpt>
      <trkpt lat="45.58835" lon="5.27809">
        <ele>254</ele>
        <time>2021-03-07T09:32:04.424Z</time>
      </trkpt>
      <trkpt lat="45.5883" lon="5.27807">
        <ele>254</ele>
        <time>2021-03-07T09:32:05.423Z</time>
      </trkpt>
      <trkpt lat="45.58825" lon="5.27805">
        <ele>254</ele>
        <time>2021-03-07T09:32:34.515Z</time>
      </trkpt>
      <trkpt lat="45.5882" lon="5.27803">
        <ele>255</ele>
        <time>2021-03-07T09:32:35.515Z</time>
      </trkpt>
      <trkpt lat="45.58815" lon="5.27801">
        <ele>255</ele>
        <time>2021-03-07T09:32:36.515Z</time>
      </trkpt>
      <trkpt lat="45.58811" lon="5.27799">
        <ele>255</ele>
        <time>2021-03-07T09:32:37.515Z</time>
      </trkpt>
      <trkpt lat="45.58806" lon="5.27797">
        <ele>255</ele>
        <time>2021-03-07T09:32:38.514Z</time>
      </trkpt>
      <trkpt lat="45.58802" lon="5.27796">
        <ele>255</ele>
        <time>2021-03-07T09:32:39.515Z</time>
      </trkpt>
      <trkpt lat="45.58799" lon="5.27796">
        <ele>255</ele>
        <time>2021-03-07T09:32:40.514Z</time>
      </trkpt>
      <trkpt lat="45.58796" lon="5.27795">
        <ele>254</ele>
        <time>2021-03-07T09:32:41.515Z</time>
      </trkpt>
      <trkpt lat="45.58794" lon="5.27794">
        <ele>254</ele>
        <time>2021-03-07T09:32:42.515Z</time>
      </trkpt>
      <trkpt lat="45.58794" lon="5.27794">
        <ele>254</ele>
        <time>2021-03-07T09:32:43.515Z</time>
      </trkpt>
      <trkpt lat="45.58792" lon="5.27795">
        <ele>254</ele>
        <time>2021-03-07T09:32:44.515Z</time>
      </trkpt>
      <trkpt lat="45.58792" lon="5.27796">
        <ele>254</ele>
        <time>2021-03-07T09:32:45.515Z</time>
      </trkpt>
      <trkpt lat="45.58789" lon="5.27794">
        <ele>256</ele>
        <time>2021-03-07T09:32:46.516Z</time>
      </trkpt>
      <trkpt lat="45.5879" lon="5.27795">
        <ele>256</ele>
        <time>2021-03-07T09:32:47.516Z</time>
      </trkpt>
      <trkpt lat="45.58791" lon="5.27795">
        <ele>256</ele>
        <time>2021-03-07T09:32:48.515Z</time>
      </trkpt>
      <trkpt lat="45.58787" lon="5.27795">
        <ele>257</ele>
        <time>2021-03-07T09:32:49.516Z</time>
      </trkpt>
      <trkpt lat="45.58785" lon="5.27795">
        <ele>258</ele>
        <time>2021-03-07T09:32:50.516Z</time>
      </trkpt>
      <trkpt lat="45.58782" lon="5.27794">
        <ele>258</ele>
        <time>2021-03-07T09:32:51.516Z</time>
      </trkpt>
      <trkpt lat="45.58779" lon="5.27794">
        <ele>258</ele>
        <time>2021-03-07T09:32:52.517Z</time>
      </trkpt>
      <trkpt lat="45.58776" lon="5.27793">
        <ele>258</ele>
        <time>2021-03-07T09:32:53.517Z</time>
      </trkpt>
      <trkpt lat="45.58772" lon="5.27793">
        <ele>258</ele>
        <time>2021-03-07T09:32:54.516Z</time>
      </trkpt>
      <trkpt lat="45.58768" lon="5.27792">
        <ele>257</ele>
        <time>2021-03-07T09:32:55.517Z</time>
      </trkpt>
      <trkpt lat="45.58764" lon="5.27791">
        <ele>257</ele>
        <time>2021-03-07T09:32:56.517Z</time>
      </trkpt>
      <trkpt lat="45.5876" lon="5.27789">
        <ele>257</ele>
        <time>2021-03-07T09:32:57.516Z</time>
      </trkpt>
      <trkpt lat="45.58756" lon="5.27788">
        <ele>257</ele>
        <time>2021-03-07T09:32:58.517Z</time>
      </trkpt>
      <trkpt lat="45.58752" lon="5.27786">
        <ele>257</ele>
        <time>2021-03-07T09:32:59.517Z</time>
      </trkpt>
      <trkpt lat="45.58748" lon="5.27786">
        <ele>257</ele>
        <time>2021-03-07T09:33:00.516Z</time>
      </trkpt>
      <trkpt lat="45.58744" lon="5.27784">
        <ele>258</ele>
        <time>2021-03-07T09:33:01.517Z</time>
      </trkpt>
      <trkpt lat="45.5874" lon="5.27783">
        <ele>258</ele>
        <time>2021-03-07T09:33:02.517Z</time>
      </trkpt>
      <trkpt lat="45.58736" lon="5.27783">
        <ele>258</ele>
        <time>2021-03-07T09:33:03.516Z</time>
      </trkpt>
      <trkpt lat="45.58732" lon="5.27781">
        <ele>259</ele>
        <time>2021-03-07T09:33:04.517Z</time>
      </trkpt>
      <trkpt lat="45.58728" lon="5.2778">
        <ele>259</ele>
        <time>2021-03-07T09:33:05.517Z</time>
      </trkpt>
      <trkpt lat="45.58724" lon="5.27779">
        <ele>259</ele>
        <time>2021-03-07T09:33:06.516Z</time>
      </trkpt>
      <trkpt lat="45.5872" lon="5.27778">
        <ele>259</ele>
        <time>2021-03-07T09:33:07.517Z</time>
      </trkpt>
      <trkpt lat="45.58716" lon="5.27779">
        <ele>260</ele>
        <time>2021-03-07T09:33:08.517Z</time>
      </trkpt>
      <trkpt lat="45.58712" lon="5.27778">
        <ele>261</ele>
        <time>2021-03-07T09:33:09.517Z</time>
      </trkpt>
      <trkpt lat="45.58708" lon="5.27777">
        <ele>261</ele>
        <time>2021-03-07T09:33:10.517Z</time>
      </trkpt>
      <trkpt lat="45.58704" lon="5.27776">
        <ele>261</ele>
        <time>2021-03-07T09:33:11.517Z</time>
      </trkpt>
      <trkpt lat="45.587" lon="5.27775">
        <ele>260</ele>
        <time>2021-03-07T09:33:12.517Z</time>
      </trkpt>
      <trkpt lat="45.58696" lon="5.27774">
        <ele>260</ele>
        <time>2021-03-07T09:33:13.517Z</time>
      </trkpt>
      <trkpt lat="45.58691" lon="5.27772">
        <ele>260</ele>
        <time>2021-03-07T09:33:14.517Z</time>
      </trkpt>
      <trkpt lat="45.58687" lon="5.27771">
        <ele>260</ele>
        <time>2021-03-07T09:33:15.516Z</time>
      </trkpt>
      <trkpt lat="45.58684" lon="5.2777">
        <ele>260</ele>
        <time>2021-03-07T09:33:16.516Z</time>
      </trkpt>
      <trkpt lat="45.5868" lon="5.2777">
        <ele>261</ele>
        <time>2021-03-07T09:33:17.516Z</time>
      </trkpt>
      <trkpt lat="45.58677" lon="5.27769">
        <ele>261</ele>
        <time>2021-03-07T09:33:18.516Z</time>
      </trkpt>
      <trkpt lat="45.58674" lon="5.27768">
        <ele>262</ele>
        <time>2021-03-07T09:33:19.516Z</time>
      </trkpt>
      <trkpt lat="45.58669" lon="5.27767">
        <ele>262</ele>
        <time>2021-03-07T09:33:20.516Z</time>
      </trkpt>
      <trkpt lat="45.58665" lon="5.27767">
        <ele>262</ele>
        <time>2021-03-07T09:33:21.517Z</time>
      </trkpt>
      <trkpt lat="45.58662" lon="5.27767">
        <ele>262</ele>
        <time>2021-03-07T09:33:22.516Z</time>
      </trkpt>
      <trkpt lat="45.58658" lon="5.27766">
        <ele>262</ele>
        <time>2021-03-07T09:33:23.517Z</time>
      </trkpt>
      <trkpt lat="45.58655" lon="5.27765">
        <ele>263</ele>
        <time>2021-03-07T09:33:24.517Z</time>
      </trkpt>
      <trkpt lat="45.58652" lon="5.27765">
        <ele>263</ele>
        <time>2021-03-07T09:33:25.517Z</time>
      </trkpt>
      <trkpt lat="45.58649" lon="5.27765">
        <ele>263</ele>
        <time>2021-03-07T09:33:26.517Z</time>
      </trkpt>
      <trkpt lat="45.58646" lon="5.27765">
        <ele>264</ele>
        <time>2021-03-07T09:33:27.517Z</time>
      </trkpt>
      <trkpt lat="45.58642" lon="5.27765">
        <ele>264</ele>
        <time>2021-03-07T09:33:28.517Z</time>
      </trkpt>
      <trkpt lat="45.58639" lon="5.27765">
        <ele>264</ele>
        <time>2021-03-07T09:33:29.517Z</time>
      </trkpt>
      <trkpt lat="45.58636" lon="5.27764">
        <ele>264</ele>
        <time>2021-03-07T09:33:30.517Z</time>
      </trkpt>
      <trkpt lat="45.58632" lon="5.27764">
        <ele>264</ele>
        <time>2021-03-07T09:33:31.517Z</time>
      </trkpt>
      <trkpt lat="45.5863" lon="5.27763">
        <ele>263</ele>
        <time>2021-03-07T09:33:32.517Z</time>
      </trkpt>
      <trkpt lat="45.58627" lon="5.27762">
        <ele>263</ele>
        <time>2021-03-07T09:33:33.517Z</time>
      </trkpt>
      <trkpt lat="45.58625" lon="5.27761">
        <ele>263</ele>
        <time>2021-03-07T09:33:34.517Z</time>
      </trkpt>
      <trkpt lat="45.58621" lon="5.2776">
        <ele>263</ele>
        <time>2021-03-07T09:33:35.516Z</time>
      </trkpt>
      <trkpt lat="45.58618" lon="5.27759">
        <ele>263</ele>
        <time>2021-03-07T09:33:36.516Z</time>
      </trkpt>
      <trkpt lat="45.58615" lon="5.27759">
        <ele>264</ele>
        <time>2021-03-07T09:33:37.516Z</time>
      </trkpt>
      <trkpt lat="45.58611" lon="5.27758">
        <ele>264</ele>
        <time>2021-03-07T09:33:38.516Z</time>
      </trkpt>
      <trkpt lat="45.58606" lon="5.27759">
        <ele>264</ele>
        <time>2021-03-07T09:33:39.516Z</time>
      </trkpt>
      <trkpt lat="45.58602" lon="5.2776">
        <ele>264</ele>
        <time>2021-03-07T09:33:40.517Z</time>
      </trkpt>
      <trkpt lat="45.58598" lon="5.27761">
        <ele>264</ele>
        <time>2021-03-07T09:33:41.516Z</time>
      </trkpt>
      <trkpt lat="45.58594" lon="5.27764">
        <ele>264</ele>
        <time>2021-03-07T09:33:42.517Z</time>
      </trkpt>
      <trkpt lat="45.5859" lon="5.27766">
        <ele>264</ele>
        <time>2021-03-07T09:33:43.517Z</time>
      </trkpt>
      <trkpt lat="45.58586" lon="5.27769">
        <ele>264</ele>
        <time>2021-03-07T09:33:44.516Z</time>
      </trkpt>
      <trkpt lat="45.58581" lon="5.27771">
        <ele>264</ele>
        <time>2021-03-07T09:33:45.517Z</time>
      </trkpt>
      <trkpt lat="45.58577" lon="5.27775">
        <ele>265</ele>
        <time>2021-03-07T09:33:46.517Z</time>
      </trkpt>
      <trkpt lat="45.58574" lon="5.27779">
        <ele>265</ele>
        <time>2021-03-07T09:33:47.517Z</time>
      </trkpt>
      <trkpt lat="45.58571" lon="5.27783">
        <ele>265</ele>
        <time>2021-03-07T09:33:48.516Z</time>
      </trkpt>
      <trkpt lat="45.58568" lon="5.27786">
        <ele>265</ele>
        <time>2021-03-07T09:33:49.517Z</time>
      </trkpt>
      <trkpt lat="45.58563" lon="5.27787">
        <ele>265</ele>
        <time>2021-03-07T09:33:50.516Z</time>
      </trkpt>
      <trkpt lat="45.58559" lon="5.27787">
        <ele>265</ele>
        <time>2021-03-07T09:33:51.517Z</time>
      </trkpt>
      <trkpt lat="45.58555" lon="5.27785">
        <ele>266</ele>
        <time>2021-03-07T09:33:52.517Z</time>
      </trkpt>
      <trkpt lat="45.5855" lon="5.27784">
        <ele>266</ele>
        <time>2021-03-07T09:33:53.517Z</time>
      </trkpt>
      <trkpt lat="45.58547" lon="5.27783">
        <ele>265</ele>
        <time>2021-03-07T09:33:54.517Z</time>
      </trkpt>
      <trkpt lat="45.58543" lon="5.27781">
        <ele>265</ele>
        <time>2021-03-07T09:33:55.517Z</time>
      </trkpt>
      <trkpt lat="45.58539" lon="5.27781">
        <ele>264</ele>
        <time>2021-03-07T09:33:56.517Z</time>
      </trkpt>
      <trkpt lat="45.58536" lon="5.27781">
        <ele>263</ele>
        <time>2021-03-07T09:33:57.517Z</time>
      </trkpt>
      <trkpt lat="45.58533" lon="5.27781">
        <ele>263</ele>
        <time>2021-03-07T09:33:58.517Z</time>
      </trkpt>
      <trkpt lat="45.5853" lon="5.27781">
        <ele>262</ele>
        <time>2021-03-07T09:33:59.516Z</time>
      </trkpt>
      <trkpt lat="45.58528" lon="5.27783">
        <ele>262</ele>
        <time>2021-03-07T09:34:00.517Z</time>
      </trkpt>
      <trkpt lat="45.58525" lon="5.27786">
        <ele>262</ele>
        <time>2021-03-07T09:34:01.517Z</time>
      </trkpt>
      <trkpt lat="45.58521" lon="5.2779">
        <ele>262</ele>
        <time>2021-03-07T09:34:02.517Z</time>
      </trkpt>
      <trkpt lat="45.58518" lon="5.27792">
        <ele>263</ele>
        <time>2021-03-07T09:34:03.517Z</time>
      </trkpt>
      <trkpt lat="45.58515" lon="5.27794">
        <ele>263</ele>
        <time>2021-03-07T09:34:04.517Z</time>
      </trkpt>
      <trkpt lat="45.58511" lon="5.27795">
        <ele>263</ele>
        <time>2021-03-07T09:34:05.517Z</time>
      </trkpt>
      <trkpt lat="45.58507" lon="5.27796">
        <ele>263</ele>
        <time>2021-03-07T09:34:06.517Z</time>
      </trkpt>
      <trkpt lat="45.58504" lon="5.27797">
        <ele>264</ele>
        <time>2021-03-07T09:34:07.517Z</time>
      </trkpt>
      <trkpt lat="45.58502" lon="5.27795">
        <ele>264</ele>
        <time>2021-03-07T09:34:08.516Z</time>
      </trkpt>
      <trkpt lat="45.585" lon="5.27791">
        <ele>264</ele>
        <time>2021-03-07T09:34:09.517Z</time>
      </trkpt>
      <trkpt lat="45.58499" lon="5.27787">
        <ele>264</ele>
        <time>2021-03-07T09:34:10.517Z</time>
      </trkpt>
      <trkpt lat="45.58497" lon="5.27783">
        <ele>264</ele>
        <time>2021-03-07T09:34:11.517Z</time>
      </trkpt>
      <trkpt lat="45.58497" lon="5.27777">
        <ele>264</ele>
        <time>2021-03-07T09:34:12.517Z</time>
      </trkpt>
      <trkpt lat="45.58496" lon="5.27771">
        <ele>264</ele>
        <time>2021-03-07T09:34:13.517Z</time>
      </trkpt>
      <trkpt lat="45.58495" lon="5.27765">
        <ele>264</ele>
        <time>2021-03-07T09:34:14.516Z</time>
      </trkpt>
      <trkpt lat="45.58493" lon="5.27759">
        <ele>264</ele>
        <time>2021-03-07T09:34:15.517Z</time>
      </trkpt>
      <trkpt lat="45.58491" lon="5.27754">
        <ele>264</ele>
        <time>2021-03-07T09:34:16.516Z</time>
      </trkpt>
      <trkpt lat="45.5849" lon="5.27749">
        <ele>264</ele>
        <time>2021-03-07T09:34:17.517Z</time>
      </trkpt>
      <trkpt lat="45.58489" lon="5.27746">
        <ele>264</ele>
        <time>2021-03-07T09:34:18.516Z</time>
      </trkpt>
      <trkpt lat="45.58489" lon="5.27741">
        <ele>264</ele>
        <time>2021-03-07T09:34:19.517Z</time>
      </trkpt>
      <trkpt lat="45.5849" lon="5.27736">
        <ele>264</ele>
        <time>2021-03-07T09:34:20.517Z</time>
      </trkpt>
      <trkpt lat="45.5849" lon="5.27731">
        <ele>264</ele>
        <time>2021-03-07T09:34:21.517Z</time>
      </trkpt>
      <trkpt lat="45.58489" lon="5.27725">
        <ele>264</ele>
        <time>2021-03-07T09:34:22.516Z</time>
      </trkpt>
      <trkpt lat="45.58487" lon="5.27719">
        <ele>264</ele>
        <time>2021-03-07T09:34:23.517Z</time>
      </trkpt>
      <trkpt lat="45.58485" lon="5.27713">
        <ele>264</ele>
        <time>2021-03-07T09:34:24.516Z</time>
      </trkpt>
      <trkpt lat="45.58484" lon="5.27705">
        <ele>264</ele>
        <time>2021-03-07T09:34:25.517Z</time>
      </trkpt>
      <trkpt lat="45.58483" lon="5.27698">
        <ele>264</ele>
        <time>2021-03-07T09:34:26.517Z</time>
      </trkpt>
      <trkpt lat="45.58482" lon="5.2769">
        <ele>264</ele>
        <time>2021-03-07T09:34:27.517Z</time>
      </trkpt>
      <trkpt lat="45.58481" lon="5.27682">
        <ele>264</ele>
        <time>2021-03-07T09:34:28.517Z</time>
      </trkpt>
      <trkpt lat="45.58481" lon="5.27674">
        <ele>263</ele>
        <time>2021-03-07T09:34:29.517Z</time>
      </trkpt>
      <trkpt lat="45.58481" lon="5.27668">
        <ele>262</ele>
        <time>2021-03-07T09:34:30.516Z</time>
      </trkpt>
      <trkpt lat="45.5848" lon="5.27662">
        <ele>262</ele>
        <time>2021-03-07T09:34:31.516Z</time>
      </trkpt>
      <trkpt lat="45.58479" lon="5.27657">
        <ele>261</ele>
        <time>2021-03-07T09:34:32.517Z</time>
      </trkpt>
      <trkpt lat="45.58477" lon="5.27653">
        <ele>261</ele>
        <time>2021-03-07T09:34:33.517Z</time>
      </trkpt>
      <trkpt lat="45.58476" lon="5.27651">
        <ele>261</ele>
        <time>2021-03-07T09:34:34.517Z</time>
      </trkpt>
      <trkpt lat="45.58476" lon="5.27649">
        <ele>260</ele>
        <time>2021-03-07T09:34:35.516Z</time>
      </trkpt>
      <trkpt lat="45.58475" lon="5.27649">
        <ele>260</ele>
        <time>2021-03-07T09:34:36.517Z</time>
      </trkpt>
      <trkpt lat="45.58474" lon="5.27649">
        <ele>259</ele>
        <time>2021-03-07T09:34:37.517Z</time>
      </trkpt>
      <trkpt lat="45.58473" lon="5.27648">
        <ele>258</ele>
        <time>2021-03-07T09:34:38.516Z</time>
      </trkpt>
      <trkpt lat="45.58472" lon="5.27648">
        <ele>257</ele>
        <time>2021-03-07T09:34:39.517Z</time>
      </trkpt>
      <trkpt lat="45.58471" lon="5.27648">
        <ele>257</ele>
        <time>2021-03-07T09:34:40.517Z</time>
      </trkpt>
      <trkpt lat="45.5847" lon="5.27648">
        <ele>256</ele>
        <time>2021-03-07T09:34:41.517Z</time>
      </trkpt>
      <trkpt lat="45.58468" lon="5.27648">
        <ele>256</ele>
        <time>2021-03-07T09:34:42.517Z</time>
      </trkpt>
      <trkpt lat="45.58465" lon="5.27648">
        <ele>256</ele>
        <time>2021-03-07T09:34:43.517Z</time>
      </trkpt>
      <trkpt lat="45.58462" lon="5.27647">
        <ele>255</ele>
        <time>2021-03-07T09:34:44.517Z</time>
      </trkpt>
      <trkpt lat="45.58459" lon="5.27647">
        <ele>255</ele>
        <time>2021-03-07T09:34:45.516Z</time>
      </trkpt>
      <trkpt lat="45.58456" lon="5.27646">
        <ele>255</ele>
        <time>2021-03-07T09:34:46.517Z</time>
      </trkpt>
      <trkpt lat="45.58453" lon="5.27646">
        <ele>254</ele>
        <time>2021-03-07T09:34:47.517Z</time>
      </trkpt>
      <trkpt lat="45.5845" lon="5.27647">
        <ele>254</ele>
        <time>2021-03-07T09:34:48.517Z</time>
      </trkpt>
      <trkpt lat="45.58447" lon="5.27647">
        <ele>254</ele>
        <time>2021-03-07T09:34:49.516Z</time>
      </trkpt>
      <trkpt lat="45.58444" lon="5.27647">
        <ele>254</ele>
        <time>2021-03-07T09:34:50.517Z</time>
      </trkpt>
      <trkpt lat="45.58441" lon="5.27647">
        <ele>254</ele>
        <time>2021-03-07T09:34:51.516Z</time>
      </trkpt>
      <trkpt lat="45.58438" lon="5.27646">
        <ele>254</ele>
        <time>2021-03-07T09:34:52.517Z</time>
      </trkpt>
      <trkpt lat="45.58434" lon="5.27646">
        <ele>254</ele>
        <time>2021-03-07T09:34:53.517Z</time>
      </trkpt>
      <trkpt lat="45.58431" lon="5.27645">
        <ele>255</ele>
        <time>2021-03-07T09:34:54.517Z</time>
      </trkpt>
      <trkpt lat="45.58427" lon="5.27644">
        <ele>255</ele>
        <time>2021-03-07T09:34:55.517Z</time>
      </trkpt>
      <trkpt lat="45.58424" lon="5.27643">
        <ele>255</ele>
        <time>2021-03-07T09:34:56.516Z</time>
      </trkpt>
      <trkpt lat="45.58421" lon="5.27642">
        <ele>255</ele>
        <time>2021-03-07T09:34:57.517Z</time>
      </trkpt>
      <trkpt lat="45.58417" lon="5.27641">
        <ele>256</ele>
        <time>2021-03-07T09:34:58.517Z</time>
      </trkpt>
      <trkpt lat="45.58414" lon="5.2764">
        <ele>256</ele>
        <time>2021-03-07T09:34:59.517Z</time>
      </trkpt>
      <trkpt lat="45.5841" lon="5.27639">
        <ele>257</ele>
        <time>2021-03-07T09:35:00.517Z</time>
      </trkpt>
      <trkpt lat="45.58408" lon="5.27637">
        <ele>258</ele>
        <time>2021-03-07T09:35:01.517Z</time>
      </trkpt>
      <trkpt lat="45.58407" lon="5.27634">
        <ele>258</ele>
        <time>2021-03-07T09:35:02.516Z</time>
      </trkpt>
      <trkpt lat="45.58405" lon="5.2763">
        <ele>258</ele>
        <time>2021-03-07T09:35:03.517Z</time>
      </trkpt>
      <trkpt lat="45.58404" lon="5.27625">
        <ele>258</ele>
        <time>2021-03-07T09:35:04.517Z</time>
      </trkpt>
      <trkpt lat="45.58403" lon="5.2762">
        <ele>258</ele>
        <time>2021-03-07T09:35:05.517Z</time>
      </trkpt>
      <trkpt lat="45.58403" lon="5.27616">
        <ele>258</ele>
        <time>2021-03-07T09:35:06.517Z</time>
      </trkpt>
      <trkpt lat="45.58403" lon="5.27613">
        <ele>258</ele>
        <time>2021-03-07T09:35:07.516Z</time>
      </trkpt>
      <trkpt lat="45.58402" lon="5.27612">
        <ele>258</ele>
        <time>2021-03-07T09:35:08.517Z</time>
      </trkpt>
      <trkpt lat="45.58401" lon="5.27612">
        <ele>258</ele>
        <time>2021-03-07T09:35:09.517Z</time>
      </trkpt>
      <trkpt lat="45.58402" lon="5.27613">
        <ele>259</ele>
        <time>2021-03-07T09:35:10.517Z</time>
      </trkpt>
      <trkpt lat="45.58402" lon="5.27617">
        <ele>258</ele>
        <time>2021-03-07T09:35:11.517Z</time>
      </trkpt>
      <trkpt lat="45.58403" lon="5.27622">
        <ele>258</ele>
        <time>2021-03-07T09:35:12.516Z</time>
      </trkpt>
      <trkpt lat="45.58403" lon="5.27626">
        <ele>257</ele>
        <time>2021-03-07T09:35:13.517Z</time>
      </trkpt>
      <trkpt lat="45.58402" lon="5.2763">
        <ele>257</ele>
        <time>2021-03-07T09:35:14.517Z</time>
      </trkpt>
      <trkpt lat="45.584" lon="5.27631">
        <ele>257</ele>
        <time>2021-03-07T09:35:15.517Z</time>
      </trkpt>
      <trkpt lat="45.584" lon="5.27631">
        <ele>256</ele>
        <time>2021-03-07T09:35:16.517Z</time>
      </trkpt>
      <trkpt lat="45.58399" lon="5.2763">
        <ele>256</ele>
        <time>2021-03-07T09:35:17.517Z</time>
      </trkpt>
      <trkpt lat="45.58399" lon="5.27627">
        <ele>256</ele>
        <time>2021-03-07T09:35:18.517Z</time>
      </trkpt>
      <trkpt lat="45.58399" lon="5.27624">
        <ele>256</ele>
        <time>2021-03-07T09:35:19.517Z</time>
      </trkpt>
      <trkpt lat="45.58399" lon="5.2762">
        <ele>255</ele>
        <time>2021-03-07T09:35:20.517Z</time>
      </trkpt>
      <trkpt lat="45.58398" lon="5.27616">
        <ele>255</ele>
        <time>2021-03-07T09:35:21.517Z</time>
      </trkpt>
      <trkpt lat="45.58396" lon="5.27614">
        <ele>255</ele>
        <time>2021-03-07T09:35:22.517Z</time>
      </trkpt>
      <trkpt lat="45.58393" lon="5.2761">
        <ele>254</ele>
        <time>2021-03-07T09:35:23.517Z</time>
      </trkpt>
      <trkpt lat="45.5839" lon="5.27606">
        <ele>255</ele>
        <time>2021-03-07T09:35:24.517Z</time>
      </trkpt>
      <trkpt lat="45.58385" lon="5.27602">
        <ele>255</ele>
        <time>2021-03-07T09:35:25.517Z</time>
      </trkpt>
      <trkpt lat="45.58381" lon="5.27598">
        <ele>256</ele>
        <time>2021-03-07T09:35:26.517Z</time>
      </trkpt>
      <trkpt lat="45.58377" lon="5.27595">
        <ele>256</ele>
        <time>2021-03-07T09:35:27.517Z</time>
      </trkpt>
      <trkpt lat="45.58372" lon="5.27593">
        <ele>257</ele>
        <time>2021-03-07T09:35:28.517Z</time>
      </trkpt>
      <trkpt lat="45.58368" lon="5.27591">
        <ele>257</ele>
        <time>2021-03-07T09:35:29.517Z</time>
      </trkpt>
      <trkpt lat="45.58363" lon="5.2759">
        <ele>258</ele>
        <time>2021-03-07T09:35:30.517Z</time>
      </trkpt>
      <trkpt lat="45.58359" lon="5.27589">
        <ele>258</ele>
        <time>2021-03-07T09:35:31.517Z</time>
      </trkpt>
      <trkpt lat="45.58356" lon="5.27588">
        <ele>258</ele>
        <time>2021-03-07T09:35:32.517Z</time>
      </trkpt>
      <trkpt lat="45.58352" lon="5.27588">
        <ele>258</ele>
        <time>2021-03-07T09:35:33.517Z</time>
      </trkpt>
      <trkpt lat="45.58349" lon="5.27587">
        <ele>258</ele>
        <time>2021-03-07T09:35:34.517Z</time>
      </trkpt>
      <trkpt lat="45.58345" lon="5.27586">
        <ele>258</ele>
        <time>2021-03-07T09:35:35.517Z</time>
      </trkpt>
      <trkpt lat="45.58342" lon="5.27586">
        <ele>258</ele>
        <time>2021-03-07T09:35:36.517Z</time>
      </trkpt>
      <trkpt lat="45.58338" lon="5.27586">
        <ele>258</ele>
        <time>2021-03-07T09:35:37.517Z</time>
      </trkpt>
      <trkpt lat="45.58335" lon="5.27586">
        <ele>258</ele>
        <time>2021-03-07T09:35:38.516Z</time>
      </trkpt>
      <trkpt lat="45.58332" lon="5.27586">
        <ele>258</ele>
        <time>2021-03-07T09:35:39.517Z</time>
      </trkpt>
      <trkpt lat="45.58329" lon="5.27586">
        <ele>259</ele>
        <time>2021-03-07T09:35:40.517Z</time>
      </trkpt>
      <trkpt lat="45.58326" lon="5.27585">
        <ele>259</ele>
        <time>2021-03-07T09:35:41.517Z</time>
      </trkpt>
      <trkpt lat="45.58323" lon="5.27585">
        <ele>259</ele>
        <time>2021-03-07T09:35:42.517Z</time>
      </trkpt>
      <trkpt lat="45.5832" lon="5.27585">
        <ele>259</ele>
        <time>2021-03-07T09:35:43.517Z</time>
      </trkpt>
      <trkpt lat="45.58317" lon="5.27584">
        <ele>259</ele>
        <time>2021-03-07T09:35:44.517Z</time>
      </trkpt>
      <trkpt lat="45.58314" lon="5.27584">
        <ele>259</ele>
        <time>2021-03-07T09:35:45.517Z</time>
      </trkpt>
      <trkpt lat="45.58311" lon="5.27583">
        <ele>259</ele>
        <time>2021-03-07T09:35:46.516Z</time>
      </trkpt>
      <trkpt lat="45.58309" lon="5.27582">
        <ele>259</ele>
        <time>2021-03-07T09:35:47.516Z</time>
      </trkpt>
      <trkpt lat="45.58306" lon="5.27582">
        <ele>259</ele>
        <time>2021-03-07T09:35:48.517Z</time>
      </trkpt>
      <trkpt lat="45.58303" lon="5.27581">
        <ele>259</ele>
        <time>2021-03-07T09:35:49.517Z</time>
      </trkpt>
      <trkpt lat="45.58301" lon="5.2758">
        <ele>259</ele>
        <time>2021-03-07T09:35:50.516Z</time>
      </trkpt>
      <trkpt lat="45.58299" lon="5.27579">
        <ele>260</ele>
        <time>2021-03-07T09:35:51.516Z</time>
      </trkpt>
      <trkpt lat="45.58296" lon="5.27579">
        <ele>260</ele>
        <time>2021-03-07T09:35:52.517Z</time>
      </trkpt>
      <trkpt lat="45.58294" lon="5.2758">
        <ele>261</ele>
        <time>2021-03-07T09:35:53.517Z</time>
      </trkpt>
      <trkpt lat="45.58292" lon="5.27582">
        <ele>261</ele>
        <time>2021-03-07T09:35:54.517Z</time>
      </trkpt>
      <trkpt lat="45.58291" lon="5.27585">
        <ele>261</ele>
        <time>2021-03-07T09:35:55.517Z</time>
      </trkpt>
      <trkpt lat="45.58291" lon="5.27589">
        <ele>262</ele>
        <time>2021-03-07T09:35:56.517Z</time>
      </trkpt>
      <trkpt lat="45.5829" lon="5.27593">
        <ele>262</ele>
        <time>2021-03-07T09:35:57.517Z</time>
      </trkpt>
      <trkpt lat="45.5829" lon="5.27598">
        <ele>262</ele>
        <time>2021-03-07T09:35:58.517Z</time>
      </trkpt>
      <trkpt lat="45.58291" lon="5.27603">
        <ele>263</ele>
        <time>2021-03-07T09:35:59.517Z</time>
      </trkpt>
      <trkpt lat="45.58291" lon="5.27608">
        <ele>263</ele>
        <time>2021-03-07T09:36:00.517Z</time>
      </trkpt>
      <trkpt lat="45.58292" lon="5.27612">
        <ele>264</ele>
        <time>2021-03-07T09:36:01.517Z</time>
      </trkpt>
      <trkpt lat="45.58294" lon="5.27617">
        <ele>264</ele>
        <time>2021-03-07T09:36:02.517Z</time>
      </trkpt>
      <trkpt lat="45.58296" lon="5.2762">
        <ele>265</ele>
        <time>2021-03-07T09:36:03.517Z</time>
      </trkpt>
      <trkpt lat="45.58298" lon="5.27624">
        <ele>266</ele>
        <time>2021-03-07T09:36:04.517Z</time>
      </trkpt>
      <trkpt lat="45.58301" lon="5.27627">
        <ele>266</ele>
        <time>2021-03-07T09:36:05.517Z</time>
      </trkpt>
      <trkpt lat="45.58303" lon="5.27629">
        <ele>267</ele>
        <time>2021-03-07T09:36:06.517Z</time>
      </trkpt>
      <trkpt lat="45.58306" lon="5.27632">
        <ele>267</ele>
        <time>2021-03-07T09:36:07.517Z</time>
      </trkpt>
      <trkpt lat="45.58309" lon="5.27634">
        <ele>267</ele>
        <time>2021-03-07T09:36:08.517Z</time>
      </trkpt>
      <trkpt lat="45.58312" lon="5.27636">
        <ele>267</ele>
        <time>2021-03-07T09:36:09.517Z</time>
      </trkpt>
      <trkpt lat="45.58315" lon="5.27638">
        <ele>267</ele>
        <time>2021-03-07T09:36:10.517Z</time>
      </trkpt>
      <trkpt lat="45.58318" lon="5.2764">
        <ele>267</ele>
        <time>2021-03-07T09:36:11.516Z</time>
      </trkpt>
      <trkpt lat="45.58321" lon="5.27642">
        <ele>267</ele>
        <time>2021-03-07T09:36:12.517Z</time>
      </trkpt>
      <trkpt lat="45.58324" lon="5.27643">
        <ele>267</ele>
        <time>2021-03-07T09:36:13.516Z</time>
      </trkpt>
      <trkpt lat="45.58326" lon="5.27645">
        <ele>267</ele>
        <time>2021-03-07T09:36:14.517Z</time>
      </trkpt>
      <trkpt lat="45.58329" lon="5.27647">
        <ele>267</ele>
        <time>2021-03-07T09:36:15.517Z</time>
      </trkpt>
      <trkpt lat="45.58332" lon="5.27649">
        <ele>267</ele>
        <time>2021-03-07T09:36:16.517Z</time>
      </trkpt>
      <trkpt lat="45.58335" lon="5.27651">
        <ele>268</ele>
        <time>2021-03-07T09:36:17.517Z</time>
      </trkpt>
      <trkpt lat="45.58338" lon="5.27653">
        <ele>268</ele>
        <time>2021-03-07T09:36:18.516Z</time>
      </trkpt>
      <trkpt lat="45.58341" lon="5.27655">
        <ele>269</ele>
        <time>2021-03-07T09:36:19.517Z</time>
      </trkpt>
      <trkpt lat="45.58344" lon="5.27658">
        <ele>269</ele>
        <time>2021-03-07T09:36:20.517Z</time>
      </trkpt>
      <trkpt lat="45.58346" lon="5.2766">
        <ele>269</ele>
        <time>2021-03-07T09:36:21.517Z</time>
      </trkpt>
      <trkpt lat="45.58349" lon="5.27662">
        <ele>269</ele>
        <time>2021-03-07T09:36:22.517Z</time>
      </trkpt>
      <trkpt lat="45.58352" lon="5.27664">
        <ele>270</ele>
        <time>2021-03-07T09:36:23.517Z</time>
      </trkpt>
      <trkpt lat="45.58355" lon="5.27667">
        <ele>270</ele>
        <time>2021-03-07T09:36:24.517Z</time>
      </trkpt>
      <trkpt lat="45.58357" lon="5.27669">
        <ele>271</ele>
        <time>2021-03-07T09:36:25.517Z</time>
      </trkpt>
      <trkpt lat="45.5836" lon="5.27671">
        <ele>271</ele>
        <time>2021-03-07T09:36:26.517Z</time>
      </trkpt>
      <trkpt lat="45.58362" lon="5.27674">
        <ele>271</ele>
        <time>2021-03-07T09:36:27.517Z</time>
      </trkpt>
      <trkpt lat="45.58364" lon="5.27676">
        <ele>272</ele>
        <time>2021-03-07T09:36:28.517Z</time>
      </trkpt>
      <trkpt lat="45.58367" lon="5.27679">
        <ele>272</ele>
        <time>2021-03-07T09:36:29.517Z</time>
      </trkpt>
      <trkpt lat="45.5837" lon="5.27681">
        <ele>273</ele>
        <time>2021-03-07T09:36:30.517Z</time>
      </trkpt>
      <trkpt lat="45.58372" lon="5.27684">
        <ele>273</ele>
        <time>2021-03-07T09:36:31.517Z</time>
      </trkpt>
      <trkpt lat="45.58374" lon="5.27687">
        <ele>274</ele>
        <time>2021-03-07T09:36:32.517Z</time>
      </trkpt>
      <trkpt lat="45.58376" lon="5.2769">
        <ele>275</ele>
        <time>2021-03-07T09:36:33.517Z</time>
      </trkpt>
      <trkpt lat="45.58378" lon="5.27693">
        <ele>276</ele>
        <time>2021-03-07T09:36:34.517Z</time>
      </trkpt>
      <trkpt lat="45.5838" lon="5.27697">
        <ele>277</ele>
        <time>2021-03-07T09:36:35.517Z</time>
      </trkpt>
      <trkpt lat="45.58382" lon="5.277">
        <ele>278</ele>
        <time>2021-03-07T09:36:36.516Z</time>
      </trkpt>
      <trkpt lat="45.58384" lon="5.27703">
        <ele>279</ele>
        <time>2021-03-07T09:36:37.517Z</time>
      </trkpt>
      <trkpt lat="45.58386" lon="5.27707">
        <ele>280</ele>
        <time>2021-03-07T09:36:38.517Z</time>
      </trkpt>
      <trkpt lat="45.58388" lon="5.2771">
        <ele>280</ele>
        <time>2021-03-07T09:36:39.517Z</time>
      </trkpt>
      <trkpt lat="45.5839" lon="5.27713">
        <ele>281</ele>
        <time>2021-03-07T09:36:40.517Z</time>
      </trkpt>
      <trkpt lat="45.58392" lon="5.27717">
        <ele>282</ele>
        <time>2021-03-07T09:36:41.517Z</time>
      </trkpt>
      <trkpt lat="45.58394" lon="5.2772">
        <ele>282</ele>
        <time>2021-03-07T09:36:42.517Z</time>
      </trkpt>
      <trkpt lat="45.58396" lon="5.27723">
        <ele>283</ele>
        <time>2021-03-07T09:36:43.517Z</time>
      </trkpt>
      <trkpt lat="45.58398" lon="5.27726">
        <ele>283</ele>
        <time>2021-03-07T09:36:44.517Z</time>
      </trkpt>
      <trkpt lat="45.58398" lon="5.2773">
        <ele>283</ele>
        <time>2021-03-07T09:36:45.516Z</time>
      </trkpt>
      <trkpt lat="45.58398" lon="5.27734">
        <ele>283</ele>
        <time>2021-03-07T09:36:46.517Z</time>
      </trkpt>
      <trkpt lat="45.58397" lon="5.27738">
        <ele>283</ele>
        <time>2021-03-07T09:36:47.517Z</time>
      </trkpt>
      <trkpt lat="45.58395" lon="5.27741">
        <ele>283</ele>
        <time>2021-03-07T09:36:48.517Z</time>
      </trkpt>
      <trkpt lat="45.58392" lon="5.27744">
        <ele>283</ele>
        <time>2021-03-07T09:36:49.517Z</time>
      </trkpt>
      <trkpt lat="45.5839" lon="5.27745">
        <ele>283</ele>
        <time>2021-03-07T09:36:50.517Z</time>
      </trkpt>
      <trkpt lat="45.58387" lon="5.27745">
        <ele>283</ele>
        <time>2021-03-07T09:36:51.517Z</time>
      </trkpt>
      <trkpt lat="45.58384" lon="5.27744">
        <ele>283</ele>
        <time>2021-03-07T09:36:52.517Z</time>
      </trkpt>
      <trkpt lat="45.58381" lon="5.27743">
        <ele>283</ele>
        <time>2021-03-07T09:36:53.517Z</time>
      </trkpt>
      <trkpt lat="45.58378" lon="5.2774">
        <ele>283</ele>
        <time>2021-03-07T09:36:54.517Z</time>
      </trkpt>
      <trkpt lat="45.58375" lon="5.27737">
        <ele>283</ele>
        <time>2021-03-07T09:36:55.517Z</time>
      </trkpt>
      <trkpt lat="45.58373" lon="5.27734">
        <ele>283</ele>
        <time>2021-03-07T09:36:56.517Z</time>
      </trkpt>
      <trkpt lat="45.5837" lon="5.27731">
        <ele>282</ele>
        <time>2021-03-07T09:36:57.517Z</time>
      </trkpt>
      <trkpt lat="45.58367" lon="5.27728">
        <ele>282</ele>
        <time>2021-03-07T09:36:58.517Z</time>
      </trkpt>
      <trkpt lat="45.58364" lon="5.27725">
        <ele>282</ele>
        <time>2021-03-07T09:36:59.517Z</time>
      </trkpt>
      <trkpt lat="45.58361" lon="5.27722">
        <ele>281</ele>
        <time>2021-03-07T09:37:00.517Z</time>
      </trkpt>
      <trkpt lat="45.58358" lon="5.2772">
        <ele>281</ele>
        <time>2021-03-07T09:37:01.517Z</time>
      </trkpt>
      <trkpt lat="45.58355" lon="5.27718">
        <ele>280</ele>
        <time>2021-03-07T09:37:02.517Z</time>
      </trkpt>
      <trkpt lat="45.58351" lon="5.27716">
        <ele>280</ele>
        <time>2021-03-07T09:37:03.517Z</time>
      </trkpt>
      <trkpt lat="45.58349" lon="5.27713">
        <ele>280</ele>
        <time>2021-03-07T09:37:04.516Z</time>
      </trkpt>
      <trkpt lat="45.58346" lon="5.27711">
        <ele>279</ele>
        <time>2021-03-07T09:37:05.516Z</time>
      </trkpt>
      <trkpt lat="45.58344" lon="5.2771">
        <ele>280</ele>
        <time>2021-03-07T09:37:06.517Z</time>
      </trkpt>
      <trkpt lat="45.58342" lon="5.27708">
        <ele>280</ele>
        <time>2021-03-07T09:37:07.517Z</time>
      </trkpt>
      <trkpt lat="45.5834" lon="5.27706">
        <ele>280</ele>
        <time>2021-03-07T09:37:08.516Z</time>
      </trkpt>
      <trkpt lat="45.58337" lon="5.27705">
        <ele>280</ele>
        <time>2021-03-07T09:37:09.516Z</time>
      </trkpt>
      <trkpt lat="45.58335" lon="5.27704">
        <ele>280</ele>
        <time>2021-03-07T09:37:10.517Z</time>
      </trkpt>
      <trkpt lat="45.58332" lon="5.27702">
        <ele>280</ele>
        <time>2021-03-07T09:37:11.516Z</time>
      </trkpt>
      <trkpt lat="45.58329" lon="5.277">
        <ele>280</ele>
        <time>2021-03-07T09:37:12.517Z</time>
      </trkpt>
      <trkpt lat="45.58326" lon="5.27698">
        <ele>280</ele>
        <time>2021-03-07T09:37:13.516Z</time>
      </trkpt>
      <trkpt lat="45.58324" lon="5.27696">
        <ele>280</ele>
        <time>2021-03-07T09:37:14.516Z</time>
      </trkpt>
      <trkpt lat="45.58321" lon="5.27695">
        <ele>281</ele>
        <time>2021-03-07T09:37:15.517Z</time>
      </trkpt>
      <trkpt lat="45.58318" lon="5.27693">
        <ele>281</ele>
        <time>2021-03-07T09:37:16.517Z</time>
      </trkpt>
      <trkpt lat="45.58315" lon="5.27692">
        <ele>281</ele>
        <time>2021-03-07T09:37:17.516Z</time>
      </trkpt>
      <trkpt lat="45.58312" lon="5.27691">
        <ele>281</ele>
        <time>2021-03-07T09:37:18.517Z</time>
      </trkpt>
      <trkpt lat="45.58309" lon="5.2769">
        <ele>281</ele>
        <time>2021-03-07T09:37:19.516Z</time>
      </trkpt>
      <trkpt lat="45.58306" lon="5.2769">
        <ele>281</ele>
        <time>2021-03-07T09:37:20.516Z</time>
      </trkpt>
      <trkpt lat="45.58303" lon="5.27689">
        <ele>281</ele>
        <time>2021-03-07T09:37:21.517Z</time>
      </trkpt>
      <trkpt lat="45.583" lon="5.27689">
        <ele>281</ele>
        <time>2021-03-07T09:37:22.516Z</time>
      </trkpt>
      <trkpt lat="45.58298" lon="5.27689">
        <ele>282</ele>
        <time>2021-03-07T09:37:23.517Z</time>
      </trkpt>
      <trkpt lat="45.58295" lon="5.27689">
        <ele>283</ele>
        <time>2021-03-07T09:37:24.516Z</time>
      </trkpt>
      <trkpt lat="45.58292" lon="5.2769">
        <ele>284</ele>
        <time>2021-03-07T09:37:25.516Z</time>
      </trkpt>
      <trkpt lat="45.58289" lon="5.2769">
        <ele>284</ele>
        <time>2021-03-07T09:37:26.517Z</time>
      </trkpt>
      <trkpt lat="45.58286" lon="5.2769">
        <ele>284</ele>
        <time>2021-03-07T09:37:27.516Z</time>
      </trkpt>
      <trkpt lat="45.58283" lon="5.2769">
        <ele>284</ele>
        <time>2021-03-07T09:37:28.516Z</time>
      </trkpt>
      <trkpt lat="45.58281" lon="5.27691">
        <ele>285</ele>
        <time>2021-03-07T09:37:29.516Z</time>
      </trkpt>
      <trkpt lat="45.58278" lon="5.27691">
        <ele>285</ele>
        <time>2021-03-07T09:37:30.516Z</time>
      </trkpt>
      <trkpt lat="45.58275" lon="5.27691">
        <ele>285</ele>
        <time>2021-03-07T09:37:31.517Z</time>
      </trkpt>
      <trkpt lat="45.58272" lon="5.27691">
        <ele>285</ele>
        <time>2021-03-07T09:37:32.517Z</time>
      </trkpt>
      <trkpt lat="45.58269" lon="5.27692">
        <ele>285</ele>
        <time>2021-03-07T09:37:33.516Z</time>
      </trkpt>
      <trkpt lat="45.58267" lon="5.27692">
        <ele>285</ele>
        <time>2021-03-07T09:37:34.516Z</time>
      </trkpt>
      <trkpt lat="45.58264" lon="5.27692">
        <ele>285</ele>
        <time>2021-03-07T09:37:35.517Z</time>
      </trkpt>
      <trkpt lat="45.58261" lon="5.27692">
        <ele>285</ele>
        <time>2021-03-07T09:37:36.517Z</time>
      </trkpt>
      <trkpt lat="45.58258" lon="5.27692">
        <ele>286</ele>
        <time>2021-03-07T09:37:37.517Z</time>
      </trkpt>
      <trkpt lat="45.58255" lon="5.27693">
        <ele>286</ele>
        <time>2021-03-07T09:37:38.516Z</time>
      </trkpt>
      <trkpt lat="45.58252" lon="5.27693">
        <ele>287</ele>
        <time>2021-03-07T09:37:39.516Z</time>
      </trkpt>
      <trkpt lat="45.5825" lon="5.27693">
        <ele>287</ele>
        <time>2021-03-07T09:37:40.517Z</time>
      </trkpt>
      <trkpt lat="45.58247" lon="5.27694">
        <ele>287</ele>
        <time>2021-03-07T09:37:41.516Z</time>
      </trkpt>
      <trkpt lat="45.58245" lon="5.27694">
        <ele>288</ele>
        <time>2021-03-07T09:37:42.517Z</time>
      </trkpt>
      <trkpt lat="45.58242" lon="5.27695">
        <ele>288</ele>
        <time>2021-03-07T09:37:43.517Z</time>
      </trkpt>
      <trkpt lat="45.5824" lon="5.27696">
        <ele>289</ele>
        <time>2021-03-07T09:37:44.517Z</time>
      </trkpt>
      <trkpt lat="45.58237" lon="5.27698">
        <ele>289</ele>
        <time>2021-03-07T09:37:45.516Z</time>
      </trkpt>
      <trkpt lat="45.58235" lon="5.277">
        <ele>290</ele>
        <time>2021-03-07T09:37:46.517Z</time>
      </trkpt>
      <trkpt lat="45.58233" lon="5.27704">
        <ele>290</ele>
        <time>2021-03-07T09:37:47.516Z</time>
      </trkpt>
      <trkpt lat="45.58232" lon="5.27707">
        <ele>291</ele>
        <time>2021-03-07T09:37:48.517Z</time>
      </trkpt>
      <trkpt lat="45.58231" lon="5.27711">
        <ele>291</ele>
        <time>2021-03-07T09:37:49.517Z</time>
      </trkpt>
      <trkpt lat="45.58232" lon="5.27714">
        <ele>292</ele>
        <time>2021-03-07T09:37:50.516Z</time>
      </trkpt>
      <trkpt lat="45.58234" lon="5.27717">
        <ele>292</ele>
        <time>2021-03-07T09:37:51.516Z</time>
      </trkpt>
      <trkpt lat="45.58236" lon="5.2772">
        <ele>293</ele>
        <time>2021-03-07T09:37:52.517Z</time>
      </trkpt>
      <trkpt lat="45.58239" lon="5.27722">
        <ele>293</ele>
        <time>2021-03-07T09:37:53.517Z</time>
      </trkpt>
      <trkpt lat="45.58242" lon="5.27723">
        <ele>294</ele>
        <time>2021-03-07T09:37:54.517Z</time>
      </trkpt>
      <trkpt lat="45.58246" lon="5.27723">
        <ele>294</ele>
        <time>2021-03-07T09:37:55.516Z</time>
      </trkpt>
      <trkpt lat="45.5825" lon="5.27722">
        <ele>294</ele>
        <time>2021-03-07T09:37:56.516Z</time>
      </trkpt>
      <trkpt lat="45.58254" lon="5.27721">
        <ele>295</ele>
        <time>2021-03-07T09:37:57.517Z</time>
      </trkpt>
      <trkpt lat="45.58257" lon="5.27721">
        <ele>295</ele>
        <time>2021-03-07T09:37:58.516Z</time>
      </trkpt>
      <trkpt lat="45.58261" lon="5.27721">
        <ele>296</ele>
        <time>2021-03-07T09:37:59.517Z</time>
      </trkpt>
      <trkpt lat="45.58264" lon="5.27721">
        <ele>296</ele>
        <time>2021-03-07T09:38:00.517Z</time>
      </trkpt>
      <trkpt lat="45.58267" lon="5.27722">
        <ele>297</ele>
        <time>2021-03-07T09:38:01.516Z</time>
      </trkpt>
      <trkpt lat="45.5827" lon="5.27723">
        <ele>298</ele>
        <time>2021-03-07T09:38:02.516Z</time>
      </trkpt>
      <trkpt lat="45.58274" lon="5.27724">
        <ele>298</ele>
        <time>2021-03-07T09:38:03.516Z</time>
      </trkpt>
      <trkpt lat="45.58278" lon="5.27725">
        <ele>299</ele>
        <time>2021-03-07T09:38:04.517Z</time>
      </trkpt>
      <trkpt lat="45.58281" lon="5.27727">
        <ele>300</ele>
        <time>2021-03-07T09:38:05.517Z</time>
      </trkpt>
      <trkpt lat="45.58284" lon="5.27729">
        <ele>301</ele>
        <time>2021-03-07T09:38:06.516Z</time>
      </trkpt>
      <trkpt lat="45.58287" lon="5.27732">
        <ele>302</ele>
        <time>2021-03-07T09:38:07.516Z</time>
      </trkpt>
      <trkpt lat="45.5829" lon="5.27734">
        <ele>303</ele>
        <time>2021-03-07T09:38:08.516Z</time>
      </trkpt>
      <trkpt lat="45.58293" lon="5.27737">
        <ele>303</ele>
        <time>2021-03-07T09:38:09.516Z</time>
      </trkpt>
      <trkpt lat="45.58296" lon="5.27739">
        <ele>304</ele>
        <time>2021-03-07T09:38:10.517Z</time>
      </trkpt>
      <trkpt lat="45.58297" lon="5.2774">
        <ele>305</ele>
        <time>2021-03-07T09:38:11.517Z</time>
      </trkpt>
      <trkpt lat="45.58299" lon="5.27742">
        <ele>305</ele>
        <time>2021-03-07T09:38:12.517Z</time>
      </trkpt>
      <trkpt lat="45.58302" lon="5.27744">
        <ele>306</ele>
        <time>2021-03-07T09:38:13.517Z</time>
      </trkpt>
      <trkpt lat="45.58305" lon="5.27747">
        <ele>306</ele>
        <time>2021-03-07T09:38:14.516Z</time>
      </trkpt>
      <trkpt lat="45.58308" lon="5.2775">
        <ele>306</ele>
        <time>2021-03-07T09:38:15.517Z</time>
      </trkpt>
      <trkpt lat="45.5831" lon="5.27753">
        <ele>307</ele>
        <time>2021-03-07T09:38:16.517Z</time>
      </trkpt>
      <trkpt lat="45.58313" lon="5.27756">
        <ele>307</ele>
        <time>2021-03-07T09:38:17.517Z</time>
      </trkpt>
      <trkpt lat="45.58316" lon="5.27759">
        <ele>307</ele>
        <time>2021-03-07T09:38:18.516Z</time>
      </trkpt>
      <trkpt lat="45.58318" lon="5.27762">
        <ele>307</ele>
        <time>2021-03-07T09:38:19.516Z</time>
      </trkpt>
      <trkpt lat="45.5832" lon="5.27764">
        <ele>306</ele>
        <time>2021-03-07T09:38:20.517Z</time>
      </trkpt>
      <trkpt lat="45.58322" lon="5.27767">
        <ele>306</ele>
        <time>2021-03-07T09:38:21.516Z</time>
      </trkpt>
      <trkpt lat="45.58324" lon="5.27771">
        <ele>306</ele>
        <time>2021-03-07T09:38:22.517Z</time>
      </trkpt>
      <trkpt lat="45.58326" lon="5.27774">
        <ele>307</ele>
        <time>2021-03-07T09:38:23.516Z</time>
      </trkpt>
      <trkpt lat="45.58328" lon="5.27777">
        <ele>306</ele>
        <time>2021-03-07T09:38:24.516Z</time>
      </trkpt>
      <trkpt lat="45.5833" lon="5.27781">
        <ele>306</ele>
        <time>2021-03-07T09:38:25.517Z</time>
      </trkpt>
      <trkpt lat="45.58331" lon="5.27784">
        <ele>307</ele>
        <time>2021-03-07T09:38:26.517Z</time>
      </trkpt>
      <trkpt lat="45.58333" lon="5.27787">
        <ele>306</ele>
        <time>2021-03-07T09:38:27.517Z</time>
      </trkpt>
      <trkpt lat="45.58336" lon="5.2779">
        <ele>306</ele>
        <time>2021-03-07T09:38:28.516Z</time>
      </trkpt>
      <trkpt lat="45.58337" lon="5.27794">
        <ele>306</ele>
        <time>2021-03-07T09:38:29.516Z</time>
      </trkpt>
      <trkpt lat="45.58339" lon="5.27798">
        <ele>307</ele>
        <time>2021-03-07T09:38:30.517Z</time>
      </trkpt>
      <trkpt lat="45.58341" lon="5.27802">
        <ele>307</ele>
        <time>2021-03-07T09:38:31.517Z</time>
      </trkpt>
      <trkpt lat="45.58343" lon="5.27806">
        <ele>308</ele>
        <time>2021-03-07T09:38:32.517Z</time>
      </trkpt>
      <trkpt lat="45.58345" lon="5.2781">
        <ele>308</ele>
        <time>2021-03-07T09:38:33.517Z</time>
      </trkpt>
      <trkpt lat="45.58348" lon="5.27814">
        <ele>309</ele>
        <time>2021-03-07T09:38:34.516Z</time>
      </trkpt>
      <trkpt lat="45.5835" lon="5.27817">
        <ele>309</ele>
        <time>2021-03-07T09:38:35.516Z</time>
      </trkpt>
      <trkpt lat="45.58352" lon="5.27821">
        <ele>309</ele>
        <time>2021-03-07T09:38:36.517Z</time>
      </trkpt>
      <trkpt lat="45.58353" lon="5.27825">
        <ele>309</ele>
        <time>2021-03-07T09:38:37.517Z</time>
      </trkpt>
      <trkpt lat="45.58353" lon="5.2783">
        <ele>309</ele>
        <time>2021-03-07T09:38:38.516Z</time>
      </trkpt>
      <trkpt lat="45.58354" lon="5.27834">
        <ele>309</ele>
        <time>2021-03-07T09:38:39.516Z</time>
      </trkpt>
      <trkpt lat="45.58355" lon="5.27839">
        <ele>310</ele>
        <time>2021-03-07T09:38:40.517Z</time>
      </trkpt>
      <trkpt lat="45.58356" lon="5.27843">
        <ele>311</ele>
        <time>2021-03-07T09:38:41.517Z</time>
      </trkpt>
      <trkpt lat="45.58356" lon="5.27847">
        <ele>311</ele>
        <time>2021-03-07T09:38:42.517Z</time>
      </trkpt>
      <trkpt lat="45.58355" lon="5.27852">
        <ele>312</ele>
        <time>2021-03-07T09:38:43.516Z</time>
      </trkpt>
      <trkpt lat="45.58355" lon="5.27857">
        <ele>312</ele>
        <time>2021-03-07T09:38:44.516Z</time>
      </trkpt>
      <trkpt lat="45.58354" lon="5.27862">
        <ele>312</ele>
        <time>2021-03-07T09:38:45.517Z</time>
      </trkpt>
      <trkpt lat="45.58353" lon="5.27867">
        <ele>313</ele>
        <time>2021-03-07T09:38:46.517Z</time>
      </trkpt>
      <trkpt lat="45.58352" lon="5.27871">
        <ele>313</ele>
        <time>2021-03-07T09:38:47.516Z</time>
      </trkpt>
      <trkpt lat="45.58351" lon="5.27876">
        <ele>312</ele>
        <time>2021-03-07T09:38:48.516Z</time>
      </trkpt>
      <trkpt lat="45.5835" lon="5.2788">
        <ele>312</ele>
        <time>2021-03-07T09:38:49.516Z</time>
      </trkpt>
      <trkpt lat="45.58349" lon="5.27886">
        <ele>313</ele>
        <time>2021-03-07T09:38:50.516Z</time>
      </trkpt>
      <trkpt lat="45.58348" lon="5.2789">
        <ele>313</ele>
        <time>2021-03-07T09:38:51.517Z</time>
      </trkpt>
      <trkpt lat="45.58347" lon="5.27894">
        <ele>313</ele>
        <time>2021-03-07T09:38:52.516Z</time>
      </trkpt>
      <trkpt lat="45.58346" lon="5.27899">
        <ele>313</ele>
        <time>2021-03-07T09:38:53.516Z</time>
      </trkpt>
      <trkpt lat="45.58345" lon="5.27903">
        <ele>313</ele>
        <time>2021-03-07T09:38:54.516Z</time>
      </trkpt>
      <trkpt lat="45.58344" lon="5.27908">
        <ele>313</ele>
        <time>2021-03-07T09:38:55.516Z</time>
      </trkpt>
      <trkpt lat="45.58343" lon="5.27912">
        <ele>312</ele>
        <time>2021-03-07T09:38:56.517Z</time>
      </trkpt>
      <trkpt lat="45.58342" lon="5.27917">
        <ele>312</ele>
        <time>2021-03-07T09:38:57.516Z</time>
      </trkpt>
      <trkpt lat="45.58341" lon="5.27921">
        <ele>311</ele>
        <time>2021-03-07T09:38:58.516Z</time>
      </trkpt>
      <trkpt lat="45.58341" lon="5.27926">
        <ele>311</ele>
        <time>2021-03-07T09:38:59.516Z</time>
      </trkpt>
      <trkpt lat="45.5834" lon="5.2793">
        <ele>311</ele>
        <time>2021-03-07T09:39:00.516Z</time>
      </trkpt>
      <trkpt lat="45.58339" lon="5.27935">
        <ele>311</ele>
        <time>2021-03-07T09:39:01.516Z</time>
      </trkpt>
      <trkpt lat="45.58338" lon="5.27939">
        <ele>311</ele>
        <time>2021-03-07T09:39:02.516Z</time>
      </trkpt>
      <trkpt lat="45.58337" lon="5.27944">
        <ele>310</ele>
        <time>2021-03-07T09:39:03.516Z</time>
      </trkpt>
      <trkpt lat="45.58335" lon="5.27947">
        <ele>310</ele>
        <time>2021-03-07T09:39:04.516Z</time>
      </trkpt>
      <trkpt lat="45.58333" lon="5.27951">
        <ele>310</ele>
        <time>2021-03-07T09:39:05.516Z</time>
      </trkpt>
      <trkpt lat="45.58331" lon="5.27955">
        <ele>310</ele>
        <time>2021-03-07T09:39:06.517Z</time>
      </trkpt>
      <trkpt lat="45.58329" lon="5.27959">
        <ele>310</ele>
        <time>2021-03-07T09:39:07.517Z</time>
      </trkpt>
      <trkpt lat="45.58326" lon="5.27962">
        <ele>310</ele>
        <time>2021-03-07T09:39:08.517Z</time>
      </trkpt>
      <trkpt lat="45.58323" lon="5.27965">
        <ele>310</ele>
        <time>2021-03-07T09:39:09.517Z</time>
      </trkpt>
      <trkpt lat="45.5832" lon="5.27969">
        <ele>311</ele>
        <time>2021-03-07T09:39:10.516Z</time>
      </trkpt>
      <trkpt lat="45.58318" lon="5.27972">
        <ele>311</ele>
        <time>2021-03-07T09:39:11.517Z</time>
      </trkpt>
      <trkpt lat="45.58315" lon="5.27976">
        <ele>311</ele>
        <time>2021-03-07T09:39:12.517Z</time>
      </trkpt>
      <trkpt lat="45.58313" lon="5.2798">
        <ele>311</ele>
        <time>2021-03-07T09:39:13.517Z</time>
      </trkpt>
      <trkpt lat="45.58311" lon="5.27984">
        <ele>311</ele>
        <time>2021-03-07T09:39:14.517Z</time>
      </trkpt>
      <trkpt lat="45.58309" lon="5.27989">
        <ele>312</ele>
        <time>2021-03-07T09:39:15.517Z</time>
      </trkpt>
      <trkpt lat="45.58308" lon="5.27993">
        <ele>312</ele>
        <time>2021-03-07T09:39:16.516Z</time>
      </trkpt>
      <trkpt lat="45.58307" lon="5.27997">
        <ele>312</ele>
        <time>2021-03-07T09:39:17.517Z</time>
      </trkpt>
      <trkpt lat="45.58306" lon="5.28002">
        <ele>311</ele>
        <time>2021-03-07T09:39:18.516Z</time>
      </trkpt>
      <trkpt lat="45.58304" lon="5.28006">
        <ele>311</ele>
        <time>2021-03-07T09:39:19.516Z</time>
      </trkpt>
      <trkpt lat="45.58303" lon="5.28011">
        <ele>312</ele>
        <time>2021-03-07T09:39:20.516Z</time>
      </trkpt>
      <trkpt lat="45.58302" lon="5.28016">
        <ele>312</ele>
        <time>2021-03-07T09:39:21.517Z</time>
      </trkpt>
      <trkpt lat="45.58301" lon="5.2802">
        <ele>312</ele>
        <time>2021-03-07T09:39:22.517Z</time>
      </trkpt>
      <trkpt lat="45.583" lon="5.28025">
        <ele>312</ele>
        <time>2021-03-07T09:39:23.517Z</time>
      </trkpt>
      <trkpt lat="45.58299" lon="5.28029">
        <ele>313</ele>
        <time>2021-03-07T09:39:24.517Z</time>
      </trkpt>
      <trkpt lat="45.58298" lon="5.28033">
        <ele>313</ele>
        <time>2021-03-07T09:39:25.516Z</time>
      </trkpt>
      <trkpt lat="45.58296" lon="5.28038">
        <ele>314</ele>
        <time>2021-03-07T09:39:26.516Z</time>
      </trkpt>
      <trkpt lat="45.58295" lon="5.28043">
        <ele>315</ele>
        <time>2021-03-07T09:39:27.517Z</time>
      </trkpt>
      <trkpt lat="45.58293" lon="5.28048">
        <ele>316</ele>
        <time>2021-03-07T09:39:28.517Z</time>
      </trkpt>
      <trkpt lat="45.58292" lon="5.28052">
        <ele>316</ele>
        <time>2021-03-07T09:39:29.517Z</time>
      </trkpt>
      <trkpt lat="45.5829" lon="5.28056">
        <ele>317</ele>
        <time>2021-03-07T09:39:30.517Z</time>
      </trkpt>
      <trkpt lat="45.58289" lon="5.28061">
        <ele>318</ele>
        <time>2021-03-07T09:39:31.517Z</time>
      </trkpt>
      <trkpt lat="45.58287" lon="5.28066">
        <ele>318</ele>
        <time>2021-03-07T09:39:32.516Z</time>
      </trkpt>
      <trkpt lat="45.58287" lon="5.28071">
        <ele>318</ele>
        <time>2021-03-07T09:39:33.517Z</time>
      </trkpt>
      <trkpt lat="45.58287" lon="5.28075">
        <ele>319</ele>
        <time>2021-03-07T09:39:34.517Z</time>
      </trkpt>
      <trkpt lat="45.58288" lon="5.2808">
        <ele>319</ele>
        <time>2021-03-07T09:39:35.517Z</time>
      </trkpt>
      <trkpt lat="45.58289" lon="5.28085">
        <ele>319</ele>
        <time>2021-03-07T09:39:36.517Z</time>
      </trkpt>
      <trkpt lat="45.58291" lon="5.2809">
        <ele>320</ele>
        <time>2021-03-07T09:39:37.517Z</time>
      </trkpt>
      <trkpt lat="45.58292" lon="5.28095">
        <ele>320</ele>
        <time>2021-03-07T09:39:38.517Z</time>
      </trkpt>
      <trkpt lat="45.58294" lon="5.28099">
        <ele>320</ele>
        <time>2021-03-07T09:39:39.517Z</time>
      </trkpt>
      <trkpt lat="45.58296" lon="5.28104">
        <ele>320</ele>
        <time>2021-03-07T09:39:40.517Z</time>
      </trkpt>
      <trkpt lat="45.58298" lon="5.28108">
        <ele>321</ele>
        <time>2021-03-07T09:39:41.517Z</time>
      </trkpt>
      <trkpt lat="45.583" lon="5.28113">
        <ele>321</ele>
        <time>2021-03-07T09:39:42.517Z</time>
      </trkpt>
      <trkpt lat="45.58302" lon="5.28118">
        <ele>321</ele>
        <time>2021-03-07T09:39:43.517Z</time>
      </trkpt>
      <trkpt lat="45.58303" lon="5.28123">
        <ele>322</ele>
        <time>2021-03-07T09:39:44.517Z</time>
      </trkpt>
      <trkpt lat="45.58305" lon="5.28128">
        <ele>322</ele>
        <time>2021-03-07T09:39:45.517Z</time>
      </trkpt>
      <trkpt lat="45.58306" lon="5.28134">
        <ele>323</ele>
        <time>2021-03-07T09:39:46.517Z</time>
      </trkpt>
      <trkpt lat="45.58306" lon="5.28139">
        <ele>324</ele>
        <time>2021-03-07T09:39:47.517Z</time>
      </trkpt>
      <trkpt lat="45.58307" lon="5.28145">
        <ele>324</ele>
        <time>2021-03-07T09:39:48.517Z</time>
      </trkpt>
      <trkpt lat="45.58307" lon="5.2815">
        <ele>324</ele>
        <time>2021-03-07T09:39:49.517Z</time>
      </trkpt>
      <trkpt lat="45.58306" lon="5.28155">
        <ele>324</ele>
        <time>2021-03-07T09:39:50.517Z</time>
      </trkpt>
      <trkpt lat="45.58305" lon="5.2816">
        <ele>324</ele>
        <time>2021-03-07T09:39:51.517Z</time>
      </trkpt>
      <trkpt lat="45.58303" lon="5.28164">
        <ele>323</ele>
        <time>2021-03-07T09:39:52.517Z</time>
      </trkpt>
      <trkpt lat="45.58301" lon="5.28168">
        <ele>323</ele>
        <time>2021-03-07T09:39:53.517Z</time>
      </trkpt>
      <trkpt lat="45.58299" lon="5.28172">
        <ele>323</ele>
        <time>2021-03-07T09:39:54.516Z</time>
      </trkpt>
      <trkpt lat="45.58296" lon="5.28176">
        <ele>322</ele>
        <time>2021-03-07T09:39:55.516Z</time>
      </trkpt>
      <trkpt lat="45.58294" lon="5.2818">
        <ele>322</ele>
        <time>2021-03-07T09:39:56.517Z</time>
      </trkpt>
      <trkpt lat="45.58291" lon="5.28184">
        <ele>322</ele>
        <time>2021-03-07T09:39:57.517Z</time>
      </trkpt>
      <trkpt lat="45.58289" lon="5.28187">
        <ele>322</ele>
        <time>2021-03-07T09:39:58.517Z</time>
      </trkpt>
      <trkpt lat="45.58286" lon="5.28189">
        <ele>322</ele>
        <time>2021-03-07T09:39:59.517Z</time>
      </trkpt>
      <trkpt lat="45.58283" lon="5.28192">
        <ele>322</ele>
        <time>2021-03-07T09:40:00.517Z</time>
      </trkpt>
      <trkpt lat="45.58281" lon="5.28195">
        <ele>322</ele>
        <time>2021-03-07T09:40:01.517Z</time>
      </trkpt>
      <trkpt lat="45.58279" lon="5.28198">
        <ele>322</ele>
        <time>2021-03-07T09:40:02.517Z</time>
      </trkpt>
      <trkpt lat="45.58276" lon="5.28201">
        <ele>323</ele>
        <time>2021-03-07T09:40:03.517Z</time>
      </trkpt>
      <trkpt lat="45.58274" lon="5.28203">
        <ele>323</ele>
        <time>2021-03-07T09:40:04.517Z</time>
      </trkpt>
      <trkpt lat="45.58272" lon="5.28206">
        <ele>323</ele>
        <time>2021-03-07T09:40:05.517Z</time>
      </trkpt>
      <trkpt lat="45.5827" lon="5.2821">
        <ele>324</ele>
        <time>2021-03-07T09:40:06.516Z</time>
      </trkpt>
      <trkpt lat="45.58268" lon="5.28215">
        <ele>324</ele>
        <time>2021-03-07T09:40:07.517Z</time>
      </trkpt>
      <trkpt lat="45.58266" lon="5.28219">
        <ele>324</ele>
        <time>2021-03-07T09:40:08.517Z</time>
      </trkpt>
      <trkpt lat="45.58265" lon="5.28224">
        <ele>325</ele>
        <time>2021-03-07T09:40:09.516Z</time>
      </trkpt>
      <trkpt lat="45.58265" lon="5.28228">
        <ele>325</ele>
        <time>2021-03-07T09:40:10.517Z</time>
      </trkpt>
      <trkpt lat="45.58265" lon="5.28233">
        <ele>326</ele>
        <time>2021-03-07T09:40:11.516Z</time>
      </trkpt>
      <trkpt lat="45.58266" lon="5.28237">
        <ele>326</ele>
        <time>2021-03-07T09:40:12.517Z</time>
      </trkpt>
      <trkpt lat="45.58267" lon="5.28242">
        <ele>327</ele>
        <time>2021-03-07T09:40:13.516Z</time>
      </trkpt>
      <trkpt lat="45.58268" lon="5.28246">
        <ele>328</ele>
        <time>2021-03-07T09:40:14.517Z</time>
      </trkpt>
      <trkpt lat="45.58269" lon="5.28251">
        <ele>328</ele>
        <time>2021-03-07T09:40:15.517Z</time>
      </trkpt>
      <trkpt lat="45.5827" lon="5.28257">
        <ele>328</ele>
        <time>2021-03-07T09:40:16.516Z</time>
      </trkpt>
      <trkpt lat="45.58271" lon="5.28262">
        <ele>328</ele>
        <time>2021-03-07T09:40:17.517Z</time>
      </trkpt>
      <trkpt lat="45.58272" lon="5.28267">
        <ele>328</ele>
        <time>2021-03-07T09:40:18.517Z</time>
      </trkpt>
      <trkpt lat="45.58272" lon="5.28272">
        <ele>328</ele>
        <time>2021-03-07T09:40:19.517Z</time>
      </trkpt>
      <trkpt lat="45.58272" lon="5.28277">
        <ele>328</ele>
        <time>2021-03-07T09:40:20.517Z</time>
      </trkpt>
      <trkpt lat="45.58272" lon="5.28281">
        <ele>328</ele>
        <time>2021-03-07T09:40:21.516Z</time>
      </trkpt>
      <trkpt lat="45.58271" lon="5.28288">
        <ele>328</ele>
        <time>2021-03-07T09:40:22.517Z</time>
      </trkpt>
      <trkpt lat="45.5827" lon="5.28292">
        <ele>328</ele>
        <time>2021-03-07T09:40:23.517Z</time>
      </trkpt>
      <trkpt lat="45.58268" lon="5.28296">
        <ele>327</ele>
        <time>2021-03-07T09:40:24.517Z</time>
      </trkpt>
      <trkpt lat="45.58266" lon="5.283">
        <ele>327</ele>
        <time>2021-03-07T09:40:25.516Z</time>
      </trkpt>
      <trkpt lat="45.58263" lon="5.28302">
        <ele>327</ele>
        <time>2021-03-07T09:40:26.517Z</time>
      </trkpt>
      <trkpt lat="45.5826" lon="5.28304">
        <ele>326</ele>
        <time>2021-03-07T09:40:27.516Z</time>
      </trkpt>
      <trkpt lat="45.58256" lon="5.28304">
        <ele>326</ele>
        <time>2021-03-07T09:40:28.516Z</time>
      </trkpt>
      <trkpt lat="45.58253" lon="5.28304">
        <ele>326</ele>
        <time>2021-03-07T09:40:29.517Z</time>
      </trkpt>
      <trkpt lat="45.5825" lon="5.28304">
        <ele>326</ele>
        <time>2021-03-07T09:40:30.516Z</time>
      </trkpt>
      <trkpt lat="45.58247" lon="5.28303">
        <ele>326</ele>
        <time>2021-03-07T09:40:31.517Z</time>
      </trkpt>
      <trkpt lat="45.58244" lon="5.28301">
        <ele>326</ele>
        <time>2021-03-07T09:40:32.516Z</time>
      </trkpt>
      <trkpt lat="45.5824" lon="5.28299">
        <ele>326</ele>
        <time>2021-03-07T09:40:33.517Z</time>
      </trkpt>
      <trkpt lat="45.58237" lon="5.28296">
        <ele>326</ele>
        <time>2021-03-07T09:40:34.517Z</time>
      </trkpt>
      <trkpt lat="45.58234" lon="5.28294">
        <ele>326</ele>
        <time>2021-03-07T09:40:35.516Z</time>
      </trkpt>
      <trkpt lat="45.58231" lon="5.28292">
        <ele>327</ele>
        <time>2021-03-07T09:40:36.517Z</time>
      </trkpt>
      <trkpt lat="45.58227" lon="5.2829">
        <ele>327</ele>
        <time>2021-03-07T09:40:37.517Z</time>
      </trkpt>
      <trkpt lat="45.58224" lon="5.28288">
        <ele>327</ele>
        <time>2021-03-07T09:40:38.517Z</time>
      </trkpt>
      <trkpt lat="45.58221" lon="5.28285">
        <ele>328</ele>
        <time>2021-03-07T09:40:39.517Z</time>
      </trkpt>
      <trkpt lat="45.58218" lon="5.28283">
        <ele>328</ele>
        <time>2021-03-07T09:40:40.517Z</time>
      </trkpt>
      <trkpt lat="45.58214" lon="5.2828">
        <ele>327</ele>
        <time>2021-03-07T09:40:41.517Z</time>
      </trkpt>
      <trkpt lat="45.58211" lon="5.28278">
        <ele>327</ele>
        <time>2021-03-07T09:40:42.517Z</time>
      </trkpt>
      <trkpt lat="45.58208" lon="5.28276">
        <ele>327</ele>
        <time>2021-03-07T09:40:43.517Z</time>
      </trkpt>
      <trkpt lat="45.58205" lon="5.28274">
        <ele>327</ele>
        <time>2021-03-07T09:40:44.517Z</time>
      </trkpt>
      <trkpt lat="45.58202" lon="5.28272">
        <ele>328</ele>
        <time>2021-03-07T09:40:45.516Z</time>
      </trkpt>
      <trkpt lat="45.58198" lon="5.2827">
        <ele>328</ele>
        <time>2021-03-07T09:40:46.516Z</time>
      </trkpt>
      <trkpt lat="45.58195" lon="5.28268">
        <ele>328</ele>
        <time>2021-03-07T09:40:47.517Z</time>
      </trkpt>
      <trkpt lat="45.58192" lon="5.28266">
        <ele>329</ele>
        <time>2021-03-07T09:40:48.517Z</time>
      </trkpt>
      <trkpt lat="45.58189" lon="5.28264">
        <ele>329</ele>
        <time>2021-03-07T09:40:49.517Z</time>
      </trkpt>
      <trkpt lat="45.58185" lon="5.28261">
        <ele>329</ele>
        <time>2021-03-07T09:40:50.517Z</time>
      </trkpt>
      <trkpt lat="45.58181" lon="5.2826">
        <ele>329</ele>
        <time>2021-03-07T09:40:51.516Z</time>
      </trkpt>
      <trkpt lat="45.58178" lon="5.28259">
        <ele>330</ele>
        <time>2021-03-07T09:40:52.517Z</time>
      </trkpt>
      <trkpt lat="45.58175" lon="5.28257">
        <ele>330</ele>
        <time>2021-03-07T09:40:53.517Z</time>
      </trkpt>
      <trkpt lat="45.58171" lon="5.28256">
        <ele>331</ele>
        <time>2021-03-07T09:40:54.517Z</time>
      </trkpt>
      <trkpt lat="45.58168" lon="5.28255">
        <ele>332</ele>
        <time>2021-03-07T09:40:55.517Z</time>
      </trkpt>
      <trkpt lat="45.58165" lon="5.28253">
        <ele>332</ele>
        <time>2021-03-07T09:40:56.517Z</time>
      </trkpt>
      <trkpt lat="45.58161" lon="5.28251">
        <ele>333</ele>
        <time>2021-03-07T09:40:57.517Z</time>
      </trkpt>
      <trkpt lat="45.58158" lon="5.28249">
        <ele>333</ele>
        <time>2021-03-07T09:40:58.517Z</time>
      </trkpt>
      <trkpt lat="45.58155" lon="5.28248">
        <ele>334</ele>
        <time>2021-03-07T09:40:59.517Z</time>
      </trkpt>
      <trkpt lat="45.58151" lon="5.28246">
        <ele>334</ele>
        <time>2021-03-07T09:41:00.517Z</time>
      </trkpt>
      <trkpt lat="45.58148" lon="5.28244">
        <ele>334</ele>
        <time>2021-03-07T09:41:01.517Z</time>
      </trkpt>
      <trkpt lat="45.58145" lon="5.28242">
        <ele>335</ele>
        <time>2021-03-07T09:41:02.517Z</time>
      </trkpt>
      <trkpt lat="45.58142" lon="5.28241">
        <ele>335</ele>
        <time>2021-03-07T09:41:03.517Z</time>
      </trkpt>
      <trkpt lat="45.58139" lon="5.2824">
        <ele>336</ele>
        <time>2021-03-07T09:41:04.517Z</time>
      </trkpt>
      <trkpt lat="45.58136" lon="5.28239">
        <ele>337</ele>
        <time>2021-03-07T09:41:05.517Z</time>
      </trkpt>
      <trkpt lat="45.58132" lon="5.28237">
        <ele>338</ele>
        <time>2021-03-07T09:41:06.517Z</time>
      </trkpt>
      <trkpt lat="45.58129" lon="5.28236">
        <ele>338</ele>
        <time>2021-03-07T09:41:07.517Z</time>
      </trkpt>
      <trkpt lat="45.58126" lon="5.28234">
        <ele>339</ele>
        <time>2021-03-07T09:41:08.517Z</time>
      </trkpt>
      <trkpt lat="45.58123" lon="5.28233">
        <ele>339</ele>
        <time>2021-03-07T09:41:09.517Z</time>
      </trkpt>
      <trkpt lat="45.58119" lon="5.28232">
        <ele>339</ele>
        <time>2021-03-07T09:41:10.517Z</time>
      </trkpt>
      <trkpt lat="45.58116" lon="5.28231">
        <ele>339</ele>
        <time>2021-03-07T09:41:11.517Z</time>
      </trkpt>
      <trkpt lat="45.58112" lon="5.28229">
        <ele>339</ele>
        <time>2021-03-07T09:41:12.517Z</time>
      </trkpt>
      <trkpt lat="45.58109" lon="5.28228">
        <ele>339</ele>
        <time>2021-03-07T09:41:13.517Z</time>
      </trkpt>
      <trkpt lat="45.58105" lon="5.28227">
        <ele>339</ele>
        <time>2021-03-07T09:41:14.517Z</time>
      </trkpt>
      <trkpt lat="45.58101" lon="5.28226">
        <ele>339</ele>
        <time>2021-03-07T09:41:15.517Z</time>
      </trkpt>
      <trkpt lat="45.58098" lon="5.28226">
        <ele>339</ele>
        <time>2021-03-07T09:41:16.516Z</time>
      </trkpt>
      <trkpt lat="45.58095" lon="5.28225">
        <ele>339</ele>
        <time>2021-03-07T09:41:17.517Z</time>
      </trkpt>
      <trkpt lat="45.58091" lon="5.28224">
        <ele>339</ele>
        <time>2021-03-07T09:41:18.517Z</time>
      </trkpt>
      <trkpt lat="45.58088" lon="5.28223">
        <ele>339</ele>
        <time>2021-03-07T09:41:19.517Z</time>
      </trkpt>
      <trkpt lat="45.58085" lon="5.28223">
        <ele>340</ele>
        <time>2021-03-07T09:41:20.517Z</time>
      </trkpt>
      <trkpt lat="45.58081" lon="5.28222">
        <ele>340</ele>
        <time>2021-03-07T09:41:21.516Z</time>
      </trkpt>
      <trkpt lat="45.58078" lon="5.28222">
        <ele>340</ele>
        <time>2021-03-07T09:41:22.517Z</time>
      </trkpt>
      <trkpt lat="45.58075" lon="5.28221">
        <ele>341</ele>
        <time>2021-03-07T09:41:23.517Z</time>
      </trkpt>
      <trkpt lat="45.58071" lon="5.28221">
        <ele>341</ele>
        <time>2021-03-07T09:41:24.517Z</time>
      </trkpt>
      <trkpt lat="45.58067" lon="5.28222">
        <ele>342</ele>
        <time>2021-03-07T09:41:25.516Z</time>
      </trkpt>
      <trkpt lat="45.58064" lon="5.28222">
        <ele>342</ele>
        <time>2021-03-07T09:41:26.517Z</time>
      </trkpt>
      <trkpt lat="45.5806" lon="5.28223">
        <ele>343</ele>
        <time>2021-03-07T09:41:27.517Z</time>
      </trkpt>
      <trkpt lat="45.58056" lon="5.28223">
        <ele>343</ele>
        <time>2021-03-07T09:41:28.517Z</time>
      </trkpt>
      <trkpt lat="45.58053" lon="5.28224">
        <ele>344</ele>
        <time>2021-03-07T09:41:29.517Z</time>
      </trkpt>
      <trkpt lat="45.5805" lon="5.28225">
        <ele>345</ele>
        <time>2021-03-07T09:41:30.517Z</time>
      </trkpt>
      <trkpt lat="45.58046" lon="5.28226">
        <ele>346</ele>
        <time>2021-03-07T09:41:31.516Z</time>
      </trkpt>
      <trkpt lat="45.58042" lon="5.28227">
        <ele>347</ele>
        <time>2021-03-07T09:41:32.517Z</time>
      </trkpt>
      <trkpt lat="45.58039" lon="5.28227">
        <ele>348</ele>
        <time>2021-03-07T09:41:33.516Z</time>
      </trkpt>
      <trkpt lat="45.58035" lon="5.28228">
        <ele>348</ele>
        <time>2021-03-07T09:41:34.516Z</time>
      </trkpt>
      <trkpt lat="45.58031" lon="5.2823">
        <ele>349</ele>
        <time>2021-03-07T09:41:35.516Z</time>
      </trkpt>
      <trkpt lat="45.58028" lon="5.28231">
        <ele>349</ele>
        <time>2021-03-07T09:41:36.517Z</time>
      </trkpt>
      <trkpt lat="45.58024" lon="5.28233">
        <ele>350</ele>
        <time>2021-03-07T09:41:37.516Z</time>
      </trkpt>
      <trkpt lat="45.58021" lon="5.28234">
        <ele>350</ele>
        <time>2021-03-07T09:41:38.517Z</time>
      </trkpt>
      <trkpt lat="45.58017" lon="5.28235">
        <ele>351</ele>
        <time>2021-03-07T09:41:39.517Z</time>
      </trkpt>
      <trkpt lat="45.58013" lon="5.28236">
        <ele>350</ele>
        <time>2021-03-07T09:41:40.517Z</time>
      </trkpt>
      <trkpt lat="45.58009" lon="5.28237">
        <ele>350</ele>
        <time>2021-03-07T09:41:41.516Z</time>
      </trkpt>
      <trkpt lat="45.58005" lon="5.28238">
        <ele>350</ele>
        <time>2021-03-07T09:41:42.517Z</time>
      </trkpt>
      <trkpt lat="45.58001" lon="5.28239">
        <ele>350</ele>
        <time>2021-03-07T09:41:43.517Z</time>
      </trkpt>
      <trkpt lat="45.57998" lon="5.2824">
        <ele>349</ele>
        <time>2021-03-07T09:41:44.517Z</time>
      </trkpt>
      <trkpt lat="45.57994" lon="5.2824">
        <ele>348</ele>
        <time>2021-03-07T09:41:45.516Z</time>
      </trkpt>
      <trkpt lat="45.5799" lon="5.28242">
        <ele>348</ele>
        <time>2021-03-07T09:41:46.517Z</time>
      </trkpt>
      <trkpt lat="45.57986" lon="5.28244">
        <ele>347</ele>
        <time>2021-03-07T09:41:47.517Z</time>
      </trkpt>
      <trkpt lat="45.57983" lon="5.28246">
        <ele>347</ele>
        <time>2021-03-07T09:41:48.517Z</time>
      </trkpt>
      <trkpt lat="45.57979" lon="5.28249">
        <ele>347</ele>
        <time>2021-03-07T09:41:49.517Z</time>
      </trkpt>
      <trkpt lat="45.57976" lon="5.28253">
        <ele>347</ele>
        <time>2021-03-07T09:41:50.517Z</time>
      </trkpt>
      <trkpt lat="45.57973" lon="5.28257">
        <ele>347</ele>
        <time>2021-03-07T09:41:51.517Z</time>
      </trkpt>
      <trkpt lat="45.5797" lon="5.28262">
        <ele>347</ele>
        <time>2021-03-07T09:41:52.517Z</time>
      </trkpt>
      <trkpt lat="45.57968" lon="5.28267">
        <ele>347</ele>
        <time>2021-03-07T09:41:53.517Z</time>
      </trkpt>
      <trkpt lat="45.57966" lon="5.28272">
        <ele>346</ele>
        <time>2021-03-07T09:41:54.517Z</time>
      </trkpt>
      <trkpt lat="45.57965" lon="5.28278">
        <ele>346</ele>
        <time>2021-03-07T09:41:55.516Z</time>
      </trkpt>
      <trkpt lat="45.57963" lon="5.28284">
        <ele>346</ele>
        <time>2021-03-07T09:41:56.517Z</time>
      </trkpt>
      <trkpt lat="45.57961" lon="5.2829">
        <ele>345</ele>
        <time>2021-03-07T09:41:57.517Z</time>
      </trkpt>
      <trkpt lat="45.57959" lon="5.28295">
        <ele>345</ele>
        <time>2021-03-07T09:41:58.517Z</time>
      </trkpt>
      <trkpt lat="45.57957" lon="5.28301">
        <ele>345</ele>
        <time>2021-03-07T09:41:59.517Z</time>
      </trkpt>
      <trkpt lat="45.57956" lon="5.28307">
        <ele>345</ele>
        <time>2021-03-07T09:42:00.517Z</time>
      </trkpt>
      <trkpt lat="45.57954" lon="5.28313">
        <ele>345</ele>
        <time>2021-03-07T09:42:01.517Z</time>
      </trkpt>
      <trkpt lat="45.57952" lon="5.28319">
        <ele>346</ele>
        <time>2021-03-07T09:42:02.517Z</time>
      </trkpt>
      <trkpt lat="45.5795" lon="5.28325">
        <ele>346</ele>
        <time>2021-03-07T09:42:03.517Z</time>
      </trkpt>
      <trkpt lat="45.57949" lon="5.2833">
        <ele>346</ele>
        <time>2021-03-07T09:42:04.517Z</time>
      </trkpt>
      <trkpt lat="45.57947" lon="5.28336">
        <ele>346</ele>
        <time>2021-03-07T09:42:05.517Z</time>
      </trkpt>
      <trkpt lat="45.57945" lon="5.28342">
        <ele>346</ele>
        <time>2021-03-07T09:42:06.516Z</time>
      </trkpt>
      <trkpt lat="45.57943" lon="5.28348">
        <ele>346</ele>
        <time>2021-03-07T09:42:07.517Z</time>
      </trkpt>
      <trkpt lat="45.57941" lon="5.28353">
        <ele>347</ele>
        <time>2021-03-07T09:42:08.517Z</time>
      </trkpt>
      <trkpt lat="45.5794" lon="5.28358">
        <ele>347</ele>
        <time>2021-03-07T09:42:09.517Z</time>
      </trkpt>
      <trkpt lat="45.57938" lon="5.28364">
        <ele>346</ele>
        <time>2021-03-07T09:42:10.516Z</time>
      </trkpt>
      <trkpt lat="45.57936" lon="5.28369">
        <ele>347</ele>
        <time>2021-03-07T09:42:11.517Z</time>
      </trkpt>
      <trkpt lat="45.57933" lon="5.28374">
        <ele>347</ele>
        <time>2021-03-07T09:42:12.517Z</time>
      </trkpt>
      <trkpt lat="45.57931" lon="5.28378">
        <ele>347</ele>
        <time>2021-03-07T09:42:13.517Z</time>
      </trkpt>
      <trkpt lat="45.57928" lon="5.28382">
        <ele>347</ele>
        <time>2021-03-07T09:42:14.516Z</time>
      </trkpt>
      <trkpt lat="45.57924" lon="5.28385">
        <ele>347</ele>
        <time>2021-03-07T09:42:15.517Z</time>
      </trkpt>
      <trkpt lat="45.57921" lon="5.28388">
        <ele>347</ele>
        <time>2021-03-07T09:42:16.517Z</time>
      </trkpt>
      <trkpt lat="45.57917" lon="5.28389">
        <ele>347</ele>
        <time>2021-03-07T09:42:17.517Z</time>
      </trkpt>
      <trkpt lat="45.57913" lon="5.2839">
        <ele>347</ele>
        <time>2021-03-07T09:42:18.517Z</time>
      </trkpt>
      <trkpt lat="45.57909" lon="5.28389">
        <ele>347</ele>
        <time>2021-03-07T09:42:19.517Z</time>
      </trkpt>
      <trkpt lat="45.57905" lon="5.28388">
        <ele>347</ele>
        <time>2021-03-07T09:42:20.517Z</time>
      </trkpt>
      <trkpt lat="45.57901" lon="5.28387">
        <ele>347</ele>
        <time>2021-03-07T09:42:21.517Z</time>
      </trkpt>
      <trkpt lat="45.57897" lon="5.28385">
        <ele>347</ele>
        <time>2021-03-07T09:42:22.517Z</time>
      </trkpt>
      <trkpt lat="45.57893" lon="5.28384">
        <ele>347</ele>
        <time>2021-03-07T09:42:23.517Z</time>
      </trkpt>
      <trkpt lat="45.57889" lon="5.28382">
        <ele>347</ele>
        <time>2021-03-07T09:42:24.517Z</time>
      </trkpt>
      <trkpt lat="45.57885" lon="5.2838">
        <ele>347</ele>
        <time>2021-03-07T09:42:25.517Z</time>
      </trkpt>
      <trkpt lat="45.57882" lon="5.28379">
        <ele>348</ele>
        <time>2021-03-07T09:42:26.517Z</time>
      </trkpt>
      <trkpt lat="45.57878" lon="5.28377">
        <ele>348</ele>
        <time>2021-03-07T09:42:27.517Z</time>
      </trkpt>
      <trkpt lat="45.57874" lon="5.28375">
        <ele>348</ele>
        <time>2021-03-07T09:42:28.516Z</time>
      </trkpt>
      <trkpt lat="45.5787" lon="5.28374">
        <ele>348</ele>
        <time>2021-03-07T09:42:29.517Z</time>
      </trkpt>
      <trkpt lat="45.57866" lon="5.28372">
        <ele>348</ele>
        <time>2021-03-07T09:42:30.517Z</time>
      </trkpt>
      <trkpt lat="45.57862" lon="5.2837">
        <ele>348</ele>
        <time>2021-03-07T09:42:31.517Z</time>
      </trkpt>
      <trkpt lat="45.57859" lon="5.28368">
        <ele>348</ele>
        <time>2021-03-07T09:42:32.517Z</time>
      </trkpt>
      <trkpt lat="45.57855" lon="5.28366">
        <ele>348</ele>
        <time>2021-03-07T09:42:33.517Z</time>
      </trkpt>
      <trkpt lat="45.57851" lon="5.28365">
        <ele>348</ele>
        <time>2021-03-07T09:42:34.517Z</time>
      </trkpt>
      <trkpt lat="45.57848" lon="5.28363">
        <ele>348</ele>
        <time>2021-03-07T09:42:35.517Z</time>
      </trkpt>
      <trkpt lat="45.57844" lon="5.28362">
        <ele>348</ele>
        <time>2021-03-07T09:42:36.517Z</time>
      </trkpt>
      <trkpt lat="45.5784" lon="5.28361">
        <ele>348</ele>
        <time>2021-03-07T09:42:37.517Z</time>
      </trkpt>
      <trkpt lat="45.57837" lon="5.2836">
        <ele>349</ele>
        <time>2021-03-07T09:42:38.517Z</time>
      </trkpt>
      <trkpt lat="45.57833" lon="5.28361">
        <ele>349</ele>
        <time>2021-03-07T09:42:39.517Z</time>
      </trkpt>
      <trkpt lat="45.5783" lon="5.28363">
        <ele>349</ele>
        <time>2021-03-07T09:42:40.517Z</time>
      </trkpt>
      <trkpt lat="45.57828" lon="5.28367">
        <ele>350</ele>
        <time>2021-03-07T09:42:41.516Z</time>
      </trkpt>
      <trkpt lat="45.57825" lon="5.28371">
        <ele>350</ele>
        <time>2021-03-07T09:42:42.517Z</time>
      </trkpt>
      <trkpt lat="45.57824" lon="5.28376">
        <ele>350</ele>
        <time>2021-03-07T09:42:43.517Z</time>
      </trkpt>
      <trkpt lat="45.57822" lon="5.28382">
        <ele>351</ele>
        <time>2021-03-07T09:42:44.516Z</time>
      </trkpt>
      <trkpt lat="45.57821" lon="5.28387">
        <ele>351</ele>
        <time>2021-03-07T09:42:45.517Z</time>
      </trkpt>
      <trkpt lat="45.5782" lon="5.28393">
        <ele>351</ele>
        <time>2021-03-07T09:42:46.517Z</time>
      </trkpt>
      <trkpt lat="45.57819" lon="5.28399">
        <ele>352</ele>
        <time>2021-03-07T09:42:47.516Z</time>
      </trkpt>
      <trkpt lat="45.57818" lon="5.28405">
        <ele>352</ele>
        <time>2021-03-07T09:42:48.516Z</time>
      </trkpt>
      <trkpt lat="45.57817" lon="5.28411">
        <ele>352</ele>
        <time>2021-03-07T09:42:49.517Z</time>
      </trkpt>
      <trkpt lat="45.57817" lon="5.28417">
        <ele>352</ele>
        <time>2021-03-07T09:42:50.517Z</time>
      </trkpt>
      <trkpt lat="45.57816" lon="5.28423">
        <ele>352</ele>
        <time>2021-03-07T09:42:51.517Z</time>
      </trkpt>
      <trkpt lat="45.57815" lon="5.28429">
        <ele>352</ele>
        <time>2021-03-07T09:42:52.517Z</time>
      </trkpt>
      <trkpt lat="45.57814" lon="5.28435">
        <ele>353</ele>
        <time>2021-03-07T09:42:53.516Z</time>
      </trkpt>
      <trkpt lat="45.57813" lon="5.28442">
        <ele>353</ele>
        <time>2021-03-07T09:42:54.517Z</time>
      </trkpt>
      <trkpt lat="45.57813" lon="5.28448">
        <ele>353</ele>
        <time>2021-03-07T09:42:55.517Z</time>
      </trkpt>
      <trkpt lat="45.57812" lon="5.28455">
        <ele>353</ele>
        <time>2021-03-07T09:42:56.517Z</time>
      </trkpt>
      <trkpt lat="45.57811" lon="5.28461">
        <ele>353</ele>
        <time>2021-03-07T09:42:57.517Z</time>
      </trkpt>
      <trkpt lat="45.5781" lon="5.28467">
        <ele>354</ele>
        <time>2021-03-07T09:42:58.517Z</time>
      </trkpt>
      <trkpt lat="45.57809" lon="5.28474">
        <ele>354</ele>
        <time>2021-03-07T09:42:59.517Z</time>
      </trkpt>
      <trkpt lat="45.57808" lon="5.2848">
        <ele>354</ele>
        <time>2021-03-07T09:43:00.517Z</time>
      </trkpt>
      <trkpt lat="45.57807" lon="5.28486">
        <ele>354</ele>
        <time>2021-03-07T09:43:01.517Z</time>
      </trkpt>
      <trkpt lat="45.57806" lon="5.28493">
        <ele>353</ele>
        <time>2021-03-07T09:43:02.517Z</time>
      </trkpt>
      <trkpt lat="45.57805" lon="5.28499">
        <ele>353</ele>
        <time>2021-03-07T09:43:03.517Z</time>
      </trkpt>
      <trkpt lat="45.57804" lon="5.28505">
        <ele>353</ele>
        <time>2021-03-07T09:43:04.517Z</time>
      </trkpt>
      <trkpt lat="45.57803" lon="5.28511">
        <ele>353</ele>
        <time>2021-03-07T09:43:05.517Z</time>
      </trkpt>
      <trkpt lat="45.57802" lon="5.28518">
        <ele>353</ele>
        <time>2021-03-07T09:43:06.517Z</time>
      </trkpt>
      <trkpt lat="45.57801" lon="5.28524">
        <ele>353</ele>
        <time>2021-03-07T09:43:07.517Z</time>
      </trkpt>
      <trkpt lat="45.57801" lon="5.2853">
        <ele>353</ele>
        <time>2021-03-07T09:43:08.517Z</time>
      </trkpt>
      <trkpt lat="45.578" lon="5.28536">
        <ele>353</ele>
        <time>2021-03-07T09:43:09.517Z</time>
      </trkpt>
      <trkpt lat="45.57799" lon="5.28543">
        <ele>353</ele>
        <time>2021-03-07T09:43:10.517Z</time>
      </trkpt>
      <trkpt lat="45.57799" lon="5.28549">
        <ele>354</ele>
        <time>2021-03-07T09:43:11.517Z</time>
      </trkpt>
      <trkpt lat="45.57798" lon="5.28556">
        <ele>354</ele>
        <time>2021-03-07T09:43:12.517Z</time>
      </trkpt>
      <trkpt lat="45.57797" lon="5.28562">
        <ele>353</ele>
        <time>2021-03-07T09:43:13.517Z</time>
      </trkpt>
      <trkpt lat="45.57797" lon="5.28569">
        <ele>353</ele>
        <time>2021-03-07T09:43:14.517Z</time>
      </trkpt>
      <trkpt lat="45.57796" lon="5.28576">
        <ele>353</ele>
        <time>2021-03-07T09:43:15.517Z</time>
      </trkpt>
      <trkpt lat="45.57796" lon="5.28582">
        <ele>353</ele>
        <time>2021-03-07T09:43:16.517Z</time>
      </trkpt>
      <trkpt lat="45.57796" lon="5.28589">
        <ele>353</ele>
        <time>2021-03-07T09:43:17.517Z</time>
      </trkpt>
      <trkpt lat="45.57795" lon="5.28596">
        <ele>353</ele>
        <time>2021-03-07T09:43:18.517Z</time>
      </trkpt>
      <trkpt lat="45.57795" lon="5.28602">
        <ele>354</ele>
        <time>2021-03-07T09:43:19.517Z</time>
      </trkpt>
      <trkpt lat="45.57795" lon="5.28609">
        <ele>354</ele>
        <time>2021-03-07T09:43:20.517Z</time>
      </trkpt>
      <trkpt lat="45.57794" lon="5.28616">
        <ele>354</ele>
        <time>2021-03-07T09:43:21.517Z</time>
      </trkpt>
      <trkpt lat="45.57794" lon="5.28622">
        <ele>354</ele>
        <time>2021-03-07T09:43:22.516Z</time>
      </trkpt>
      <trkpt lat="45.57793" lon="5.28629">
        <ele>355</ele>
        <time>2021-03-07T09:43:23.517Z</time>
      </trkpt>
      <trkpt lat="45.57793" lon="5.28636">
        <ele>355</ele>
        <time>2021-03-07T09:43:24.516Z</time>
      </trkpt>
      <trkpt lat="45.57792" lon="5.28642">
        <ele>355</ele>
        <time>2021-03-07T09:43:25.517Z</time>
      </trkpt>
      <trkpt lat="45.57792" lon="5.28649">
        <ele>355</ele>
        <time>2021-03-07T09:43:26.516Z</time>
      </trkpt>
      <trkpt lat="45.57791" lon="5.28655">
        <ele>355</ele>
        <time>2021-03-07T09:43:27.516Z</time>
      </trkpt>
      <trkpt lat="45.57791" lon="5.28662">
        <ele>355</ele>
        <time>2021-03-07T09:43:28.516Z</time>
      </trkpt>
      <trkpt lat="45.5779" lon="5.28668">
        <ele>355</ele>
        <time>2021-03-07T09:43:29.516Z</time>
      </trkpt>
      <trkpt lat="45.57789" lon="5.28674">
        <ele>356</ele>
        <time>2021-03-07T09:43:30.517Z</time>
      </trkpt>
      <trkpt lat="45.57789" lon="5.2868">
        <ele>356</ele>
        <time>2021-03-07T09:43:31.517Z</time>
      </trkpt>
      <trkpt lat="45.57788" lon="5.28687">
        <ele>356</ele>
        <time>2021-03-07T09:43:32.517Z</time>
      </trkpt>
      <trkpt lat="45.57787" lon="5.28693">
        <ele>356</ele>
        <time>2021-03-07T09:43:33.517Z</time>
      </trkpt>
      <trkpt lat="45.57786" lon="5.28699">
        <ele>356</ele>
        <time>2021-03-07T09:43:34.517Z</time>
      </trkpt>
      <trkpt lat="45.57785" lon="5.28706">
        <ele>356</ele>
        <time>2021-03-07T09:43:35.517Z</time>
      </trkpt>
      <trkpt lat="45.57785" lon="5.28712">
        <ele>356</ele>
        <time>2021-03-07T09:43:36.517Z</time>
      </trkpt>
      <trkpt lat="45.57784" lon="5.28719">
        <ele>357</ele>
        <time>2021-03-07T09:43:37.516Z</time>
      </trkpt>
      <trkpt lat="45.57783" lon="5.28725">
        <ele>357</ele>
        <time>2021-03-07T09:43:38.517Z</time>
      </trkpt>
      <trkpt lat="45.57783" lon="5.28731">
        <ele>357</ele>
        <time>2021-03-07T09:43:39.516Z</time>
      </trkpt>
      <trkpt lat="45.57783" lon="5.28738">
        <ele>357</ele>
        <time>2021-03-07T09:43:40.517Z</time>
      </trkpt>
      <trkpt lat="45.57782" lon="5.28744">
        <ele>358</ele>
        <time>2021-03-07T09:43:41.517Z</time>
      </trkpt>
      <trkpt lat="45.57782" lon="5.28751">
        <ele>358</ele>
        <time>2021-03-07T09:43:42.517Z</time>
      </trkpt>
      <trkpt lat="45.57782" lon="5.28757">
        <ele>358</ele>
        <time>2021-03-07T09:43:43.517Z</time>
      </trkpt>
      <trkpt lat="45.57782" lon="5.28764">
        <ele>358</ele>
        <time>2021-03-07T09:43:44.517Z</time>
      </trkpt>
      <trkpt lat="45.57781" lon="5.2877">
        <ele>359</ele>
        <time>2021-03-07T09:43:45.516Z</time>
      </trkpt>
      <trkpt lat="45.57781" lon="5.28777">
        <ele>359</ele>
        <time>2021-03-07T09:43:46.517Z</time>
      </trkpt>
      <trkpt lat="45.57781" lon="5.28784">
        <ele>359</ele>
        <time>2021-03-07T09:43:47.517Z</time>
      </trkpt>
      <trkpt lat="45.57781" lon="5.2879">
        <ele>359</ele>
        <time>2021-03-07T09:43:48.517Z</time>
      </trkpt>
      <trkpt lat="45.57781" lon="5.28797">
        <ele>360</ele>
        <time>2021-03-07T09:43:49.517Z</time>
      </trkpt>
      <trkpt lat="45.57781" lon="5.28803">
        <ele>360</ele>
        <time>2021-03-07T09:43:50.517Z</time>
      </trkpt>
      <trkpt lat="45.57781" lon="5.2881">
        <ele>360</ele>
        <time>2021-03-07T09:43:51.516Z</time>
      </trkpt>
      <trkpt lat="45.57782" lon="5.28817">
        <ele>360</ele>
        <time>2021-03-07T09:43:52.517Z</time>
      </trkpt>
      <trkpt lat="45.57782" lon="5.28823">
        <ele>360</ele>
        <time>2021-03-07T09:43:53.517Z</time>
      </trkpt>
      <trkpt lat="45.57782" lon="5.2883">
        <ele>360</ele>
        <time>2021-03-07T09:43:54.516Z</time>
      </trkpt>
      <trkpt lat="45.57783" lon="5.28836">
        <ele>359</ele>
        <time>2021-03-07T09:43:55.516Z</time>
      </trkpt>
      <trkpt lat="45.57784" lon="5.28843">
        <ele>359</ele>
        <time>2021-03-07T09:43:56.517Z</time>
      </trkpt>
      <trkpt lat="45.57785" lon="5.28849">
        <ele>358</ele>
        <time>2021-03-07T09:43:57.517Z</time>
      </trkpt>
      <trkpt lat="45.57787" lon="5.28856">
        <ele>358</ele>
        <time>2021-03-07T09:43:58.516Z</time>
      </trkpt>
      <trkpt lat="45.57788" lon="5.28863">
        <ele>358</ele>
        <time>2021-03-07T09:43:59.517Z</time>
      </trkpt>
      <trkpt lat="45.57791" lon="5.2887">
        <ele>358</ele>
        <time>2021-03-07T09:44:00.517Z</time>
      </trkpt>
      <trkpt lat="45.57793" lon="5.28877">
        <ele>358</ele>
        <time>2021-03-07T09:44:01.517Z</time>
      </trkpt>
      <trkpt lat="45.57795" lon="5.28884">
        <ele>358</ele>
        <time>2021-03-07T09:44:02.517Z</time>
      </trkpt>
      <trkpt lat="45.57797" lon="5.28891">
        <ele>358</ele>
        <time>2021-03-07T09:44:03.517Z</time>
      </trkpt>
      <trkpt lat="45.578" lon="5.28898">
        <ele>357</ele>
        <time>2021-03-07T09:44:04.517Z</time>
      </trkpt>
      <trkpt lat="45.57803" lon="5.28906">
        <ele>357</ele>
        <time>2021-03-07T09:44:05.517Z</time>
      </trkpt>
      <trkpt lat="45.57805" lon="5.28914">
        <ele>357</ele>
        <time>2021-03-07T09:44:06.517Z</time>
      </trkpt>
      <trkpt lat="45.57808" lon="5.28922">
        <ele>356</ele>
        <time>2021-03-07T09:44:07.517Z</time>
      </trkpt>
      <trkpt lat="45.57811" lon="5.28932">
        <ele>356</ele>
        <time>2021-03-07T09:44:08.516Z</time>
      </trkpt>
      <trkpt lat="45.57813" lon="5.28942">
        <ele>355</ele>
        <time>2021-03-07T09:44:09.516Z</time>
      </trkpt>
      <trkpt lat="45.57816" lon="5.28952">
        <ele>355</ele>
        <time>2021-03-07T09:44:10.516Z</time>
      </trkpt>
      <trkpt lat="45.57818" lon="5.28963">
        <ele>355</ele>
        <time>2021-03-07T09:44:11.517Z</time>
      </trkpt>
      <trkpt lat="45.57821" lon="5.28974">
        <ele>354</ele>
        <time>2021-03-07T09:44:12.517Z</time>
      </trkpt>
      <trkpt lat="45.57823" lon="5.28985">
        <ele>354</ele>
        <time>2021-03-07T09:44:13.517Z</time>
      </trkpt>
      <trkpt lat="45.57825" lon="5.28997">
        <ele>354</ele>
        <time>2021-03-07T09:44:14.517Z</time>
      </trkpt>
      <trkpt lat="45.57826" lon="5.29008">
        <ele>353</ele>
        <time>2021-03-07T09:44:15.516Z</time>
      </trkpt>
      <trkpt lat="45.57828" lon="5.29019">
        <ele>353</ele>
        <time>2021-03-07T09:44:16.517Z</time>
      </trkpt>
      <trkpt lat="45.5783" lon="5.2903">
        <ele>352</ele>
        <time>2021-03-07T09:44:17.517Z</time>
      </trkpt>
      <trkpt lat="45.57832" lon="5.2904">
        <ele>352</ele>
        <time>2021-03-07T09:44:18.516Z</time>
      </trkpt>
      <trkpt lat="45.57835" lon="5.29051">
        <ele>352</ele>
        <time>2021-03-07T09:44:19.517Z</time>
      </trkpt>
      <trkpt lat="45.57837" lon="5.2906">
        <ele>352</ele>
        <time>2021-03-07T09:44:20.517Z</time>
      </trkpt>
      <trkpt lat="45.5784" lon="5.29069">
        <ele>352</ele>
        <time>2021-03-07T09:44:21.516Z</time>
      </trkpt>
      <trkpt lat="45.57843" lon="5.29076">
        <ele>352</ele>
        <time>2021-03-07T09:44:22.516Z</time>
      </trkpt>
      <trkpt lat="45.57846" lon="5.29081">
        <ele>352</ele>
        <time>2021-03-07T09:44:23.516Z</time>
      </trkpt>
      <trkpt lat="45.5785" lon="5.29084">
        <ele>351</ele>
        <time>2021-03-07T09:44:24.517Z</time>
      </trkpt>
      <trkpt lat="45.57854" lon="5.29085">
        <ele>351</ele>
        <time>2021-03-07T09:44:25.517Z</time>
      </trkpt>
      <trkpt lat="45.57858" lon="5.29084">
        <ele>351</ele>
        <time>2021-03-07T09:44:26.517Z</time>
      </trkpt>
      <trkpt lat="45.57863" lon="5.2908">
        <ele>350</ele>
        <time>2021-03-07T09:44:27.517Z</time>
      </trkpt>
      <trkpt lat="45.57867" lon="5.29075">
        <ele>350</ele>
        <time>2021-03-07T09:44:28.517Z</time>
      </trkpt>
      <trkpt lat="45.57872" lon="5.2907">
        <ele>349</ele>
        <time>2021-03-07T09:44:29.516Z</time>
      </trkpt>
      <trkpt lat="45.57876" lon="5.29065">
        <ele>349</ele>
        <time>2021-03-07T09:44:30.517Z</time>
      </trkpt>
      <trkpt lat="45.5788" lon="5.29058">
        <ele>349</ele>
        <time>2021-03-07T09:44:31.517Z</time>
      </trkpt>
      <trkpt lat="45.57884" lon="5.29051">
        <ele>349</ele>
        <time>2021-03-07T09:44:32.517Z</time>
      </trkpt>
      <trkpt lat="45.57889" lon="5.29046">
        <ele>349</ele>
        <time>2021-03-07T09:44:33.517Z</time>
      </trkpt>
      <trkpt lat="45.57893" lon="5.2904">
        <ele>349</ele>
        <time>2021-03-07T09:44:34.517Z</time>
      </trkpt>
      <trkpt lat="45.57897" lon="5.29035">
        <ele>349</ele>
        <time>2021-03-07T09:44:35.517Z</time>
      </trkpt>
      <trkpt lat="45.57902" lon="5.2903">
        <ele>348</ele>
        <time>2021-03-07T09:44:36.516Z</time>
      </trkpt>
      <trkpt lat="45.57906" lon="5.29024">
        <ele>348</ele>
        <time>2021-03-07T09:44:37.517Z</time>
      </trkpt>
      <trkpt lat="45.5791" lon="5.29019">
        <ele>348</ele>
        <time>2021-03-07T09:44:38.517Z</time>
      </trkpt>
      <trkpt lat="45.57914" lon="5.29014">
        <ele>348</ele>
        <time>2021-03-07T09:44:39.517Z</time>
      </trkpt>
      <trkpt lat="45.57919" lon="5.29009">
        <ele>348</ele>
        <time>2021-03-07T09:44:40.517Z</time>
      </trkpt>
      <trkpt lat="45.57923" lon="5.29003">
        <ele>348</ele>
        <time>2021-03-07T09:44:41.517Z</time>
      </trkpt>
      <trkpt lat="45.57927" lon="5.28998">
        <ele>348</ele>
        <time>2021-03-07T09:44:42.517Z</time>
      </trkpt>
      <trkpt lat="45.57931" lon="5.28993">
        <ele>348</ele>
        <time>2021-03-07T09:44:43.517Z</time>
      </trkpt>
      <trkpt lat="45.57935" lon="5.28987">
        <ele>348</ele>
        <time>2021-03-07T09:44:44.517Z</time>
      </trkpt>
      <trkpt lat="45.57939" lon="5.28982">
        <ele>348</ele>
        <time>2021-03-07T09:44:45.516Z</time>
      </trkpt>
      <trkpt lat="45.57944" lon="5.28976">
        <ele>348</ele>
        <time>2021-03-07T09:44:46.516Z</time>
      </trkpt>
      <trkpt lat="45.57949" lon="5.28971">
        <ele>348</ele>
        <time>2021-03-07T09:44:47.517Z</time>
      </trkpt>
      <trkpt lat="45.57953" lon="5.28965">
        <ele>348</ele>
        <time>2021-03-07T09:44:48.516Z</time>
      </trkpt>
      <trkpt lat="45.57958" lon="5.2896">
        <ele>348</ele>
        <time>2021-03-07T09:44:49.516Z</time>
      </trkpt>
      <trkpt lat="45.57963" lon="5.28954">
        <ele>348</ele>
        <time>2021-03-07T09:44:50.517Z</time>
      </trkpt>
      <trkpt lat="45.57967" lon="5.2895">
        <ele>348</ele>
        <time>2021-03-07T09:44:51.517Z</time>
      </trkpt>
      <trkpt lat="45.57972" lon="5.28945">
        <ele>348</ele>
        <time>2021-03-07T09:44:52.517Z</time>
      </trkpt>
      <trkpt lat="45.57978" lon="5.28939">
        <ele>348</ele>
        <time>2021-03-07T09:44:53.517Z</time>
      </trkpt>
      <trkpt lat="45.57983" lon="5.28935">
        <ele>348</ele>
        <time>2021-03-07T09:44:54.517Z</time>
      </trkpt>
      <trkpt lat="45.57988" lon="5.28931">
        <ele>347</ele>
        <time>2021-03-07T09:44:55.517Z</time>
      </trkpt>
      <trkpt lat="45.57991" lon="5.28928">
        <ele>347</ele>
        <time>2021-03-07T09:44:56.517Z</time>
      </trkpt>
      <trkpt lat="45.57995" lon="5.28925">
        <ele>347</ele>
        <time>2021-03-07T09:44:57.517Z</time>
      </trkpt>
      <trkpt lat="45.57999" lon="5.28922">
        <ele>347</ele>
        <time>2021-03-07T09:44:58.517Z</time>
      </trkpt>
      <trkpt lat="45.58004" lon="5.28919">
        <ele>347</ele>
        <time>2021-03-07T09:44:59.517Z</time>
      </trkpt>
      <trkpt lat="45.58006" lon="5.28917">
        <ele>346</ele>
        <time>2021-03-07T09:45:00.517Z</time>
      </trkpt>
      <trkpt lat="45.5801" lon="5.28914">
        <ele>346</ele>
        <time>2021-03-07T09:45:01.517Z</time>
      </trkpt>
      <trkpt lat="45.58013" lon="5.28911">
        <ele>346</ele>
        <time>2021-03-07T09:45:02.516Z</time>
      </trkpt>
      <trkpt lat="45.58015" lon="5.28909">
        <ele>346</ele>
        <time>2021-03-07T09:45:03.517Z</time>
      </trkpt>
      <trkpt lat="45.58017" lon="5.28907">
        <ele>345</ele>
        <time>2021-03-07T09:45:04.517Z</time>
      </trkpt>
      <trkpt lat="45.58018" lon="5.28906">
        <ele>345</ele>
        <time>2021-03-07T09:45:05.517Z</time>
      </trkpt>
      <trkpt lat="45.58019" lon="5.28905">
        <ele>345</ele>
        <time>2021-03-07T09:45:06.517Z</time>
      </trkpt>
      <trkpt lat="45.5802" lon="5.28904">
        <ele>345</ele>
        <time>2021-03-07T09:45:07.516Z</time>
      </trkpt>
      <trkpt lat="45.58021" lon="5.28903">
        <ele>345</ele>
        <time>2021-03-07T09:45:08.517Z</time>
      </trkpt>
      <trkpt lat="45.58021" lon="5.28903">
        <ele>345</ele>
        <time>2021-03-07T09:45:09.516Z</time>
      </trkpt>
      <trkpt lat="45.58022" lon="5.28903">
        <ele>345</ele>
        <time>2021-03-07T09:45:10.517Z</time>
      </trkpt>
      <trkpt lat="45.58022" lon="5.28903">
        <ele>345</ele>
        <time>2021-03-07T09:45:11.517Z</time>
      </trkpt>
      <trkpt lat="45.58024" lon="5.28906">
        <ele>341</ele>
        <time>2021-03-07T09:45:12.518Z</time>
      </trkpt>
      <trkpt lat="45.58025" lon="5.28905">
        <ele>341</ele>
        <time>2021-03-07T09:45:13.518Z</time>
      </trkpt>
      <trkpt lat="45.58025" lon="5.28905">
        <ele>341</ele>
        <time>2021-03-07T09:45:14.518Z</time>
      </trkpt>
    </trkseg>
  </trk>
</gpx>